<?xml version="1.0" encoding="UTF-8" standalone="no" ?>
<gpx xmlns="http://www.topografix.com/GPX/1/1" xmlns:xsi="http://www.w3.org/2001/XMLSchema-instance" xsi:schemaLocation="http://www.topografix.com/GPX/1/1 http://www.topografix.com/GPX/1/1/gpx.xsd" version="1.1" creator="VisuGPX - https://www.visugpx.com">
  <metadata>
    <name>VTT du mercredi 11 avril 2018</name>
    <desc><![CDATA[Un parcours classique, sous le soleil, mais avec la montée à pied du bois du Champs Rougeot (km 2,5) puis le contournement d'un arbre déraciné. Ensuite c'était plutôt bien, sauf pour Chris dont le vélo roulait en freinant. A noter que les femmes ne se souvenaient plus du chemin nous amenant sur la N 19 ...]]></desc>
  </metadata>
  <trk>
    <name><![CDATA[2018-04-11 09:34]]></name>
    <desc><![CDATA[<p>Heure de départ: 04/11/2018 09:34<br/>Heure d'arrivée: 04/11/2018 11:47<br/>Distance: 23,7 km (02:13)<br/>Temps déplacement: 01:49<br/>Vitesse moyenne: 10,63 km/h<br/>Vitesse moyenne mouv.: 12,96 km/h<br/>Vitesse Max.: 44,53 km/h<br/>Altitude minimale: 204 m<br/>Altitude maximale: 309 m<br/>Vitesse de montée: 150,7 m/h<br/>Vitesse de descente: -341,8 m/h<br/>Gain d'altitude: 150 m<br/>Perte d'altitude: -160 m<br/>Temps de montée: 01:00<br/>Temps de descente: 00:28<br/></p><hr align="center" width="480" style="height: 2px; width: 517px"/>]]></desc>
    <trkseg>
      <trkpt lat="47.68622" lon="6.04541">
        <ele>227.05</ele>
        <time>2018-04-11T07:34:18Z</time>
      </trkpt>
      <trkpt lat="47.68626" lon="6.04544">
        <ele>228.97</ele>
        <time>2018-04-11T07:34:32Z</time>
      </trkpt>
      <trkpt lat="47.68627" lon="6.04538">
        <ele>230.72</ele>
        <time>2018-04-11T07:35:12Z</time>
      </trkpt>
      <trkpt lat="47.68632" lon="6.04533">
        <ele>230.76</ele>
        <time>2018-04-11T07:35:15Z</time>
      </trkpt>
      <trkpt lat="47.68637" lon="6.04534">
        <ele>230.86</ele>
        <time>2018-04-11T07:35:17Z</time>
      </trkpt>
      <trkpt lat="47.68641" lon="6.04538">
        <ele>230.97</ele>
        <time>2018-04-11T07:35:19Z</time>
      </trkpt>
      <trkpt lat="47.68645" lon="6.04541">
        <ele>231.05</ele>
        <time>2018-04-11T07:35:21Z</time>
      </trkpt>
      <trkpt lat="47.6865" lon="6.04545">
        <ele>231.12</ele>
        <time>2018-04-11T07:35:23Z</time>
      </trkpt>
      <trkpt lat="47.68654" lon="6.0455">
        <ele>231.19</ele>
        <time>2018-04-11T07:35:25Z</time>
      </trkpt>
      <trkpt lat="47.68658" lon="6.04555">
        <ele>231.24</ele>
        <time>2018-04-11T07:35:27Z</time>
      </trkpt>
      <trkpt lat="47.68662" lon="6.0456">
        <ele>231.27</ele>
        <time>2018-04-11T07:35:29Z</time>
      </trkpt>
      <trkpt lat="47.68667" lon="6.04568">
        <ele>231.29</ele>
        <time>2018-04-11T07:35:31Z</time>
      </trkpt>
      <trkpt lat="47.68672" lon="6.04575">
        <ele>231.3</ele>
        <time>2018-04-11T07:35:33Z</time>
      </trkpt>
      <trkpt lat="47.68674" lon="6.04583">
        <ele>231.29</ele>
        <time>2018-04-11T07:35:35Z</time>
      </trkpt>
      <trkpt lat="47.68677" lon="6.04591">
        <ele>231.26</ele>
        <time>2018-04-11T07:35:37Z</time>
      </trkpt>
      <trkpt lat="47.68679" lon="6.04598">
        <ele>231.21</ele>
        <time>2018-04-11T07:35:39Z</time>
      </trkpt>
      <trkpt lat="47.68682" lon="6.04604">
        <ele>231.17</ele>
        <time>2018-04-11T07:35:41Z</time>
      </trkpt>
      <trkpt lat="47.68684" lon="6.04611">
        <ele>231.12</ele>
        <time>2018-04-11T07:35:43Z</time>
      </trkpt>
      <trkpt lat="47.68688" lon="6.04618">
        <ele>231.07</ele>
        <time>2018-04-11T07:35:45Z</time>
      </trkpt>
      <trkpt lat="47.68691" lon="6.04626">
        <ele>231.02</ele>
        <time>2018-04-11T07:35:47Z</time>
      </trkpt>
      <trkpt lat="47.68694" lon="6.04634">
        <ele>231</ele>
        <time>2018-04-11T07:35:49Z</time>
      </trkpt>
      <trkpt lat="47.68698" lon="6.04642">
        <ele>230.98</ele>
        <time>2018-04-11T07:35:51Z</time>
      </trkpt>
      <trkpt lat="47.68702" lon="6.0465">
        <ele>230.97</ele>
        <time>2018-04-11T07:35:53Z</time>
      </trkpt>
      <trkpt lat="47.68706" lon="6.04658">
        <ele>230.96</ele>
        <time>2018-04-11T07:35:55Z</time>
      </trkpt>
      <trkpt lat="47.6871" lon="6.04665">
        <ele>230.95</ele>
        <time>2018-04-11T07:35:57Z</time>
      </trkpt>
      <trkpt lat="47.68713" lon="6.04673">
        <ele>230.92</ele>
        <time>2018-04-11T07:35:59Z</time>
      </trkpt>
      <trkpt lat="47.68717" lon="6.04681">
        <ele>230.9</ele>
        <time>2018-04-11T07:36:01Z</time>
      </trkpt>
      <trkpt lat="47.68721" lon="6.0469">
        <ele>230.86</ele>
        <time>2018-04-11T07:36:03Z</time>
      </trkpt>
      <trkpt lat="47.68726" lon="6.04699">
        <ele>230.82</ele>
        <time>2018-04-11T07:36:05Z</time>
      </trkpt>
      <trkpt lat="47.6873" lon="6.04708">
        <ele>230.78</ele>
        <time>2018-04-11T07:36:07Z</time>
      </trkpt>
      <trkpt lat="47.68733" lon="6.04716">
        <ele>230.74</ele>
        <time>2018-04-11T07:36:09Z</time>
      </trkpt>
      <trkpt lat="47.68735" lon="6.04725">
        <ele>230.69</ele>
        <time>2018-04-11T07:36:11Z</time>
      </trkpt>
      <trkpt lat="47.68738" lon="6.04734">
        <ele>230.64</ele>
        <time>2018-04-11T07:36:13Z</time>
      </trkpt>
      <trkpt lat="47.68741" lon="6.04744">
        <ele>230.6</ele>
        <time>2018-04-11T07:36:15Z</time>
      </trkpt>
      <trkpt lat="47.68744" lon="6.04753">
        <ele>230.57</ele>
        <time>2018-04-11T07:36:17Z</time>
      </trkpt>
      <trkpt lat="47.68747" lon="6.04762">
        <ele>230.53</ele>
        <time>2018-04-11T07:36:19Z</time>
      </trkpt>
      <trkpt lat="47.6875" lon="6.04772">
        <ele>230.5</ele>
        <time>2018-04-11T07:36:21Z</time>
      </trkpt>
      <trkpt lat="47.68753" lon="6.04783">
        <ele>230.18</ele>
        <time>2018-04-11T07:36:23Z</time>
      </trkpt>
      <trkpt lat="47.68757" lon="6.04795">
        <ele>229.88</ele>
        <time>2018-04-11T07:36:25Z</time>
      </trkpt>
      <trkpt lat="47.68759" lon="6.04802">
        <ele>229.75</ele>
        <time>2018-04-11T07:36:26Z</time>
      </trkpt>
      <trkpt lat="47.6876" lon="6.04808">
        <ele>229.63</ele>
        <time>2018-04-11T07:36:27Z</time>
      </trkpt>
      <trkpt lat="47.68762" lon="6.04815">
        <ele>229.54</ele>
        <time>2018-04-11T07:36:28Z</time>
      </trkpt>
      <trkpt lat="47.68764" lon="6.04821">
        <ele>229.47</ele>
        <time>2018-04-11T07:36:29Z</time>
      </trkpt>
      <trkpt lat="47.68766" lon="6.04828">
        <ele>229.41</ele>
        <time>2018-04-11T07:36:30Z</time>
      </trkpt>
      <trkpt lat="47.68769" lon="6.04835">
        <ele>229.34</ele>
        <time>2018-04-11T07:36:31Z</time>
      </trkpt>
      <trkpt lat="47.68771" lon="6.04843">
        <ele>229.28</ele>
        <time>2018-04-11T07:36:32Z</time>
      </trkpt>
      <trkpt lat="47.68773" lon="6.0485">
        <ele>229.22</ele>
        <time>2018-04-11T07:36:33Z</time>
      </trkpt>
      <trkpt lat="47.68775" lon="6.04858">
        <ele>229.15</ele>
        <time>2018-04-11T07:36:34Z</time>
      </trkpt>
      <trkpt lat="47.68776" lon="6.04865">
        <ele>229.09</ele>
        <time>2018-04-11T07:36:35Z</time>
      </trkpt>
      <trkpt lat="47.68778" lon="6.04873">
        <ele>229.03</ele>
        <time>2018-04-11T07:36:36Z</time>
      </trkpt>
      <trkpt lat="47.6878" lon="6.0488">
        <ele>228.97</ele>
        <time>2018-04-11T07:36:37Z</time>
      </trkpt>
      <trkpt lat="47.68782" lon="6.04887">
        <ele>228.92</ele>
        <time>2018-04-11T07:36:38Z</time>
      </trkpt>
      <trkpt lat="47.68784" lon="6.04894">
        <ele>228.86</ele>
        <time>2018-04-11T07:36:39Z</time>
      </trkpt>
      <trkpt lat="47.68787" lon="6.04906">
        <ele>228.73</ele>
        <time>2018-04-11T07:36:41Z</time>
      </trkpt>
      <trkpt lat="47.6879" lon="6.04915">
        <ele>228.69</ele>
        <time>2018-04-11T07:36:43Z</time>
      </trkpt>
      <trkpt lat="47.68793" lon="6.04924">
        <ele>228.67</ele>
        <time>2018-04-11T07:36:45Z</time>
      </trkpt>
      <trkpt lat="47.68795" lon="6.04933">
        <ele>228.65</ele>
        <time>2018-04-11T07:36:47Z</time>
      </trkpt>
      <trkpt lat="47.68796" lon="6.0494">
        <ele>228.64</ele>
        <time>2018-04-11T07:36:49Z</time>
      </trkpt>
      <trkpt lat="47.68794" lon="6.04948">
        <ele>228.63</ele>
        <time>2018-04-11T07:36:51Z</time>
      </trkpt>
      <trkpt lat="47.68791" lon="6.04953">
        <ele>228.62</ele>
        <time>2018-04-11T07:36:53Z</time>
      </trkpt>
      <trkpt lat="47.68786" lon="6.04957">
        <ele>228.61</ele>
        <time>2018-04-11T07:36:55Z</time>
      </trkpt>
      <trkpt lat="47.68782" lon="6.04961">
        <ele>228.61</ele>
        <time>2018-04-11T07:36:57Z</time>
      </trkpt>
      <trkpt lat="47.68778" lon="6.04966">
        <ele>228.6</ele>
        <time>2018-04-11T07:36:59Z</time>
      </trkpt>
      <trkpt lat="47.68773" lon="6.04972">
        <ele>228.6</ele>
        <time>2018-04-11T07:37:01Z</time>
      </trkpt>
      <trkpt lat="47.68769" lon="6.04977">
        <ele>228.6</ele>
        <time>2018-04-11T07:37:03Z</time>
      </trkpt>
      <trkpt lat="47.68764" lon="6.04983">
        <ele>228.6</ele>
        <time>2018-04-11T07:37:05Z</time>
      </trkpt>
      <trkpt lat="47.6876" lon="6.04989">
        <ele>228.6</ele>
        <time>2018-04-11T07:37:07Z</time>
      </trkpt>
      <trkpt lat="47.68755" lon="6.04994">
        <ele>228.6</ele>
        <time>2018-04-11T07:37:09Z</time>
      </trkpt>
      <trkpt lat="47.6875" lon="6.05001">
        <ele>228.59</ele>
        <time>2018-04-11T07:37:11Z</time>
      </trkpt>
      <trkpt lat="47.68745" lon="6.05007">
        <ele>228.59</ele>
        <time>2018-04-11T07:37:13Z</time>
      </trkpt>
      <trkpt lat="47.6874" lon="6.05013">
        <ele>228.58</ele>
        <time>2018-04-11T07:37:15Z</time>
      </trkpt>
      <trkpt lat="47.68736" lon="6.05019">
        <ele>228.56</ele>
        <time>2018-04-11T07:37:17Z</time>
      </trkpt>
      <trkpt lat="47.68732" lon="6.05024">
        <ele>228.54</ele>
        <time>2018-04-11T07:37:19Z</time>
      </trkpt>
      <trkpt lat="47.68727" lon="6.05029">
        <ele>228.5</ele>
        <time>2018-04-11T07:37:21Z</time>
      </trkpt>
      <trkpt lat="47.68723" lon="6.05036">
        <ele>228.46</ele>
        <time>2018-04-11T07:37:23Z</time>
      </trkpt>
      <trkpt lat="47.68718" lon="6.05044">
        <ele>228.42</ele>
        <time>2018-04-11T07:37:25Z</time>
      </trkpt>
      <trkpt lat="47.68714" lon="6.05051">
        <ele>228.38</ele>
        <time>2018-04-11T07:37:27Z</time>
      </trkpt>
      <trkpt lat="47.6871" lon="6.05057">
        <ele>228.33</ele>
        <time>2018-04-11T07:37:29Z</time>
      </trkpt>
      <trkpt lat="47.68706" lon="6.05062">
        <ele>228.27</ele>
        <time>2018-04-11T07:37:31Z</time>
      </trkpt>
      <trkpt lat="47.68702" lon="6.05067">
        <ele>228.22</ele>
        <time>2018-04-11T07:37:33Z</time>
      </trkpt>
      <trkpt lat="47.68697" lon="6.05075">
        <ele>228.16</ele>
        <time>2018-04-11T07:37:35Z</time>
      </trkpt>
      <trkpt lat="47.68692" lon="6.05079">
        <ele>228.09</ele>
        <time>2018-04-11T07:37:37Z</time>
      </trkpt>
      <trkpt lat="47.68688" lon="6.05083">
        <ele>228.03</ele>
        <time>2018-04-11T07:37:39Z</time>
      </trkpt>
      <trkpt lat="47.68684" lon="6.05089">
        <ele>227.96</ele>
        <time>2018-04-11T07:37:41Z</time>
      </trkpt>
      <trkpt lat="47.6868" lon="6.05093">
        <ele>227.89</ele>
        <time>2018-04-11T07:37:43Z</time>
      </trkpt>
      <trkpt lat="47.68675" lon="6.05099">
        <ele>227.82</ele>
        <time>2018-04-11T07:37:45Z</time>
      </trkpt>
      <trkpt lat="47.68671" lon="6.05103">
        <ele>227.75</ele>
        <time>2018-04-11T07:37:47Z</time>
      </trkpt>
      <trkpt lat="47.68667" lon="6.05108">
        <ele>227.68</ele>
        <time>2018-04-11T07:37:49Z</time>
      </trkpt>
      <trkpt lat="47.68663" lon="6.05112">
        <ele>227.61</ele>
        <time>2018-04-11T07:37:51Z</time>
      </trkpt>
      <trkpt lat="47.68659" lon="6.05116">
        <ele>227.54</ele>
        <time>2018-04-11T07:37:53Z</time>
      </trkpt>
      <trkpt lat="47.68653" lon="6.05119">
        <ele>227.47</ele>
        <time>2018-04-11T07:37:55Z</time>
      </trkpt>
      <trkpt lat="47.68649" lon="6.05123">
        <ele>227.4</ele>
        <time>2018-04-11T07:37:57Z</time>
      </trkpt>
      <trkpt lat="47.68644" lon="6.05126">
        <ele>227.33</ele>
        <time>2018-04-11T07:37:59Z</time>
      </trkpt>
      <trkpt lat="47.68639" lon="6.0513">
        <ele>227.26</ele>
        <time>2018-04-11T07:38:01Z</time>
      </trkpt>
      <trkpt lat="47.68634" lon="6.05135">
        <ele>227.2</ele>
        <time>2018-04-11T07:38:03Z</time>
      </trkpt>
      <trkpt lat="47.68629" lon="6.05139">
        <ele>227.13</ele>
        <time>2018-04-11T07:38:05Z</time>
      </trkpt>
      <trkpt lat="47.68624" lon="6.05142">
        <ele>227.07</ele>
        <time>2018-04-11T07:38:07Z</time>
      </trkpt>
      <trkpt lat="47.68619" lon="6.05146">
        <ele>227.01</ele>
        <time>2018-04-11T07:38:09Z</time>
      </trkpt>
      <trkpt lat="47.68615" lon="6.0515">
        <ele>226.95</ele>
        <time>2018-04-11T07:38:11Z</time>
      </trkpt>
      <trkpt lat="47.6861" lon="6.05154">
        <ele>226.89</ele>
        <time>2018-04-11T07:38:13Z</time>
      </trkpt>
      <trkpt lat="47.68605" lon="6.05159">
        <ele>226.83</ele>
        <time>2018-04-11T07:38:15Z</time>
      </trkpt>
      <trkpt lat="47.686" lon="6.05163">
        <ele>226.77</ele>
        <time>2018-04-11T07:38:17Z</time>
      </trkpt>
      <trkpt lat="47.68595" lon="6.05168">
        <ele>226.72</ele>
        <time>2018-04-11T07:38:19Z</time>
      </trkpt>
      <trkpt lat="47.68591" lon="6.05172">
        <ele>226.66</ele>
        <time>2018-04-11T07:38:21Z</time>
      </trkpt>
      <trkpt lat="47.68587" lon="6.05176">
        <ele>226.6</ele>
        <time>2018-04-11T07:38:23Z</time>
      </trkpt>
      <trkpt lat="47.68581" lon="6.0518">
        <ele>226.52</ele>
        <time>2018-04-11T07:38:26Z</time>
      </trkpt>
      <trkpt lat="47.68576" lon="6.05183">
        <ele>226.47</ele>
        <time>2018-04-11T07:38:28Z</time>
      </trkpt>
      <trkpt lat="47.68571" lon="6.05187">
        <ele>226.42</ele>
        <time>2018-04-11T07:38:30Z</time>
      </trkpt>
      <trkpt lat="47.68567" lon="6.05191">
        <ele>226.36</ele>
        <time>2018-04-11T07:38:32Z</time>
      </trkpt>
      <trkpt lat="47.68563" lon="6.05194">
        <ele>226.31</ele>
        <time>2018-04-11T07:38:34Z</time>
      </trkpt>
      <trkpt lat="47.68558" lon="6.052">
        <ele>226.23</ele>
        <time>2018-04-11T07:38:37Z</time>
      </trkpt>
      <trkpt lat="47.68551" lon="6.05204">
        <ele>226.15</ele>
        <time>2018-04-11T07:38:40Z</time>
      </trkpt>
      <trkpt lat="47.68546" lon="6.05208">
        <ele>226.1</ele>
        <time>2018-04-11T07:38:42Z</time>
      </trkpt>
      <trkpt lat="47.68542" lon="6.05212">
        <ele>226.06</ele>
        <time>2018-04-11T07:38:44Z</time>
      </trkpt>
      <trkpt lat="47.68538" lon="6.05217">
        <ele>226.01</ele>
        <time>2018-04-11T07:38:46Z</time>
      </trkpt>
      <trkpt lat="47.68534" lon="6.05221">
        <ele>225.97</ele>
        <time>2018-04-11T07:38:48Z</time>
      </trkpt>
      <trkpt lat="47.68529" lon="6.05223">
        <ele>225.93</ele>
        <time>2018-04-11T07:38:50Z</time>
      </trkpt>
      <trkpt lat="47.68522" lon="6.05225">
        <ele>225.87</ele>
        <time>2018-04-11T07:38:53Z</time>
      </trkpt>
      <trkpt lat="47.68518" lon="6.05231">
        <ele>225.84</ele>
        <time>2018-04-11T07:38:55Z</time>
      </trkpt>
      <trkpt lat="47.68515" lon="6.05235">
        <ele>225.8</ele>
        <time>2018-04-11T07:38:57Z</time>
      </trkpt>
      <trkpt lat="47.68511" lon="6.05239">
        <ele>225.77</ele>
        <time>2018-04-11T07:38:59Z</time>
      </trkpt>
      <trkpt lat="47.68506" lon="6.05242">
        <ele>225.74</ele>
        <time>2018-04-11T07:39:01Z</time>
      </trkpt>
      <trkpt lat="47.68502" lon="6.05245">
        <ele>225.72</ele>
        <time>2018-04-11T07:39:03Z</time>
      </trkpt>
      <trkpt lat="47.68496" lon="6.0525">
        <ele>225.68</ele>
        <time>2018-04-11T07:39:06Z</time>
      </trkpt>
      <trkpt lat="47.68492" lon="6.05253">
        <ele>225.66</ele>
        <time>2018-04-11T07:39:08Z</time>
      </trkpt>
      <trkpt lat="47.68488" lon="6.05257">
        <ele>225.64</ele>
        <time>2018-04-11T07:39:10Z</time>
      </trkpt>
      <trkpt lat="47.68484" lon="6.0526">
        <ele>225.62</ele>
        <time>2018-04-11T07:39:12Z</time>
      </trkpt>
      <trkpt lat="47.6848" lon="6.05263">
        <ele>225.6</ele>
        <time>2018-04-11T07:39:14Z</time>
      </trkpt>
      <trkpt lat="47.68476" lon="6.05266">
        <ele>225.59</ele>
        <time>2018-04-11T07:39:16Z</time>
      </trkpt>
      <trkpt lat="47.68469" lon="6.0527">
        <ele>225.57</ele>
        <time>2018-04-11T07:39:19Z</time>
      </trkpt>
      <trkpt lat="47.68464" lon="6.05273">
        <ele>225.55</ele>
        <time>2018-04-11T07:39:21Z</time>
      </trkpt>
      <trkpt lat="47.68459" lon="6.05275">
        <ele>225.54</ele>
        <time>2018-04-11T07:39:23Z</time>
      </trkpt>
      <trkpt lat="47.68454" lon="6.05279">
        <ele>225.54</ele>
        <time>2018-04-11T07:39:25Z</time>
      </trkpt>
      <trkpt lat="47.68449" lon="6.05281">
        <ele>225.53</ele>
        <time>2018-04-11T07:39:27Z</time>
      </trkpt>
      <trkpt lat="47.68444" lon="6.05284">
        <ele>225.53</ele>
        <time>2018-04-11T07:39:29Z</time>
      </trkpt>
      <trkpt lat="47.68439" lon="6.05287">
        <ele>225.53</ele>
        <time>2018-04-11T07:39:31Z</time>
      </trkpt>
      <trkpt lat="47.68433" lon="6.0529">
        <ele>225.53</ele>
        <time>2018-04-11T07:39:33Z</time>
      </trkpt>
      <trkpt lat="47.68428" lon="6.05292">
        <ele>225.54</ele>
        <time>2018-04-11T07:39:35Z</time>
      </trkpt>
      <trkpt lat="47.68423" lon="6.05294">
        <ele>225.55</ele>
        <time>2018-04-11T07:39:37Z</time>
      </trkpt>
      <trkpt lat="47.68418" lon="6.05297">
        <ele>225.57</ele>
        <time>2018-04-11T07:39:39Z</time>
      </trkpt>
      <trkpt lat="47.68413" lon="6.05299">
        <ele>225.59</ele>
        <time>2018-04-11T07:39:41Z</time>
      </trkpt>
      <trkpt lat="47.68408" lon="6.05302">
        <ele>225.61</ele>
        <time>2018-04-11T07:39:43Z</time>
      </trkpt>
      <trkpt lat="47.68403" lon="6.05304">
        <ele>225.64</ele>
        <time>2018-04-11T07:39:45Z</time>
      </trkpt>
      <trkpt lat="47.68397" lon="6.05307">
        <ele>225.69</ele>
        <time>2018-04-11T07:39:48Z</time>
      </trkpt>
      <trkpt lat="47.68392" lon="6.0531">
        <ele>225.73</ele>
        <time>2018-04-11T07:39:50Z</time>
      </trkpt>
      <trkpt lat="47.68388" lon="6.05312">
        <ele>225.77</ele>
        <time>2018-04-11T07:39:52Z</time>
      </trkpt>
      <trkpt lat="47.68381" lon="6.05315">
        <ele>225.84</ele>
        <time>2018-04-11T07:39:55Z</time>
      </trkpt>
      <trkpt lat="47.68375" lon="6.05317">
        <ele>225.91</ele>
        <time>2018-04-11T07:39:58Z</time>
      </trkpt>
      <trkpt lat="47.68371" lon="6.05319">
        <ele>225.96</ele>
        <time>2018-04-11T07:40:00Z</time>
      </trkpt>
      <trkpt lat="47.68365" lon="6.0532">
        <ele>226.04</ele>
        <time>2018-04-11T07:40:03Z</time>
      </trkpt>
      <trkpt lat="47.68358" lon="6.05322">
        <ele>226.13</ele>
        <time>2018-04-11T07:40:06Z</time>
      </trkpt>
      <trkpt lat="47.68352" lon="6.05324">
        <ele>226.22</ele>
        <time>2018-04-11T07:40:09Z</time>
      </trkpt>
      <trkpt lat="47.68346" lon="6.05325">
        <ele>226.31</ele>
        <time>2018-04-11T07:40:12Z</time>
      </trkpt>
      <trkpt lat="47.68339" lon="6.05327">
        <ele>226.4</ele>
        <time>2018-04-11T07:40:15Z</time>
      </trkpt>
      <trkpt lat="47.68334" lon="6.05328">
        <ele>226.46</ele>
        <time>2018-04-11T07:40:17Z</time>
      </trkpt>
      <trkpt lat="47.68328" lon="6.0533">
        <ele>226.56</ele>
        <time>2018-04-11T07:40:20Z</time>
      </trkpt>
      <trkpt lat="47.68323" lon="6.05332">
        <ele>226.63</ele>
        <time>2018-04-11T07:40:22Z</time>
      </trkpt>
      <trkpt lat="47.68318" lon="6.05334">
        <ele>226.7</ele>
        <time>2018-04-11T07:40:24Z</time>
      </trkpt>
      <trkpt lat="47.68312" lon="6.05332">
        <ele>226.81</ele>
        <time>2018-04-11T07:40:27Z</time>
      </trkpt>
      <trkpt lat="47.68308" lon="6.0533">
        <ele>226.89</ele>
        <time>2018-04-11T07:40:29Z</time>
      </trkpt>
      <trkpt lat="47.68302" lon="6.05329">
        <ele>227.02</ele>
        <time>2018-04-11T07:40:32Z</time>
      </trkpt>
      <trkpt lat="47.68297" lon="6.05328">
        <ele>227.16</ele>
        <time>2018-04-11T07:40:35Z</time>
      </trkpt>
      <trkpt lat="47.68291" lon="6.05328">
        <ele>227.29</ele>
        <time>2018-04-11T07:40:38Z</time>
      </trkpt>
      <trkpt lat="47.68286" lon="6.05333">
        <ele>227.39</ele>
        <time>2018-04-11T07:40:40Z</time>
      </trkpt>
      <trkpt lat="47.68282" lon="6.05339">
        <ele>227.48</ele>
        <time>2018-04-11T07:40:42Z</time>
      </trkpt>
      <trkpt lat="47.68278" lon="6.05346">
        <ele>227.62</ele>
        <time>2018-04-11T07:40:45Z</time>
      </trkpt>
      <trkpt lat="47.68273" lon="6.0535">
        <ele>227.71</ele>
        <time>2018-04-11T07:40:47Z</time>
      </trkpt>
      <trkpt lat="47.68267" lon="6.05357">
        <ele>227.8</ele>
        <time>2018-04-11T07:40:49Z</time>
      </trkpt>
      <trkpt lat="47.68262" lon="6.05365">
        <ele>227.88</ele>
        <time>2018-04-11T07:40:51Z</time>
      </trkpt>
      <trkpt lat="47.68258" lon="6.0537">
        <ele>227.97</ele>
        <time>2018-04-11T07:40:53Z</time>
      </trkpt>
      <trkpt lat="47.68253" lon="6.05377">
        <ele>228.05</ele>
        <time>2018-04-11T07:40:55Z</time>
      </trkpt>
      <trkpt lat="47.68248" lon="6.05387">
        <ele>228.14</ele>
        <time>2018-04-11T07:40:57Z</time>
      </trkpt>
      <trkpt lat="47.68243" lon="6.05396">
        <ele>228.22</ele>
        <time>2018-04-11T07:40:59Z</time>
      </trkpt>
      <trkpt lat="47.6824" lon="6.05401">
        <ele>228.3</ele>
        <time>2018-04-11T07:41:01Z</time>
      </trkpt>
      <trkpt lat="47.68235" lon="6.05405">
        <ele>228.38</ele>
        <time>2018-04-11T07:41:03Z</time>
      </trkpt>
      <trkpt lat="47.68228" lon="6.0541">
        <ele>228.45</ele>
        <time>2018-04-11T07:41:05Z</time>
      </trkpt>
      <trkpt lat="47.68221" lon="6.05413">
        <ele>228.53</ele>
        <time>2018-04-11T07:41:07Z</time>
      </trkpt>
      <trkpt lat="47.68214" lon="6.05414">
        <ele>228.6</ele>
        <time>2018-04-11T07:41:09Z</time>
      </trkpt>
      <trkpt lat="47.68209" lon="6.05415">
        <ele>228.67</ele>
        <time>2018-04-11T07:41:11Z</time>
      </trkpt>
      <trkpt lat="47.68203" lon="6.05414">
        <ele>228.75</ele>
        <time>2018-04-11T07:41:13Z</time>
      </trkpt>
      <trkpt lat="47.68198" lon="6.05413">
        <ele>228.99</ele>
        <time>2018-04-11T07:41:14Z</time>
      </trkpt>
      <trkpt lat="47.6819" lon="6.05412">
        <ele>229.13</ele>
        <time>2018-04-11T07:41:16Z</time>
      </trkpt>
      <trkpt lat="47.68183" lon="6.0541">
        <ele>229.19</ele>
        <time>2018-04-11T07:41:18Z</time>
      </trkpt>
      <trkpt lat="47.68176" lon="6.05411">
        <ele>229.24</ele>
        <time>2018-04-11T07:41:20Z</time>
      </trkpt>
      <trkpt lat="47.68171" lon="6.05417">
        <ele>229.29</ele>
        <time>2018-04-11T07:41:22Z</time>
      </trkpt>
      <trkpt lat="47.68165" lon="6.0543">
        <ele>229.63</ele>
        <time>2018-04-11T07:41:24Z</time>
      </trkpt>
      <trkpt lat="47.68163" lon="6.05436">
        <ele>229.79</ele>
        <time>2018-04-11T07:41:25Z</time>
      </trkpt>
      <trkpt lat="47.68161" lon="6.05443">
        <ele>229.84</ele>
        <time>2018-04-11T07:41:26Z</time>
      </trkpt>
      <trkpt lat="47.68157" lon="6.05455">
        <ele>229.88</ele>
        <time>2018-04-11T07:41:28Z</time>
      </trkpt>
      <trkpt lat="47.68154" lon="6.05466">
        <ele>229.9</ele>
        <time>2018-04-11T07:41:30Z</time>
      </trkpt>
      <trkpt lat="47.68153" lon="6.05475">
        <ele>229.91</ele>
        <time>2018-04-11T07:41:31Z</time>
      </trkpt>
      <trkpt lat="47.68151" lon="6.05482">
        <ele>229.92</ele>
        <time>2018-04-11T07:41:32Z</time>
      </trkpt>
      <trkpt lat="47.6815" lon="6.05496">
        <ele>229.94</ele>
        <time>2018-04-11T07:41:34Z</time>
      </trkpt>
      <trkpt lat="47.68151" lon="6.05504">
        <ele>229.95</ele>
        <time>2018-04-11T07:41:35Z</time>
      </trkpt>
      <trkpt lat="47.68149" lon="6.05511">
        <ele>229.96</ele>
        <time>2018-04-11T07:41:36Z</time>
      </trkpt>
      <trkpt lat="47.68148" lon="6.05523">
        <ele>229.98</ele>
        <time>2018-04-11T07:41:38Z</time>
      </trkpt>
      <trkpt lat="47.68146" lon="6.05533">
        <ele>230</ele>
        <time>2018-04-11T07:41:40Z</time>
      </trkpt>
      <trkpt lat="47.68145" lon="6.05543">
        <ele>230.02</ele>
        <time>2018-04-11T07:41:42Z</time>
      </trkpt>
      <trkpt lat="47.68144" lon="6.05553">
        <ele>230.04</ele>
        <time>2018-04-11T07:41:44Z</time>
      </trkpt>
      <trkpt lat="47.68141" lon="6.05561">
        <ele>230.06</ele>
        <time>2018-04-11T07:41:46Z</time>
      </trkpt>
      <trkpt lat="47.68137" lon="6.05571">
        <ele>230.08</ele>
        <time>2018-04-11T07:41:48Z</time>
      </trkpt>
      <trkpt lat="47.68133" lon="6.0558">
        <ele>230.1</ele>
        <time>2018-04-11T07:41:50Z</time>
      </trkpt>
      <trkpt lat="47.68127" lon="6.05587">
        <ele>230.13</ele>
        <time>2018-04-11T07:41:52Z</time>
      </trkpt>
      <trkpt lat="47.6812" lon="6.05594">
        <ele>230.15</ele>
        <time>2018-04-11T07:41:54Z</time>
      </trkpt>
      <trkpt lat="47.68113" lon="6.05601">
        <ele>230.23</ele>
        <time>2018-04-11T07:41:56Z</time>
      </trkpt>
      <trkpt lat="47.68109" lon="6.05607">
        <ele>230.26</ele>
        <time>2018-04-11T07:41:57Z</time>
      </trkpt>
      <trkpt lat="47.68105" lon="6.05611">
        <ele>230.27</ele>
        <time>2018-04-11T07:41:58Z</time>
      </trkpt>
      <trkpt lat="47.68097" lon="6.05618">
        <ele>230.29</ele>
        <time>2018-04-11T07:42:00Z</time>
      </trkpt>
      <trkpt lat="47.6809" lon="6.05624">
        <ele>230.3</ele>
        <time>2018-04-11T07:42:02Z</time>
      </trkpt>
      <trkpt lat="47.68087" lon="6.05629">
        <ele>230.35</ele>
        <time>2018-04-11T07:42:03Z</time>
      </trkpt>
      <trkpt lat="47.68082" lon="6.05632">
        <ele>230.41</ele>
        <time>2018-04-11T07:42:04Z</time>
      </trkpt>
      <trkpt lat="47.68074" lon="6.05638">
        <ele>230.44</ele>
        <time>2018-04-11T07:42:06Z</time>
      </trkpt>
      <trkpt lat="47.68067" lon="6.05644">
        <ele>230.45</ele>
        <time>2018-04-11T07:42:08Z</time>
      </trkpt>
      <trkpt lat="47.68061" lon="6.05649">
        <ele>230.46</ele>
        <time>2018-04-11T07:42:10Z</time>
      </trkpt>
      <trkpt lat="47.68058" lon="6.05653">
        <ele>230.47</ele>
        <time>2018-04-11T07:42:11Z</time>
      </trkpt>
      <trkpt lat="47.68054" lon="6.05656">
        <ele>230.47</ele>
        <time>2018-04-11T07:42:12Z</time>
      </trkpt>
      <trkpt lat="47.6805" lon="6.05661">
        <ele>230.48</ele>
        <time>2018-04-11T07:42:13Z</time>
      </trkpt>
      <trkpt lat="47.68046" lon="6.05665">
        <ele>230.48</ele>
        <time>2018-04-11T07:42:14Z</time>
      </trkpt>
      <trkpt lat="47.68038" lon="6.05672">
        <ele>230.49</ele>
        <time>2018-04-11T07:42:16Z</time>
      </trkpt>
      <trkpt lat="47.68035" lon="6.05677">
        <ele>230.5</ele>
        <time>2018-04-11T07:42:17Z</time>
      </trkpt>
      <trkpt lat="47.68028" lon="6.05684">
        <ele>230.51</ele>
        <time>2018-04-11T07:42:19Z</time>
      </trkpt>
      <trkpt lat="47.68022" lon="6.05693">
        <ele>230.52</ele>
        <time>2018-04-11T07:42:21Z</time>
      </trkpt>
      <trkpt lat="47.68017" lon="6.05699">
        <ele>230.52</ele>
        <time>2018-04-11T07:42:23Z</time>
      </trkpt>
      <trkpt lat="47.68014" lon="6.05705">
        <ele>230.53</ele>
        <time>2018-04-11T07:42:24Z</time>
      </trkpt>
      <trkpt lat="47.68008" lon="6.05712">
        <ele>230.54</ele>
        <time>2018-04-11T07:42:26Z</time>
      </trkpt>
      <trkpt lat="47.68003" lon="6.05717">
        <ele>230.55</ele>
        <time>2018-04-11T07:42:28Z</time>
      </trkpt>
      <trkpt lat="47.67999" lon="6.05722">
        <ele>230.55</ele>
        <time>2018-04-11T07:42:30Z</time>
      </trkpt>
      <trkpt lat="47.67994" lon="6.05727">
        <ele>230.56</ele>
        <time>2018-04-11T07:42:32Z</time>
      </trkpt>
      <trkpt lat="47.67989" lon="6.05731">
        <ele>230.57</ele>
        <time>2018-04-11T07:42:34Z</time>
      </trkpt>
      <trkpt lat="47.67984" lon="6.05738">
        <ele>230.59</ele>
        <time>2018-04-11T07:42:37Z</time>
      </trkpt>
      <trkpt lat="47.67978" lon="6.05741">
        <ele>230.61</ele>
        <time>2018-04-11T07:42:40Z</time>
      </trkpt>
      <trkpt lat="47.67974" lon="6.05746">
        <ele>230.62</ele>
        <time>2018-04-11T07:42:43Z</time>
      </trkpt>
      <trkpt lat="47.67969" lon="6.0575">
        <ele>230.65</ele>
        <time>2018-04-11T07:42:46Z</time>
      </trkpt>
      <trkpt lat="47.67965" lon="6.05755">
        <ele>230.67</ele>
        <time>2018-04-11T07:42:49Z</time>
      </trkpt>
      <trkpt lat="47.67961" lon="6.05759">
        <ele>230.7</ele>
        <time>2018-04-11T07:42:53Z</time>
      </trkpt>
      <trkpt lat="47.67956" lon="6.05757">
        <ele>230.72</ele>
        <time>2018-04-11T07:42:56Z</time>
      </trkpt>
      <trkpt lat="47.67951" lon="6.05752">
        <ele>230.75</ele>
        <time>2018-04-11T07:42:59Z</time>
      </trkpt>
      <trkpt lat="47.67946" lon="6.0575">
        <ele>230.78</ele>
        <time>2018-04-11T07:43:01Z</time>
      </trkpt>
      <trkpt lat="47.6794" lon="6.05746">
        <ele>230.82</ele>
        <time>2018-04-11T07:43:04Z</time>
      </trkpt>
      <trkpt lat="47.67936" lon="6.05742">
        <ele>230.85</ele>
        <time>2018-04-11T07:43:06Z</time>
      </trkpt>
      <trkpt lat="47.67931" lon="6.0574">
        <ele>230.9</ele>
        <time>2018-04-11T07:43:08Z</time>
      </trkpt>
      <trkpt lat="47.67926" lon="6.05739">
        <ele>230.96</ele>
        <time>2018-04-11T07:43:10Z</time>
      </trkpt>
      <trkpt lat="47.6792" lon="6.05736">
        <ele>231.08</ele>
        <time>2018-04-11T07:43:13Z</time>
      </trkpt>
      <trkpt lat="47.67916" lon="6.05733">
        <ele>231.18</ele>
        <time>2018-04-11T07:43:15Z</time>
      </trkpt>
      <trkpt lat="47.67913" lon="6.05729">
        <ele>231.31</ele>
        <time>2018-04-11T07:43:17Z</time>
      </trkpt>
      <trkpt lat="47.67908" lon="6.05727">
        <ele>231.45</ele>
        <time>2018-04-11T07:43:19Z</time>
      </trkpt>
      <trkpt lat="47.67902" lon="6.05725">
        <ele>231.69</ele>
        <time>2018-04-11T07:43:22Z</time>
      </trkpt>
      <trkpt lat="47.67897" lon="6.05722">
        <ele>231.94</ele>
        <time>2018-04-11T07:43:25Z</time>
      </trkpt>
      <trkpt lat="47.67893" lon="6.05721">
        <ele>232.2</ele>
        <time>2018-04-11T07:43:28Z</time>
      </trkpt>
      <trkpt lat="47.67887" lon="6.05718">
        <ele>232.46</ele>
        <time>2018-04-11T07:43:31Z</time>
      </trkpt>
      <trkpt lat="47.67882" lon="6.05715">
        <ele>232.72</ele>
        <time>2018-04-11T07:43:34Z</time>
      </trkpt>
      <trkpt lat="47.67877" lon="6.05713">
        <ele>232.89</ele>
        <time>2018-04-11T07:43:36Z</time>
      </trkpt>
      <trkpt lat="47.67872" lon="6.05709">
        <ele>233.14</ele>
        <time>2018-04-11T07:43:39Z</time>
      </trkpt>
      <trkpt lat="47.67867" lon="6.05706">
        <ele>233.37</ele>
        <time>2018-04-11T07:43:42Z</time>
      </trkpt>
      <trkpt lat="47.6786" lon="6.05703">
        <ele>233.59</ele>
        <time>2018-04-11T07:43:45Z</time>
      </trkpt>
      <trkpt lat="47.67855" lon="6.05699">
        <ele>233.79</ele>
        <time>2018-04-11T07:43:48Z</time>
      </trkpt>
      <trkpt lat="47.6785" lon="6.05696">
        <ele>233.91</ele>
        <time>2018-04-11T07:43:50Z</time>
      </trkpt>
      <trkpt lat="47.67845" lon="6.05691">
        <ele>234.02</ele>
        <time>2018-04-11T07:43:52Z</time>
      </trkpt>
      <trkpt lat="47.6784" lon="6.05685">
        <ele>234.14</ele>
        <time>2018-04-11T07:43:54Z</time>
      </trkpt>
      <trkpt lat="47.67836" lon="6.05681">
        <ele>234.26</ele>
        <time>2018-04-11T07:43:56Z</time>
      </trkpt>
      <trkpt lat="47.67833" lon="6.05676">
        <ele>234.39</ele>
        <time>2018-04-11T07:43:58Z</time>
      </trkpt>
      <trkpt lat="47.67829" lon="6.05671">
        <ele>234.61</ele>
        <time>2018-04-11T07:44:01Z</time>
      </trkpt>
      <trkpt lat="47.67824" lon="6.05667">
        <ele>234.85</ele>
        <time>2018-04-11T07:44:04Z</time>
      </trkpt>
      <trkpt lat="47.6782" lon="6.05662">
        <ele>235.11</ele>
        <time>2018-04-11T07:44:07Z</time>
      </trkpt>
      <trkpt lat="47.67816" lon="6.05657">
        <ele>235.37</ele>
        <time>2018-04-11T07:44:10Z</time>
      </trkpt>
      <trkpt lat="47.67813" lon="6.05651">
        <ele>235.74</ele>
        <time>2018-04-11T07:44:14Z</time>
      </trkpt>
      <trkpt lat="47.67809" lon="6.05646">
        <ele>236.1</ele>
        <time>2018-04-11T07:44:18Z</time>
      </trkpt>
      <trkpt lat="47.67806" lon="6.05641">
        <ele>236.37</ele>
        <time>2018-04-11T07:44:21Z</time>
      </trkpt>
      <trkpt lat="47.67801" lon="6.05636">
        <ele>236.71</ele>
        <time>2018-04-11T07:44:25Z</time>
      </trkpt>
      <trkpt lat="47.67797" lon="6.05633">
        <ele>236.94</ele>
        <time>2018-04-11T07:44:28Z</time>
      </trkpt>
      <trkpt lat="47.67791" lon="6.05629">
        <ele>237.15</ele>
        <time>2018-04-11T07:44:31Z</time>
      </trkpt>
      <trkpt lat="47.67786" lon="6.05624">
        <ele>237.33</ele>
        <time>2018-04-11T07:44:34Z</time>
      </trkpt>
      <trkpt lat="47.67782" lon="6.05616">
        <ele>237.45</ele>
        <time>2018-04-11T07:44:36Z</time>
      </trkpt>
      <trkpt lat="47.67779" lon="6.0561">
        <ele>237.58</ele>
        <time>2018-04-11T07:44:38Z</time>
      </trkpt>
      <trkpt lat="47.67775" lon="6.05604">
        <ele>237.79</ele>
        <time>2018-04-11T07:44:40Z</time>
      </trkpt>
      <trkpt lat="47.67771" lon="6.05599">
        <ele>238.01</ele>
        <time>2018-04-11T07:44:43Z</time>
      </trkpt>
      <trkpt lat="47.67767" lon="6.05593">
        <ele>238.33</ele>
        <time>2018-04-11T07:44:47Z</time>
      </trkpt>
      <trkpt lat="47.67767" lon="6.05583">
        <ele>238.79</ele>
        <time>2018-04-11T07:44:53Z</time>
      </trkpt>
      <trkpt lat="47.67767" lon="6.05574">
        <ele>239.09</ele>
        <time>2018-04-11T07:44:57Z</time>
      </trkpt>
      <trkpt lat="47.67771" lon="6.05566">
        <ele>239.23</ele>
        <time>2018-04-11T07:44:59Z</time>
      </trkpt>
      <trkpt lat="47.67773" lon="6.0556">
        <ele>239.38</ele>
        <time>2018-04-11T07:45:01Z</time>
      </trkpt>
      <trkpt lat="47.67776" lon="6.05553">
        <ele>239.6</ele>
        <time>2018-04-11T07:45:04Z</time>
      </trkpt>
      <trkpt lat="47.67778" lon="6.05547">
        <ele>239.76</ele>
        <time>2018-04-11T07:45:06Z</time>
      </trkpt>
      <trkpt lat="47.67781" lon="6.05541">
        <ele>240</ele>
        <time>2018-04-11T07:45:09Z</time>
      </trkpt>
      <trkpt lat="47.67788" lon="6.05537">
        <ele>240.23</ele>
        <time>2018-04-11T07:45:12Z</time>
      </trkpt>
      <trkpt lat="47.67792" lon="6.05533">
        <ele>240.47</ele>
        <time>2018-04-11T07:45:15Z</time>
      </trkpt>
      <trkpt lat="47.67798" lon="6.05534">
        <ele>240.7</ele>
        <time>2018-04-11T07:45:18Z</time>
      </trkpt>
      <trkpt lat="47.67804" lon="6.05531">
        <ele>240.93</ele>
        <time>2018-04-11T07:45:21Z</time>
      </trkpt>
      <trkpt lat="47.6781" lon="6.05527">
        <ele>241.16</ele>
        <time>2018-04-11T07:45:24Z</time>
      </trkpt>
      <trkpt lat="47.67812" lon="6.0552">
        <ele>241.46</ele>
        <time>2018-04-11T07:45:28Z</time>
      </trkpt>
      <trkpt lat="47.67813" lon="6.05513">
        <ele>241.68</ele>
        <time>2018-04-11T07:45:31Z</time>
      </trkpt>
      <trkpt lat="47.67814" lon="6.05506">
        <ele>241.9</ele>
        <time>2018-04-11T07:45:34Z</time>
      </trkpt>
      <trkpt lat="47.67814" lon="6.05497">
        <ele>242.03</ele>
        <time>2018-04-11T07:45:36Z</time>
      </trkpt>
      <trkpt lat="47.67815" lon="6.05484">
        <ele>242.15</ele>
        <time>2018-04-11T07:45:38Z</time>
      </trkpt>
      <trkpt lat="47.67816" lon="6.05472">
        <ele>242.27</ele>
        <time>2018-04-11T07:45:40Z</time>
      </trkpt>
      <trkpt lat="47.67816" lon="6.05464">
        <ele>242.37</ele>
        <time>2018-04-11T07:45:42Z</time>
      </trkpt>
      <trkpt lat="47.67814" lon="6.05456">
        <ele>242.47</ele>
        <time>2018-04-11T07:45:44Z</time>
      </trkpt>
      <trkpt lat="47.67813" lon="6.05449">
        <ele>242.56</ele>
        <time>2018-04-11T07:45:46Z</time>
      </trkpt>
      <trkpt lat="47.67812" lon="6.05441">
        <ele>242.65</ele>
        <time>2018-04-11T07:45:48Z</time>
      </trkpt>
      <trkpt lat="47.67813" lon="6.05434">
        <ele>242.74</ele>
        <time>2018-04-11T07:45:50Z</time>
      </trkpt>
      <trkpt lat="47.67813" lon="6.05425">
        <ele>242.87</ele>
        <time>2018-04-11T07:45:53Z</time>
      </trkpt>
      <trkpt lat="47.67812" lon="6.05416">
        <ele>242.95</ele>
        <time>2018-04-11T07:45:55Z</time>
      </trkpt>
      <trkpt lat="47.6781" lon="6.05408">
        <ele>243.04</ele>
        <time>2018-04-11T07:45:57Z</time>
      </trkpt>
      <trkpt lat="47.67808" lon="6.05402">
        <ele>243.14</ele>
        <time>2018-04-11T07:45:59Z</time>
      </trkpt>
      <trkpt lat="47.67806" lon="6.05391">
        <ele>243.23</ele>
        <time>2018-04-11T07:46:01Z</time>
      </trkpt>
      <trkpt lat="47.67805" lon="6.05383">
        <ele>243.33</ele>
        <time>2018-04-11T07:46:03Z</time>
      </trkpt>
      <trkpt lat="47.67804" lon="6.05374">
        <ele>243.48</ele>
        <time>2018-04-11T07:46:06Z</time>
      </trkpt>
      <trkpt lat="47.67802" lon="6.05367">
        <ele>243.59</ele>
        <time>2018-04-11T07:46:08Z</time>
      </trkpt>
      <trkpt lat="47.67801" lon="6.05359">
        <ele>243.77</ele>
        <time>2018-04-11T07:46:11Z</time>
      </trkpt>
      <trkpt lat="47.67798" lon="6.05353">
        <ele>244.01</ele>
        <time>2018-04-11T07:46:15Z</time>
      </trkpt>
      <trkpt lat="47.67797" lon="6.05344">
        <ele>244.17</ele>
        <time>2018-04-11T07:46:18Z</time>
      </trkpt>
      <trkpt lat="47.67797" lon="6.05336">
        <ele>244.28</ele>
        <time>2018-04-11T07:46:20Z</time>
      </trkpt>
      <trkpt lat="47.67798" lon="6.05326">
        <ele>244.39</ele>
        <time>2018-04-11T07:46:22Z</time>
      </trkpt>
      <trkpt lat="47.678" lon="6.05318">
        <ele>244.5</ele>
        <time>2018-04-11T07:46:24Z</time>
      </trkpt>
      <trkpt lat="47.67798" lon="6.05309">
        <ele>244.61</ele>
        <time>2018-04-11T07:46:26Z</time>
      </trkpt>
      <trkpt lat="47.67798" lon="6.05299">
        <ele>244.66</ele>
        <time>2018-04-11T07:46:27Z</time>
      </trkpt>
      <trkpt lat="47.67797" lon="6.05289">
        <ele>244.72</ele>
        <time>2018-04-11T07:46:28Z</time>
      </trkpt>
      <trkpt lat="47.67797" lon="6.05279">
        <ele>244.84</ele>
        <time>2018-04-11T07:46:30Z</time>
      </trkpt>
      <trkpt lat="47.67798" lon="6.05271">
        <ele>244.95</ele>
        <time>2018-04-11T07:46:32Z</time>
      </trkpt>
      <trkpt lat="47.67798" lon="6.05264">
        <ele>245.06</ele>
        <time>2018-04-11T07:46:34Z</time>
      </trkpt>
      <trkpt lat="47.67799" lon="6.05255">
        <ele>245.17</ele>
        <time>2018-04-11T07:46:36Z</time>
      </trkpt>
      <trkpt lat="47.678" lon="6.05243">
        <ele>245.28</ele>
        <time>2018-04-11T07:46:38Z</time>
      </trkpt>
      <trkpt lat="47.67801" lon="6.0523">
        <ele>245.38</ele>
        <time>2018-04-11T07:46:40Z</time>
      </trkpt>
      <trkpt lat="47.67802" lon="6.05219">
        <ele>245.48</ele>
        <time>2018-04-11T07:46:42Z</time>
      </trkpt>
      <trkpt lat="47.67802" lon="6.05207">
        <ele>245.57</ele>
        <time>2018-04-11T07:46:44Z</time>
      </trkpt>
      <trkpt lat="47.67803" lon="6.05197">
        <ele>245.66</ele>
        <time>2018-04-11T07:46:46Z</time>
      </trkpt>
      <trkpt lat="47.67803" lon="6.05185">
        <ele>245.74</ele>
        <time>2018-04-11T07:46:48Z</time>
      </trkpt>
      <trkpt lat="47.67802" lon="6.05172">
        <ele>246.31</ele>
        <time>2018-04-11T07:46:50Z</time>
      </trkpt>
      <trkpt lat="47.67801" lon="6.05165">
        <ele>246.57</ele>
        <time>2018-04-11T07:46:51Z</time>
      </trkpt>
      <trkpt lat="47.678" lon="6.05155">
        <ele>246.69</ele>
        <time>2018-04-11T07:46:53Z</time>
      </trkpt>
      <trkpt lat="47.67798" lon="6.05144">
        <ele>246.73</ele>
        <time>2018-04-11T07:46:55Z</time>
      </trkpt>
      <trkpt lat="47.67796" lon="6.05133">
        <ele>246.76</ele>
        <time>2018-04-11T07:46:57Z</time>
      </trkpt>
      <trkpt lat="47.67794" lon="6.05123">
        <ele>246.78</ele>
        <time>2018-04-11T07:46:59Z</time>
      </trkpt>
      <trkpt lat="47.67793" lon="6.05116">
        <ele>246.79</ele>
        <time>2018-04-11T07:47:00Z</time>
      </trkpt>
      <trkpt lat="47.6779" lon="6.05105">
        <ele>246.81</ele>
        <time>2018-04-11T07:47:02Z</time>
      </trkpt>
      <trkpt lat="47.67788" lon="6.05093">
        <ele>246.81</ele>
        <time>2018-04-11T07:47:04Z</time>
      </trkpt>
      <trkpt lat="47.67784" lon="6.0508">
        <ele>246.81</ele>
        <time>2018-04-11T07:47:06Z</time>
      </trkpt>
      <trkpt lat="47.67782" lon="6.05071">
        <ele>246.81</ele>
        <time>2018-04-11T07:47:08Z</time>
      </trkpt>
      <trkpt lat="47.6778" lon="6.05061">
        <ele>246.8</ele>
        <time>2018-04-11T07:47:10Z</time>
      </trkpt>
      <trkpt lat="47.67777" lon="6.05052">
        <ele>246.79</ele>
        <time>2018-04-11T07:47:12Z</time>
      </trkpt>
      <trkpt lat="47.67773" lon="6.05041">
        <ele>246.63</ele>
        <time>2018-04-11T07:47:14Z</time>
      </trkpt>
      <trkpt lat="47.67771" lon="6.05035">
        <ele>246.53</ele>
        <time>2018-04-11T07:47:15Z</time>
      </trkpt>
      <trkpt lat="47.67767" lon="6.05024">
        <ele>246.46</ele>
        <time>2018-04-11T07:47:17Z</time>
      </trkpt>
      <trkpt lat="47.67765" lon="6.05015">
        <ele>246.43</ele>
        <time>2018-04-11T07:47:19Z</time>
      </trkpt>
      <trkpt lat="47.67764" lon="6.05004">
        <ele>246.39</ele>
        <time>2018-04-11T07:47:21Z</time>
      </trkpt>
      <trkpt lat="47.67766" lon="6.04994">
        <ele>246.36</ele>
        <time>2018-04-11T07:47:23Z</time>
      </trkpt>
      <trkpt lat="47.67769" lon="6.04987">
        <ele>246.32</ele>
        <time>2018-04-11T07:47:25Z</time>
      </trkpt>
      <trkpt lat="47.67774" lon="6.04979">
        <ele>246.28</ele>
        <time>2018-04-11T07:47:27Z</time>
      </trkpt>
      <trkpt lat="47.67779" lon="6.04969">
        <ele>246.22</ele>
        <time>2018-04-11T07:47:29Z</time>
      </trkpt>
      <trkpt lat="47.67783" lon="6.04962">
        <ele>246.16</ele>
        <time>2018-04-11T07:47:31Z</time>
      </trkpt>
      <trkpt lat="47.67787" lon="6.04955">
        <ele>246.08</ele>
        <time>2018-04-11T07:47:33Z</time>
      </trkpt>
      <trkpt lat="47.67792" lon="6.04949">
        <ele>245.98</ele>
        <time>2018-04-11T07:47:35Z</time>
      </trkpt>
      <trkpt lat="47.67796" lon="6.04944">
        <ele>245.88</ele>
        <time>2018-04-11T07:47:37Z</time>
      </trkpt>
      <trkpt lat="47.67801" lon="6.04938">
        <ele>245.71</ele>
        <time>2018-04-11T07:47:40Z</time>
      </trkpt>
      <trkpt lat="47.67806" lon="6.04932">
        <ele>245.53</ele>
        <time>2018-04-11T07:47:43Z</time>
      </trkpt>
      <trkpt lat="47.67808" lon="6.04925">
        <ele>245.34</ele>
        <time>2018-04-11T07:47:46Z</time>
      </trkpt>
      <trkpt lat="47.67811" lon="6.0492">
        <ele>244.96</ele>
        <time>2018-04-11T07:48:24Z</time>
      </trkpt>
      <trkpt lat="47.67811" lon="6.04912">
        <ele>244.04</ele>
        <time>2018-04-11T07:48:42Z</time>
      </trkpt>
      <trkpt lat="47.67807" lon="6.04909">
        <ele>243.85</ele>
        <time>2018-04-11T07:48:44Z</time>
      </trkpt>
      <trkpt lat="47.67802" lon="6.04909">
        <ele>243.68</ele>
        <time>2018-04-11T07:48:46Z</time>
      </trkpt>
      <trkpt lat="47.67797" lon="6.04912">
        <ele>243.28</ele>
        <time>2018-04-11T07:48:51Z</time>
      </trkpt>
      <trkpt lat="47.67791" lon="6.04914">
        <ele>243.06</ele>
        <time>2018-04-11T07:48:54Z</time>
      </trkpt>
      <trkpt lat="47.67785" lon="6.04917">
        <ele>242.85</ele>
        <time>2018-04-11T07:48:57Z</time>
      </trkpt>
      <trkpt lat="47.67781" lon="6.0492">
        <ele>242.71</ele>
        <time>2018-04-11T07:48:59Z</time>
      </trkpt>
      <trkpt lat="47.67776" lon="6.04922">
        <ele>242.58</ele>
        <time>2018-04-11T07:49:01Z</time>
      </trkpt>
      <trkpt lat="47.6777" lon="6.04924">
        <ele>242.39</ele>
        <time>2018-04-11T07:49:04Z</time>
      </trkpt>
      <trkpt lat="47.67764" lon="6.04925">
        <ele>242.21</ele>
        <time>2018-04-11T07:49:07Z</time>
      </trkpt>
      <trkpt lat="47.67757" lon="6.04927">
        <ele>242.04</ele>
        <time>2018-04-11T07:49:10Z</time>
      </trkpt>
      <trkpt lat="47.67751" lon="6.04929">
        <ele>241.92</ele>
        <time>2018-04-11T07:49:12Z</time>
      </trkpt>
      <trkpt lat="47.67745" lon="6.0493">
        <ele>241.82</ele>
        <time>2018-04-11T07:49:14Z</time>
      </trkpt>
      <trkpt lat="47.6774" lon="6.04929">
        <ele>241.66</ele>
        <time>2018-04-11T07:49:17Z</time>
      </trkpt>
      <trkpt lat="47.67735" lon="6.04931">
        <ele>241.57</ele>
        <time>2018-04-11T07:49:19Z</time>
      </trkpt>
      <trkpt lat="47.6773" lon="6.04931">
        <ele>241.49</ele>
        <time>2018-04-11T07:49:21Z</time>
      </trkpt>
      <trkpt lat="47.67725" lon="6.04933">
        <ele>241.41</ele>
        <time>2018-04-11T07:49:23Z</time>
      </trkpt>
      <trkpt lat="47.67718" lon="6.04935">
        <ele>241.3</ele>
        <time>2018-04-11T07:49:26Z</time>
      </trkpt>
      <trkpt lat="47.67713" lon="6.04936">
        <ele>241.23</ele>
        <time>2018-04-11T07:49:28Z</time>
      </trkpt>
      <trkpt lat="47.67708" lon="6.04937">
        <ele>241.16</ele>
        <time>2018-04-11T07:49:30Z</time>
      </trkpt>
      <trkpt lat="47.67703" lon="6.04938">
        <ele>241.1</ele>
        <time>2018-04-11T07:49:32Z</time>
      </trkpt>
      <trkpt lat="47.67696" lon="6.0494">
        <ele>241.02</ele>
        <time>2018-04-11T07:49:35Z</time>
      </trkpt>
      <trkpt lat="47.67691" lon="6.0494">
        <ele>240.91</ele>
        <time>2018-04-11T07:49:38Z</time>
      </trkpt>
      <trkpt lat="47.67685" lon="6.04942">
        <ele>240.77</ele>
        <time>2018-04-11T07:49:41Z</time>
      </trkpt>
      <trkpt lat="47.6768" lon="6.04945">
        <ele>240.58</ele>
        <time>2018-04-11T07:49:44Z</time>
      </trkpt>
      <trkpt lat="47.67676" lon="6.04945">
        <ele>240.43</ele>
        <time>2018-04-11T07:49:46Z</time>
      </trkpt>
      <trkpt lat="47.67671" lon="6.0494">
        <ele>240.18</ele>
        <time>2018-04-11T07:49:49Z</time>
      </trkpt>
      <trkpt lat="47.67667" lon="6.04937">
        <ele>239.86</ele>
        <time>2018-04-11T07:50:04Z</time>
      </trkpt>
      <trkpt lat="47.67663" lon="6.04934">
        <ele>239.99</ele>
        <time>2018-04-11T07:50:37Z</time>
      </trkpt>
      <trkpt lat="47.67658" lon="6.04932">
        <ele>240.34</ele>
        <time>2018-04-11T07:50:52Z</time>
      </trkpt>
      <trkpt lat="47.67656" lon="6.04926">
        <ele>240.43</ele>
        <time>2018-04-11T07:50:55Z</time>
      </trkpt>
      <trkpt lat="47.67652" lon="6.04922">
        <ele>240.63</ele>
        <time>2018-04-11T07:51:00Z</time>
      </trkpt>
      <trkpt lat="47.67648" lon="6.04917">
        <ele>241.35</ele>
        <time>2018-04-11T07:51:14Z</time>
      </trkpt>
      <trkpt lat="47.67645" lon="6.04912">
        <ele>242.07</ele>
        <time>2018-04-11T07:51:31Z</time>
      </trkpt>
      <trkpt lat="47.67642" lon="6.04906">
        <ele>242.52</ele>
        <time>2018-04-11T07:51:41Z</time>
      </trkpt>
      <trkpt lat="47.67639" lon="6.049">
        <ele>243.07</ele>
        <time>2018-04-11T07:51:50Z</time>
      </trkpt>
      <trkpt lat="47.67636" lon="6.04895">
        <ele>243.44</ele>
        <time>2018-04-11T07:51:55Z</time>
      </trkpt>
      <trkpt lat="47.67631" lon="6.04891">
        <ele>243.8</ele>
        <time>2018-04-11T07:52:00Z</time>
      </trkpt>
      <trkpt lat="47.67628" lon="6.04885">
        <ele>244.18</ele>
        <time>2018-04-11T07:52:05Z</time>
      </trkpt>
      <trkpt lat="47.67625" lon="6.0488">
        <ele>245.01</ele>
        <time>2018-04-11T07:52:14Z</time>
      </trkpt>
      <trkpt lat="47.67623" lon="6.04874">
        <ele>245.85</ele>
        <time>2018-04-11T07:52:22Z</time>
      </trkpt>
      <trkpt lat="47.6762" lon="6.04868">
        <ele>246.5</ele>
        <time>2018-04-11T07:52:28Z</time>
      </trkpt>
      <trkpt lat="47.67617" lon="6.04862">
        <ele>247.12</ele>
        <time>2018-04-11T07:52:34Z</time>
      </trkpt>
      <trkpt lat="47.67613" lon="6.04859">
        <ele>247.73</ele>
        <time>2018-04-11T07:52:40Z</time>
      </trkpt>
      <trkpt lat="47.67609" lon="6.04853">
        <ele>248.74</ele>
        <time>2018-04-11T07:52:52Z</time>
      </trkpt>
      <trkpt lat="47.67607" lon="6.04847">
        <ele>249.17</ele>
        <time>2018-04-11T07:52:57Z</time>
      </trkpt>
      <trkpt lat="47.67604" lon="6.04841">
        <ele>249.93</ele>
        <time>2018-04-11T07:53:09Z</time>
      </trkpt>
      <trkpt lat="47.67603" lon="6.04835">
        <ele>250.27</ele>
        <time>2018-04-11T07:53:13Z</time>
      </trkpt>
      <trkpt lat="47.67599" lon="6.0483">
        <ele>250.71</ele>
        <time>2018-04-11T07:53:18Z</time>
      </trkpt>
      <trkpt lat="47.67596" lon="6.04824">
        <ele>251.26</ele>
        <time>2018-04-11T07:53:24Z</time>
      </trkpt>
      <trkpt lat="47.67592" lon="6.0482">
        <ele>251.89</ele>
        <time>2018-04-11T07:53:31Z</time>
      </trkpt>
      <trkpt lat="47.67589" lon="6.04814">
        <ele>252.59</ele>
        <time>2018-04-11T07:53:40Z</time>
      </trkpt>
      <trkpt lat="47.67585" lon="6.04811">
        <ele>252.94</ele>
        <time>2018-04-11T07:53:44Z</time>
      </trkpt>
      <trkpt lat="47.67582" lon="6.04806">
        <ele>253.21</ele>
        <time>2018-04-11T07:53:47Z</time>
      </trkpt>
      <trkpt lat="47.67577" lon="6.04801">
        <ele>253.92</ele>
        <time>2018-04-11T07:53:56Z</time>
      </trkpt>
      <trkpt lat="47.67574" lon="6.04794">
        <ele>254.29</ele>
        <time>2018-04-11T07:54:01Z</time>
      </trkpt>
      <trkpt lat="47.6757" lon="6.04789">
        <ele>254.73</ele>
        <time>2018-04-11T07:54:07Z</time>
      </trkpt>
      <trkpt lat="47.67569" lon="6.04782">
        <ele>255.42</ele>
        <time>2018-04-11T07:54:19Z</time>
      </trkpt>
      <trkpt lat="47.67565" lon="6.04777">
        <ele>255.8</ele>
        <time>2018-04-11T07:54:26Z</time>
      </trkpt>
      <trkpt lat="47.67561" lon="6.04772">
        <ele>256.25</ele>
        <time>2018-04-11T07:54:33Z</time>
      </trkpt>
      <trkpt lat="47.67558" lon="6.04767">
        <ele>256.77</ele>
        <time>2018-04-11T07:54:42Z</time>
      </trkpt>
      <trkpt lat="47.67557" lon="6.04761">
        <ele>257.2</ele>
        <time>2018-04-11T07:54:49Z</time>
      </trkpt>
      <trkpt lat="47.67555" lon="6.04754">
        <ele>257.69</ele>
        <time>2018-04-11T07:55:06Z</time>
      </trkpt>
      <trkpt lat="47.6755" lon="6.04751">
        <ele>258.29</ele>
        <time>2018-04-11T07:55:22Z</time>
      </trkpt>
      <trkpt lat="47.67547" lon="6.04746">
        <ele>258.54</ele>
        <time>2018-04-11T07:55:25Z</time>
      </trkpt>
      <trkpt lat="47.67545" lon="6.0474">
        <ele>258.78</ele>
        <time>2018-04-11T07:55:28Z</time>
      </trkpt>
      <trkpt lat="47.67542" lon="6.04733">
        <ele>259.01</ele>
        <time>2018-04-11T07:55:31Z</time>
      </trkpt>
      <trkpt lat="47.67539" lon="6.04727">
        <ele>259.31</ele>
        <time>2018-04-11T07:55:35Z</time>
      </trkpt>
      <trkpt lat="47.67535" lon="6.0472">
        <ele>259.52</ele>
        <time>2018-04-11T07:55:38Z</time>
      </trkpt>
      <trkpt lat="47.67531" lon="6.04715">
        <ele>259.78</ele>
        <time>2018-04-11T07:55:42Z</time>
      </trkpt>
      <trkpt lat="47.67527" lon="6.04709">
        <ele>259.95</ele>
        <time>2018-04-11T07:55:45Z</time>
      </trkpt>
      <trkpt lat="47.67523" lon="6.04704">
        <ele>260.12</ele>
        <time>2018-04-11T07:55:48Z</time>
      </trkpt>
      <trkpt lat="47.6752" lon="6.04699">
        <ele>260.28</ele>
        <time>2018-04-11T07:55:51Z</time>
      </trkpt>
      <trkpt lat="47.67516" lon="6.04692">
        <ele>260.38</ele>
        <time>2018-04-11T07:55:53Z</time>
      </trkpt>
      <trkpt lat="47.67514" lon="6.04684">
        <ele>260.48</ele>
        <time>2018-04-11T07:55:55Z</time>
      </trkpt>
      <trkpt lat="47.67509" lon="6.04677">
        <ele>260.57</ele>
        <time>2018-04-11T07:55:57Z</time>
      </trkpt>
      <trkpt lat="47.67505" lon="6.04669">
        <ele>260.67</ele>
        <time>2018-04-11T07:55:59Z</time>
      </trkpt>
      <trkpt lat="47.675" lon="6.04663">
        <ele>260.75</ele>
        <time>2018-04-11T07:56:01Z</time>
      </trkpt>
      <trkpt lat="47.67495" lon="6.04659">
        <ele>260.88</ele>
        <time>2018-04-11T07:56:04Z</time>
      </trkpt>
      <trkpt lat="47.67491" lon="6.04654">
        <ele>260.96</ele>
        <time>2018-04-11T07:56:06Z</time>
      </trkpt>
      <trkpt lat="47.67487" lon="6.04649">
        <ele>261.04</ele>
        <time>2018-04-11T07:56:08Z</time>
      </trkpt>
      <trkpt lat="47.67483" lon="6.04644">
        <ele>261.11</ele>
        <time>2018-04-11T07:56:10Z</time>
      </trkpt>
      <trkpt lat="47.67479" lon="6.04638">
        <ele>261.21</ele>
        <time>2018-04-11T07:56:13Z</time>
      </trkpt>
      <trkpt lat="47.67477" lon="6.04632">
        <ele>261.34</ele>
        <time>2018-04-11T07:56:17Z</time>
      </trkpt>
      <trkpt lat="47.67474" lon="6.04625">
        <ele>261.47</ele>
        <time>2018-04-11T07:56:21Z</time>
      </trkpt>
      <trkpt lat="47.6747" lon="6.04618">
        <ele>261.55</ele>
        <time>2018-04-11T07:56:24Z</time>
      </trkpt>
      <trkpt lat="47.67465" lon="6.04614">
        <ele>261.64</ele>
        <time>2018-04-11T07:56:27Z</time>
      </trkpt>
      <trkpt lat="47.67461" lon="6.04609">
        <ele>261.74</ele>
        <time>2018-04-11T07:56:31Z</time>
      </trkpt>
      <trkpt lat="47.67458" lon="6.04603">
        <ele>261.8</ele>
        <time>2018-04-11T07:56:34Z</time>
      </trkpt>
      <trkpt lat="47.67455" lon="6.04596">
        <ele>261.86</ele>
        <time>2018-04-11T07:56:37Z</time>
      </trkpt>
      <trkpt lat="47.67451" lon="6.04591">
        <ele>261.92</ele>
        <time>2018-04-11T07:56:40Z</time>
      </trkpt>
      <trkpt lat="47.67446" lon="6.04588">
        <ele>261.97</ele>
        <time>2018-04-11T07:56:43Z</time>
      </trkpt>
      <trkpt lat="47.67441" lon="6.04586">
        <ele>262.01</ele>
        <time>2018-04-11T07:56:46Z</time>
      </trkpt>
      <trkpt lat="47.67437" lon="6.04582">
        <ele>262.05</ele>
        <time>2018-04-11T07:56:49Z</time>
      </trkpt>
      <trkpt lat="47.67432" lon="6.04577">
        <ele>262.08</ele>
        <time>2018-04-11T07:56:52Z</time>
      </trkpt>
      <trkpt lat="47.67428" lon="6.04571">
        <ele>262.12</ele>
        <time>2018-04-11T07:56:55Z</time>
      </trkpt>
      <trkpt lat="47.67423" lon="6.04566">
        <ele>262.14</ele>
        <time>2018-04-11T07:56:57Z</time>
      </trkpt>
      <trkpt lat="47.6742" lon="6.04562">
        <ele>262.15</ele>
        <time>2018-04-11T07:56:58Z</time>
      </trkpt>
      <trkpt lat="47.67414" lon="6.04555">
        <ele>262.18</ele>
        <time>2018-04-11T07:57:01Z</time>
      </trkpt>
      <trkpt lat="47.67412" lon="6.04548">
        <ele>262.19</ele>
        <time>2018-04-11T07:57:03Z</time>
      </trkpt>
      <trkpt lat="47.67408" lon="6.04543">
        <ele>262.21</ele>
        <time>2018-04-11T07:57:05Z</time>
      </trkpt>
      <trkpt lat="47.67405" lon="6.04539">
        <ele>262.24</ele>
        <time>2018-04-11T07:57:08Z</time>
      </trkpt>
      <trkpt lat="47.674" lon="6.04533">
        <ele>262.26</ele>
        <time>2018-04-11T07:57:11Z</time>
      </trkpt>
      <trkpt lat="47.67395" lon="6.0453">
        <ele>262.28</ele>
        <time>2018-04-11T07:57:13Z</time>
      </trkpt>
      <trkpt lat="47.67389" lon="6.04528">
        <ele>262.3</ele>
        <time>2018-04-11T07:57:15Z</time>
      </trkpt>
      <trkpt lat="47.67384" lon="6.04523">
        <ele>262.32</ele>
        <time>2018-04-11T07:57:18Z</time>
      </trkpt>
      <trkpt lat="47.67378" lon="6.04521">
        <ele>262.35</ele>
        <time>2018-04-11T07:57:21Z</time>
      </trkpt>
      <trkpt lat="47.67373" lon="6.0452">
        <ele>262.37</ele>
        <time>2018-04-11T07:57:24Z</time>
      </trkpt>
      <trkpt lat="47.67368" lon="6.04517">
        <ele>262.4</ele>
        <time>2018-04-11T07:57:27Z</time>
      </trkpt>
      <trkpt lat="47.67363" lon="6.04515">
        <ele>262.42</ele>
        <time>2018-04-11T07:57:29Z</time>
      </trkpt>
      <trkpt lat="47.67357" lon="6.04513">
        <ele>262.44</ele>
        <time>2018-04-11T07:57:31Z</time>
      </trkpt>
      <trkpt lat="47.67351" lon="6.04514">
        <ele>262.46</ele>
        <time>2018-04-11T07:57:34Z</time>
      </trkpt>
      <trkpt lat="47.67345" lon="6.04512">
        <ele>262.49</ele>
        <time>2018-04-11T07:57:37Z</time>
      </trkpt>
      <trkpt lat="47.67339" lon="6.04509">
        <ele>262.51</ele>
        <time>2018-04-11T07:57:40Z</time>
      </trkpt>
      <trkpt lat="47.67333" lon="6.04507">
        <ele>262.52</ele>
        <time>2018-04-11T07:57:43Z</time>
      </trkpt>
      <trkpt lat="47.67327" lon="6.04505">
        <ele>262.54</ele>
        <time>2018-04-11T07:57:46Z</time>
      </trkpt>
      <trkpt lat="47.67322" lon="6.04504">
        <ele>262.55</ele>
        <time>2018-04-11T07:57:48Z</time>
      </trkpt>
      <trkpt lat="47.67316" lon="6.04504">
        <ele>262.55</ele>
        <time>2018-04-11T07:57:50Z</time>
      </trkpt>
      <trkpt lat="47.67312" lon="6.04502">
        <ele>262.56</ele>
        <time>2018-04-11T07:57:52Z</time>
      </trkpt>
      <trkpt lat="47.67305" lon="6.04502">
        <ele>262.56</ele>
        <time>2018-04-11T07:57:55Z</time>
      </trkpt>
      <trkpt lat="47.67299" lon="6.045">
        <ele>262.56</ele>
        <time>2018-04-11T07:57:57Z</time>
      </trkpt>
      <trkpt lat="47.67294" lon="6.04497">
        <ele>262.56</ele>
        <time>2018-04-11T07:57:59Z</time>
      </trkpt>
      <trkpt lat="47.67289" lon="6.04493">
        <ele>262.56</ele>
        <time>2018-04-11T07:58:02Z</time>
      </trkpt>
      <trkpt lat="47.67283" lon="6.04494">
        <ele>262.56</ele>
        <time>2018-04-11T07:58:04Z</time>
      </trkpt>
      <trkpt lat="47.67279" lon="6.04489">
        <ele>262.55</ele>
        <time>2018-04-11T07:58:06Z</time>
      </trkpt>
      <trkpt lat="47.67274" lon="6.04489">
        <ele>262.55</ele>
        <time>2018-04-11T07:58:08Z</time>
      </trkpt>
      <trkpt lat="47.6727" lon="6.04488">
        <ele>262.55</ele>
        <time>2018-04-11T07:58:09Z</time>
      </trkpt>
      <trkpt lat="47.67264" lon="6.04487">
        <ele>262.54</ele>
        <time>2018-04-11T07:58:10Z</time>
      </trkpt>
      <trkpt lat="47.67258" lon="6.04486">
        <ele>262.54</ele>
        <time>2018-04-11T07:58:11Z</time>
      </trkpt>
      <trkpt lat="47.67254" lon="6.04483">
        <ele>262.54</ele>
        <time>2018-04-11T07:58:12Z</time>
      </trkpt>
      <trkpt lat="47.67249" lon="6.04481">
        <ele>262.53</ele>
        <time>2018-04-11T07:58:13Z</time>
      </trkpt>
      <trkpt lat="47.67244" lon="6.04477">
        <ele>262.53</ele>
        <time>2018-04-11T07:58:14Z</time>
      </trkpt>
      <trkpt lat="47.67239" lon="6.04475">
        <ele>262.53</ele>
        <time>2018-04-11T07:58:15Z</time>
      </trkpt>
      <trkpt lat="47.67233" lon="6.04473">
        <ele>262.53</ele>
        <time>2018-04-11T07:58:16Z</time>
      </trkpt>
      <trkpt lat="47.67228" lon="6.0447">
        <ele>262.53</ele>
        <time>2018-04-11T07:58:17Z</time>
      </trkpt>
      <trkpt lat="47.67223" lon="6.04466">
        <ele>262.53</ele>
        <time>2018-04-11T07:58:18Z</time>
      </trkpt>
      <trkpt lat="47.67217" lon="6.04463">
        <ele>262.53</ele>
        <time>2018-04-11T07:58:19Z</time>
      </trkpt>
      <trkpt lat="47.67208" lon="6.04461">
        <ele>262.52</ele>
        <time>2018-04-11T07:58:21Z</time>
      </trkpt>
      <trkpt lat="47.67202" lon="6.04462">
        <ele>262.52</ele>
        <time>2018-04-11T07:58:22Z</time>
      </trkpt>
      <trkpt lat="47.67193" lon="6.04461">
        <ele>262.52</ele>
        <time>2018-04-11T07:58:24Z</time>
      </trkpt>
      <trkpt lat="47.67187" lon="6.04462">
        <ele>262.53</ele>
        <time>2018-04-11T07:58:25Z</time>
      </trkpt>
      <trkpt lat="47.67178" lon="6.04464">
        <ele>262.53</ele>
        <time>2018-04-11T07:58:27Z</time>
      </trkpt>
      <trkpt lat="47.67171" lon="6.04464">
        <ele>262.52</ele>
        <time>2018-04-11T07:58:29Z</time>
      </trkpt>
      <trkpt lat="47.67161" lon="6.04464">
        <ele>262.52</ele>
        <time>2018-04-11T07:58:31Z</time>
      </trkpt>
      <trkpt lat="47.67154" lon="6.04463">
        <ele>262.52</ele>
        <time>2018-04-11T07:58:32Z</time>
      </trkpt>
      <trkpt lat="47.67147" lon="6.04464">
        <ele>262.52</ele>
        <time>2018-04-11T07:58:34Z</time>
      </trkpt>
      <trkpt lat="47.67141" lon="6.04463">
        <ele>262.52</ele>
        <time>2018-04-11T07:58:35Z</time>
      </trkpt>
      <trkpt lat="47.67132" lon="6.04462">
        <ele>262.52</ele>
        <time>2018-04-11T07:58:37Z</time>
      </trkpt>
      <trkpt lat="47.67124" lon="6.04461">
        <ele>262.52</ele>
        <time>2018-04-11T07:58:39Z</time>
      </trkpt>
      <trkpt lat="47.6712" lon="6.04459">
        <ele>262.52</ele>
        <time>2018-04-11T07:58:40Z</time>
      </trkpt>
      <trkpt lat="47.67115" lon="6.04457">
        <ele>262.52</ele>
        <time>2018-04-11T07:58:41Z</time>
      </trkpt>
      <trkpt lat="47.67109" lon="6.04454">
        <ele>262.52</ele>
        <time>2018-04-11T07:58:43Z</time>
      </trkpt>
      <trkpt lat="47.671" lon="6.04452">
        <ele>262.52</ele>
        <time>2018-04-11T07:58:45Z</time>
      </trkpt>
      <trkpt lat="47.67093" lon="6.04451">
        <ele>262.52</ele>
        <time>2018-04-11T07:58:46Z</time>
      </trkpt>
      <trkpt lat="47.67088" lon="6.0445">
        <ele>262.51</ele>
        <time>2018-04-11T07:58:47Z</time>
      </trkpt>
      <trkpt lat="47.67078" lon="6.04449">
        <ele>262.51</ele>
        <time>2018-04-11T07:58:49Z</time>
      </trkpt>
      <trkpt lat="47.67073" lon="6.04449">
        <ele>262.5</ele>
        <time>2018-04-11T07:58:50Z</time>
      </trkpt>
      <trkpt lat="47.67064" lon="6.04451">
        <ele>262.49</ele>
        <time>2018-04-11T07:58:52Z</time>
      </trkpt>
      <trkpt lat="47.67057" lon="6.04451">
        <ele>262.46</ele>
        <time>2018-04-11T07:58:54Z</time>
      </trkpt>
      <trkpt lat="47.67052" lon="6.04448">
        <ele>262.39</ele>
        <time>2018-04-11T07:58:57Z</time>
      </trkpt>
      <trkpt lat="47.67048" lon="6.04443">
        <ele>262.33</ele>
        <time>2018-04-11T07:58:59Z</time>
      </trkpt>
      <trkpt lat="47.67045" lon="6.04437">
        <ele>262.2</ele>
        <time>2018-04-11T07:59:02Z</time>
      </trkpt>
      <trkpt lat="47.67047" lon="6.0443">
        <ele>261.49</ele>
        <time>2018-04-11T07:59:22Z</time>
      </trkpt>
      <trkpt lat="47.67049" lon="6.04423">
        <ele>261.08</ele>
        <time>2018-04-11T07:59:29Z</time>
      </trkpt>
      <trkpt lat="47.67052" lon="6.04417">
        <ele>260.81</ele>
        <time>2018-04-11T07:59:34Z</time>
      </trkpt>
      <trkpt lat="47.67053" lon="6.0441">
        <ele>260.46</ele>
        <time>2018-04-11T07:59:41Z</time>
      </trkpt>
      <trkpt lat="47.67052" lon="6.04403">
        <ele>260.17</ele>
        <time>2018-04-11T07:59:47Z</time>
      </trkpt>
      <trkpt lat="47.67049" lon="6.04398">
        <ele>259.76</ele>
        <time>2018-04-11T07:59:55Z</time>
      </trkpt>
      <trkpt lat="47.6705" lon="6.04391">
        <ele>259.32</ele>
        <time>2018-04-11T08:00:03Z</time>
      </trkpt>
      <trkpt lat="47.6705" lon="6.04384">
        <ele>259.15</ele>
        <time>2018-04-11T08:00:06Z</time>
      </trkpt>
      <trkpt lat="47.67052" lon="6.04377">
        <ele>258.69</ele>
        <time>2018-04-11T08:00:18Z</time>
      </trkpt>
      <trkpt lat="47.67049" lon="6.0437">
        <ele>258.4</ele>
        <time>2018-04-11T08:00:25Z</time>
      </trkpt>
      <trkpt lat="47.67049" lon="6.04363">
        <ele>257.87</ele>
        <time>2018-04-11T08:00:39Z</time>
      </trkpt>
      <trkpt lat="47.67052" lon="6.04358">
        <ele>257.59</ele>
        <time>2018-04-11T08:00:44Z</time>
      </trkpt>
      <trkpt lat="47.67054" lon="6.04351">
        <ele>257.24</ele>
        <time>2018-04-11T08:00:51Z</time>
      </trkpt>
      <trkpt lat="47.67054" lon="6.04344">
        <ele>256.81</ele>
        <time>2018-04-11T08:01:02Z</time>
      </trkpt>
      <trkpt lat="47.6705" lon="6.04341">
        <ele>256.56</ele>
        <time>2018-04-11T08:01:08Z</time>
      </trkpt>
      <trkpt lat="47.67045" lon="6.04336">
        <ele>256.35</ele>
        <time>2018-04-11T08:01:13Z</time>
      </trkpt>
      <trkpt lat="47.67039" lon="6.04338">
        <ele>255.94</ele>
        <time>2018-04-11T08:01:24Z</time>
      </trkpt>
      <trkpt lat="47.67035" lon="6.04344">
        <ele>255.87</ele>
        <time>2018-04-11T08:01:26Z</time>
      </trkpt>
      <trkpt lat="47.67029" lon="6.04351">
        <ele>255.8</ele>
        <time>2018-04-11T08:01:28Z</time>
      </trkpt>
      <trkpt lat="47.67025" lon="6.04355">
        <ele>255.52</ele>
        <time>2018-04-11T08:01:39Z</time>
      </trkpt>
      <trkpt lat="47.67022" lon="6.0436">
        <ele>255.3</ele>
        <time>2018-04-11T08:01:48Z</time>
      </trkpt>
      <trkpt lat="47.67019" lon="6.04365">
        <ele>255.16</ele>
        <time>2018-04-11T08:01:54Z</time>
      </trkpt>
      <trkpt lat="47.67015" lon="6.04366">
        <ele>255.05</ele>
        <time>2018-04-11T08:02:00Z</time>
      </trkpt>
      <trkpt lat="47.67011" lon="6.04372">
        <ele>254.95</ele>
        <time>2018-04-11T08:02:05Z</time>
      </trkpt>
      <trkpt lat="47.67008" lon="6.04378">
        <ele>254.89</ele>
        <time>2018-04-11T08:02:09Z</time>
      </trkpt>
      <trkpt lat="47.67003" lon="6.04379">
        <ele>254.84</ele>
        <time>2018-04-11T08:02:14Z</time>
      </trkpt>
      <trkpt lat="47.67002" lon="6.04386">
        <ele>254.78</ele>
        <time>2018-04-11T08:02:20Z</time>
      </trkpt>
      <trkpt lat="47.67" lon="6.04392">
        <ele>254.74</ele>
        <time>2018-04-11T08:02:27Z</time>
      </trkpt>
      <trkpt lat="47.66997" lon="6.04399">
        <ele>254.73</ele>
        <time>2018-04-11T08:02:32Z</time>
      </trkpt>
      <trkpt lat="47.66996" lon="6.04405">
        <ele>254.74</ele>
        <time>2018-04-11T08:02:40Z</time>
      </trkpt>
      <trkpt lat="47.66995" lon="6.04412">
        <ele>254.79</ele>
        <time>2018-04-11T08:02:46Z</time>
      </trkpt>
      <trkpt lat="47.66997" lon="6.04418">
        <ele>254.85</ele>
        <time>2018-04-11T08:02:50Z</time>
      </trkpt>
      <trkpt lat="47.67" lon="6.04426">
        <ele>254.95</ele>
        <time>2018-04-11T08:02:56Z</time>
      </trkpt>
      <trkpt lat="47.66999" lon="6.04433">
        <ele>255.02</ele>
        <time>2018-04-11T08:03:02Z</time>
      </trkpt>
      <trkpt lat="47.66995" lon="6.04435">
        <ele>255.14</ele>
        <time>2018-04-11T08:03:21Z</time>
      </trkpt>
      <trkpt lat="47.66989" lon="6.04434">
        <ele>255.23</ele>
        <time>2018-04-11T08:03:30Z</time>
      </trkpt>
      <trkpt lat="47.66983" lon="6.04431">
        <ele>255.27</ele>
        <time>2018-04-11T08:03:33Z</time>
      </trkpt>
      <trkpt lat="47.66978" lon="6.04428">
        <ele>255.3</ele>
        <time>2018-04-11T08:03:36Z</time>
      </trkpt>
      <trkpt lat="47.66973" lon="6.04423">
        <ele>255.33</ele>
        <time>2018-04-11T08:03:39Z</time>
      </trkpt>
      <trkpt lat="47.66968" lon="6.04418">
        <ele>255.36</ele>
        <time>2018-04-11T08:03:42Z</time>
      </trkpt>
      <trkpt lat="47.66963" lon="6.04415">
        <ele>255.37</ele>
        <time>2018-04-11T08:03:44Z</time>
      </trkpt>
      <trkpt lat="47.66958" lon="6.0441">
        <ele>255.39</ele>
        <time>2018-04-11T08:03:46Z</time>
      </trkpt>
      <trkpt lat="47.66953" lon="6.04405">
        <ele>255.4</ele>
        <time>2018-04-11T08:03:48Z</time>
      </trkpt>
      <trkpt lat="47.66947" lon="6.044">
        <ele>255.42</ele>
        <time>2018-04-11T08:03:50Z</time>
      </trkpt>
      <trkpt lat="47.66943" lon="6.04396">
        <ele>255.42</ele>
        <time>2018-04-11T08:03:51Z</time>
      </trkpt>
      <trkpt lat="47.66937" lon="6.0439">
        <ele>255.43</ele>
        <time>2018-04-11T08:03:53Z</time>
      </trkpt>
      <trkpt lat="47.66931" lon="6.04382">
        <ele>255.44</ele>
        <time>2018-04-11T08:03:55Z</time>
      </trkpt>
      <trkpt lat="47.66927" lon="6.04376">
        <ele>255.45</ele>
        <time>2018-04-11T08:03:57Z</time>
      </trkpt>
      <trkpt lat="47.66923" lon="6.04371">
        <ele>255.46</ele>
        <time>2018-04-11T08:03:59Z</time>
      </trkpt>
      <trkpt lat="47.66919" lon="6.04368">
        <ele>255.47</ele>
        <time>2018-04-11T08:04:01Z</time>
      </trkpt>
      <trkpt lat="47.66915" lon="6.04363">
        <ele>255.48</ele>
        <time>2018-04-11T08:04:03Z</time>
      </trkpt>
      <trkpt lat="47.6691" lon="6.04359">
        <ele>255.5</ele>
        <time>2018-04-11T08:04:06Z</time>
      </trkpt>
      <trkpt lat="47.66906" lon="6.04356">
        <ele>255.51</ele>
        <time>2018-04-11T08:04:08Z</time>
      </trkpt>
      <trkpt lat="47.66901" lon="6.0435">
        <ele>255.52</ele>
        <time>2018-04-11T08:04:11Z</time>
      </trkpt>
      <trkpt lat="47.66896" lon="6.04348">
        <ele>255.53</ele>
        <time>2018-04-11T08:04:13Z</time>
      </trkpt>
      <trkpt lat="47.66891" lon="6.04343">
        <ele>255.54</ele>
        <time>2018-04-11T08:04:16Z</time>
      </trkpt>
      <trkpt lat="47.66886" lon="6.04338">
        <ele>255.55</ele>
        <time>2018-04-11T08:04:19Z</time>
      </trkpt>
      <trkpt lat="47.66881" lon="6.04333">
        <ele>255.56</ele>
        <time>2018-04-11T08:04:22Z</time>
      </trkpt>
      <trkpt lat="47.66877" lon="6.04329">
        <ele>255.57</ele>
        <time>2018-04-11T08:04:24Z</time>
      </trkpt>
      <trkpt lat="47.66873" lon="6.04324">
        <ele>255.58</ele>
        <time>2018-04-11T08:04:26Z</time>
      </trkpt>
      <trkpt lat="47.66868" lon="6.04322">
        <ele>255.59</ele>
        <time>2018-04-11T08:04:28Z</time>
      </trkpt>
      <trkpt lat="47.66862" lon="6.04318">
        <ele>255.59</ele>
        <time>2018-04-11T08:04:30Z</time>
      </trkpt>
      <trkpt lat="47.66856" lon="6.04313">
        <ele>255.6</ele>
        <time>2018-04-11T08:04:32Z</time>
      </trkpt>
      <trkpt lat="47.66852" lon="6.04309">
        <ele>255.61</ele>
        <time>2018-04-11T08:04:34Z</time>
      </trkpt>
      <trkpt lat="47.66847" lon="6.04305">
        <ele>255.61</ele>
        <time>2018-04-11T08:04:36Z</time>
      </trkpt>
      <trkpt lat="47.66841" lon="6.043">
        <ele>255.62</ele>
        <time>2018-04-11T08:04:38Z</time>
      </trkpt>
      <trkpt lat="47.66836" lon="6.04296">
        <ele>255.63</ele>
        <time>2018-04-11T08:04:40Z</time>
      </trkpt>
      <trkpt lat="47.6683" lon="6.04291">
        <ele>255.63</ele>
        <time>2018-04-11T08:04:42Z</time>
      </trkpt>
      <trkpt lat="47.66824" lon="6.04286">
        <ele>255.64</ele>
        <time>2018-04-11T08:04:44Z</time>
      </trkpt>
      <trkpt lat="47.66818" lon="6.0428">
        <ele>255.65</ele>
        <time>2018-04-11T08:04:46Z</time>
      </trkpt>
      <trkpt lat="47.66812" lon="6.04276">
        <ele>255.66</ele>
        <time>2018-04-11T08:04:48Z</time>
      </trkpt>
      <trkpt lat="47.66807" lon="6.04271">
        <ele>255.67</ele>
        <time>2018-04-11T08:04:50Z</time>
      </trkpt>
      <trkpt lat="47.66802" lon="6.04266">
        <ele>255.68</ele>
        <time>2018-04-11T08:04:52Z</time>
      </trkpt>
      <trkpt lat="47.66797" lon="6.04262">
        <ele>255.7</ele>
        <time>2018-04-11T08:04:54Z</time>
      </trkpt>
      <trkpt lat="47.66792" lon="6.04258">
        <ele>255.71</ele>
        <time>2018-04-11T08:04:56Z</time>
      </trkpt>
      <trkpt lat="47.66788" lon="6.04254">
        <ele>255.73</ele>
        <time>2018-04-11T08:04:58Z</time>
      </trkpt>
      <trkpt lat="47.66782" lon="6.04248">
        <ele>255.74</ele>
        <time>2018-04-11T08:05:00Z</time>
      </trkpt>
      <trkpt lat="47.66777" lon="6.04243">
        <ele>255.76</ele>
        <time>2018-04-11T08:05:02Z</time>
      </trkpt>
      <trkpt lat="47.66773" lon="6.04239">
        <ele>255.79</ele>
        <time>2018-04-11T08:05:04Z</time>
      </trkpt>
      <trkpt lat="47.66768" lon="6.04233">
        <ele>255.83</ele>
        <time>2018-04-11T08:05:07Z</time>
      </trkpt>
      <trkpt lat="47.66763" lon="6.0423">
        <ele>255.86</ele>
        <time>2018-04-11T08:05:09Z</time>
      </trkpt>
      <trkpt lat="47.66759" lon="6.04228">
        <ele>255.89</ele>
        <time>2018-04-11T08:05:11Z</time>
      </trkpt>
      <trkpt lat="47.66753" lon="6.04222">
        <ele>255.93</ele>
        <time>2018-04-11T08:05:13Z</time>
      </trkpt>
      <trkpt lat="47.66749" lon="6.04219">
        <ele>255.97</ele>
        <time>2018-04-11T08:05:15Z</time>
      </trkpt>
      <trkpt lat="47.66745" lon="6.04215">
        <ele>256.01</ele>
        <time>2018-04-11T08:05:17Z</time>
      </trkpt>
      <trkpt lat="47.6674" lon="6.04211">
        <ele>256.08</ele>
        <time>2018-04-11T08:05:20Z</time>
      </trkpt>
      <trkpt lat="47.66735" lon="6.04206">
        <ele>256.15</ele>
        <time>2018-04-11T08:05:23Z</time>
      </trkpt>
      <trkpt lat="47.6673" lon="6.04201">
        <ele>256.25</ele>
        <time>2018-04-11T08:05:27Z</time>
      </trkpt>
      <trkpt lat="47.66726" lon="6.042">
        <ele>256.33</ele>
        <time>2018-04-11T08:05:30Z</time>
      </trkpt>
      <trkpt lat="47.66721" lon="6.04198">
        <ele>256.41</ele>
        <time>2018-04-11T08:05:39Z</time>
      </trkpt>
      <trkpt lat="47.66716" lon="6.04198">
        <ele>256.47</ele>
        <time>2018-04-11T08:05:41Z</time>
      </trkpt>
      <trkpt lat="47.66714" lon="6.0419">
        <ele>256.52</ele>
        <time>2018-04-11T08:05:43Z</time>
      </trkpt>
      <trkpt lat="47.66707" lon="6.0419">
        <ele>256.6</ele>
        <time>2018-04-11T08:05:47Z</time>
      </trkpt>
      <trkpt lat="47.667" lon="6.04193">
        <ele>256.65</ele>
        <time>2018-04-11T08:05:49Z</time>
      </trkpt>
      <trkpt lat="47.66694" lon="6.0419">
        <ele>256.73</ele>
        <time>2018-04-11T08:05:52Z</time>
      </trkpt>
      <trkpt lat="47.6669" lon="6.04187">
        <ele>256.81</ele>
        <time>2018-04-11T08:05:55Z</time>
      </trkpt>
      <trkpt lat="47.66685" lon="6.04185">
        <ele>256.96</ele>
        <time>2018-04-11T08:06:00Z</time>
      </trkpt>
      <trkpt lat="47.6668" lon="6.04185">
        <ele>257.08</ele>
        <time>2018-04-11T08:06:04Z</time>
      </trkpt>
      <trkpt lat="47.66675" lon="6.04184">
        <ele>257.19</ele>
        <time>2018-04-11T08:06:08Z</time>
      </trkpt>
      <trkpt lat="47.66671" lon="6.04179">
        <ele>257.28</ele>
        <time>2018-04-11T08:06:11Z</time>
      </trkpt>
      <trkpt lat="47.66667" lon="6.04174">
        <ele>257.38</ele>
        <time>2018-04-11T08:06:15Z</time>
      </trkpt>
      <trkpt lat="47.66666" lon="6.04166">
        <ele>257.49</ele>
        <time>2018-04-11T08:06:20Z</time>
      </trkpt>
      <trkpt lat="47.66663" lon="6.04157">
        <ele>257.53</ele>
        <time>2018-04-11T08:06:22Z</time>
      </trkpt>
      <trkpt lat="47.66661" lon="6.04148">
        <ele>257.58</ele>
        <time>2018-04-11T08:06:24Z</time>
      </trkpt>
      <trkpt lat="47.66659" lon="6.04142">
        <ele>257.65</ele>
        <time>2018-04-11T08:06:27Z</time>
      </trkpt>
      <trkpt lat="47.66656" lon="6.04133">
        <ele>257.76</ele>
        <time>2018-04-11T08:06:31Z</time>
      </trkpt>
      <trkpt lat="47.66653" lon="6.04127">
        <ele>257.8</ele>
        <time>2018-04-11T08:06:34Z</time>
      </trkpt>
      <trkpt lat="47.66648" lon="6.04124">
        <ele>258.16</ele>
        <time>2018-04-11T08:06:51Z</time>
      </trkpt>
      <trkpt lat="47.66642" lon="6.04119">
        <ele>258.26</ele>
        <time>2018-04-11T08:06:54Z</time>
      </trkpt>
      <trkpt lat="47.66638" lon="6.04115">
        <ele>258.33</ele>
        <time>2018-04-11T08:06:56Z</time>
      </trkpt>
      <trkpt lat="47.66634" lon="6.0411">
        <ele>258.4</ele>
        <time>2018-04-11T08:06:58Z</time>
      </trkpt>
      <trkpt lat="47.6663" lon="6.04105">
        <ele>258.51</ele>
        <time>2018-04-11T08:07:01Z</time>
      </trkpt>
      <trkpt lat="47.66623" lon="6.04098">
        <ele>258.58</ele>
        <time>2018-04-11T08:07:03Z</time>
      </trkpt>
      <trkpt lat="47.66617" lon="6.04091">
        <ele>258.64</ele>
        <time>2018-04-11T08:07:05Z</time>
      </trkpt>
      <trkpt lat="47.66612" lon="6.04085">
        <ele>258.71</ele>
        <time>2018-04-11T08:07:07Z</time>
      </trkpt>
      <trkpt lat="47.66607" lon="6.04082">
        <ele>258.77</ele>
        <time>2018-04-11T08:07:09Z</time>
      </trkpt>
      <trkpt lat="47.66602" lon="6.04077">
        <ele>258.84</ele>
        <time>2018-04-11T08:07:11Z</time>
      </trkpt>
      <trkpt lat="47.66598" lon="6.04075">
        <ele>258.9</ele>
        <time>2018-04-11T08:07:13Z</time>
      </trkpt>
      <trkpt lat="47.66592" lon="6.04069">
        <ele>258.95</ele>
        <time>2018-04-11T08:07:15Z</time>
      </trkpt>
      <trkpt lat="47.66584" lon="6.04063">
        <ele>259.01</ele>
        <time>2018-04-11T08:07:17Z</time>
      </trkpt>
      <trkpt lat="47.66579" lon="6.04059">
        <ele>259.06</ele>
        <time>2018-04-11T08:07:19Z</time>
      </trkpt>
      <trkpt lat="47.66572" lon="6.04055">
        <ele>259.11</ele>
        <time>2018-04-11T08:07:21Z</time>
      </trkpt>
      <trkpt lat="47.66565" lon="6.04052">
        <ele>259.16</ele>
        <time>2018-04-11T08:07:23Z</time>
      </trkpt>
      <trkpt lat="47.66558" lon="6.04049">
        <ele>259.21</ele>
        <time>2018-04-11T08:07:25Z</time>
      </trkpt>
      <trkpt lat="47.66553" lon="6.04044">
        <ele>259.26</ele>
        <time>2018-04-11T08:07:27Z</time>
      </trkpt>
      <trkpt lat="47.66549" lon="6.04039">
        <ele>259.3</ele>
        <time>2018-04-11T08:07:29Z</time>
      </trkpt>
      <trkpt lat="47.66544" lon="6.04033">
        <ele>259.35</ele>
        <time>2018-04-11T08:07:31Z</time>
      </trkpt>
      <trkpt lat="47.66539" lon="6.04026">
        <ele>259.39</ele>
        <time>2018-04-11T08:07:33Z</time>
      </trkpt>
      <trkpt lat="47.66535" lon="6.04023">
        <ele>259.43</ele>
        <time>2018-04-11T08:07:35Z</time>
      </trkpt>
      <trkpt lat="47.66531" lon="6.04018">
        <ele>259.46</ele>
        <time>2018-04-11T08:07:37Z</time>
      </trkpt>
      <trkpt lat="47.66525" lon="6.04014">
        <ele>259.5</ele>
        <time>2018-04-11T08:07:39Z</time>
      </trkpt>
      <trkpt lat="47.66519" lon="6.04008">
        <ele>259.55</ele>
        <time>2018-04-11T08:07:42Z</time>
      </trkpt>
      <trkpt lat="47.66513" lon="6.04005">
        <ele>259.58</ele>
        <time>2018-04-11T08:07:44Z</time>
      </trkpt>
      <trkpt lat="47.66503" lon="6.03999">
        <ele>259.61</ele>
        <time>2018-04-11T08:07:46Z</time>
      </trkpt>
      <trkpt lat="47.66497" lon="6.03994">
        <ele>259.63</ele>
        <time>2018-04-11T08:07:48Z</time>
      </trkpt>
      <trkpt lat="47.66491" lon="6.03991">
        <ele>259.66</ele>
        <time>2018-04-11T08:07:50Z</time>
      </trkpt>
      <trkpt lat="47.66487" lon="6.03987">
        <ele>259.67</ele>
        <time>2018-04-11T08:07:51Z</time>
      </trkpt>
      <trkpt lat="47.66482" lon="6.03981">
        <ele>259.68</ele>
        <time>2018-04-11T08:07:52Z</time>
      </trkpt>
      <trkpt lat="47.66477" lon="6.03975">
        <ele>259.69</ele>
        <time>2018-04-11T08:07:53Z</time>
      </trkpt>
      <trkpt lat="47.66473" lon="6.0397">
        <ele>259.7</ele>
        <time>2018-04-11T08:07:54Z</time>
      </trkpt>
      <trkpt lat="47.66467" lon="6.03961">
        <ele>259.72</ele>
        <time>2018-04-11T08:07:56Z</time>
      </trkpt>
      <trkpt lat="47.66463" lon="6.0395">
        <ele>259.73</ele>
        <time>2018-04-11T08:07:58Z</time>
      </trkpt>
      <trkpt lat="47.66461" lon="6.03939">
        <ele>259.74</ele>
        <time>2018-04-11T08:08:00Z</time>
      </trkpt>
      <trkpt lat="47.66461" lon="6.03931">
        <ele>259.75</ele>
        <time>2018-04-11T08:08:02Z</time>
      </trkpt>
      <trkpt lat="47.66461" lon="6.03924">
        <ele>259.76</ele>
        <time>2018-04-11T08:08:04Z</time>
      </trkpt>
      <trkpt lat="47.66462" lon="6.03917">
        <ele>259.76</ele>
        <time>2018-04-11T08:08:06Z</time>
      </trkpt>
      <trkpt lat="47.66463" lon="6.0391">
        <ele>259.76</ele>
        <time>2018-04-11T08:08:08Z</time>
      </trkpt>
      <trkpt lat="47.66465" lon="6.03903">
        <ele>259.76</ele>
        <time>2018-04-11T08:08:10Z</time>
      </trkpt>
      <trkpt lat="47.66467" lon="6.03894">
        <ele>259.75</ele>
        <time>2018-04-11T08:08:13Z</time>
      </trkpt>
      <trkpt lat="47.66469" lon="6.03888">
        <ele>259.73</ele>
        <time>2018-04-11T08:08:17Z</time>
      </trkpt>
      <trkpt lat="47.66472" lon="6.03882">
        <ele>259.71</ele>
        <time>2018-04-11T08:08:21Z</time>
      </trkpt>
      <trkpt lat="47.66474" lon="6.03875">
        <ele>259.68</ele>
        <time>2018-04-11T08:08:25Z</time>
      </trkpt>
      <trkpt lat="47.66473" lon="6.03868">
        <ele>259.63</ele>
        <time>2018-04-11T08:08:30Z</time>
      </trkpt>
      <trkpt lat="47.66471" lon="6.03861">
        <ele>259.58</ele>
        <time>2018-04-11T08:08:35Z</time>
      </trkpt>
      <trkpt lat="47.66469" lon="6.03855">
        <ele>259.53</ele>
        <time>2018-04-11T08:08:39Z</time>
      </trkpt>
      <trkpt lat="47.66467" lon="6.03848">
        <ele>259.49</ele>
        <time>2018-04-11T08:08:42Z</time>
      </trkpt>
      <trkpt lat="47.66464" lon="6.03842">
        <ele>259.46</ele>
        <time>2018-04-11T08:08:44Z</time>
      </trkpt>
      <trkpt lat="47.66462" lon="6.03834">
        <ele>259.43</ele>
        <time>2018-04-11T08:08:46Z</time>
      </trkpt>
      <trkpt lat="47.6646" lon="6.03827">
        <ele>259.4</ele>
        <time>2018-04-11T08:08:48Z</time>
      </trkpt>
      <trkpt lat="47.66458" lon="6.03817">
        <ele>259.37</ele>
        <time>2018-04-11T08:08:50Z</time>
      </trkpt>
      <trkpt lat="47.66459" lon="6.03811">
        <ele>259.34</ele>
        <time>2018-04-11T08:08:52Z</time>
      </trkpt>
      <trkpt lat="47.66457" lon="6.03799">
        <ele>259.31</ele>
        <time>2018-04-11T08:08:54Z</time>
      </trkpt>
      <trkpt lat="47.66455" lon="6.03788">
        <ele>259.27</ele>
        <time>2018-04-11T08:08:56Z</time>
      </trkpt>
      <trkpt lat="47.66455" lon="6.03775">
        <ele>259.24</ele>
        <time>2018-04-11T08:08:58Z</time>
      </trkpt>
      <trkpt lat="47.66454" lon="6.03763">
        <ele>259.21</ele>
        <time>2018-04-11T08:09:00Z</time>
      </trkpt>
      <trkpt lat="47.66454" lon="6.03752">
        <ele>259.17</ele>
        <time>2018-04-11T08:09:02Z</time>
      </trkpt>
      <trkpt lat="47.66454" lon="6.03739">
        <ele>259.14</ele>
        <time>2018-04-11T08:09:04Z</time>
      </trkpt>
      <trkpt lat="47.66454" lon="6.03731">
        <ele>259.12</ele>
        <time>2018-04-11T08:09:05Z</time>
      </trkpt>
      <trkpt lat="47.66454" lon="6.03723">
        <ele>259.1</ele>
        <time>2018-04-11T08:09:06Z</time>
      </trkpt>
      <trkpt lat="47.66455" lon="6.03717">
        <ele>259.08</ele>
        <time>2018-04-11T08:09:07Z</time>
      </trkpt>
      <trkpt lat="47.66456" lon="6.03704">
        <ele>259.05</ele>
        <time>2018-04-11T08:09:09Z</time>
      </trkpt>
      <trkpt lat="47.66456" lon="6.03692">
        <ele>259.01</ele>
        <time>2018-04-11T08:09:11Z</time>
      </trkpt>
      <trkpt lat="47.66458" lon="6.03682">
        <ele>258.98</ele>
        <time>2018-04-11T08:09:13Z</time>
      </trkpt>
      <trkpt lat="47.6646" lon="6.03674">
        <ele>258.94</ele>
        <time>2018-04-11T08:09:15Z</time>
      </trkpt>
      <trkpt lat="47.66462" lon="6.03664">
        <ele>258.9</ele>
        <time>2018-04-11T08:09:17Z</time>
      </trkpt>
      <trkpt lat="47.66465" lon="6.0365">
        <ele>258.87</ele>
        <time>2018-04-11T08:09:19Z</time>
      </trkpt>
      <trkpt lat="47.66467" lon="6.03641">
        <ele>258.83</ele>
        <time>2018-04-11T08:09:21Z</time>
      </trkpt>
      <trkpt lat="47.66469" lon="6.03629">
        <ele>258.79</ele>
        <time>2018-04-11T08:09:23Z</time>
      </trkpt>
      <trkpt lat="47.6647" lon="6.03618">
        <ele>258.75</ele>
        <time>2018-04-11T08:09:25Z</time>
      </trkpt>
      <trkpt lat="47.66471" lon="6.03605">
        <ele>258.71</ele>
        <time>2018-04-11T08:09:27Z</time>
      </trkpt>
      <trkpt lat="47.66473" lon="6.03593">
        <ele>258.66</ele>
        <time>2018-04-11T08:09:29Z</time>
      </trkpt>
      <trkpt lat="47.66475" lon="6.03582">
        <ele>258.62</ele>
        <time>2018-04-11T08:09:31Z</time>
      </trkpt>
      <trkpt lat="47.66477" lon="6.03571">
        <ele>258.58</ele>
        <time>2018-04-11T08:09:33Z</time>
      </trkpt>
      <trkpt lat="47.66479" lon="6.0356">
        <ele>258.4</ele>
        <time>2018-04-11T08:09:35Z</time>
      </trkpt>
      <trkpt lat="47.66481" lon="6.03547">
        <ele>258.06</ele>
        <time>2018-04-11T08:09:37Z</time>
      </trkpt>
      <trkpt lat="47.66483" lon="6.03535">
        <ele>257.98</ele>
        <time>2018-04-11T08:09:39Z</time>
      </trkpt>
      <trkpt lat="47.66487" lon="6.03523">
        <ele>257.76</ele>
        <time>2018-04-11T08:09:41Z</time>
      </trkpt>
      <trkpt lat="47.66489" lon="6.03515">
        <ele>257.65</ele>
        <time>2018-04-11T08:09:42Z</time>
      </trkpt>
      <trkpt lat="47.66491" lon="6.03508">
        <ele>257.55</ele>
        <time>2018-04-11T08:09:43Z</time>
      </trkpt>
      <trkpt lat="47.66493" lon="6.03502">
        <ele>257.47</ele>
        <time>2018-04-11T08:09:44Z</time>
      </trkpt>
      <trkpt lat="47.66498" lon="6.03491">
        <ele>257.42</ele>
        <time>2018-04-11T08:09:46Z</time>
      </trkpt>
      <trkpt lat="47.66503" lon="6.03482">
        <ele>257.4</ele>
        <time>2018-04-11T08:09:48Z</time>
      </trkpt>
      <trkpt lat="47.66507" lon="6.03473">
        <ele>257.37</ele>
        <time>2018-04-11T08:09:50Z</time>
      </trkpt>
      <trkpt lat="47.66512" lon="6.03465">
        <ele>257.33</ele>
        <time>2018-04-11T08:09:52Z</time>
      </trkpt>
      <trkpt lat="47.66515" lon="6.03457">
        <ele>257.28</ele>
        <time>2018-04-11T08:09:54Z</time>
      </trkpt>
      <trkpt lat="47.66518" lon="6.0345">
        <ele>257.22</ele>
        <time>2018-04-11T08:09:56Z</time>
      </trkpt>
      <trkpt lat="47.6652" lon="6.03443">
        <ele>257.08</ele>
        <time>2018-04-11T08:09:59Z</time>
      </trkpt>
      <trkpt lat="47.66521" lon="6.03437">
        <ele>256.91</ele>
        <time>2018-04-11T08:10:02Z</time>
      </trkpt>
      <trkpt lat="47.66523" lon="6.03429">
        <ele>256.64</ele>
        <time>2018-04-11T08:10:06Z</time>
      </trkpt>
      <trkpt lat="47.66524" lon="6.03422">
        <ele>256.33</ele>
        <time>2018-04-11T08:10:10Z</time>
      </trkpt>
      <trkpt lat="47.66524" lon="6.03413">
        <ele>256.07</ele>
        <time>2018-04-11T08:10:13Z</time>
      </trkpt>
      <trkpt lat="47.66524" lon="6.03402">
        <ele>255.3</ele>
        <time>2018-04-11T08:10:15Z</time>
      </trkpt>
      <trkpt lat="47.66524" lon="6.03392">
        <ele>254.55</ele>
        <time>2018-04-11T08:10:16Z</time>
      </trkpt>
      <trkpt lat="47.66525" lon="6.03383">
        <ele>253.85</ele>
        <time>2018-04-11T08:10:17Z</time>
      </trkpt>
      <trkpt lat="47.66526" lon="6.03373">
        <ele>253.22</ele>
        <time>2018-04-11T08:10:18Z</time>
      </trkpt>
      <trkpt lat="47.66527" lon="6.03363">
        <ele>252.67</ele>
        <time>2018-04-11T08:10:19Z</time>
      </trkpt>
      <trkpt lat="47.66527" lon="6.03353">
        <ele>252.14</ele>
        <time>2018-04-11T08:10:20Z</time>
      </trkpt>
      <trkpt lat="47.66527" lon="6.0334">
        <ele>251.26</ele>
        <time>2018-04-11T08:10:21Z</time>
      </trkpt>
      <trkpt lat="47.66527" lon="6.03327">
        <ele>250.09</ele>
        <time>2018-04-11T08:10:22Z</time>
      </trkpt>
      <trkpt lat="47.66527" lon="6.03316">
        <ele>248.76</ele>
        <time>2018-04-11T08:10:23Z</time>
      </trkpt>
      <trkpt lat="47.66528" lon="6.03305">
        <ele>247.33</ele>
        <time>2018-04-11T08:10:24Z</time>
      </trkpt>
      <trkpt lat="47.66528" lon="6.03295">
        <ele>245.87</ele>
        <time>2018-04-11T08:10:25Z</time>
      </trkpt>
      <trkpt lat="47.66528" lon="6.03284">
        <ele>244.4</ele>
        <time>2018-04-11T08:10:26Z</time>
      </trkpt>
      <trkpt lat="47.66527" lon="6.03275">
        <ele>242.95</ele>
        <time>2018-04-11T08:10:27Z</time>
      </trkpt>
      <trkpt lat="47.66526" lon="6.03265">
        <ele>241.52</ele>
        <time>2018-04-11T08:10:28Z</time>
      </trkpt>
      <trkpt lat="47.66524" lon="6.03257">
        <ele>240.14</ele>
        <time>2018-04-11T08:10:29Z</time>
      </trkpt>
      <trkpt lat="47.66521" lon="6.03248">
        <ele>238.81</ele>
        <time>2018-04-11T08:10:30Z</time>
      </trkpt>
      <trkpt lat="47.66518" lon="6.0324">
        <ele>237.54</ele>
        <time>2018-04-11T08:10:31Z</time>
      </trkpt>
      <trkpt lat="47.66516" lon="6.0323">
        <ele>236.37</ele>
        <time>2018-04-11T08:10:32Z</time>
      </trkpt>
      <trkpt lat="47.66513" lon="6.03221">
        <ele>235.3</ele>
        <time>2018-04-11T08:10:33Z</time>
      </trkpt>
      <trkpt lat="47.66512" lon="6.03212">
        <ele>234.32</ele>
        <time>2018-04-11T08:10:34Z</time>
      </trkpt>
      <trkpt lat="47.6651" lon="6.03203">
        <ele>233.39</ele>
        <time>2018-04-11T08:10:35Z</time>
      </trkpt>
      <trkpt lat="47.6651" lon="6.03194">
        <ele>232.48</ele>
        <time>2018-04-11T08:10:36Z</time>
      </trkpt>
      <trkpt lat="47.66509" lon="6.03185">
        <ele>231.62</ele>
        <time>2018-04-11T08:10:37Z</time>
      </trkpt>
      <trkpt lat="47.66509" lon="6.03176">
        <ele>230.79</ele>
        <time>2018-04-11T08:10:38Z</time>
      </trkpt>
      <trkpt lat="47.66508" lon="6.03168">
        <ele>230</ele>
        <time>2018-04-11T08:10:39Z</time>
      </trkpt>
      <trkpt lat="47.66507" lon="6.03159">
        <ele>229.24</ele>
        <time>2018-04-11T08:10:40Z</time>
      </trkpt>
      <trkpt lat="47.66507" lon="6.03151">
        <ele>228.49</ele>
        <time>2018-04-11T08:10:41Z</time>
      </trkpt>
      <trkpt lat="47.66506" lon="6.03144">
        <ele>227.77</ele>
        <time>2018-04-11T08:10:42Z</time>
      </trkpt>
      <trkpt lat="47.66506" lon="6.03137">
        <ele>227.08</ele>
        <time>2018-04-11T08:10:43Z</time>
      </trkpt>
      <trkpt lat="47.66505" lon="6.0313">
        <ele>226.43</ele>
        <time>2018-04-11T08:10:44Z</time>
      </trkpt>
      <trkpt lat="47.66503" lon="6.03118">
        <ele>225.57</ele>
        <time>2018-04-11T08:10:46Z</time>
      </trkpt>
      <trkpt lat="47.66503" lon="6.03106">
        <ele>225.36</ele>
        <time>2018-04-11T08:10:48Z</time>
      </trkpt>
      <trkpt lat="47.66502" lon="6.03096">
        <ele>225.21</ele>
        <time>2018-04-11T08:10:50Z</time>
      </trkpt>
      <trkpt lat="47.66501" lon="6.03088">
        <ele>225.06</ele>
        <time>2018-04-11T08:10:52Z</time>
      </trkpt>
      <trkpt lat="47.66496" lon="6.03081">
        <ele>224.83</ele>
        <time>2018-04-11T08:10:55Z</time>
      </trkpt>
      <trkpt lat="47.6649" lon="6.03079">
        <ele>224.67</ele>
        <time>2018-04-11T08:10:57Z</time>
      </trkpt>
      <trkpt lat="47.66484" lon="6.03077">
        <ele>224.52</ele>
        <time>2018-04-11T08:10:59Z</time>
      </trkpt>
      <trkpt lat="47.66478" lon="6.03075">
        <ele>224.36</ele>
        <time>2018-04-11T08:11:01Z</time>
      </trkpt>
      <trkpt lat="47.66472" lon="6.03075">
        <ele>224.19</ele>
        <time>2018-04-11T08:11:03Z</time>
      </trkpt>
      <trkpt lat="47.66466" lon="6.03075">
        <ele>224.01</ele>
        <time>2018-04-11T08:11:05Z</time>
      </trkpt>
      <trkpt lat="47.66461" lon="6.03074">
        <ele>223.82</ele>
        <time>2018-04-11T08:11:07Z</time>
      </trkpt>
      <trkpt lat="47.66457" lon="6.03071">
        <ele>223.6</ele>
        <time>2018-04-11T08:11:09Z</time>
      </trkpt>
      <trkpt lat="47.66452" lon="6.03069">
        <ele>223.38</ele>
        <time>2018-04-11T08:11:11Z</time>
      </trkpt>
      <trkpt lat="47.66446" lon="6.03065">
        <ele>223.14</ele>
        <time>2018-04-11T08:11:13Z</time>
      </trkpt>
      <trkpt lat="47.66441" lon="6.03061">
        <ele>222.9</ele>
        <time>2018-04-11T08:11:15Z</time>
      </trkpt>
      <trkpt lat="47.66434" lon="6.03055">
        <ele>222.67</ele>
        <time>2018-04-11T08:11:17Z</time>
      </trkpt>
      <trkpt lat="47.66428" lon="6.03051">
        <ele>222.46</ele>
        <time>2018-04-11T08:11:19Z</time>
      </trkpt>
      <trkpt lat="47.66421" lon="6.03047">
        <ele>222.26</ele>
        <time>2018-04-11T08:11:21Z</time>
      </trkpt>
      <trkpt lat="47.66415" lon="6.03046">
        <ele>222.07</ele>
        <time>2018-04-11T08:11:23Z</time>
      </trkpt>
      <trkpt lat="47.66408" lon="6.03046">
        <ele>221.71</ele>
        <time>2018-04-11T08:11:27Z</time>
      </trkpt>
      <trkpt lat="47.66402" lon="6.03042">
        <ele>221.48</ele>
        <time>2018-04-11T08:11:30Z</time>
      </trkpt>
      <trkpt lat="47.66397" lon="6.0304">
        <ele>221.33</ele>
        <time>2018-04-11T08:11:32Z</time>
      </trkpt>
      <trkpt lat="47.66391" lon="6.03037">
        <ele>221.11</ele>
        <time>2018-04-11T08:11:35Z</time>
      </trkpt>
      <trkpt lat="47.66385" lon="6.03034">
        <ele>220.88</ele>
        <time>2018-04-11T08:11:38Z</time>
      </trkpt>
      <trkpt lat="47.6638" lon="6.0303">
        <ele>220.73</ele>
        <time>2018-04-11T08:11:40Z</time>
      </trkpt>
      <trkpt lat="47.66375" lon="6.03027">
        <ele>220.57</ele>
        <time>2018-04-11T08:11:42Z</time>
      </trkpt>
      <trkpt lat="47.66371" lon="6.03023">
        <ele>220.4</ele>
        <time>2018-04-11T08:11:44Z</time>
      </trkpt>
      <trkpt lat="47.66367" lon="6.03019">
        <ele>220.23</ele>
        <time>2018-04-11T08:11:46Z</time>
      </trkpt>
      <trkpt lat="47.66363" lon="6.03015">
        <ele>220.06</ele>
        <time>2018-04-11T08:11:48Z</time>
      </trkpt>
      <trkpt lat="47.66359" lon="6.0301">
        <ele>219.9</ele>
        <time>2018-04-11T08:11:50Z</time>
      </trkpt>
      <trkpt lat="47.66356" lon="6.03005">
        <ele>219.74</ele>
        <time>2018-04-11T08:11:52Z</time>
      </trkpt>
      <trkpt lat="47.66352" lon="6.03001">
        <ele>219.59</ele>
        <time>2018-04-11T08:11:54Z</time>
      </trkpt>
      <trkpt lat="47.66347" lon="6.02995">
        <ele>219.46</ele>
        <time>2018-04-11T08:11:56Z</time>
      </trkpt>
      <trkpt lat="47.66342" lon="6.02989">
        <ele>219.34</ele>
        <time>2018-04-11T08:11:58Z</time>
      </trkpt>
      <trkpt lat="47.66338" lon="6.02983">
        <ele>219.23</ele>
        <time>2018-04-11T08:12:00Z</time>
      </trkpt>
      <trkpt lat="47.66332" lon="6.02978">
        <ele>219.14</ele>
        <time>2018-04-11T08:12:02Z</time>
      </trkpt>
      <trkpt lat="47.66328" lon="6.02971">
        <ele>219.05</ele>
        <time>2018-04-11T08:12:04Z</time>
      </trkpt>
      <trkpt lat="47.66323" lon="6.02965">
        <ele>218.97</ele>
        <time>2018-04-11T08:12:06Z</time>
      </trkpt>
      <trkpt lat="47.66319" lon="6.02959">
        <ele>218.9</ele>
        <time>2018-04-11T08:12:08Z</time>
      </trkpt>
      <trkpt lat="47.66315" lon="6.02952">
        <ele>218.85</ele>
        <time>2018-04-11T08:12:10Z</time>
      </trkpt>
      <trkpt lat="47.66311" lon="6.02945">
        <ele>218.82</ele>
        <time>2018-04-11T08:12:12Z</time>
      </trkpt>
      <trkpt lat="47.66307" lon="6.02938">
        <ele>218.81</ele>
        <time>2018-04-11T08:12:14Z</time>
      </trkpt>
      <trkpt lat="47.66302" lon="6.02931">
        <ele>218.8</ele>
        <time>2018-04-11T08:12:16Z</time>
      </trkpt>
      <trkpt lat="47.66297" lon="6.02923">
        <ele>218.81</ele>
        <time>2018-04-11T08:12:18Z</time>
      </trkpt>
      <trkpt lat="47.6629" lon="6.02915">
        <ele>218.83</ele>
        <time>2018-04-11T08:12:20Z</time>
      </trkpt>
      <trkpt lat="47.66285" lon="6.02907">
        <ele>218.85</ele>
        <time>2018-04-11T08:12:22Z</time>
      </trkpt>
      <trkpt lat="47.6628" lon="6.02899">
        <ele>218.87</ele>
        <time>2018-04-11T08:12:24Z</time>
      </trkpt>
      <trkpt lat="47.66276" lon="6.02891">
        <ele>218.95</ele>
        <time>2018-04-11T08:12:26Z</time>
      </trkpt>
      <trkpt lat="47.66273" lon="6.02882">
        <ele>218.99</ele>
        <time>2018-04-11T08:12:29Z</time>
      </trkpt>
      <trkpt lat="47.66269" lon="6.02878">
        <ele>219.03</ele>
        <time>2018-04-11T08:12:32Z</time>
      </trkpt>
      <trkpt lat="47.66263" lon="6.02874">
        <ele>219.09</ele>
        <time>2018-04-11T08:12:35Z</time>
      </trkpt>
      <trkpt lat="47.66258" lon="6.0287">
        <ele>219.12</ele>
        <time>2018-04-11T08:12:37Z</time>
      </trkpt>
      <trkpt lat="47.66253" lon="6.02864">
        <ele>219.14</ele>
        <time>2018-04-11T08:12:39Z</time>
      </trkpt>
      <trkpt lat="47.66247" lon="6.02857">
        <ele>219.14</ele>
        <time>2018-04-11T08:12:41Z</time>
      </trkpt>
      <trkpt lat="47.66242" lon="6.0285">
        <ele>219.13</ele>
        <time>2018-04-11T08:12:43Z</time>
      </trkpt>
      <trkpt lat="47.66237" lon="6.02843">
        <ele>219.11</ele>
        <time>2018-04-11T08:12:45Z</time>
      </trkpt>
      <trkpt lat="47.66231" lon="6.02835">
        <ele>219.09</ele>
        <time>2018-04-11T08:12:47Z</time>
      </trkpt>
      <trkpt lat="47.66226" lon="6.02827">
        <ele>218.97</ele>
        <time>2018-04-11T08:12:49Z</time>
      </trkpt>
      <trkpt lat="47.66221" lon="6.02817">
        <ele>218.79</ele>
        <time>2018-04-11T08:12:51Z</time>
      </trkpt>
      <trkpt lat="47.66218" lon="6.02811">
        <ele>218.76</ele>
        <time>2018-04-11T08:12:52Z</time>
      </trkpt>
      <trkpt lat="47.66213" lon="6.02802">
        <ele>218.66</ele>
        <time>2018-04-11T08:12:54Z</time>
      </trkpt>
      <trkpt lat="47.66211" lon="6.02796">
        <ele>218.57</ele>
        <time>2018-04-11T08:12:55Z</time>
      </trkpt>
      <trkpt lat="47.66209" lon="6.02789">
        <ele>218.44</ele>
        <time>2018-04-11T08:12:56Z</time>
      </trkpt>
      <trkpt lat="47.66206" lon="6.02777">
        <ele>218.08</ele>
        <time>2018-04-11T08:12:58Z</time>
      </trkpt>
      <trkpt lat="47.66204" lon="6.02771">
        <ele>217.89</ele>
        <time>2018-04-11T08:12:59Z</time>
      </trkpt>
      <trkpt lat="47.66203" lon="6.02764">
        <ele>217.7</ele>
        <time>2018-04-11T08:13:00Z</time>
      </trkpt>
      <trkpt lat="47.66202" lon="6.02757">
        <ele>217.51</ele>
        <time>2018-04-11T08:13:01Z</time>
      </trkpt>
      <trkpt lat="47.66201" lon="6.0275">
        <ele>217.33</ele>
        <time>2018-04-11T08:13:02Z</time>
      </trkpt>
      <trkpt lat="47.66201" lon="6.02743">
        <ele>217.15</ele>
        <time>2018-04-11T08:13:03Z</time>
      </trkpt>
      <trkpt lat="47.662" lon="6.02735">
        <ele>216.96</ele>
        <time>2018-04-11T08:13:04Z</time>
      </trkpt>
      <trkpt lat="47.662" lon="6.02728">
        <ele>216.75</ele>
        <time>2018-04-11T08:13:05Z</time>
      </trkpt>
      <trkpt lat="47.66199" lon="6.02721">
        <ele>216.53</ele>
        <time>2018-04-11T08:13:06Z</time>
      </trkpt>
      <trkpt lat="47.66199" lon="6.02713">
        <ele>216.19</ele>
        <time>2018-04-11T08:13:07Z</time>
      </trkpt>
      <trkpt lat="47.66198" lon="6.02707">
        <ele>215.84</ele>
        <time>2018-04-11T08:13:08Z</time>
      </trkpt>
      <trkpt lat="47.66198" lon="6.027">
        <ele>215.52</ele>
        <time>2018-04-11T08:13:09Z</time>
      </trkpt>
      <trkpt lat="47.66197" lon="6.02686">
        <ele>214.98</ele>
        <time>2018-04-11T08:13:11Z</time>
      </trkpt>
      <trkpt lat="47.66195" lon="6.02679">
        <ele>214.76</ele>
        <time>2018-04-11T08:13:12Z</time>
      </trkpt>
      <trkpt lat="47.66189" lon="6.0267">
        <ele>214.53</ele>
        <time>2018-04-11T08:13:14Z</time>
      </trkpt>
      <trkpt lat="47.66184" lon="6.02666">
        <ele>214.36</ele>
        <time>2018-04-11T08:13:15Z</time>
      </trkpt>
      <trkpt lat="47.66179" lon="6.02662">
        <ele>214.21</ele>
        <time>2018-04-11T08:13:16Z</time>
      </trkpt>
      <trkpt lat="47.66173" lon="6.02658">
        <ele>214.08</ele>
        <time>2018-04-11T08:13:17Z</time>
      </trkpt>
      <trkpt lat="47.66168" lon="6.02655">
        <ele>213.97</ele>
        <time>2018-04-11T08:13:18Z</time>
      </trkpt>
      <trkpt lat="47.66161" lon="6.02652">
        <ele>213.88</ele>
        <time>2018-04-11T08:13:19Z</time>
      </trkpt>
      <trkpt lat="47.66156" lon="6.02651">
        <ele>213.78</ele>
        <time>2018-04-11T08:13:20Z</time>
      </trkpt>
      <trkpt lat="47.66151" lon="6.02648">
        <ele>213.68</ele>
        <time>2018-04-11T08:13:21Z</time>
      </trkpt>
      <trkpt lat="47.66145" lon="6.02646">
        <ele>213.57</ele>
        <time>2018-04-11T08:13:22Z</time>
      </trkpt>
      <trkpt lat="47.6614" lon="6.02643">
        <ele>213.44</ele>
        <time>2018-04-11T08:13:23Z</time>
      </trkpt>
      <trkpt lat="47.66135" lon="6.02639">
        <ele>213.32</ele>
        <time>2018-04-11T08:13:24Z</time>
      </trkpt>
      <trkpt lat="47.6613" lon="6.02636">
        <ele>213.22</ele>
        <time>2018-04-11T08:13:25Z</time>
      </trkpt>
      <trkpt lat="47.66126" lon="6.02632">
        <ele>213.13</ele>
        <time>2018-04-11T08:13:26Z</time>
      </trkpt>
      <trkpt lat="47.66121" lon="6.02629">
        <ele>213.03</ele>
        <time>2018-04-11T08:13:27Z</time>
      </trkpt>
      <trkpt lat="47.66117" lon="6.02626">
        <ele>212.93</ele>
        <time>2018-04-11T08:13:28Z</time>
      </trkpt>
      <trkpt lat="47.66113" lon="6.02623">
        <ele>212.82</ele>
        <time>2018-04-11T08:13:29Z</time>
      </trkpt>
      <trkpt lat="47.66104" lon="6.0262">
        <ele>212.63</ele>
        <time>2018-04-11T08:13:31Z</time>
      </trkpt>
      <trkpt lat="47.66099" lon="6.02618">
        <ele>212.6</ele>
        <time>2018-04-11T08:13:32Z</time>
      </trkpt>
      <trkpt lat="47.66091" lon="6.02616">
        <ele>212.41</ele>
        <time>2018-04-11T08:13:34Z</time>
      </trkpt>
      <trkpt lat="47.66083" lon="6.02616">
        <ele>212.27</ele>
        <time>2018-04-11T08:13:36Z</time>
      </trkpt>
      <trkpt lat="47.66074" lon="6.02616">
        <ele>212.24</ele>
        <time>2018-04-11T08:13:38Z</time>
      </trkpt>
      <trkpt lat="47.66066" lon="6.02617">
        <ele>212.24</ele>
        <time>2018-04-11T08:13:40Z</time>
      </trkpt>
      <trkpt lat="47.66059" lon="6.02619">
        <ele>212.26</ele>
        <time>2018-04-11T08:13:42Z</time>
      </trkpt>
      <trkpt lat="47.66052" lon="6.02622">
        <ele>212.24</ele>
        <time>2018-04-11T08:13:44Z</time>
      </trkpt>
      <trkpt lat="47.66046" lon="6.02625">
        <ele>212.19</ele>
        <time>2018-04-11T08:13:46Z</time>
      </trkpt>
      <trkpt lat="47.66039" lon="6.02629">
        <ele>212.15</ele>
        <time>2018-04-11T08:13:48Z</time>
      </trkpt>
      <trkpt lat="47.66032" lon="6.02634">
        <ele>211.91</ele>
        <time>2018-04-11T08:13:50Z</time>
      </trkpt>
      <trkpt lat="47.66025" lon="6.02638">
        <ele>211.84</ele>
        <time>2018-04-11T08:13:52Z</time>
      </trkpt>
      <trkpt lat="47.66018" lon="6.02642">
        <ele>211.83</ele>
        <time>2018-04-11T08:13:54Z</time>
      </trkpt>
      <trkpt lat="47.66011" lon="6.02648">
        <ele>211.85</ele>
        <time>2018-04-11T08:13:56Z</time>
      </trkpt>
      <trkpt lat="47.66006" lon="6.02654">
        <ele>211.9</ele>
        <time>2018-04-11T08:13:58Z</time>
      </trkpt>
      <trkpt lat="47.66001" lon="6.02657">
        <ele>211.95</ele>
        <time>2018-04-11T08:14:00Z</time>
      </trkpt>
      <trkpt lat="47.65996" lon="6.02661">
        <ele>212.01</ele>
        <time>2018-04-11T08:14:02Z</time>
      </trkpt>
      <trkpt lat="47.65991" lon="6.02664">
        <ele>212.06</ele>
        <time>2018-04-11T08:14:04Z</time>
      </trkpt>
      <trkpt lat="47.65984" lon="6.02668">
        <ele>212.25</ele>
        <time>2018-04-11T08:14:06Z</time>
      </trkpt>
      <trkpt lat="47.6598" lon="6.02671">
        <ele>212.42</ele>
        <time>2018-04-11T08:14:07Z</time>
      </trkpt>
      <trkpt lat="47.65976" lon="6.02675">
        <ele>212.48</ele>
        <time>2018-04-11T08:14:08Z</time>
      </trkpt>
      <trkpt lat="47.65969" lon="6.0268">
        <ele>212.79</ele>
        <time>2018-04-11T08:14:10Z</time>
      </trkpt>
      <trkpt lat="47.65962" lon="6.02685">
        <ele>213.05</ele>
        <time>2018-04-11T08:14:12Z</time>
      </trkpt>
      <trkpt lat="47.65955" lon="6.02689">
        <ele>213.18</ele>
        <time>2018-04-11T08:14:14Z</time>
      </trkpt>
      <trkpt lat="47.65949" lon="6.02694">
        <ele>213.24</ele>
        <time>2018-04-11T08:14:16Z</time>
      </trkpt>
      <trkpt lat="47.65942" lon="6.02699">
        <ele>213.26</ele>
        <time>2018-04-11T08:14:18Z</time>
      </trkpt>
      <trkpt lat="47.65935" lon="6.02704">
        <ele>213.28</ele>
        <time>2018-04-11T08:14:20Z</time>
      </trkpt>
      <trkpt lat="47.65929" lon="6.02709">
        <ele>213.41</ele>
        <time>2018-04-11T08:14:22Z</time>
      </trkpt>
      <trkpt lat="47.65922" lon="6.02713">
        <ele>213.51</ele>
        <time>2018-04-11T08:14:24Z</time>
      </trkpt>
      <trkpt lat="47.65915" lon="6.02718">
        <ele>213.57</ele>
        <time>2018-04-11T08:14:26Z</time>
      </trkpt>
      <trkpt lat="47.65908" lon="6.02724">
        <ele>213.59</ele>
        <time>2018-04-11T08:14:28Z</time>
      </trkpt>
      <trkpt lat="47.65901" lon="6.02729">
        <ele>213.59</ele>
        <time>2018-04-11T08:14:30Z</time>
      </trkpt>
      <trkpt lat="47.65894" lon="6.02735">
        <ele>213.56</ele>
        <time>2018-04-11T08:14:32Z</time>
      </trkpt>
      <trkpt lat="47.65887" lon="6.0274">
        <ele>213.49</ele>
        <time>2018-04-11T08:14:34Z</time>
      </trkpt>
      <trkpt lat="47.6588" lon="6.02744">
        <ele>213.42</ele>
        <time>2018-04-11T08:14:36Z</time>
      </trkpt>
      <trkpt lat="47.65873" lon="6.02749">
        <ele>213.34</ele>
        <time>2018-04-11T08:14:38Z</time>
      </trkpt>
      <trkpt lat="47.65866" lon="6.02753">
        <ele>213.26</ele>
        <time>2018-04-11T08:14:40Z</time>
      </trkpt>
      <trkpt lat="47.6586" lon="6.02758">
        <ele>213.24</ele>
        <time>2018-04-11T08:14:42Z</time>
      </trkpt>
      <trkpt lat="47.65853" lon="6.02762">
        <ele>213.19</ele>
        <time>2018-04-11T08:14:44Z</time>
      </trkpt>
      <trkpt lat="47.65845" lon="6.02767">
        <ele>213.11</ele>
        <time>2018-04-11T08:14:46Z</time>
      </trkpt>
      <trkpt lat="47.65841" lon="6.0277">
        <ele>213.07</ele>
        <time>2018-04-11T08:14:47Z</time>
      </trkpt>
      <trkpt lat="47.65835" lon="6.02773">
        <ele>213.04</ele>
        <time>2018-04-11T08:14:48Z</time>
      </trkpt>
      <trkpt lat="47.65829" lon="6.02776">
        <ele>213</ele>
        <time>2018-04-11T08:14:49Z</time>
      </trkpt>
      <trkpt lat="47.65824" lon="6.02778">
        <ele>212.97</ele>
        <time>2018-04-11T08:14:50Z</time>
      </trkpt>
      <trkpt lat="47.65818" lon="6.02781">
        <ele>212.94</ele>
        <time>2018-04-11T08:14:51Z</time>
      </trkpt>
      <trkpt lat="47.65813" lon="6.02784">
        <ele>212.91</ele>
        <time>2018-04-11T08:14:52Z</time>
      </trkpt>
      <trkpt lat="47.65807" lon="6.02787">
        <ele>212.89</ele>
        <time>2018-04-11T08:14:53Z</time>
      </trkpt>
      <trkpt lat="47.65801" lon="6.02789">
        <ele>212.86</ele>
        <time>2018-04-11T08:14:54Z</time>
      </trkpt>
      <trkpt lat="47.65796" lon="6.02792">
        <ele>212.84</ele>
        <time>2018-04-11T08:14:55Z</time>
      </trkpt>
      <trkpt lat="47.6579" lon="6.02795">
        <ele>212.81</ele>
        <time>2018-04-11T08:14:56Z</time>
      </trkpt>
      <trkpt lat="47.65785" lon="6.02798">
        <ele>212.79</ele>
        <time>2018-04-11T08:14:57Z</time>
      </trkpt>
      <trkpt lat="47.65778" lon="6.02801">
        <ele>212.75</ele>
        <time>2018-04-11T08:14:58Z</time>
      </trkpt>
      <trkpt lat="47.65772" lon="6.02804">
        <ele>212.71</ele>
        <time>2018-04-11T08:14:59Z</time>
      </trkpt>
      <trkpt lat="47.65767" lon="6.02808">
        <ele>212.64</ele>
        <time>2018-04-11T08:15:00Z</time>
      </trkpt>
      <trkpt lat="47.65761" lon="6.02813">
        <ele>212.56</ele>
        <time>2018-04-11T08:15:01Z</time>
      </trkpt>
      <trkpt lat="47.65755" lon="6.02816">
        <ele>212.47</ele>
        <time>2018-04-11T08:15:02Z</time>
      </trkpt>
      <trkpt lat="47.6575" lon="6.02819">
        <ele>212.36</ele>
        <time>2018-04-11T08:15:03Z</time>
      </trkpt>
      <trkpt lat="47.65744" lon="6.02821">
        <ele>212.24</ele>
        <time>2018-04-11T08:15:04Z</time>
      </trkpt>
      <trkpt lat="47.65739" lon="6.02824">
        <ele>212.11</ele>
        <time>2018-04-11T08:15:05Z</time>
      </trkpt>
      <trkpt lat="47.65735" lon="6.02826">
        <ele>211.97</ele>
        <time>2018-04-11T08:15:06Z</time>
      </trkpt>
      <trkpt lat="47.65727" lon="6.0283">
        <ele>211.67</ele>
        <time>2018-04-11T08:15:08Z</time>
      </trkpt>
      <trkpt lat="47.65719" lon="6.02832">
        <ele>211.36</ele>
        <time>2018-04-11T08:15:10Z</time>
      </trkpt>
      <trkpt lat="47.65712" lon="6.02834">
        <ele>211.27</ele>
        <time>2018-04-11T08:15:12Z</time>
      </trkpt>
      <trkpt lat="47.65705" lon="6.02837">
        <ele>211.22</ele>
        <time>2018-04-11T08:15:14Z</time>
      </trkpt>
      <trkpt lat="47.65698" lon="6.0284">
        <ele>211.17</ele>
        <time>2018-04-11T08:15:16Z</time>
      </trkpt>
      <trkpt lat="47.65692" lon="6.02843">
        <ele>211.12</ele>
        <time>2018-04-11T08:15:18Z</time>
      </trkpt>
      <trkpt lat="47.65685" lon="6.02846">
        <ele>211.06</ele>
        <time>2018-04-11T08:15:20Z</time>
      </trkpt>
      <trkpt lat="47.65678" lon="6.02848">
        <ele>211.01</ele>
        <time>2018-04-11T08:15:22Z</time>
      </trkpt>
      <trkpt lat="47.65671" lon="6.02851">
        <ele>210.95</ele>
        <time>2018-04-11T08:15:24Z</time>
      </trkpt>
      <trkpt lat="47.65664" lon="6.02854">
        <ele>210.89</ele>
        <time>2018-04-11T08:15:26Z</time>
      </trkpt>
      <trkpt lat="47.65656" lon="6.02856">
        <ele>210.83</ele>
        <time>2018-04-11T08:15:28Z</time>
      </trkpt>
      <trkpt lat="47.65649" lon="6.02858">
        <ele>210.77</ele>
        <time>2018-04-11T08:15:30Z</time>
      </trkpt>
      <trkpt lat="47.65642" lon="6.02861">
        <ele>210.47</ele>
        <time>2018-04-11T08:15:32Z</time>
      </trkpt>
      <trkpt lat="47.65635" lon="6.02863">
        <ele>210.39</ele>
        <time>2018-04-11T08:15:34Z</time>
      </trkpt>
      <trkpt lat="47.65627" lon="6.02865">
        <ele>210.14</ele>
        <time>2018-04-11T08:15:36Z</time>
      </trkpt>
      <trkpt lat="47.6562" lon="6.02866">
        <ele>210.07</ele>
        <time>2018-04-11T08:15:38Z</time>
      </trkpt>
      <trkpt lat="47.65613" lon="6.02868">
        <ele>210.02</ele>
        <time>2018-04-11T08:15:40Z</time>
      </trkpt>
      <trkpt lat="47.65605" lon="6.02869">
        <ele>209.97</ele>
        <time>2018-04-11T08:15:42Z</time>
      </trkpt>
      <trkpt lat="47.65598" lon="6.02871">
        <ele>209.91</ele>
        <time>2018-04-11T08:15:44Z</time>
      </trkpt>
      <trkpt lat="47.65592" lon="6.02873">
        <ele>209.86</ele>
        <time>2018-04-11T08:15:46Z</time>
      </trkpt>
      <trkpt lat="47.65585" lon="6.02874">
        <ele>209.8</ele>
        <time>2018-04-11T08:15:48Z</time>
      </trkpt>
      <trkpt lat="47.65577" lon="6.02877">
        <ele>209.74</ele>
        <time>2018-04-11T08:15:50Z</time>
      </trkpt>
      <trkpt lat="47.65571" lon="6.02878">
        <ele>209.68</ele>
        <time>2018-04-11T08:15:52Z</time>
      </trkpt>
      <trkpt lat="47.65563" lon="6.02879">
        <ele>209.61</ele>
        <time>2018-04-11T08:15:54Z</time>
      </trkpt>
      <trkpt lat="47.65556" lon="6.02881">
        <ele>209.02</ele>
        <time>2018-04-11T08:15:56Z</time>
      </trkpt>
      <trkpt lat="47.65549" lon="6.02882">
        <ele>208.47</ele>
        <time>2018-04-11T08:15:58Z</time>
      </trkpt>
      <trkpt lat="47.65541" lon="6.02884">
        <ele>208.17</ele>
        <time>2018-04-11T08:16:00Z</time>
      </trkpt>
      <trkpt lat="47.65533" lon="6.02885">
        <ele>208.11</ele>
        <time>2018-04-11T08:16:02Z</time>
      </trkpt>
      <trkpt lat="47.65526" lon="6.02888">
        <ele>208.07</ele>
        <time>2018-04-11T08:16:04Z</time>
      </trkpt>
      <trkpt lat="47.65519" lon="6.02889">
        <ele>208.04</ele>
        <time>2018-04-11T08:16:06Z</time>
      </trkpt>
      <trkpt lat="47.65512" lon="6.02892">
        <ele>208.01</ele>
        <time>2018-04-11T08:16:08Z</time>
      </trkpt>
      <trkpt lat="47.65507" lon="6.02894">
        <ele>207.99</ele>
        <time>2018-04-11T08:16:10Z</time>
      </trkpt>
      <trkpt lat="47.655" lon="6.02896">
        <ele>207.97</ele>
        <time>2018-04-11T08:16:12Z</time>
      </trkpt>
      <trkpt lat="47.65494" lon="6.02899">
        <ele>207.95</ele>
        <time>2018-04-11T08:16:14Z</time>
      </trkpt>
      <trkpt lat="47.65487" lon="6.02902">
        <ele>207.94</ele>
        <time>2018-04-11T08:16:16Z</time>
      </trkpt>
      <trkpt lat="47.6548" lon="6.02903">
        <ele>207.92</ele>
        <time>2018-04-11T08:16:18Z</time>
      </trkpt>
      <trkpt lat="47.65474" lon="6.02905">
        <ele>207.92</ele>
        <time>2018-04-11T08:16:20Z</time>
      </trkpt>
      <trkpt lat="47.65466" lon="6.02909">
        <ele>207.92</ele>
        <time>2018-04-11T08:16:22Z</time>
      </trkpt>
      <trkpt lat="47.65459" lon="6.02913">
        <ele>207.92</ele>
        <time>2018-04-11T08:16:24Z</time>
      </trkpt>
      <trkpt lat="47.65451" lon="6.02917">
        <ele>207.96</ele>
        <time>2018-04-11T08:16:26Z</time>
      </trkpt>
      <trkpt lat="47.65444" lon="6.02921">
        <ele>208</ele>
        <time>2018-04-11T08:16:28Z</time>
      </trkpt>
      <trkpt lat="47.65437" lon="6.02925">
        <ele>208.09</ele>
        <time>2018-04-11T08:16:30Z</time>
      </trkpt>
      <trkpt lat="47.65429" lon="6.02928">
        <ele>208.2</ele>
        <time>2018-04-11T08:16:32Z</time>
      </trkpt>
      <trkpt lat="47.65422" lon="6.02932">
        <ele>208.37</ele>
        <time>2018-04-11T08:16:34Z</time>
      </trkpt>
      <trkpt lat="47.65414" lon="6.02936">
        <ele>208.54</ele>
        <time>2018-04-11T08:16:36Z</time>
      </trkpt>
      <trkpt lat="47.65406" lon="6.0294">
        <ele>208.67</ele>
        <time>2018-04-11T08:16:38Z</time>
      </trkpt>
      <trkpt lat="47.65399" lon="6.02943">
        <ele>208.78</ele>
        <time>2018-04-11T08:16:40Z</time>
      </trkpt>
      <trkpt lat="47.65392" lon="6.02947">
        <ele>208.88</ele>
        <time>2018-04-11T08:16:42Z</time>
      </trkpt>
      <trkpt lat="47.65385" lon="6.02951">
        <ele>208.94</ele>
        <time>2018-04-11T08:16:44Z</time>
      </trkpt>
      <trkpt lat="47.65378" lon="6.02954">
        <ele>208.95</ele>
        <time>2018-04-11T08:16:46Z</time>
      </trkpt>
      <trkpt lat="47.65371" lon="6.02957">
        <ele>208.95</ele>
        <time>2018-04-11T08:16:48Z</time>
      </trkpt>
      <trkpt lat="47.65364" lon="6.02961">
        <ele>208.95</ele>
        <time>2018-04-11T08:16:50Z</time>
      </trkpt>
      <trkpt lat="47.65357" lon="6.02964">
        <ele>208.95</ele>
        <time>2018-04-11T08:16:52Z</time>
      </trkpt>
      <trkpt lat="47.6535" lon="6.02967">
        <ele>208.94</ele>
        <time>2018-04-11T08:16:54Z</time>
      </trkpt>
      <trkpt lat="47.65343" lon="6.0297">
        <ele>208.94</ele>
        <time>2018-04-11T08:16:56Z</time>
      </trkpt>
      <trkpt lat="47.65336" lon="6.02973">
        <ele>208.94</ele>
        <time>2018-04-11T08:16:58Z</time>
      </trkpt>
      <trkpt lat="47.65329" lon="6.02977">
        <ele>208.94</ele>
        <time>2018-04-11T08:17:00Z</time>
      </trkpt>
      <trkpt lat="47.65322" lon="6.0298">
        <ele>208.92</ele>
        <time>2018-04-11T08:17:02Z</time>
      </trkpt>
      <trkpt lat="47.65315" lon="6.02984">
        <ele>208.86</ele>
        <time>2018-04-11T08:17:04Z</time>
      </trkpt>
      <trkpt lat="47.65308" lon="6.02987">
        <ele>208.83</ele>
        <time>2018-04-11T08:17:06Z</time>
      </trkpt>
      <trkpt lat="47.65301" lon="6.0299">
        <ele>208.8</ele>
        <time>2018-04-11T08:17:08Z</time>
      </trkpt>
      <trkpt lat="47.65292" lon="6.02993">
        <ele>208.8</ele>
        <time>2018-04-11T08:17:10Z</time>
      </trkpt>
      <trkpt lat="47.65284" lon="6.02995">
        <ele>208.76</ele>
        <time>2018-04-11T08:17:12Z</time>
      </trkpt>
      <trkpt lat="47.65276" lon="6.02997">
        <ele>208.68</ele>
        <time>2018-04-11T08:17:14Z</time>
      </trkpt>
      <trkpt lat="47.65267" lon="6.02998">
        <ele>208.59</ele>
        <time>2018-04-11T08:17:16Z</time>
      </trkpt>
      <trkpt lat="47.65258" lon="6.03">
        <ele>208.52</ele>
        <time>2018-04-11T08:17:18Z</time>
      </trkpt>
      <trkpt lat="47.65253" lon="6.03001">
        <ele>208.5</ele>
        <time>2018-04-11T08:17:19Z</time>
      </trkpt>
      <trkpt lat="47.65249" lon="6.03001">
        <ele>208.47</ele>
        <time>2018-04-11T08:17:20Z</time>
      </trkpt>
      <trkpt lat="47.65244" lon="6.03002">
        <ele>208.44</ele>
        <time>2018-04-11T08:17:21Z</time>
      </trkpt>
      <trkpt lat="47.65239" lon="6.03003">
        <ele>208.4</ele>
        <time>2018-04-11T08:17:22Z</time>
      </trkpt>
      <trkpt lat="47.65234" lon="6.03003">
        <ele>208.36</ele>
        <time>2018-04-11T08:17:23Z</time>
      </trkpt>
      <trkpt lat="47.65229" lon="6.03004">
        <ele>208.33</ele>
        <time>2018-04-11T08:17:24Z</time>
      </trkpt>
      <trkpt lat="47.6522" lon="6.03005">
        <ele>208.25</ele>
        <time>2018-04-11T08:17:26Z</time>
      </trkpt>
      <trkpt lat="47.65212" lon="6.03006">
        <ele>208.2</ele>
        <time>2018-04-11T08:17:28Z</time>
      </trkpt>
      <trkpt lat="47.65203" lon="6.03008">
        <ele>208.17</ele>
        <time>2018-04-11T08:17:30Z</time>
      </trkpt>
      <trkpt lat="47.65195" lon="6.03009">
        <ele>208.12</ele>
        <time>2018-04-11T08:17:32Z</time>
      </trkpt>
      <trkpt lat="47.65191" lon="6.0301">
        <ele>208.07</ele>
        <time>2018-04-11T08:17:33Z</time>
      </trkpt>
      <trkpt lat="47.65183" lon="6.03013">
        <ele>208</ele>
        <time>2018-04-11T08:17:35Z</time>
      </trkpt>
      <trkpt lat="47.65176" lon="6.03017">
        <ele>207.92</ele>
        <time>2018-04-11T08:17:37Z</time>
      </trkpt>
      <trkpt lat="47.65169" lon="6.03023">
        <ele>207.79</ele>
        <time>2018-04-11T08:17:39Z</time>
      </trkpt>
      <trkpt lat="47.65162" lon="6.03029">
        <ele>207.65</ele>
        <time>2018-04-11T08:17:41Z</time>
      </trkpt>
      <trkpt lat="47.65156" lon="6.03034">
        <ele>207.56</ele>
        <time>2018-04-11T08:17:43Z</time>
      </trkpt>
      <trkpt lat="47.65151" lon="6.03039">
        <ele>207.54</ele>
        <time>2018-04-11T08:17:45Z</time>
      </trkpt>
      <trkpt lat="47.65145" lon="6.03043">
        <ele>207.52</ele>
        <time>2018-04-11T08:17:47Z</time>
      </trkpt>
      <trkpt lat="47.6514" lon="6.03047">
        <ele>207.5</ele>
        <time>2018-04-11T08:17:49Z</time>
      </trkpt>
      <trkpt lat="47.65135" lon="6.03052">
        <ele>207.47</ele>
        <time>2018-04-11T08:17:51Z</time>
      </trkpt>
      <trkpt lat="47.6513" lon="6.03059">
        <ele>207.45</ele>
        <time>2018-04-11T08:17:53Z</time>
      </trkpt>
      <trkpt lat="47.65127" lon="6.03064">
        <ele>207.41</ele>
        <time>2018-04-11T08:17:55Z</time>
      </trkpt>
      <trkpt lat="47.65122" lon="6.0307">
        <ele>207.36</ele>
        <time>2018-04-11T08:17:58Z</time>
      </trkpt>
      <trkpt lat="47.65117" lon="6.03076">
        <ele>207.31</ele>
        <time>2018-04-11T08:18:01Z</time>
      </trkpt>
      <trkpt lat="47.65113" lon="6.0308">
        <ele>207.24</ele>
        <time>2018-04-11T08:18:04Z</time>
      </trkpt>
      <trkpt lat="47.65109" lon="6.03086">
        <ele>207.18</ele>
        <time>2018-04-11T08:18:07Z</time>
      </trkpt>
      <trkpt lat="47.65103" lon="6.03093">
        <ele>207.06</ele>
        <time>2018-04-11T08:18:31Z</time>
      </trkpt>
      <trkpt lat="47.651" lon="6.03098">
        <ele>206.55</ele>
        <time>2018-04-11T08:19:32Z</time>
      </trkpt>
      <trkpt lat="47.65095" lon="6.03099">
        <ele>205.43</ele>
        <time>2018-04-11T08:21:33Z</time>
      </trkpt>
      <trkpt lat="47.65089" lon="6.03103">
        <ele>205.43</ele>
        <time>2018-04-11T08:21:37Z</time>
      </trkpt>
      <trkpt lat="47.65085" lon="6.03102">
        <ele>205.43</ele>
        <time>2018-04-11T08:21:40Z</time>
      </trkpt>
      <trkpt lat="47.65081" lon="6.03092">
        <ele>205.44</ele>
        <time>2018-04-11T08:21:44Z</time>
      </trkpt>
      <trkpt lat="47.65078" lon="6.03084">
        <ele>205.45</ele>
        <time>2018-04-11T08:21:46Z</time>
      </trkpt>
      <trkpt lat="47.65075" lon="6.03075">
        <ele>205.46</ele>
        <time>2018-04-11T08:21:48Z</time>
      </trkpt>
      <trkpt lat="47.65072" lon="6.03068">
        <ele>205.46</ele>
        <time>2018-04-11T08:21:50Z</time>
      </trkpt>
      <trkpt lat="47.65069" lon="6.03059">
        <ele>205.47</ele>
        <time>2018-04-11T08:21:52Z</time>
      </trkpt>
      <trkpt lat="47.65067" lon="6.03051">
        <ele>205.47</ele>
        <time>2018-04-11T08:21:54Z</time>
      </trkpt>
      <trkpt lat="47.65065" lon="6.03043">
        <ele>205.48</ele>
        <time>2018-04-11T08:21:56Z</time>
      </trkpt>
      <trkpt lat="47.65063" lon="6.03035">
        <ele>205.49</ele>
        <time>2018-04-11T08:21:58Z</time>
      </trkpt>
      <trkpt lat="47.65059" lon="6.03026">
        <ele>205.52</ele>
        <time>2018-04-11T08:22:00Z</time>
      </trkpt>
      <trkpt lat="47.65053" lon="6.03017">
        <ele>205.55</ele>
        <time>2018-04-11T08:22:02Z</time>
      </trkpt>
      <trkpt lat="47.65048" lon="6.03008">
        <ele>205.57</ele>
        <time>2018-04-11T08:22:04Z</time>
      </trkpt>
      <trkpt lat="47.65042" lon="6.02999">
        <ele>205.58</ele>
        <time>2018-04-11T08:22:06Z</time>
      </trkpt>
      <trkpt lat="47.65036" lon="6.0299">
        <ele>205.6</ele>
        <time>2018-04-11T08:22:08Z</time>
      </trkpt>
      <trkpt lat="47.65031" lon="6.02981">
        <ele>205.61</ele>
        <time>2018-04-11T08:22:10Z</time>
      </trkpt>
      <trkpt lat="47.65025" lon="6.02971">
        <ele>205.61</ele>
        <time>2018-04-11T08:22:12Z</time>
      </trkpt>
      <trkpt lat="47.6502" lon="6.02962">
        <ele>205.61</ele>
        <time>2018-04-11T08:22:14Z</time>
      </trkpt>
      <trkpt lat="47.65016" lon="6.02953">
        <ele>205.61</ele>
        <time>2018-04-11T08:22:16Z</time>
      </trkpt>
      <trkpt lat="47.65014" lon="6.02945">
        <ele>205.6</ele>
        <time>2018-04-11T08:22:18Z</time>
      </trkpt>
      <trkpt lat="47.65013" lon="6.02938">
        <ele>205.6</ele>
        <time>2018-04-11T08:22:20Z</time>
      </trkpt>
      <trkpt lat="47.65011" lon="6.02929">
        <ele>205.6</ele>
        <time>2018-04-11T08:22:22Z</time>
      </trkpt>
      <trkpt lat="47.65009" lon="6.02918">
        <ele>205.59</ele>
        <time>2018-04-11T08:22:24Z</time>
      </trkpt>
      <trkpt lat="47.65006" lon="6.02908">
        <ele>205.58</ele>
        <time>2018-04-11T08:22:26Z</time>
      </trkpt>
      <trkpt lat="47.65004" lon="6.02896">
        <ele>205.52</ele>
        <time>2018-04-11T08:22:28Z</time>
      </trkpt>
      <trkpt lat="47.65001" lon="6.02883">
        <ele>205.46</ele>
        <time>2018-04-11T08:22:30Z</time>
      </trkpt>
      <trkpt lat="47.64999" lon="6.02876">
        <ele>205.43</ele>
        <time>2018-04-11T08:22:31Z</time>
      </trkpt>
      <trkpt lat="47.64998" lon="6.02869">
        <ele>205.41</ele>
        <time>2018-04-11T08:22:32Z</time>
      </trkpt>
      <trkpt lat="47.64996" lon="6.02857">
        <ele>205.37</ele>
        <time>2018-04-11T08:22:34Z</time>
      </trkpt>
      <trkpt lat="47.64994" lon="6.02846">
        <ele>205.32</ele>
        <time>2018-04-11T08:22:36Z</time>
      </trkpt>
      <trkpt lat="47.64993" lon="6.02833">
        <ele>205.27</ele>
        <time>2018-04-11T08:22:38Z</time>
      </trkpt>
      <trkpt lat="47.64991" lon="6.02821">
        <ele>205.23</ele>
        <time>2018-04-11T08:22:40Z</time>
      </trkpt>
      <trkpt lat="47.6499" lon="6.02811">
        <ele>205.2</ele>
        <time>2018-04-11T08:22:42Z</time>
      </trkpt>
      <trkpt lat="47.64989" lon="6.02798">
        <ele>205.18</ele>
        <time>2018-04-11T08:22:44Z</time>
      </trkpt>
      <trkpt lat="47.64988" lon="6.02785">
        <ele>205.16</ele>
        <time>2018-04-11T08:22:46Z</time>
      </trkpt>
      <trkpt lat="47.64987" lon="6.02778">
        <ele>205.14</ele>
        <time>2018-04-11T08:22:47Z</time>
      </trkpt>
      <trkpt lat="47.64987" lon="6.02772">
        <ele>205.13</ele>
        <time>2018-04-11T08:22:48Z</time>
      </trkpt>
      <trkpt lat="47.64985" lon="6.02758">
        <ele>205.11</ele>
        <time>2018-04-11T08:22:50Z</time>
      </trkpt>
      <trkpt lat="47.64985" lon="6.0275">
        <ele>205.11</ele>
        <time>2018-04-11T08:22:51Z</time>
      </trkpt>
      <trkpt lat="47.64983" lon="6.02739">
        <ele>205.11</ele>
        <time>2018-04-11T08:22:53Z</time>
      </trkpt>
      <trkpt lat="47.64982" lon="6.02727">
        <ele>205.12</ele>
        <time>2018-04-11T08:22:55Z</time>
      </trkpt>
      <trkpt lat="47.64981" lon="6.0272">
        <ele>205.12</ele>
        <time>2018-04-11T08:22:56Z</time>
      </trkpt>
      <trkpt lat="47.6498" lon="6.02709">
        <ele>205.12</ele>
        <time>2018-04-11T08:22:58Z</time>
      </trkpt>
      <trkpt lat="47.64978" lon="6.02697">
        <ele>205.11</ele>
        <time>2018-04-11T08:23:00Z</time>
      </trkpt>
      <trkpt lat="47.64977" lon="6.02685">
        <ele>205.1</ele>
        <time>2018-04-11T08:23:02Z</time>
      </trkpt>
      <trkpt lat="47.64976" lon="6.02675">
        <ele>205.1</ele>
        <time>2018-04-11T08:23:04Z</time>
      </trkpt>
      <trkpt lat="47.64974" lon="6.02664">
        <ele>205.1</ele>
        <time>2018-04-11T08:23:06Z</time>
      </trkpt>
      <trkpt lat="47.64972" lon="6.02651">
        <ele>205.11</ele>
        <time>2018-04-11T08:23:08Z</time>
      </trkpt>
      <trkpt lat="47.64971" lon="6.0264">
        <ele>205.12</ele>
        <time>2018-04-11T08:23:10Z</time>
      </trkpt>
      <trkpt lat="47.6497" lon="6.02629">
        <ele>205.12</ele>
        <time>2018-04-11T08:23:12Z</time>
      </trkpt>
      <trkpt lat="47.64969" lon="6.0262">
        <ele>205.14</ele>
        <time>2018-04-11T08:23:14Z</time>
      </trkpt>
      <trkpt lat="47.64968" lon="6.0261">
        <ele>205.15</ele>
        <time>2018-04-11T08:23:16Z</time>
      </trkpt>
      <trkpt lat="47.64966" lon="6.02598">
        <ele>205.17</ele>
        <time>2018-04-11T08:23:18Z</time>
      </trkpt>
      <trkpt lat="47.64966" lon="6.02591">
        <ele>205.17</ele>
        <time>2018-04-11T08:23:19Z</time>
      </trkpt>
      <trkpt lat="47.64965" lon="6.02584">
        <ele>205.18</ele>
        <time>2018-04-11T08:23:20Z</time>
      </trkpt>
      <trkpt lat="47.64964" lon="6.02577">
        <ele>205.18</ele>
        <time>2018-04-11T08:23:21Z</time>
      </trkpt>
      <trkpt lat="47.64963" lon="6.02568">
        <ele>205.18</ele>
        <time>2018-04-11T08:23:22Z</time>
      </trkpt>
      <trkpt lat="47.64961" lon="6.02557">
        <ele>205.19</ele>
        <time>2018-04-11T08:23:23Z</time>
      </trkpt>
      <trkpt lat="47.6496" lon="6.02549">
        <ele>205.2</ele>
        <time>2018-04-11T08:23:24Z</time>
      </trkpt>
      <trkpt lat="47.64959" lon="6.02541">
        <ele>205.21</ele>
        <time>2018-04-11T08:23:25Z</time>
      </trkpt>
      <trkpt lat="47.64958" lon="6.02532">
        <ele>205.22</ele>
        <time>2018-04-11T08:23:26Z</time>
      </trkpt>
      <trkpt lat="47.64956" lon="6.02523">
        <ele>205.22</ele>
        <time>2018-04-11T08:23:27Z</time>
      </trkpt>
      <trkpt lat="47.64955" lon="6.02515">
        <ele>205.23</ele>
        <time>2018-04-11T08:23:28Z</time>
      </trkpt>
      <trkpt lat="47.64953" lon="6.02508">
        <ele>205.23</ele>
        <time>2018-04-11T08:23:29Z</time>
      </trkpt>
      <trkpt lat="47.64952" lon="6.02501">
        <ele>205.24</ele>
        <time>2018-04-11T08:23:30Z</time>
      </trkpt>
      <trkpt lat="47.64949" lon="6.02491">
        <ele>205.25</ele>
        <time>2018-04-11T08:23:32Z</time>
      </trkpt>
      <trkpt lat="47.64947" lon="6.0248">
        <ele>205.29</ele>
        <time>2018-04-11T08:23:34Z</time>
      </trkpt>
      <trkpt lat="47.64946" lon="6.02469">
        <ele>205.3</ele>
        <time>2018-04-11T08:23:36Z</time>
      </trkpt>
      <trkpt lat="47.64945" lon="6.02457">
        <ele>205.36</ele>
        <time>2018-04-11T08:23:38Z</time>
      </trkpt>
      <trkpt lat="47.64943" lon="6.02451">
        <ele>205.39</ele>
        <time>2018-04-11T08:23:39Z</time>
      </trkpt>
      <trkpt lat="47.64942" lon="6.02444">
        <ele>205.42</ele>
        <time>2018-04-11T08:23:40Z</time>
      </trkpt>
      <trkpt lat="47.64942" lon="6.02435">
        <ele>205.45</ele>
        <time>2018-04-11T08:23:41Z</time>
      </trkpt>
      <trkpt lat="47.64941" lon="6.02429">
        <ele>205.48</ele>
        <time>2018-04-11T08:23:42Z</time>
      </trkpt>
      <trkpt lat="47.6494" lon="6.02417">
        <ele>205.49</ele>
        <time>2018-04-11T08:23:44Z</time>
      </trkpt>
      <trkpt lat="47.64941" lon="6.02408">
        <ele>205.5</ele>
        <time>2018-04-11T08:23:46Z</time>
      </trkpt>
      <trkpt lat="47.64945" lon="6.02402">
        <ele>205.51</ele>
        <time>2018-04-11T08:23:48Z</time>
      </trkpt>
      <trkpt lat="47.64949" lon="6.02399">
        <ele>205.52</ele>
        <time>2018-04-11T08:23:50Z</time>
      </trkpt>
      <trkpt lat="47.64956" lon="6.0239">
        <ele>205.61</ele>
        <time>2018-04-11T08:23:52Z</time>
      </trkpt>
      <trkpt lat="47.64959" lon="6.02385">
        <ele>205.62</ele>
        <time>2018-04-11T08:23:53Z</time>
      </trkpt>
      <trkpt lat="47.64964" lon="6.02375">
        <ele>205.63</ele>
        <time>2018-04-11T08:23:55Z</time>
      </trkpt>
      <trkpt lat="47.64967" lon="6.02368">
        <ele>205.64</ele>
        <time>2018-04-11T08:23:57Z</time>
      </trkpt>
      <trkpt lat="47.64968" lon="6.02357">
        <ele>205.65</ele>
        <time>2018-04-11T08:23:59Z</time>
      </trkpt>
      <trkpt lat="47.64969" lon="6.02347">
        <ele>205.67</ele>
        <time>2018-04-11T08:24:01Z</time>
      </trkpt>
      <trkpt lat="47.6497" lon="6.0234">
        <ele>205.67</ele>
        <time>2018-04-11T08:24:02Z</time>
      </trkpt>
      <trkpt lat="47.64973" lon="6.02333">
        <ele>205.69</ele>
        <time>2018-04-11T08:24:04Z</time>
      </trkpt>
      <trkpt lat="47.64975" lon="6.02321">
        <ele>205.71</ele>
        <time>2018-04-11T08:24:06Z</time>
      </trkpt>
      <trkpt lat="47.64976" lon="6.02311">
        <ele>205.78</ele>
        <time>2018-04-11T08:24:08Z</time>
      </trkpt>
      <trkpt lat="47.64974" lon="6.02298">
        <ele>205.91</ele>
        <time>2018-04-11T08:24:10Z</time>
      </trkpt>
      <trkpt lat="47.64971" lon="6.02286">
        <ele>206.02</ele>
        <time>2018-04-11T08:24:12Z</time>
      </trkpt>
      <trkpt lat="47.64969" lon="6.02279">
        <ele>206.06</ele>
        <time>2018-04-11T08:24:13Z</time>
      </trkpt>
      <trkpt lat="47.64966" lon="6.02267">
        <ele>206.11</ele>
        <time>2018-04-11T08:24:15Z</time>
      </trkpt>
      <trkpt lat="47.64963" lon="6.02256">
        <ele>206.12</ele>
        <time>2018-04-11T08:24:17Z</time>
      </trkpt>
      <trkpt lat="47.64961" lon="6.02247">
        <ele>206.13</ele>
        <time>2018-04-11T08:24:19Z</time>
      </trkpt>
      <trkpt lat="47.64958" lon="6.02237">
        <ele>206.13</ele>
        <time>2018-04-11T08:24:21Z</time>
      </trkpt>
      <trkpt lat="47.64954" lon="6.02225">
        <ele>206.19</ele>
        <time>2018-04-11T08:24:23Z</time>
      </trkpt>
      <trkpt lat="47.64951" lon="6.02219">
        <ele>206.22</ele>
        <time>2018-04-11T08:24:24Z</time>
      </trkpt>
      <trkpt lat="47.64949" lon="6.02212">
        <ele>206.23</ele>
        <time>2018-04-11T08:24:25Z</time>
      </trkpt>
      <trkpt lat="47.64945" lon="6.02202">
        <ele>206.24</ele>
        <time>2018-04-11T08:24:27Z</time>
      </trkpt>
      <trkpt lat="47.64942" lon="6.02194">
        <ele>206.24</ele>
        <time>2018-04-11T08:24:29Z</time>
      </trkpt>
      <trkpt lat="47.64939" lon="6.02185">
        <ele>206.25</ele>
        <time>2018-04-11T08:24:31Z</time>
      </trkpt>
      <trkpt lat="47.64935" lon="6.02179">
        <ele>206.26</ele>
        <time>2018-04-11T08:24:33Z</time>
      </trkpt>
      <trkpt lat="47.64931" lon="6.02173">
        <ele>206.27</ele>
        <time>2018-04-11T08:24:35Z</time>
      </trkpt>
      <trkpt lat="47.64928" lon="6.02167">
        <ele>206.29</ele>
        <time>2018-04-11T08:24:38Z</time>
      </trkpt>
      <trkpt lat="47.64926" lon="6.02159">
        <ele>206.3</ele>
        <time>2018-04-11T08:24:40Z</time>
      </trkpt>
      <trkpt lat="47.64924" lon="6.02153">
        <ele>206.31</ele>
        <time>2018-04-11T08:24:41Z</time>
      </trkpt>
      <trkpt lat="47.64922" lon="6.02146">
        <ele>206.31</ele>
        <time>2018-04-11T08:24:42Z</time>
      </trkpt>
      <trkpt lat="47.6492" lon="6.02139">
        <ele>206.35</ele>
        <time>2018-04-11T08:24:43Z</time>
      </trkpt>
      <trkpt lat="47.64917" lon="6.02128">
        <ele>206.37</ele>
        <time>2018-04-11T08:24:45Z</time>
      </trkpt>
      <trkpt lat="47.64913" lon="6.02119">
        <ele>206.38</ele>
        <time>2018-04-11T08:24:47Z</time>
      </trkpt>
      <trkpt lat="47.64909" lon="6.02111">
        <ele>206.39</ele>
        <time>2018-04-11T08:24:49Z</time>
      </trkpt>
      <trkpt lat="47.64905" lon="6.02105">
        <ele>206.4</ele>
        <time>2018-04-11T08:24:50Z</time>
      </trkpt>
      <trkpt lat="47.64901" lon="6.02099">
        <ele>206.41</ele>
        <time>2018-04-11T08:24:51Z</time>
      </trkpt>
      <trkpt lat="47.64899" lon="6.02093">
        <ele>206.45</ele>
        <time>2018-04-11T08:24:52Z</time>
      </trkpt>
      <trkpt lat="47.64897" lon="6.02087">
        <ele>206.47</ele>
        <time>2018-04-11T08:24:53Z</time>
      </trkpt>
      <trkpt lat="47.64895" lon="6.02079">
        <ele>206.48</ele>
        <time>2018-04-11T08:24:54Z</time>
      </trkpt>
      <trkpt lat="47.64893" lon="6.02067">
        <ele>206.49</ele>
        <time>2018-04-11T08:24:56Z</time>
      </trkpt>
      <trkpt lat="47.64888" lon="6.02062">
        <ele>206.51</ele>
        <time>2018-04-11T08:24:58Z</time>
      </trkpt>
      <trkpt lat="47.64884" lon="6.02065">
        <ele>206.55</ele>
        <time>2018-04-11T08:25:01Z</time>
      </trkpt>
      <trkpt lat="47.64883" lon="6.02072">
        <ele>206.61</ele>
        <time>2018-04-11T08:25:05Z</time>
      </trkpt>
      <trkpt lat="47.64882" lon="6.02079">
        <ele>206.71</ele>
        <time>2018-04-11T08:25:11Z</time>
      </trkpt>
      <trkpt lat="47.64885" lon="6.02085">
        <ele>206.82</ele>
        <time>2018-04-11T08:25:16Z</time>
      </trkpt>
      <trkpt lat="47.64889" lon="6.02089">
        <ele>206.9</ele>
        <time>2018-04-11T08:25:20Z</time>
      </trkpt>
      <trkpt lat="47.64896" lon="6.02087">
        <ele>206.99</ele>
        <time>2018-04-11T08:25:24Z</time>
      </trkpt>
      <trkpt lat="47.649" lon="6.02083">
        <ele>207.03</ele>
        <time>2018-04-11T08:25:26Z</time>
      </trkpt>
      <trkpt lat="47.64905" lon="6.02079">
        <ele>207.1</ele>
        <time>2018-04-11T08:25:29Z</time>
      </trkpt>
      <trkpt lat="47.6491" lon="6.02074">
        <ele>207.15</ele>
        <time>2018-04-11T08:25:31Z</time>
      </trkpt>
      <trkpt lat="47.64915" lon="6.0207">
        <ele>207.19</ele>
        <time>2018-04-11T08:25:33Z</time>
      </trkpt>
      <trkpt lat="47.64922" lon="6.02066">
        <ele>207.24</ele>
        <time>2018-04-11T08:25:35Z</time>
      </trkpt>
      <trkpt lat="47.64927" lon="6.02062">
        <ele>207.28</ele>
        <time>2018-04-11T08:25:37Z</time>
      </trkpt>
      <trkpt lat="47.64932" lon="6.02058">
        <ele>207.32</ele>
        <time>2018-04-11T08:25:39Z</time>
      </trkpt>
      <trkpt lat="47.64937" lon="6.02054">
        <ele>207.36</ele>
        <time>2018-04-11T08:25:41Z</time>
      </trkpt>
      <trkpt lat="47.64943" lon="6.02049">
        <ele>207.4</ele>
        <time>2018-04-11T08:25:43Z</time>
      </trkpt>
      <trkpt lat="47.64948" lon="6.02044">
        <ele>207.43</ele>
        <time>2018-04-11T08:25:45Z</time>
      </trkpt>
      <trkpt lat="47.64954" lon="6.02039">
        <ele>207.47</ele>
        <time>2018-04-11T08:25:47Z</time>
      </trkpt>
      <trkpt lat="47.6496" lon="6.02033">
        <ele>207.5</ele>
        <time>2018-04-11T08:25:49Z</time>
      </trkpt>
      <trkpt lat="47.64967" lon="6.02027">
        <ele>207.62</ele>
        <time>2018-04-11T08:25:51Z</time>
      </trkpt>
      <trkpt lat="47.64975" lon="6.02023">
        <ele>207.83</ele>
        <time>2018-04-11T08:25:53Z</time>
      </trkpt>
      <trkpt lat="47.64983" lon="6.02021">
        <ele>207.95</ele>
        <time>2018-04-11T08:25:55Z</time>
      </trkpt>
      <trkpt lat="47.64992" lon="6.02025">
        <ele>208.02</ele>
        <time>2018-04-11T08:25:57Z</time>
      </trkpt>
      <trkpt lat="47.64998" lon="6.02026">
        <ele>208.04</ele>
        <time>2018-04-11T08:25:58Z</time>
      </trkpt>
      <trkpt lat="47.65003" lon="6.02028">
        <ele>208.06</ele>
        <time>2018-04-11T08:25:59Z</time>
      </trkpt>
      <trkpt lat="47.65008" lon="6.02031">
        <ele>208.07</ele>
        <time>2018-04-11T08:26:00Z</time>
      </trkpt>
      <trkpt lat="47.65013" lon="6.02035">
        <ele>208.08</ele>
        <time>2018-04-11T08:26:01Z</time>
      </trkpt>
      <trkpt lat="47.65017" lon="6.02039">
        <ele>208.09</ele>
        <time>2018-04-11T08:26:02Z</time>
      </trkpt>
      <trkpt lat="47.65023" lon="6.02043">
        <ele>208.1</ele>
        <time>2018-04-11T08:26:03Z</time>
      </trkpt>
      <trkpt lat="47.65027" lon="6.02046">
        <ele>208.12</ele>
        <time>2018-04-11T08:26:04Z</time>
      </trkpt>
      <trkpt lat="47.65035" lon="6.02049">
        <ele>208.14</ele>
        <time>2018-04-11T08:26:06Z</time>
      </trkpt>
      <trkpt lat="47.65043" lon="6.02053">
        <ele>208.14</ele>
        <time>2018-04-11T08:26:08Z</time>
      </trkpt>
      <trkpt lat="47.6505" lon="6.02056">
        <ele>208.15</ele>
        <time>2018-04-11T08:26:10Z</time>
      </trkpt>
      <trkpt lat="47.65057" lon="6.02059">
        <ele>208.14</ele>
        <time>2018-04-11T08:26:12Z</time>
      </trkpt>
      <trkpt lat="47.65062" lon="6.02061">
        <ele>208.14</ele>
        <time>2018-04-11T08:26:14Z</time>
      </trkpt>
      <trkpt lat="47.65068" lon="6.02062">
        <ele>208.14</ele>
        <time>2018-04-11T08:26:16Z</time>
      </trkpt>
      <trkpt lat="47.65073" lon="6.02064">
        <ele>208.14</ele>
        <time>2018-04-11T08:26:18Z</time>
      </trkpt>
      <trkpt lat="47.6508" lon="6.02067">
        <ele>208.14</ele>
        <time>2018-04-11T08:26:20Z</time>
      </trkpt>
      <trkpt lat="47.65085" lon="6.02069">
        <ele>208.14</ele>
        <time>2018-04-11T08:26:22Z</time>
      </trkpt>
      <trkpt lat="47.65091" lon="6.02072">
        <ele>208.14</ele>
        <time>2018-04-11T08:26:24Z</time>
      </trkpt>
      <trkpt lat="47.65098" lon="6.02075">
        <ele>208.14</ele>
        <time>2018-04-11T08:26:26Z</time>
      </trkpt>
      <trkpt lat="47.65105" lon="6.02078">
        <ele>208.14</ele>
        <time>2018-04-11T08:26:28Z</time>
      </trkpt>
      <trkpt lat="47.65113" lon="6.0208">
        <ele>208.14</ele>
        <time>2018-04-11T08:26:30Z</time>
      </trkpt>
      <trkpt lat="47.6512" lon="6.02083">
        <ele>208.14</ele>
        <time>2018-04-11T08:26:32Z</time>
      </trkpt>
      <trkpt lat="47.65128" lon="6.02085">
        <ele>208.15</ele>
        <time>2018-04-11T08:26:34Z</time>
      </trkpt>
      <trkpt lat="47.65135" lon="6.02088">
        <ele>208.15</ele>
        <time>2018-04-11T08:26:36Z</time>
      </trkpt>
      <trkpt lat="47.65142" lon="6.0209">
        <ele>208.15</ele>
        <time>2018-04-11T08:26:38Z</time>
      </trkpt>
      <trkpt lat="47.6515" lon="6.02092">
        <ele>208.15</ele>
        <time>2018-04-11T08:26:40Z</time>
      </trkpt>
      <trkpt lat="47.65157" lon="6.02094">
        <ele>208.15</ele>
        <time>2018-04-11T08:26:42Z</time>
      </trkpt>
      <trkpt lat="47.65164" lon="6.02096">
        <ele>208.15</ele>
        <time>2018-04-11T08:26:44Z</time>
      </trkpt>
      <trkpt lat="47.6517" lon="6.02098">
        <ele>208.15</ele>
        <time>2018-04-11T08:26:46Z</time>
      </trkpt>
      <trkpt lat="47.65178" lon="6.021">
        <ele>208.15</ele>
        <time>2018-04-11T08:26:48Z</time>
      </trkpt>
      <trkpt lat="47.65185" lon="6.02101">
        <ele>208.15</ele>
        <time>2018-04-11T08:26:50Z</time>
      </trkpt>
      <trkpt lat="47.65192" lon="6.02102">
        <ele>208.14</ele>
        <time>2018-04-11T08:26:52Z</time>
      </trkpt>
      <trkpt lat="47.65199" lon="6.02103">
        <ele>208.14</ele>
        <time>2018-04-11T08:26:54Z</time>
      </trkpt>
      <trkpt lat="47.65206" lon="6.02104">
        <ele>208.14</ele>
        <time>2018-04-11T08:26:56Z</time>
      </trkpt>
      <trkpt lat="47.65213" lon="6.02104">
        <ele>208.14</ele>
        <time>2018-04-11T08:26:58Z</time>
      </trkpt>
      <trkpt lat="47.6522" lon="6.02105">
        <ele>208.13</ele>
        <time>2018-04-11T08:27:00Z</time>
      </trkpt>
      <trkpt lat="47.65226" lon="6.02106">
        <ele>208.13</ele>
        <time>2018-04-11T08:27:02Z</time>
      </trkpt>
      <trkpt lat="47.65233" lon="6.02106">
        <ele>208.12</ele>
        <time>2018-04-11T08:27:04Z</time>
      </trkpt>
      <trkpt lat="47.65239" lon="6.02106">
        <ele>208.12</ele>
        <time>2018-04-11T08:27:06Z</time>
      </trkpt>
      <trkpt lat="47.65247" lon="6.02105">
        <ele>208.12</ele>
        <time>2018-04-11T08:27:08Z</time>
      </trkpt>
      <trkpt lat="47.65254" lon="6.02104">
        <ele>208.11</ele>
        <time>2018-04-11T08:27:10Z</time>
      </trkpt>
      <trkpt lat="47.65261" lon="6.02103">
        <ele>208.1</ele>
        <time>2018-04-11T08:27:12Z</time>
      </trkpt>
      <trkpt lat="47.65268" lon="6.02101">
        <ele>208.1</ele>
        <time>2018-04-11T08:27:14Z</time>
      </trkpt>
      <trkpt lat="47.65275" lon="6.021">
        <ele>208.09</ele>
        <time>2018-04-11T08:27:16Z</time>
      </trkpt>
      <trkpt lat="47.65282" lon="6.02099">
        <ele>208.08</ele>
        <time>2018-04-11T08:27:18Z</time>
      </trkpt>
      <trkpt lat="47.65289" lon="6.02097">
        <ele>208.07</ele>
        <time>2018-04-11T08:27:20Z</time>
      </trkpt>
      <trkpt lat="47.65295" lon="6.02095">
        <ele>208.06</ele>
        <time>2018-04-11T08:27:22Z</time>
      </trkpt>
      <trkpt lat="47.65302" lon="6.02092">
        <ele>208.06</ele>
        <time>2018-04-11T08:27:24Z</time>
      </trkpt>
      <trkpt lat="47.65309" lon="6.0209">
        <ele>208.05</ele>
        <time>2018-04-11T08:27:26Z</time>
      </trkpt>
      <trkpt lat="47.65315" lon="6.02088">
        <ele>208.04</ele>
        <time>2018-04-11T08:27:28Z</time>
      </trkpt>
      <trkpt lat="47.65322" lon="6.02085">
        <ele>208.03</ele>
        <time>2018-04-11T08:27:30Z</time>
      </trkpt>
      <trkpt lat="47.65328" lon="6.02081">
        <ele>208.03</ele>
        <time>2018-04-11T08:27:32Z</time>
      </trkpt>
      <trkpt lat="47.65335" lon="6.02079">
        <ele>208.02</ele>
        <time>2018-04-11T08:27:34Z</time>
      </trkpt>
      <trkpt lat="47.65342" lon="6.02076">
        <ele>208.01</ele>
        <time>2018-04-11T08:27:36Z</time>
      </trkpt>
      <trkpt lat="47.65347" lon="6.02072">
        <ele>208.01</ele>
        <time>2018-04-11T08:27:38Z</time>
      </trkpt>
      <trkpt lat="47.65354" lon="6.02069">
        <ele>208</ele>
        <time>2018-04-11T08:27:40Z</time>
      </trkpt>
      <trkpt lat="47.65361" lon="6.02065">
        <ele>208</ele>
        <time>2018-04-11T08:27:42Z</time>
      </trkpt>
      <trkpt lat="47.65368" lon="6.0206">
        <ele>207.99</ele>
        <time>2018-04-11T08:27:44Z</time>
      </trkpt>
      <trkpt lat="47.65375" lon="6.02055">
        <ele>207.99</ele>
        <time>2018-04-11T08:27:46Z</time>
      </trkpt>
      <trkpt lat="47.65381" lon="6.02051">
        <ele>207.98</ele>
        <time>2018-04-11T08:27:48Z</time>
      </trkpt>
      <trkpt lat="47.65387" lon="6.02046">
        <ele>207.98</ele>
        <time>2018-04-11T08:27:50Z</time>
      </trkpt>
      <trkpt lat="47.65392" lon="6.02041">
        <ele>207.97</ele>
        <time>2018-04-11T08:27:51Z</time>
      </trkpt>
      <trkpt lat="47.65399" lon="6.02036">
        <ele>207.97</ele>
        <time>2018-04-11T08:27:53Z</time>
      </trkpt>
      <trkpt lat="47.65405" lon="6.0203">
        <ele>207.96</ele>
        <time>2018-04-11T08:27:55Z</time>
      </trkpt>
      <trkpt lat="47.65411" lon="6.02025">
        <ele>207.96</ele>
        <time>2018-04-11T08:27:57Z</time>
      </trkpt>
      <trkpt lat="47.65418" lon="6.0202">
        <ele>207.95</ele>
        <time>2018-04-11T08:27:59Z</time>
      </trkpt>
      <trkpt lat="47.65423" lon="6.02015">
        <ele>207.95</ele>
        <time>2018-04-11T08:28:01Z</time>
      </trkpt>
      <trkpt lat="47.65429" lon="6.02011">
        <ele>207.94</ele>
        <time>2018-04-11T08:28:03Z</time>
      </trkpt>
      <trkpt lat="47.65435" lon="6.02006">
        <ele>207.94</ele>
        <time>2018-04-11T08:28:05Z</time>
      </trkpt>
      <trkpt lat="47.65441" lon="6.02">
        <ele>207.94</ele>
        <time>2018-04-11T08:28:07Z</time>
      </trkpt>
      <trkpt lat="47.65448" lon="6.01995">
        <ele>207.93</ele>
        <time>2018-04-11T08:28:09Z</time>
      </trkpt>
      <trkpt lat="47.65454" lon="6.01991">
        <ele>207.93</ele>
        <time>2018-04-11T08:28:11Z</time>
      </trkpt>
      <trkpt lat="47.6546" lon="6.01985">
        <ele>207.93</ele>
        <time>2018-04-11T08:28:13Z</time>
      </trkpt>
      <trkpt lat="47.65466" lon="6.0198">
        <ele>207.92</ele>
        <time>2018-04-11T08:28:15Z</time>
      </trkpt>
      <trkpt lat="47.65471" lon="6.01975">
        <ele>207.92</ele>
        <time>2018-04-11T08:28:17Z</time>
      </trkpt>
      <trkpt lat="47.65477" lon="6.0197">
        <ele>207.92</ele>
        <time>2018-04-11T08:28:19Z</time>
      </trkpt>
      <trkpt lat="47.65483" lon="6.01966">
        <ele>207.91</ele>
        <time>2018-04-11T08:28:21Z</time>
      </trkpt>
      <trkpt lat="47.65488" lon="6.01962">
        <ele>207.91</ele>
        <time>2018-04-11T08:28:23Z</time>
      </trkpt>
      <trkpt lat="47.65495" lon="6.01958">
        <ele>207.91</ele>
        <time>2018-04-11T08:28:25Z</time>
      </trkpt>
      <trkpt lat="47.65501" lon="6.01954">
        <ele>207.92</ele>
        <time>2018-04-11T08:28:27Z</time>
      </trkpt>
      <trkpt lat="47.65507" lon="6.01951">
        <ele>207.93</ele>
        <time>2018-04-11T08:28:29Z</time>
      </trkpt>
      <trkpt lat="47.65513" lon="6.01947">
        <ele>207.93</ele>
        <time>2018-04-11T08:28:31Z</time>
      </trkpt>
      <trkpt lat="47.65519" lon="6.01941">
        <ele>207.94</ele>
        <time>2018-04-11T08:28:33Z</time>
      </trkpt>
      <trkpt lat="47.65524" lon="6.01934">
        <ele>207.95</ele>
        <time>2018-04-11T08:28:35Z</time>
      </trkpt>
      <trkpt lat="47.65529" lon="6.01928">
        <ele>207.96</ele>
        <time>2018-04-11T08:28:37Z</time>
      </trkpt>
      <trkpt lat="47.65532" lon="6.01922">
        <ele>207.97</ele>
        <time>2018-04-11T08:28:39Z</time>
      </trkpt>
      <trkpt lat="47.65531" lon="6.01912">
        <ele>207.98</ele>
        <time>2018-04-11T08:28:42Z</time>
      </trkpt>
      <trkpt lat="47.65528" lon="6.01904">
        <ele>207.99</ele>
        <time>2018-04-11T08:28:45Z</time>
      </trkpt>
      <trkpt lat="47.65526" lon="6.01898">
        <ele>208</ele>
        <time>2018-04-11T08:28:47Z</time>
      </trkpt>
      <trkpt lat="47.65523" lon="6.01892">
        <ele>208.01</ele>
        <time>2018-04-11T08:28:49Z</time>
      </trkpt>
      <trkpt lat="47.6552" lon="6.01884">
        <ele>208.03</ele>
        <time>2018-04-11T08:28:52Z</time>
      </trkpt>
      <trkpt lat="47.65514" lon="6.01883">
        <ele>208.04</ele>
        <time>2018-04-11T08:28:55Z</time>
      </trkpt>
      <trkpt lat="47.65509" lon="6.01886">
        <ele>208.05</ele>
        <time>2018-04-11T08:28:57Z</time>
      </trkpt>
      <trkpt lat="47.65502" lon="6.01892">
        <ele>208.13</ele>
        <time>2018-04-11T08:28:59Z</time>
      </trkpt>
      <trkpt lat="47.65498" lon="6.01895">
        <ele>208.17</ele>
        <time>2018-04-11T08:29:00Z</time>
      </trkpt>
      <trkpt lat="47.65494" lon="6.01899">
        <ele>208.2</ele>
        <time>2018-04-11T08:29:01Z</time>
      </trkpt>
      <trkpt lat="47.65489" lon="6.01903">
        <ele>208.22</ele>
        <time>2018-04-11T08:29:02Z</time>
      </trkpt>
      <trkpt lat="47.65483" lon="6.01909">
        <ele>208.24</ele>
        <time>2018-04-11T08:29:03Z</time>
      </trkpt>
      <trkpt lat="47.65478" lon="6.01915">
        <ele>208.26</ele>
        <time>2018-04-11T08:29:04Z</time>
      </trkpt>
      <trkpt lat="47.65472" lon="6.0192">
        <ele>208.27</ele>
        <time>2018-04-11T08:29:05Z</time>
      </trkpt>
      <trkpt lat="47.65466" lon="6.01926">
        <ele>208.28</ele>
        <time>2018-04-11T08:29:06Z</time>
      </trkpt>
      <trkpt lat="47.6546" lon="6.0193">
        <ele>208.29</ele>
        <time>2018-04-11T08:29:07Z</time>
      </trkpt>
      <trkpt lat="47.65455" lon="6.01935">
        <ele>208.3</ele>
        <time>2018-04-11T08:29:08Z</time>
      </trkpt>
      <trkpt lat="47.65449" lon="6.01939">
        <ele>208.31</ele>
        <time>2018-04-11T08:29:09Z</time>
      </trkpt>
      <trkpt lat="47.65444" lon="6.01943">
        <ele>208.31</ele>
        <time>2018-04-11T08:29:10Z</time>
      </trkpt>
      <trkpt lat="47.6544" lon="6.01947">
        <ele>208.31</ele>
        <time>2018-04-11T08:29:11Z</time>
      </trkpt>
      <trkpt lat="47.65435" lon="6.0195">
        <ele>208.31</ele>
        <time>2018-04-11T08:29:12Z</time>
      </trkpt>
      <trkpt lat="47.65431" lon="6.01954">
        <ele>208.3</ele>
        <time>2018-04-11T08:29:13Z</time>
      </trkpt>
      <trkpt lat="47.65426" lon="6.01957">
        <ele>208.29</ele>
        <time>2018-04-11T08:29:14Z</time>
      </trkpt>
      <trkpt lat="47.65422" lon="6.01961">
        <ele>208.28</ele>
        <time>2018-04-11T08:29:15Z</time>
      </trkpt>
      <trkpt lat="47.65417" lon="6.01964">
        <ele>208.26</ele>
        <time>2018-04-11T08:29:16Z</time>
      </trkpt>
      <trkpt lat="47.65413" lon="6.01968">
        <ele>208.25</ele>
        <time>2018-04-11T08:29:17Z</time>
      </trkpt>
      <trkpt lat="47.65409" lon="6.01972">
        <ele>208.24</ele>
        <time>2018-04-11T08:29:18Z</time>
      </trkpt>
      <trkpt lat="47.65404" lon="6.01975">
        <ele>208.22</ele>
        <time>2018-04-11T08:29:19Z</time>
      </trkpt>
      <trkpt lat="47.654" lon="6.01979">
        <ele>208.21</ele>
        <time>2018-04-11T08:29:20Z</time>
      </trkpt>
      <trkpt lat="47.65395" lon="6.01983">
        <ele>208.2</ele>
        <time>2018-04-11T08:29:21Z</time>
      </trkpt>
      <trkpt lat="47.65391" lon="6.01986">
        <ele>208.19</ele>
        <time>2018-04-11T08:29:22Z</time>
      </trkpt>
      <trkpt lat="47.65386" lon="6.0199">
        <ele>208.17</ele>
        <time>2018-04-11T08:29:23Z</time>
      </trkpt>
      <trkpt lat="47.65382" lon="6.01993">
        <ele>208.14</ele>
        <time>2018-04-11T08:29:24Z</time>
      </trkpt>
      <trkpt lat="47.65378" lon="6.01997">
        <ele>208.12</ele>
        <time>2018-04-11T08:29:25Z</time>
      </trkpt>
      <trkpt lat="47.65374" lon="6.02">
        <ele>208.1</ele>
        <time>2018-04-11T08:29:26Z</time>
      </trkpt>
      <trkpt lat="47.6537" lon="6.02003">
        <ele>208.08</ele>
        <time>2018-04-11T08:29:27Z</time>
      </trkpt>
      <trkpt lat="47.65365" lon="6.02006">
        <ele>208.07</ele>
        <time>2018-04-11T08:29:28Z</time>
      </trkpt>
      <trkpt lat="47.65357" lon="6.02012">
        <ele>208.06</ele>
        <time>2018-04-11T08:29:30Z</time>
      </trkpt>
      <trkpt lat="47.65353" lon="6.02015">
        <ele>208.06</ele>
        <time>2018-04-11T08:29:31Z</time>
      </trkpt>
      <trkpt lat="47.65349" lon="6.02018">
        <ele>208.07</ele>
        <time>2018-04-11T08:29:32Z</time>
      </trkpt>
      <trkpt lat="47.65344" lon="6.02021">
        <ele>208.06</ele>
        <time>2018-04-11T08:29:33Z</time>
      </trkpt>
      <trkpt lat="47.6534" lon="6.02023">
        <ele>208.05</ele>
        <time>2018-04-11T08:29:34Z</time>
      </trkpt>
      <trkpt lat="47.65332" lon="6.02028">
        <ele>208.04</ele>
        <time>2018-04-11T08:29:36Z</time>
      </trkpt>
      <trkpt lat="47.65327" lon="6.0203">
        <ele>208.04</ele>
        <time>2018-04-11T08:29:37Z</time>
      </trkpt>
      <trkpt lat="47.6532" lon="6.02034">
        <ele>208.06</ele>
        <time>2018-04-11T08:29:39Z</time>
      </trkpt>
      <trkpt lat="47.65316" lon="6.02036">
        <ele>208.06</ele>
        <time>2018-04-11T08:29:40Z</time>
      </trkpt>
      <trkpt lat="47.65311" lon="6.02038">
        <ele>208.07</ele>
        <time>2018-04-11T08:29:41Z</time>
      </trkpt>
      <trkpt lat="47.65303" lon="6.02042">
        <ele>208.05</ele>
        <time>2018-04-11T08:29:43Z</time>
      </trkpt>
      <trkpt lat="47.65298" lon="6.02044">
        <ele>208.06</ele>
        <time>2018-04-11T08:29:44Z</time>
      </trkpt>
      <trkpt lat="47.65293" lon="6.02046">
        <ele>208.08</ele>
        <time>2018-04-11T08:29:45Z</time>
      </trkpt>
      <trkpt lat="47.65289" lon="6.02047">
        <ele>208.1</ele>
        <time>2018-04-11T08:29:46Z</time>
      </trkpt>
      <trkpt lat="47.6528" lon="6.0205">
        <ele>208.11</ele>
        <time>2018-04-11T08:29:48Z</time>
      </trkpt>
      <trkpt lat="47.65271" lon="6.02051">
        <ele>208.1</ele>
        <time>2018-04-11T08:29:50Z</time>
      </trkpt>
      <trkpt lat="47.65263" lon="6.02053">
        <ele>208.08</ele>
        <time>2018-04-11T08:29:52Z</time>
      </trkpt>
      <trkpt lat="47.65254" lon="6.02054">
        <ele>208.04</ele>
        <time>2018-04-11T08:29:54Z</time>
      </trkpt>
      <trkpt lat="47.65245" lon="6.02056">
        <ele>208.01</ele>
        <time>2018-04-11T08:29:56Z</time>
      </trkpt>
      <trkpt lat="47.65241" lon="6.02056">
        <ele>207.99</ele>
        <time>2018-04-11T08:29:57Z</time>
      </trkpt>
      <trkpt lat="47.65232" lon="6.02056">
        <ele>207.95</ele>
        <time>2018-04-11T08:29:59Z</time>
      </trkpt>
      <trkpt lat="47.65224" lon="6.02056">
        <ele>207.9</ele>
        <time>2018-04-11T08:30:01Z</time>
      </trkpt>
      <trkpt lat="47.65216" lon="6.02056">
        <ele>207.83</ele>
        <time>2018-04-11T08:30:03Z</time>
      </trkpt>
      <trkpt lat="47.65208" lon="6.02054">
        <ele>207.69</ele>
        <time>2018-04-11T08:30:05Z</time>
      </trkpt>
      <trkpt lat="47.652" lon="6.02053">
        <ele>207.54</ele>
        <time>2018-04-11T08:30:07Z</time>
      </trkpt>
      <trkpt lat="47.65192" lon="6.02052">
        <ele>207.39</ele>
        <time>2018-04-11T08:30:09Z</time>
      </trkpt>
      <trkpt lat="47.65184" lon="6.0205">
        <ele>207.22</ele>
        <time>2018-04-11T08:30:11Z</time>
      </trkpt>
      <trkpt lat="47.65176" lon="6.02048">
        <ele>207.11</ele>
        <time>2018-04-11T08:30:13Z</time>
      </trkpt>
      <trkpt lat="47.65168" lon="6.02046">
        <ele>207.04</ele>
        <time>2018-04-11T08:30:15Z</time>
      </trkpt>
      <trkpt lat="47.65159" lon="6.02043">
        <ele>206.95</ele>
        <time>2018-04-11T08:30:17Z</time>
      </trkpt>
      <trkpt lat="47.65151" lon="6.02041">
        <ele>206.91</ele>
        <time>2018-04-11T08:30:19Z</time>
      </trkpt>
      <trkpt lat="47.65143" lon="6.02038">
        <ele>206.89</ele>
        <time>2018-04-11T08:30:21Z</time>
      </trkpt>
      <trkpt lat="47.65135" lon="6.02035">
        <ele>206.81</ele>
        <time>2018-04-11T08:30:23Z</time>
      </trkpt>
      <trkpt lat="47.65128" lon="6.02031">
        <ele>206.69</ele>
        <time>2018-04-11T08:30:25Z</time>
      </trkpt>
      <trkpt lat="47.6512" lon="6.02028">
        <ele>206.64</ele>
        <time>2018-04-11T08:30:27Z</time>
      </trkpt>
      <trkpt lat="47.65114" lon="6.02025">
        <ele>206.64</ele>
        <time>2018-04-11T08:30:29Z</time>
      </trkpt>
      <trkpt lat="47.65106" lon="6.02022">
        <ele>206.63</ele>
        <time>2018-04-11T08:30:31Z</time>
      </trkpt>
      <trkpt lat="47.65099" lon="6.0202">
        <ele>206.6</ele>
        <time>2018-04-11T08:30:33Z</time>
      </trkpt>
      <trkpt lat="47.65091" lon="6.02018">
        <ele>206.56</ele>
        <time>2018-04-11T08:30:35Z</time>
      </trkpt>
      <trkpt lat="47.65083" lon="6.02016">
        <ele>206.5</ele>
        <time>2018-04-11T08:30:37Z</time>
      </trkpt>
      <trkpt lat="47.65074" lon="6.02014">
        <ele>206.35</ele>
        <time>2018-04-11T08:30:39Z</time>
      </trkpt>
      <trkpt lat="47.65066" lon="6.02011">
        <ele>206.14</ele>
        <time>2018-04-11T08:30:41Z</time>
      </trkpt>
      <trkpt lat="47.65057" lon="6.02008">
        <ele>205.98</ele>
        <time>2018-04-11T08:30:43Z</time>
      </trkpt>
      <trkpt lat="47.65049" lon="6.02005">
        <ele>205.83</ele>
        <time>2018-04-11T08:30:45Z</time>
      </trkpt>
      <trkpt lat="47.65041" lon="6.02003">
        <ele>205.66</ele>
        <time>2018-04-11T08:30:47Z</time>
      </trkpt>
      <trkpt lat="47.65033" lon="6.02">
        <ele>205.54</ele>
        <time>2018-04-11T08:30:49Z</time>
      </trkpt>
      <trkpt lat="47.65026" lon="6.01997">
        <ele>205.44</ele>
        <time>2018-04-11T08:30:51Z</time>
      </trkpt>
      <trkpt lat="47.65018" lon="6.01993">
        <ele>205.31</ele>
        <time>2018-04-11T08:30:53Z</time>
      </trkpt>
      <trkpt lat="47.6501" lon="6.0199">
        <ele>205.18</ele>
        <time>2018-04-11T08:30:55Z</time>
      </trkpt>
      <trkpt lat="47.65002" lon="6.01987">
        <ele>205.09</ele>
        <time>2018-04-11T08:30:57Z</time>
      </trkpt>
      <trkpt lat="47.64993" lon="6.01984">
        <ele>204.98</ele>
        <time>2018-04-11T08:30:59Z</time>
      </trkpt>
      <trkpt lat="47.64985" lon="6.01981">
        <ele>204.86</ele>
        <time>2018-04-11T08:31:01Z</time>
      </trkpt>
      <trkpt lat="47.64976" lon="6.01978">
        <ele>204.74</ele>
        <time>2018-04-11T08:31:03Z</time>
      </trkpt>
      <trkpt lat="47.64968" lon="6.01975">
        <ele>204.62</ele>
        <time>2018-04-11T08:31:05Z</time>
      </trkpt>
      <trkpt lat="47.6496" lon="6.01972">
        <ele>204.52</ele>
        <time>2018-04-11T08:31:07Z</time>
      </trkpt>
      <trkpt lat="47.64953" lon="6.01969">
        <ele>204.45</ele>
        <time>2018-04-11T08:31:09Z</time>
      </trkpt>
      <trkpt lat="47.64945" lon="6.01964">
        <ele>204.41</ele>
        <time>2018-04-11T08:31:11Z</time>
      </trkpt>
      <trkpt lat="47.64938" lon="6.01958">
        <ele>204.39</ele>
        <time>2018-04-11T08:31:13Z</time>
      </trkpt>
      <trkpt lat="47.64931" lon="6.01952">
        <ele>204.4</ele>
        <time>2018-04-11T08:31:15Z</time>
      </trkpt>
      <trkpt lat="47.64926" lon="6.01943">
        <ele>204.41</ele>
        <time>2018-04-11T08:31:17Z</time>
      </trkpt>
      <trkpt lat="47.64922" lon="6.01934">
        <ele>204.43</ele>
        <time>2018-04-11T08:31:19Z</time>
      </trkpt>
      <trkpt lat="47.64918" lon="6.01924">
        <ele>204.47</ele>
        <time>2018-04-11T08:31:21Z</time>
      </trkpt>
      <trkpt lat="47.64914" lon="6.01914">
        <ele>204.5</ele>
        <time>2018-04-11T08:31:23Z</time>
      </trkpt>
      <trkpt lat="47.64909" lon="6.01904">
        <ele>204.52</ele>
        <time>2018-04-11T08:31:25Z</time>
      </trkpt>
      <trkpt lat="47.64905" lon="6.01894">
        <ele>204.56</ele>
        <time>2018-04-11T08:31:27Z</time>
      </trkpt>
      <trkpt lat="47.649" lon="6.01884">
        <ele>204.6</ele>
        <time>2018-04-11T08:31:29Z</time>
      </trkpt>
      <trkpt lat="47.64896" lon="6.01873">
        <ele>204.63</ele>
        <time>2018-04-11T08:31:31Z</time>
      </trkpt>
      <trkpt lat="47.64892" lon="6.01862">
        <ele>204.66</ele>
        <time>2018-04-11T08:31:33Z</time>
      </trkpt>
      <trkpt lat="47.64888" lon="6.01851">
        <ele>204.71</ele>
        <time>2018-04-11T08:31:35Z</time>
      </trkpt>
      <trkpt lat="47.64884" lon="6.01839">
        <ele>204.74</ele>
        <time>2018-04-11T08:31:37Z</time>
      </trkpt>
      <trkpt lat="47.6488" lon="6.01828">
        <ele>204.77</ele>
        <time>2018-04-11T08:31:39Z</time>
      </trkpt>
      <trkpt lat="47.64878" lon="6.01822">
        <ele>204.78</ele>
        <time>2018-04-11T08:31:40Z</time>
      </trkpt>
      <trkpt lat="47.64876" lon="6.01815">
        <ele>204.79</ele>
        <time>2018-04-11T08:31:41Z</time>
      </trkpt>
      <trkpt lat="47.64874" lon="6.01809">
        <ele>204.79</ele>
        <time>2018-04-11T08:31:42Z</time>
      </trkpt>
      <trkpt lat="47.64871" lon="6.01804">
        <ele>204.8</ele>
        <time>2018-04-11T08:31:43Z</time>
      </trkpt>
      <trkpt lat="47.64867" lon="6.01794">
        <ele>204.82</ele>
        <time>2018-04-11T08:31:45Z</time>
      </trkpt>
      <trkpt lat="47.64864" lon="6.01788">
        <ele>204.84</ele>
        <time>2018-04-11T08:31:46Z</time>
      </trkpt>
      <trkpt lat="47.64859" lon="6.01777">
        <ele>204.86</ele>
        <time>2018-04-11T08:31:48Z</time>
      </trkpt>
      <trkpt lat="47.64857" lon="6.01771">
        <ele>204.88</ele>
        <time>2018-04-11T08:31:49Z</time>
      </trkpt>
      <trkpt lat="47.64854" lon="6.01765">
        <ele>204.89</ele>
        <time>2018-04-11T08:31:50Z</time>
      </trkpt>
      <trkpt lat="47.64851" lon="6.01758">
        <ele>204.91</ele>
        <time>2018-04-11T08:31:51Z</time>
      </trkpt>
      <trkpt lat="47.64848" lon="6.01752">
        <ele>204.92</ele>
        <time>2018-04-11T08:31:52Z</time>
      </trkpt>
      <trkpt lat="47.64846" lon="6.01745">
        <ele>204.94</ele>
        <time>2018-04-11T08:31:53Z</time>
      </trkpt>
      <trkpt lat="47.64843" lon="6.01739">
        <ele>204.95</ele>
        <time>2018-04-11T08:31:54Z</time>
      </trkpt>
      <trkpt lat="47.64841" lon="6.01732">
        <ele>204.96</ele>
        <time>2018-04-11T08:31:55Z</time>
      </trkpt>
      <trkpt lat="47.64839" lon="6.01725">
        <ele>204.98</ele>
        <time>2018-04-11T08:31:56Z</time>
      </trkpt>
      <trkpt lat="47.64837" lon="6.01719">
        <ele>204.99</ele>
        <time>2018-04-11T08:31:57Z</time>
      </trkpt>
      <trkpt lat="47.64836" lon="6.01712">
        <ele>204.99</ele>
        <time>2018-04-11T08:31:58Z</time>
      </trkpt>
      <trkpt lat="47.64833" lon="6.01701">
        <ele>205</ele>
        <time>2018-04-11T08:32:00Z</time>
      </trkpt>
      <trkpt lat="47.6483" lon="6.01689">
        <ele>204.99</ele>
        <time>2018-04-11T08:32:02Z</time>
      </trkpt>
      <trkpt lat="47.64826" lon="6.01678">
        <ele>204.99</ele>
        <time>2018-04-11T08:32:04Z</time>
      </trkpt>
      <trkpt lat="47.64822" lon="6.01667">
        <ele>204.98</ele>
        <time>2018-04-11T08:32:06Z</time>
      </trkpt>
      <trkpt lat="47.64818" lon="6.01656">
        <ele>204.98</ele>
        <time>2018-04-11T08:32:08Z</time>
      </trkpt>
      <trkpt lat="47.64816" lon="6.01649">
        <ele>204.97</ele>
        <time>2018-04-11T08:32:09Z</time>
      </trkpt>
      <trkpt lat="47.64813" lon="6.01644">
        <ele>204.97</ele>
        <time>2018-04-11T08:32:10Z</time>
      </trkpt>
      <trkpt lat="47.64809" lon="6.01638">
        <ele>204.96</ele>
        <time>2018-04-11T08:32:11Z</time>
      </trkpt>
      <trkpt lat="47.64805" lon="6.01632">
        <ele>204.96</ele>
        <time>2018-04-11T08:32:12Z</time>
      </trkpt>
      <trkpt lat="47.64802" lon="6.01626">
        <ele>204.96</ele>
        <time>2018-04-11T08:32:13Z</time>
      </trkpt>
      <trkpt lat="47.64796" lon="6.01618">
        <ele>204.96</ele>
        <time>2018-04-11T08:32:15Z</time>
      </trkpt>
      <trkpt lat="47.64792" lon="6.01607">
        <ele>204.97</ele>
        <time>2018-04-11T08:32:17Z</time>
      </trkpt>
      <trkpt lat="47.64789" lon="6.01601">
        <ele>204.98</ele>
        <time>2018-04-11T08:32:18Z</time>
      </trkpt>
      <trkpt lat="47.64784" lon="6.0159">
        <ele>204.99</ele>
        <time>2018-04-11T08:32:20Z</time>
      </trkpt>
      <trkpt lat="47.64778" lon="6.0158">
        <ele>205.01</ele>
        <time>2018-04-11T08:32:22Z</time>
      </trkpt>
      <trkpt lat="47.64773" lon="6.0157">
        <ele>205.04</ele>
        <time>2018-04-11T08:32:24Z</time>
      </trkpt>
      <trkpt lat="47.64768" lon="6.01559">
        <ele>205.05</ele>
        <time>2018-04-11T08:32:26Z</time>
      </trkpt>
      <trkpt lat="47.64766" lon="6.01553">
        <ele>205.07</ele>
        <time>2018-04-11T08:32:27Z</time>
      </trkpt>
      <trkpt lat="47.64763" lon="6.01541">
        <ele>205.08</ele>
        <time>2018-04-11T08:32:29Z</time>
      </trkpt>
      <trkpt lat="47.64759" lon="6.01529">
        <ele>205.09</ele>
        <time>2018-04-11T08:32:31Z</time>
      </trkpt>
      <trkpt lat="47.64757" lon="6.01523">
        <ele>205.1</ele>
        <time>2018-04-11T08:32:32Z</time>
      </trkpt>
      <trkpt lat="47.64754" lon="6.01511">
        <ele>205.11</ele>
        <time>2018-04-11T08:32:34Z</time>
      </trkpt>
      <trkpt lat="47.64751" lon="6.015">
        <ele>205.13</ele>
        <time>2018-04-11T08:32:36Z</time>
      </trkpt>
      <trkpt lat="47.64749" lon="6.01493">
        <ele>205.14</ele>
        <time>2018-04-11T08:32:37Z</time>
      </trkpt>
      <trkpt lat="47.64746" lon="6.01481">
        <ele>205.13</ele>
        <time>2018-04-11T08:32:39Z</time>
      </trkpt>
      <trkpt lat="47.64743" lon="6.01467">
        <ele>205.12</ele>
        <time>2018-04-11T08:32:41Z</time>
      </trkpt>
      <trkpt lat="47.64741" lon="6.01461">
        <ele>205.11</ele>
        <time>2018-04-11T08:32:42Z</time>
      </trkpt>
      <trkpt lat="47.6474" lon="6.01454">
        <ele>205.11</ele>
        <time>2018-04-11T08:32:43Z</time>
      </trkpt>
      <trkpt lat="47.64738" lon="6.01448">
        <ele>205.1</ele>
        <time>2018-04-11T08:32:44Z</time>
      </trkpt>
      <trkpt lat="47.64736" lon="6.01437">
        <ele>205.1</ele>
        <time>2018-04-11T08:32:46Z</time>
      </trkpt>
      <trkpt lat="47.64735" lon="6.01428">
        <ele>205.09</ele>
        <time>2018-04-11T08:32:48Z</time>
      </trkpt>
      <trkpt lat="47.64733" lon="6.01417">
        <ele>205.1</ele>
        <time>2018-04-11T08:32:50Z</time>
      </trkpt>
      <trkpt lat="47.64731" lon="6.01405">
        <ele>205.1</ele>
        <time>2018-04-11T08:32:52Z</time>
      </trkpt>
      <trkpt lat="47.64728" lon="6.01394">
        <ele>205.11</ele>
        <time>2018-04-11T08:32:54Z</time>
      </trkpt>
      <trkpt lat="47.64725" lon="6.01383">
        <ele>205.11</ele>
        <time>2018-04-11T08:32:56Z</time>
      </trkpt>
      <trkpt lat="47.64723" lon="6.01372">
        <ele>205.1</ele>
        <time>2018-04-11T08:32:58Z</time>
      </trkpt>
      <trkpt lat="47.6472" lon="6.01361">
        <ele>205.08</ele>
        <time>2018-04-11T08:33:00Z</time>
      </trkpt>
      <trkpt lat="47.64717" lon="6.01349">
        <ele>205.04</ele>
        <time>2018-04-11T08:33:02Z</time>
      </trkpt>
      <trkpt lat="47.64715" lon="6.01338">
        <ele>205.02</ele>
        <time>2018-04-11T08:33:04Z</time>
      </trkpt>
      <trkpt lat="47.64712" lon="6.01326">
        <ele>205</ele>
        <time>2018-04-11T08:33:06Z</time>
      </trkpt>
      <trkpt lat="47.6471" lon="6.01313">
        <ele>204.98</ele>
        <time>2018-04-11T08:33:08Z</time>
      </trkpt>
      <trkpt lat="47.64708" lon="6.01301">
        <ele>204.99</ele>
        <time>2018-04-11T08:33:10Z</time>
      </trkpt>
      <trkpt lat="47.64706" lon="6.01289">
        <ele>205.02</ele>
        <time>2018-04-11T08:33:12Z</time>
      </trkpt>
      <trkpt lat="47.64704" lon="6.01276">
        <ele>205.05</ele>
        <time>2018-04-11T08:33:14Z</time>
      </trkpt>
      <trkpt lat="47.64702" lon="6.01264">
        <ele>205.08</ele>
        <time>2018-04-11T08:33:16Z</time>
      </trkpt>
      <trkpt lat="47.64702" lon="6.01258">
        <ele>205.09</ele>
        <time>2018-04-11T08:33:17Z</time>
      </trkpt>
      <trkpt lat="47.647" lon="6.01245">
        <ele>205.1</ele>
        <time>2018-04-11T08:33:19Z</time>
      </trkpt>
      <trkpt lat="47.64698" lon="6.01233">
        <ele>205.11</ele>
        <time>2018-04-11T08:33:21Z</time>
      </trkpt>
      <trkpt lat="47.64696" lon="6.0122">
        <ele>205.11</ele>
        <time>2018-04-11T08:33:23Z</time>
      </trkpt>
      <trkpt lat="47.64694" lon="6.01209">
        <ele>205.11</ele>
        <time>2018-04-11T08:33:25Z</time>
      </trkpt>
      <trkpt lat="47.64693" lon="6.01196">
        <ele>205.11</ele>
        <time>2018-04-11T08:33:27Z</time>
      </trkpt>
      <trkpt lat="47.64692" lon="6.01184">
        <ele>205.13</ele>
        <time>2018-04-11T08:33:29Z</time>
      </trkpt>
      <trkpt lat="47.6469" lon="6.01172">
        <ele>205.15</ele>
        <time>2018-04-11T08:33:31Z</time>
      </trkpt>
      <trkpt lat="47.64689" lon="6.0116">
        <ele>205.18</ele>
        <time>2018-04-11T08:33:33Z</time>
      </trkpt>
      <trkpt lat="47.64687" lon="6.01147">
        <ele>205.24</ele>
        <time>2018-04-11T08:33:35Z</time>
      </trkpt>
      <trkpt lat="47.64686" lon="6.01135">
        <ele>205.28</ele>
        <time>2018-04-11T08:33:37Z</time>
      </trkpt>
      <trkpt lat="47.64684" lon="6.01123">
        <ele>205.3</ele>
        <time>2018-04-11T08:33:39Z</time>
      </trkpt>
      <trkpt lat="47.64683" lon="6.01111">
        <ele>205.32</ele>
        <time>2018-04-11T08:33:41Z</time>
      </trkpt>
      <trkpt lat="47.64682" lon="6.011">
        <ele>205.34</ele>
        <time>2018-04-11T08:33:43Z</time>
      </trkpt>
      <trkpt lat="47.64681" lon="6.01088">
        <ele>205.35</ele>
        <time>2018-04-11T08:33:45Z</time>
      </trkpt>
      <trkpt lat="47.64679" lon="6.01076">
        <ele>205.36</ele>
        <time>2018-04-11T08:33:47Z</time>
      </trkpt>
      <trkpt lat="47.64679" lon="6.01069">
        <ele>205.36</ele>
        <time>2018-04-11T08:33:48Z</time>
      </trkpt>
      <trkpt lat="47.64677" lon="6.01058">
        <ele>205.36</ele>
        <time>2018-04-11T08:33:50Z</time>
      </trkpt>
      <trkpt lat="47.64676" lon="6.01046">
        <ele>205.36</ele>
        <time>2018-04-11T08:33:52Z</time>
      </trkpt>
      <trkpt lat="47.64675" lon="6.01034">
        <ele>205.36</ele>
        <time>2018-04-11T08:33:54Z</time>
      </trkpt>
      <trkpt lat="47.64673" lon="6.01023">
        <ele>205.35</ele>
        <time>2018-04-11T08:33:56Z</time>
      </trkpt>
      <trkpt lat="47.64673" lon="6.01011">
        <ele>205.34</ele>
        <time>2018-04-11T08:33:58Z</time>
      </trkpt>
      <trkpt lat="47.64671" lon="6.01">
        <ele>205.34</ele>
        <time>2018-04-11T08:34:00Z</time>
      </trkpt>
      <trkpt lat="47.6467" lon="6.00988">
        <ele>205.35</ele>
        <time>2018-04-11T08:34:02Z</time>
      </trkpt>
      <trkpt lat="47.64669" lon="6.00977">
        <ele>205.36</ele>
        <time>2018-04-11T08:34:04Z</time>
      </trkpt>
      <trkpt lat="47.64669" lon="6.00965">
        <ele>205.37</ele>
        <time>2018-04-11T08:34:06Z</time>
      </trkpt>
      <trkpt lat="47.64668" lon="6.00954">
        <ele>205.37</ele>
        <time>2018-04-11T08:34:08Z</time>
      </trkpt>
      <trkpt lat="47.64667" lon="6.00943">
        <ele>205.38</ele>
        <time>2018-04-11T08:34:10Z</time>
      </trkpt>
      <trkpt lat="47.64669" lon="6.00931">
        <ele>205.38</ele>
        <time>2018-04-11T08:34:12Z</time>
      </trkpt>
      <trkpt lat="47.64671" lon="6.00919">
        <ele>205.38</ele>
        <time>2018-04-11T08:34:14Z</time>
      </trkpt>
      <trkpt lat="47.64672" lon="6.00908">
        <ele>205.38</ele>
        <time>2018-04-11T08:34:16Z</time>
      </trkpt>
      <trkpt lat="47.64675" lon="6.00896">
        <ele>205.38</ele>
        <time>2018-04-11T08:34:18Z</time>
      </trkpt>
      <trkpt lat="47.64677" lon="6.0089">
        <ele>205.38</ele>
        <time>2018-04-11T08:34:19Z</time>
      </trkpt>
      <trkpt lat="47.64679" lon="6.00883">
        <ele>205.38</ele>
        <time>2018-04-11T08:34:20Z</time>
      </trkpt>
      <trkpt lat="47.6468" lon="6.00877">
        <ele>205.38</ele>
        <time>2018-04-11T08:34:21Z</time>
      </trkpt>
      <trkpt lat="47.64682" lon="6.0087">
        <ele>205.38</ele>
        <time>2018-04-11T08:34:22Z</time>
      </trkpt>
      <trkpt lat="47.64683" lon="6.00863">
        <ele>205.38</ele>
        <time>2018-04-11T08:34:23Z</time>
      </trkpt>
      <trkpt lat="47.64685" lon="6.0085">
        <ele>205.36</ele>
        <time>2018-04-11T08:34:25Z</time>
      </trkpt>
      <trkpt lat="47.64684" lon="6.00839">
        <ele>205.35</ele>
        <time>2018-04-11T08:34:27Z</time>
      </trkpt>
      <trkpt lat="47.64684" lon="6.00832">
        <ele>205.34</ele>
        <time>2018-04-11T08:34:28Z</time>
      </trkpt>
      <trkpt lat="47.64684" lon="6.00819">
        <ele>205.33</ele>
        <time>2018-04-11T08:34:30Z</time>
      </trkpt>
      <trkpt lat="47.64683" lon="6.00808">
        <ele>205.33</ele>
        <time>2018-04-11T08:34:32Z</time>
      </trkpt>
      <trkpt lat="47.64683" lon="6.00796">
        <ele>205.32</ele>
        <time>2018-04-11T08:34:34Z</time>
      </trkpt>
      <trkpt lat="47.64683" lon="6.00784">
        <ele>205.33</ele>
        <time>2018-04-11T08:34:36Z</time>
      </trkpt>
      <trkpt lat="47.64683" lon="6.00773">
        <ele>205.33</ele>
        <time>2018-04-11T08:34:38Z</time>
      </trkpt>
      <trkpt lat="47.64684" lon="6.00762">
        <ele>205.33</ele>
        <time>2018-04-11T08:34:40Z</time>
      </trkpt>
      <trkpt lat="47.64684" lon="6.00751">
        <ele>205.33</ele>
        <time>2018-04-11T08:34:42Z</time>
      </trkpt>
      <trkpt lat="47.64685" lon="6.0074">
        <ele>205.33</ele>
        <time>2018-04-11T08:34:44Z</time>
      </trkpt>
      <trkpt lat="47.64687" lon="6.00727">
        <ele>205.33</ele>
        <time>2018-04-11T08:34:46Z</time>
      </trkpt>
      <trkpt lat="47.64688" lon="6.00715">
        <ele>205.32</ele>
        <time>2018-04-11T08:34:48Z</time>
      </trkpt>
      <trkpt lat="47.6469" lon="6.00703">
        <ele>205.32</ele>
        <time>2018-04-11T08:34:50Z</time>
      </trkpt>
      <trkpt lat="47.64692" lon="6.00692">
        <ele>205.32</ele>
        <time>2018-04-11T08:34:52Z</time>
      </trkpt>
      <trkpt lat="47.64692" lon="6.00679">
        <ele>205.33</ele>
        <time>2018-04-11T08:34:54Z</time>
      </trkpt>
      <trkpt lat="47.64693" lon="6.00666">
        <ele>205.37</ele>
        <time>2018-04-11T08:34:56Z</time>
      </trkpt>
      <trkpt lat="47.64695" lon="6.00654">
        <ele>205.41</ele>
        <time>2018-04-11T08:34:58Z</time>
      </trkpt>
      <trkpt lat="47.64695" lon="6.00647">
        <ele>205.44</ele>
        <time>2018-04-11T08:34:59Z</time>
      </trkpt>
      <trkpt lat="47.64696" lon="6.00634">
        <ele>205.49</ele>
        <time>2018-04-11T08:35:01Z</time>
      </trkpt>
      <trkpt lat="47.64697" lon="6.00622">
        <ele>205.53</ele>
        <time>2018-04-11T08:35:03Z</time>
      </trkpt>
      <trkpt lat="47.64697" lon="6.00611">
        <ele>205.57</ele>
        <time>2018-04-11T08:35:05Z</time>
      </trkpt>
      <trkpt lat="47.64697" lon="6.006">
        <ele>205.62</ele>
        <time>2018-04-11T08:35:07Z</time>
      </trkpt>
      <trkpt lat="47.64696" lon="6.00587">
        <ele>205.69</ele>
        <time>2018-04-11T08:35:09Z</time>
      </trkpt>
      <trkpt lat="47.64695" lon="6.00575">
        <ele>205.75</ele>
        <time>2018-04-11T08:35:11Z</time>
      </trkpt>
      <trkpt lat="47.64694" lon="6.00563">
        <ele>205.83</ele>
        <time>2018-04-11T08:35:13Z</time>
      </trkpt>
      <trkpt lat="47.64693" lon="6.00549">
        <ele>205.91</ele>
        <time>2018-04-11T08:35:15Z</time>
      </trkpt>
      <trkpt lat="47.64693" lon="6.00537">
        <ele>206</ele>
        <time>2018-04-11T08:35:17Z</time>
      </trkpt>
      <trkpt lat="47.64692" lon="6.0053">
        <ele>206.05</ele>
        <time>2018-04-11T08:35:18Z</time>
      </trkpt>
      <trkpt lat="47.64692" lon="6.00518">
        <ele>206.14</ele>
        <time>2018-04-11T08:35:20Z</time>
      </trkpt>
      <trkpt lat="47.64691" lon="6.00506">
        <ele>206.23</ele>
        <time>2018-04-11T08:35:22Z</time>
      </trkpt>
      <trkpt lat="47.6469" lon="6.00493">
        <ele>206.31</ele>
        <time>2018-04-11T08:35:24Z</time>
      </trkpt>
      <trkpt lat="47.6469" lon="6.00486">
        <ele>206.34</ele>
        <time>2018-04-11T08:35:25Z</time>
      </trkpt>
      <trkpt lat="47.6469" lon="6.00479">
        <ele>206.38</ele>
        <time>2018-04-11T08:35:26Z</time>
      </trkpt>
      <trkpt lat="47.6469" lon="6.00467">
        <ele>206.45</ele>
        <time>2018-04-11T08:35:28Z</time>
      </trkpt>
      <trkpt lat="47.6469" lon="6.00455">
        <ele>206.52</ele>
        <time>2018-04-11T08:35:30Z</time>
      </trkpt>
      <trkpt lat="47.64689" lon="6.00442">
        <ele>206.58</ele>
        <time>2018-04-11T08:35:32Z</time>
      </trkpt>
      <trkpt lat="47.64689" lon="6.00434">
        <ele>206.61</ele>
        <time>2018-04-11T08:35:33Z</time>
      </trkpt>
      <trkpt lat="47.64689" lon="6.00427">
        <ele>206.64</ele>
        <time>2018-04-11T08:35:34Z</time>
      </trkpt>
      <trkpt lat="47.64689" lon="6.0042">
        <ele>206.67</ele>
        <time>2018-04-11T08:35:35Z</time>
      </trkpt>
      <trkpt lat="47.64689" lon="6.00406">
        <ele>206.72</ele>
        <time>2018-04-11T08:35:37Z</time>
      </trkpt>
      <trkpt lat="47.64689" lon="6.00399">
        <ele>206.73</ele>
        <time>2018-04-11T08:35:38Z</time>
      </trkpt>
      <trkpt lat="47.64689" lon="6.00388">
        <ele>206.78</ele>
        <time>2018-04-11T08:35:40Z</time>
      </trkpt>
      <trkpt lat="47.6469" lon="6.0038">
        <ele>206.8</ele>
        <time>2018-04-11T08:35:41Z</time>
      </trkpt>
      <trkpt lat="47.6469" lon="6.00373">
        <ele>206.82</ele>
        <time>2018-04-11T08:35:42Z</time>
      </trkpt>
      <trkpt lat="47.6469" lon="6.0036">
        <ele>206.85</ele>
        <time>2018-04-11T08:35:44Z</time>
      </trkpt>
      <trkpt lat="47.6469" lon="6.00354">
        <ele>206.86</ele>
        <time>2018-04-11T08:35:45Z</time>
      </trkpt>
      <trkpt lat="47.6469" lon="6.00347">
        <ele>206.88</ele>
        <time>2018-04-11T08:35:46Z</time>
      </trkpt>
      <trkpt lat="47.6469" lon="6.0034">
        <ele>206.89</ele>
        <time>2018-04-11T08:35:47Z</time>
      </trkpt>
      <trkpt lat="47.64689" lon="6.00328">
        <ele>206.92</ele>
        <time>2018-04-11T08:35:49Z</time>
      </trkpt>
      <trkpt lat="47.64689" lon="6.00321">
        <ele>206.93</ele>
        <time>2018-04-11T08:35:50Z</time>
      </trkpt>
      <trkpt lat="47.64688" lon="6.00309">
        <ele>206.95</ele>
        <time>2018-04-11T08:35:52Z</time>
      </trkpt>
      <trkpt lat="47.64687" lon="6.00297">
        <ele>206.96</ele>
        <time>2018-04-11T08:35:54Z</time>
      </trkpt>
      <trkpt lat="47.64686" lon="6.00284">
        <ele>206.97</ele>
        <time>2018-04-11T08:35:56Z</time>
      </trkpt>
      <trkpt lat="47.64684" lon="6.00271">
        <ele>206.98</ele>
        <time>2018-04-11T08:35:58Z</time>
      </trkpt>
      <trkpt lat="47.64682" lon="6.00259">
        <ele>206.98</ele>
        <time>2018-04-11T08:36:00Z</time>
      </trkpt>
      <trkpt lat="47.6468" lon="6.00246">
        <ele>206.99</ele>
        <time>2018-04-11T08:36:02Z</time>
      </trkpt>
      <trkpt lat="47.64678" lon="6.00236">
        <ele>207.01</ele>
        <time>2018-04-11T08:36:04Z</time>
      </trkpt>
      <trkpt lat="47.64676" lon="6.00224">
        <ele>207.04</ele>
        <time>2018-04-11T08:36:06Z</time>
      </trkpt>
      <trkpt lat="47.64674" lon="6.00213">
        <ele>207.06</ele>
        <time>2018-04-11T08:36:08Z</time>
      </trkpt>
      <trkpt lat="47.64673" lon="6.002">
        <ele>207.08</ele>
        <time>2018-04-11T08:36:10Z</time>
      </trkpt>
      <trkpt lat="47.64672" lon="6.00187">
        <ele>207.1</ele>
        <time>2018-04-11T08:36:12Z</time>
      </trkpt>
      <trkpt lat="47.64672" lon="6.0018">
        <ele>207.1</ele>
        <time>2018-04-11T08:36:13Z</time>
      </trkpt>
      <trkpt lat="47.64672" lon="6.00168">
        <ele>207.11</ele>
        <time>2018-04-11T08:36:15Z</time>
      </trkpt>
      <trkpt lat="47.64672" lon="6.00155">
        <ele>207.1</ele>
        <time>2018-04-11T08:36:17Z</time>
      </trkpt>
      <trkpt lat="47.64672" lon="6.00146">
        <ele>207.1</ele>
        <time>2018-04-11T08:36:18Z</time>
      </trkpt>
      <trkpt lat="47.64673" lon="6.00139">
        <ele>207.1</ele>
        <time>2018-04-11T08:36:19Z</time>
      </trkpt>
      <trkpt lat="47.64674" lon="6.00131">
        <ele>207.09</ele>
        <time>2018-04-11T08:36:20Z</time>
      </trkpt>
      <trkpt lat="47.64676" lon="6.00124">
        <ele>207.09</ele>
        <time>2018-04-11T08:36:21Z</time>
      </trkpt>
      <trkpt lat="47.64677" lon="6.00116">
        <ele>207.09</ele>
        <time>2018-04-11T08:36:22Z</time>
      </trkpt>
      <trkpt lat="47.64678" lon="6.00109">
        <ele>207.09</ele>
        <time>2018-04-11T08:36:23Z</time>
      </trkpt>
      <trkpt lat="47.6468" lon="6.00101">
        <ele>207.08</ele>
        <time>2018-04-11T08:36:24Z</time>
      </trkpt>
      <trkpt lat="47.64681" lon="6.00094">
        <ele>207.08</ele>
        <time>2018-04-11T08:36:25Z</time>
      </trkpt>
      <trkpt lat="47.64683" lon="6.00087">
        <ele>207.08</ele>
        <time>2018-04-11T08:36:26Z</time>
      </trkpt>
      <trkpt lat="47.64684" lon="6.0008">
        <ele>207.08</ele>
        <time>2018-04-11T08:36:27Z</time>
      </trkpt>
      <trkpt lat="47.64686" lon="6.00073">
        <ele>207.09</ele>
        <time>2018-04-11T08:36:28Z</time>
      </trkpt>
      <trkpt lat="47.64688" lon="6.00066">
        <ele>207.09</ele>
        <time>2018-04-11T08:36:29Z</time>
      </trkpt>
      <trkpt lat="47.64689" lon="6.00059">
        <ele>207.1</ele>
        <time>2018-04-11T08:36:30Z</time>
      </trkpt>
      <trkpt lat="47.64691" lon="6.00052">
        <ele>207.1</ele>
        <time>2018-04-11T08:36:31Z</time>
      </trkpt>
      <trkpt lat="47.64693" lon="6.00044">
        <ele>207.1</ele>
        <time>2018-04-11T08:36:32Z</time>
      </trkpt>
      <trkpt lat="47.64694" lon="6.00037">
        <ele>207.11</ele>
        <time>2018-04-11T08:36:33Z</time>
      </trkpt>
      <trkpt lat="47.64697" lon="6.00024">
        <ele>207.12</ele>
        <time>2018-04-11T08:36:35Z</time>
      </trkpt>
      <trkpt lat="47.647" lon="6.0001">
        <ele>207.13</ele>
        <time>2018-04-11T08:36:37Z</time>
      </trkpt>
      <trkpt lat="47.64702" lon="6.00004">
        <ele>207.14</ele>
        <time>2018-04-11T08:36:38Z</time>
      </trkpt>
      <trkpt lat="47.64706" lon="5.99991">
        <ele>207.14</ele>
        <time>2018-04-11T08:36:40Z</time>
      </trkpt>
      <trkpt lat="47.64708" lon="5.99985">
        <ele>207.14</ele>
        <time>2018-04-11T08:36:41Z</time>
      </trkpt>
      <trkpt lat="47.6471" lon="5.99978">
        <ele>207.14</ele>
        <time>2018-04-11T08:36:42Z</time>
      </trkpt>
      <trkpt lat="47.64711" lon="5.99972">
        <ele>207.15</ele>
        <time>2018-04-11T08:36:43Z</time>
      </trkpt>
      <trkpt lat="47.64715" lon="5.9996">
        <ele>207.16</ele>
        <time>2018-04-11T08:36:45Z</time>
      </trkpt>
      <trkpt lat="47.64717" lon="5.99953">
        <ele>207.16</ele>
        <time>2018-04-11T08:36:46Z</time>
      </trkpt>
      <trkpt lat="47.64721" lon="5.9994">
        <ele>207.18</ele>
        <time>2018-04-11T08:36:48Z</time>
      </trkpt>
      <trkpt lat="47.64723" lon="5.99934">
        <ele>207.19</ele>
        <time>2018-04-11T08:36:49Z</time>
      </trkpt>
      <trkpt lat="47.64726" lon="5.99928">
        <ele>207.2</ele>
        <time>2018-04-11T08:36:50Z</time>
      </trkpt>
      <trkpt lat="47.64728" lon="5.99922">
        <ele>207.21</ele>
        <time>2018-04-11T08:36:51Z</time>
      </trkpt>
      <trkpt lat="47.6473" lon="5.99916">
        <ele>207.21</ele>
        <time>2018-04-11T08:36:52Z</time>
      </trkpt>
      <trkpt lat="47.64732" lon="5.9991">
        <ele>207.22</ele>
        <time>2018-04-11T08:36:53Z</time>
      </trkpt>
      <trkpt lat="47.64734" lon="5.99903">
        <ele>207.23</ele>
        <time>2018-04-11T08:36:54Z</time>
      </trkpt>
      <trkpt lat="47.64737" lon="5.99896">
        <ele>207.25</ele>
        <time>2018-04-11T08:36:55Z</time>
      </trkpt>
      <trkpt lat="47.64742" lon="5.99885">
        <ele>207.28</ele>
        <time>2018-04-11T08:36:57Z</time>
      </trkpt>
      <trkpt lat="47.64745" lon="5.99879">
        <ele>207.3</ele>
        <time>2018-04-11T08:36:58Z</time>
      </trkpt>
      <trkpt lat="47.64748" lon="5.99873">
        <ele>207.31</ele>
        <time>2018-04-11T08:36:59Z</time>
      </trkpt>
      <trkpt lat="47.64751" lon="5.99867">
        <ele>207.33</ele>
        <time>2018-04-11T08:37:00Z</time>
      </trkpt>
      <trkpt lat="47.64756" lon="5.99857">
        <ele>207.38</ele>
        <time>2018-04-11T08:37:02Z</time>
      </trkpt>
      <trkpt lat="47.64759" lon="5.99851">
        <ele>207.4</ele>
        <time>2018-04-11T08:37:03Z</time>
      </trkpt>
      <trkpt lat="47.64765" lon="5.99842">
        <ele>207.44</ele>
        <time>2018-04-11T08:37:05Z</time>
      </trkpt>
      <trkpt lat="47.64768" lon="5.99837">
        <ele>207.46</ele>
        <time>2018-04-11T08:37:06Z</time>
      </trkpt>
      <trkpt lat="47.64772" lon="5.99832">
        <ele>207.48</ele>
        <time>2018-04-11T08:37:07Z</time>
      </trkpt>
      <trkpt lat="47.64775" lon="5.99827">
        <ele>207.49</ele>
        <time>2018-04-11T08:37:08Z</time>
      </trkpt>
      <trkpt lat="47.64778" lon="5.99823">
        <ele>207.51</ele>
        <time>2018-04-11T08:37:09Z</time>
      </trkpt>
      <trkpt lat="47.64784" lon="5.99813">
        <ele>207.53</ele>
        <time>2018-04-11T08:37:11Z</time>
      </trkpt>
      <trkpt lat="47.64788" lon="5.99808">
        <ele>207.55</ele>
        <time>2018-04-11T08:37:12Z</time>
      </trkpt>
      <trkpt lat="47.64794" lon="5.99799">
        <ele>207.58</ele>
        <time>2018-04-11T08:37:14Z</time>
      </trkpt>
      <trkpt lat="47.64798" lon="5.99794">
        <ele>207.59</ele>
        <time>2018-04-11T08:37:15Z</time>
      </trkpt>
      <trkpt lat="47.64801" lon="5.99789">
        <ele>207.6</ele>
        <time>2018-04-11T08:37:16Z</time>
      </trkpt>
      <trkpt lat="47.64808" lon="5.99781">
        <ele>207.62</ele>
        <time>2018-04-11T08:37:18Z</time>
      </trkpt>
      <trkpt lat="47.64814" lon="5.99772">
        <ele>207.64</ele>
        <time>2018-04-11T08:37:20Z</time>
      </trkpt>
      <trkpt lat="47.64818" lon="5.99768">
        <ele>207.64</ele>
        <time>2018-04-11T08:37:21Z</time>
      </trkpt>
      <trkpt lat="47.64825" lon="5.99759">
        <ele>207.65</ele>
        <time>2018-04-11T08:37:23Z</time>
      </trkpt>
      <trkpt lat="47.64831" lon="5.99751">
        <ele>207.65</ele>
        <time>2018-04-11T08:37:25Z</time>
      </trkpt>
      <trkpt lat="47.64838" lon="5.99743">
        <ele>207.65</ele>
        <time>2018-04-11T08:37:27Z</time>
      </trkpt>
      <trkpt lat="47.64845" lon="5.99734">
        <ele>207.65</ele>
        <time>2018-04-11T08:37:29Z</time>
      </trkpt>
      <trkpt lat="47.64851" lon="5.99727">
        <ele>207.64</ele>
        <time>2018-04-11T08:37:31Z</time>
      </trkpt>
      <trkpt lat="47.64857" lon="5.99721">
        <ele>207.65</ele>
        <time>2018-04-11T08:37:33Z</time>
      </trkpt>
      <trkpt lat="47.64864" lon="5.99713">
        <ele>207.66</ele>
        <time>2018-04-11T08:37:35Z</time>
      </trkpt>
      <trkpt lat="47.64871" lon="5.99706">
        <ele>207.66</ele>
        <time>2018-04-11T08:37:37Z</time>
      </trkpt>
      <trkpt lat="47.64877" lon="5.99698">
        <ele>207.65</ele>
        <time>2018-04-11T08:37:39Z</time>
      </trkpt>
      <trkpt lat="47.64884" lon="5.99691">
        <ele>207.65</ele>
        <time>2018-04-11T08:37:41Z</time>
      </trkpt>
      <trkpt lat="47.64889" lon="5.99684">
        <ele>207.63</ele>
        <time>2018-04-11T08:37:43Z</time>
      </trkpt>
      <trkpt lat="47.64896" lon="5.99678">
        <ele>207.62</ele>
        <time>2018-04-11T08:37:45Z</time>
      </trkpt>
      <trkpt lat="47.64902" lon="5.99672">
        <ele>207.6</ele>
        <time>2018-04-11T08:37:47Z</time>
      </trkpt>
      <trkpt lat="47.64908" lon="5.99665">
        <ele>207.6</ele>
        <time>2018-04-11T08:37:49Z</time>
      </trkpt>
      <trkpt lat="47.64913" lon="5.99659">
        <ele>207.6</ele>
        <time>2018-04-11T08:37:51Z</time>
      </trkpt>
      <trkpt lat="47.64919" lon="5.99653">
        <ele>207.6</ele>
        <time>2018-04-11T08:37:53Z</time>
      </trkpt>
      <trkpt lat="47.64925" lon="5.99647">
        <ele>207.6</ele>
        <time>2018-04-11T08:37:55Z</time>
      </trkpt>
      <trkpt lat="47.64931" lon="5.9964">
        <ele>207.59</ele>
        <time>2018-04-11T08:37:57Z</time>
      </trkpt>
      <trkpt lat="47.64937" lon="5.99634">
        <ele>207.57</ele>
        <time>2018-04-11T08:37:59Z</time>
      </trkpt>
      <trkpt lat="47.64944" lon="5.99627">
        <ele>207.54</ele>
        <time>2018-04-11T08:38:01Z</time>
      </trkpt>
      <trkpt lat="47.6495" lon="5.9962">
        <ele>207.51</ele>
        <time>2018-04-11T08:38:03Z</time>
      </trkpt>
      <trkpt lat="47.64956" lon="5.99612">
        <ele>207.49</ele>
        <time>2018-04-11T08:38:05Z</time>
      </trkpt>
      <trkpt lat="47.64963" lon="5.99605">
        <ele>207.46</ele>
        <time>2018-04-11T08:38:07Z</time>
      </trkpt>
      <trkpt lat="47.64969" lon="5.99598">
        <ele>207.45</ele>
        <time>2018-04-11T08:38:09Z</time>
      </trkpt>
      <trkpt lat="47.64974" lon="5.99592">
        <ele>207.44</ele>
        <time>2018-04-11T08:38:11Z</time>
      </trkpt>
      <trkpt lat="47.6498" lon="5.99584">
        <ele>207.43</ele>
        <time>2018-04-11T08:38:13Z</time>
      </trkpt>
      <trkpt lat="47.64987" lon="5.99577">
        <ele>207.42</ele>
        <time>2018-04-11T08:38:15Z</time>
      </trkpt>
      <trkpt lat="47.64992" lon="5.9957">
        <ele>207.41</ele>
        <time>2018-04-11T08:38:17Z</time>
      </trkpt>
      <trkpt lat="47.64998" lon="5.99564">
        <ele>207.41</ele>
        <time>2018-04-11T08:38:19Z</time>
      </trkpt>
      <trkpt lat="47.65004" lon="5.99558">
        <ele>207.41</ele>
        <time>2018-04-11T08:38:21Z</time>
      </trkpt>
      <trkpt lat="47.6501" lon="5.99554">
        <ele>207.41</ele>
        <time>2018-04-11T08:38:23Z</time>
      </trkpt>
      <trkpt lat="47.65017" lon="5.99558">
        <ele>207.41</ele>
        <time>2018-04-11T08:38:25Z</time>
      </trkpt>
      <trkpt lat="47.65021" lon="5.99568">
        <ele>207.4</ele>
        <time>2018-04-11T08:38:27Z</time>
      </trkpt>
      <trkpt lat="47.65023" lon="5.99579">
        <ele>207.4</ele>
        <time>2018-04-11T08:38:29Z</time>
      </trkpt>
      <trkpt lat="47.65026" lon="5.99589">
        <ele>207.4</ele>
        <time>2018-04-11T08:38:31Z</time>
      </trkpt>
      <trkpt lat="47.65028" lon="5.99599">
        <ele>207.4</ele>
        <time>2018-04-11T08:38:33Z</time>
      </trkpt>
      <trkpt lat="47.65031" lon="5.99609">
        <ele>207.4</ele>
        <time>2018-04-11T08:38:35Z</time>
      </trkpt>
      <trkpt lat="47.65034" lon="5.99619">
        <ele>207.42</ele>
        <time>2018-04-11T08:38:37Z</time>
      </trkpt>
      <trkpt lat="47.65037" lon="5.9963">
        <ele>207.43</ele>
        <time>2018-04-11T08:38:39Z</time>
      </trkpt>
      <trkpt lat="47.6504" lon="5.9964">
        <ele>207.44</ele>
        <time>2018-04-11T08:38:41Z</time>
      </trkpt>
      <trkpt lat="47.65042" lon="5.9965">
        <ele>207.44</ele>
        <time>2018-04-11T08:38:43Z</time>
      </trkpt>
      <trkpt lat="47.65044" lon="5.99662">
        <ele>207.5</ele>
        <time>2018-04-11T08:38:45Z</time>
      </trkpt>
      <trkpt lat="47.65047" lon="5.99673">
        <ele>207.56</ele>
        <time>2018-04-11T08:38:47Z</time>
      </trkpt>
      <trkpt lat="47.65049" lon="5.99685">
        <ele>207.62</ele>
        <time>2018-04-11T08:38:49Z</time>
      </trkpt>
      <trkpt lat="47.6505" lon="5.99697">
        <ele>207.67</ele>
        <time>2018-04-11T08:38:51Z</time>
      </trkpt>
      <trkpt lat="47.65052" lon="5.99708">
        <ele>207.71</ele>
        <time>2018-04-11T08:38:53Z</time>
      </trkpt>
      <trkpt lat="47.65054" lon="5.99719">
        <ele>207.72</ele>
        <time>2018-04-11T08:38:55Z</time>
      </trkpt>
      <trkpt lat="47.65057" lon="5.99729">
        <ele>207.72</ele>
        <time>2018-04-11T08:38:57Z</time>
      </trkpt>
      <trkpt lat="47.65059" lon="5.99738">
        <ele>207.73</ele>
        <time>2018-04-11T08:38:59Z</time>
      </trkpt>
      <trkpt lat="47.65063" lon="5.99744">
        <ele>207.74</ele>
        <time>2018-04-11T08:39:01Z</time>
      </trkpt>
      <trkpt lat="47.65068" lon="5.9975">
        <ele>207.74</ele>
        <time>2018-04-11T08:39:03Z</time>
      </trkpt>
      <trkpt lat="47.65075" lon="5.99754">
        <ele>207.75</ele>
        <time>2018-04-11T08:39:05Z</time>
      </trkpt>
      <trkpt lat="47.65082" lon="5.99757">
        <ele>207.76</ele>
        <time>2018-04-11T08:39:07Z</time>
      </trkpt>
      <trkpt lat="47.65088" lon="5.9976">
        <ele>207.76</ele>
        <time>2018-04-11T08:39:09Z</time>
      </trkpt>
      <trkpt lat="47.65096" lon="5.99762">
        <ele>207.77</ele>
        <time>2018-04-11T08:39:11Z</time>
      </trkpt>
      <trkpt lat="47.65103" lon="5.99763">
        <ele>207.78</ele>
        <time>2018-04-11T08:39:13Z</time>
      </trkpt>
      <trkpt lat="47.6511" lon="5.99765">
        <ele>207.78</ele>
        <time>2018-04-11T08:39:15Z</time>
      </trkpt>
      <trkpt lat="47.65118" lon="5.99766">
        <ele>207.79</ele>
        <time>2018-04-11T08:39:17Z</time>
      </trkpt>
      <trkpt lat="47.65126" lon="5.99767">
        <ele>207.78</ele>
        <time>2018-04-11T08:39:19Z</time>
      </trkpt>
      <trkpt lat="47.65134" lon="5.99769">
        <ele>207.77</ele>
        <time>2018-04-11T08:39:21Z</time>
      </trkpt>
      <trkpt lat="47.65142" lon="5.9977">
        <ele>207.76</ele>
        <time>2018-04-11T08:39:23Z</time>
      </trkpt>
      <trkpt lat="47.6515" lon="5.99771">
        <ele>207.74</ele>
        <time>2018-04-11T08:39:25Z</time>
      </trkpt>
      <trkpt lat="47.65158" lon="5.99772">
        <ele>207.72</ele>
        <time>2018-04-11T08:39:27Z</time>
      </trkpt>
      <trkpt lat="47.65166" lon="5.99773">
        <ele>207.7</ele>
        <time>2018-04-11T08:39:29Z</time>
      </trkpt>
      <trkpt lat="47.65174" lon="5.99773">
        <ele>207.68</ele>
        <time>2018-04-11T08:39:31Z</time>
      </trkpt>
      <trkpt lat="47.65181" lon="5.99774">
        <ele>207.66</ele>
        <time>2018-04-11T08:39:33Z</time>
      </trkpt>
      <trkpt lat="47.65189" lon="5.99774">
        <ele>207.63</ele>
        <time>2018-04-11T08:39:35Z</time>
      </trkpt>
      <trkpt lat="47.65197" lon="5.99774">
        <ele>207.6</ele>
        <time>2018-04-11T08:39:37Z</time>
      </trkpt>
      <trkpt lat="47.65205" lon="5.99774">
        <ele>207.57</ele>
        <time>2018-04-11T08:39:39Z</time>
      </trkpt>
      <trkpt lat="47.65212" lon="5.99775">
        <ele>207.55</ele>
        <time>2018-04-11T08:39:41Z</time>
      </trkpt>
      <trkpt lat="47.65221" lon="5.99776">
        <ele>207.53</ele>
        <time>2018-04-11T08:39:43Z</time>
      </trkpt>
      <trkpt lat="47.65229" lon="5.99779">
        <ele>207.51</ele>
        <time>2018-04-11T08:39:45Z</time>
      </trkpt>
      <trkpt lat="47.65236" lon="5.99783">
        <ele>207.49</ele>
        <time>2018-04-11T08:39:47Z</time>
      </trkpt>
      <trkpt lat="47.6524" lon="5.99785">
        <ele>207.48</ele>
        <time>2018-04-11T08:39:48Z</time>
      </trkpt>
      <trkpt lat="47.65248" lon="5.99789">
        <ele>207.45</ele>
        <time>2018-04-11T08:39:50Z</time>
      </trkpt>
      <trkpt lat="47.65256" lon="5.99793">
        <ele>207.43</ele>
        <time>2018-04-11T08:39:52Z</time>
      </trkpt>
      <trkpt lat="47.65263" lon="5.99797">
        <ele>207.41</ele>
        <time>2018-04-11T08:39:54Z</time>
      </trkpt>
      <trkpt lat="47.65271" lon="5.99801">
        <ele>207.39</ele>
        <time>2018-04-11T08:39:56Z</time>
      </trkpt>
      <trkpt lat="47.65279" lon="5.99805">
        <ele>207.37</ele>
        <time>2018-04-11T08:39:58Z</time>
      </trkpt>
      <trkpt lat="47.65286" lon="5.99808">
        <ele>207.35</ele>
        <time>2018-04-11T08:40:00Z</time>
      </trkpt>
      <trkpt lat="47.65294" lon="5.99812">
        <ele>207.33</ele>
        <time>2018-04-11T08:40:02Z</time>
      </trkpt>
      <trkpt lat="47.65302" lon="5.99816">
        <ele>207.32</ele>
        <time>2018-04-11T08:40:04Z</time>
      </trkpt>
      <trkpt lat="47.6531" lon="5.99819">
        <ele>207.32</ele>
        <time>2018-04-11T08:40:06Z</time>
      </trkpt>
      <trkpt lat="47.65315" lon="5.99822">
        <ele>207.32</ele>
        <time>2018-04-11T08:40:08Z</time>
      </trkpt>
      <trkpt lat="47.65322" lon="5.99825">
        <ele>207.31</ele>
        <time>2018-04-11T08:40:10Z</time>
      </trkpt>
      <trkpt lat="47.65329" lon="5.99827">
        <ele>207.31</ele>
        <time>2018-04-11T08:40:12Z</time>
      </trkpt>
      <trkpt lat="47.65336" lon="5.99823">
        <ele>207.3</ele>
        <time>2018-04-11T08:40:14Z</time>
      </trkpt>
      <trkpt lat="47.6534" lon="5.99817">
        <ele>207.3</ele>
        <time>2018-04-11T08:40:16Z</time>
      </trkpt>
      <trkpt lat="47.65343" lon="5.9981">
        <ele>207.29</ele>
        <time>2018-04-11T08:40:18Z</time>
      </trkpt>
      <trkpt lat="47.65346" lon="5.99802">
        <ele>207.28</ele>
        <time>2018-04-11T08:40:20Z</time>
      </trkpt>
      <trkpt lat="47.6535" lon="5.99795">
        <ele>207.27</ele>
        <time>2018-04-11T08:40:22Z</time>
      </trkpt>
      <trkpt lat="47.65355" lon="5.99787">
        <ele>207.26</ele>
        <time>2018-04-11T08:40:25Z</time>
      </trkpt>
      <trkpt lat="47.65357" lon="5.99779">
        <ele>207.25</ele>
        <time>2018-04-11T08:40:27Z</time>
      </trkpt>
      <trkpt lat="47.65359" lon="5.99771">
        <ele>207.24</ele>
        <time>2018-04-11T08:40:29Z</time>
      </trkpt>
      <trkpt lat="47.65362" lon="5.99763">
        <ele>207.23</ele>
        <time>2018-04-11T08:40:31Z</time>
      </trkpt>
      <trkpt lat="47.65367" lon="5.99756">
        <ele>207.22</ele>
        <time>2018-04-11T08:40:33Z</time>
      </trkpt>
      <trkpt lat="47.65371" lon="5.99747">
        <ele>207.21</ele>
        <time>2018-04-11T08:40:35Z</time>
      </trkpt>
      <trkpt lat="47.65374" lon="5.99738">
        <ele>207.19</ele>
        <time>2018-04-11T08:40:37Z</time>
      </trkpt>
      <trkpt lat="47.65378" lon="5.9973">
        <ele>207.18</ele>
        <time>2018-04-11T08:40:39Z</time>
      </trkpt>
      <trkpt lat="47.65382" lon="5.9972">
        <ele>207.1</ele>
        <time>2018-04-11T08:40:41Z</time>
      </trkpt>
      <trkpt lat="47.65386" lon="5.9971">
        <ele>207</ele>
        <time>2018-04-11T08:40:43Z</time>
      </trkpt>
      <trkpt lat="47.6539" lon="5.997">
        <ele>206.95</ele>
        <time>2018-04-11T08:40:45Z</time>
      </trkpt>
      <trkpt lat="47.65394" lon="5.9969">
        <ele>206.93</ele>
        <time>2018-04-11T08:40:47Z</time>
      </trkpt>
      <trkpt lat="47.65399" lon="5.9968">
        <ele>206.87</ele>
        <time>2018-04-11T08:40:49Z</time>
      </trkpt>
      <trkpt lat="47.65403" lon="5.9967">
        <ele>206.83</ele>
        <time>2018-04-11T08:40:51Z</time>
      </trkpt>
      <trkpt lat="47.65407" lon="5.9966">
        <ele>206.78</ele>
        <time>2018-04-11T08:40:53Z</time>
      </trkpt>
      <trkpt lat="47.65412" lon="5.9965">
        <ele>206.76</ele>
        <time>2018-04-11T08:40:55Z</time>
      </trkpt>
      <trkpt lat="47.65416" lon="5.9964">
        <ele>206.73</ele>
        <time>2018-04-11T08:40:57Z</time>
      </trkpt>
      <trkpt lat="47.65421" lon="5.99629">
        <ele>206.71</ele>
        <time>2018-04-11T08:40:59Z</time>
      </trkpt>
      <trkpt lat="47.65425" lon="5.99618">
        <ele>206.69</ele>
        <time>2018-04-11T08:41:01Z</time>
      </trkpt>
      <trkpt lat="47.65429" lon="5.99608">
        <ele>206.69</ele>
        <time>2018-04-11T08:41:03Z</time>
      </trkpt>
      <trkpt lat="47.65434" lon="5.99598">
        <ele>206.69</ele>
        <time>2018-04-11T08:41:05Z</time>
      </trkpt>
      <trkpt lat="47.65438" lon="5.99587">
        <ele>206.69</ele>
        <time>2018-04-11T08:41:07Z</time>
      </trkpt>
      <trkpt lat="47.65442" lon="5.99578">
        <ele>206.7</ele>
        <time>2018-04-11T08:41:09Z</time>
      </trkpt>
      <trkpt lat="47.65446" lon="5.99569">
        <ele>206.7</ele>
        <time>2018-04-11T08:41:11Z</time>
      </trkpt>
      <trkpt lat="47.6545" lon="5.99559">
        <ele>206.7</ele>
        <time>2018-04-11T08:41:13Z</time>
      </trkpt>
      <trkpt lat="47.65454" lon="5.99549">
        <ele>206.7</ele>
        <time>2018-04-11T08:41:15Z</time>
      </trkpt>
      <trkpt lat="47.65458" lon="5.99538">
        <ele>206.71</ele>
        <time>2018-04-11T08:41:17Z</time>
      </trkpt>
      <trkpt lat="47.65462" lon="5.99526">
        <ele>206.71</ele>
        <time>2018-04-11T08:41:19Z</time>
      </trkpt>
      <trkpt lat="47.65466" lon="5.99515">
        <ele>206.7</ele>
        <time>2018-04-11T08:41:21Z</time>
      </trkpt>
      <trkpt lat="47.6547" lon="5.99504">
        <ele>206.69</ele>
        <time>2018-04-11T08:41:23Z</time>
      </trkpt>
      <trkpt lat="47.65474" lon="5.99491">
        <ele>206.67</ele>
        <time>2018-04-11T08:41:25Z</time>
      </trkpt>
      <trkpt lat="47.65476" lon="5.99485">
        <ele>206.67</ele>
        <time>2018-04-11T08:41:26Z</time>
      </trkpt>
      <trkpt lat="47.65478" lon="5.99478">
        <ele>206.66</ele>
        <time>2018-04-11T08:41:27Z</time>
      </trkpt>
      <trkpt lat="47.65482" lon="5.99467">
        <ele>206.65</ele>
        <time>2018-04-11T08:41:29Z</time>
      </trkpt>
      <trkpt lat="47.65486" lon="5.99456">
        <ele>206.64</ele>
        <time>2018-04-11T08:41:31Z</time>
      </trkpt>
      <trkpt lat="47.65489" lon="5.99446">
        <ele>206.63</ele>
        <time>2018-04-11T08:41:33Z</time>
      </trkpt>
      <trkpt lat="47.65492" lon="5.99434">
        <ele>206.62</ele>
        <time>2018-04-11T08:41:35Z</time>
      </trkpt>
      <trkpt lat="47.65495" lon="5.99423">
        <ele>206.61</ele>
        <time>2018-04-11T08:41:37Z</time>
      </trkpt>
      <trkpt lat="47.65499" lon="5.99412">
        <ele>206.6</ele>
        <time>2018-04-11T08:41:39Z</time>
      </trkpt>
      <trkpt lat="47.65501" lon="5.99406">
        <ele>206.59</ele>
        <time>2018-04-11T08:41:40Z</time>
      </trkpt>
      <trkpt lat="47.65505" lon="5.99393">
        <ele>206.58</ele>
        <time>2018-04-11T08:41:42Z</time>
      </trkpt>
      <trkpt lat="47.65507" lon="5.99386">
        <ele>206.58</ele>
        <time>2018-04-11T08:41:43Z</time>
      </trkpt>
      <trkpt lat="47.65509" lon="5.99379">
        <ele>206.58</ele>
        <time>2018-04-11T08:41:44Z</time>
      </trkpt>
      <trkpt lat="47.65511" lon="5.99371">
        <ele>206.57</ele>
        <time>2018-04-11T08:41:45Z</time>
      </trkpt>
      <trkpt lat="47.65513" lon="5.99364">
        <ele>206.57</ele>
        <time>2018-04-11T08:41:46Z</time>
      </trkpt>
      <trkpt lat="47.65515" lon="5.99357">
        <ele>206.56</ele>
        <time>2018-04-11T08:41:47Z</time>
      </trkpt>
      <trkpt lat="47.65517" lon="5.99351">
        <ele>206.56</ele>
        <time>2018-04-11T08:41:48Z</time>
      </trkpt>
      <trkpt lat="47.65519" lon="5.99344">
        <ele>206.56</ele>
        <time>2018-04-11T08:41:49Z</time>
      </trkpt>
      <trkpt lat="47.65521" lon="5.99338">
        <ele>206.56</ele>
        <time>2018-04-11T08:41:50Z</time>
      </trkpt>
      <trkpt lat="47.65524" lon="5.99326">
        <ele>206.57</ele>
        <time>2018-04-11T08:41:52Z</time>
      </trkpt>
      <trkpt lat="47.65527" lon="5.9932">
        <ele>206.57</ele>
        <time>2018-04-11T08:41:53Z</time>
      </trkpt>
      <trkpt lat="47.6553" lon="5.99307">
        <ele>206.58</ele>
        <time>2018-04-11T08:41:55Z</time>
      </trkpt>
      <trkpt lat="47.65532" lon="5.99301">
        <ele>206.58</ele>
        <time>2018-04-11T08:41:56Z</time>
      </trkpt>
      <trkpt lat="47.65536" lon="5.99289">
        <ele>206.58</ele>
        <time>2018-04-11T08:41:58Z</time>
      </trkpt>
      <trkpt lat="47.65539" lon="5.99279">
        <ele>206.59</ele>
        <time>2018-04-11T08:42:00Z</time>
      </trkpt>
      <trkpt lat="47.65542" lon="5.99267">
        <ele>206.6</ele>
        <time>2018-04-11T08:42:02Z</time>
      </trkpt>
      <trkpt lat="47.65546" lon="5.99256">
        <ele>206.6</ele>
        <time>2018-04-11T08:42:04Z</time>
      </trkpt>
      <trkpt lat="47.65549" lon="5.99247">
        <ele>206.61</ele>
        <time>2018-04-11T08:42:06Z</time>
      </trkpt>
      <trkpt lat="47.65552" lon="5.99237">
        <ele>206.61</ele>
        <time>2018-04-11T08:42:08Z</time>
      </trkpt>
      <trkpt lat="47.65555" lon="5.99228">
        <ele>206.61</ele>
        <time>2018-04-11T08:42:10Z</time>
      </trkpt>
      <trkpt lat="47.65558" lon="5.99219">
        <ele>206.62</ele>
        <time>2018-04-11T08:42:12Z</time>
      </trkpt>
      <trkpt lat="47.65561" lon="5.99211">
        <ele>206.63</ele>
        <time>2018-04-11T08:42:14Z</time>
      </trkpt>
      <trkpt lat="47.65563" lon="5.99202">
        <ele>206.64</ele>
        <time>2018-04-11T08:42:16Z</time>
      </trkpt>
      <trkpt lat="47.65567" lon="5.99192">
        <ele>206.66</ele>
        <time>2018-04-11T08:42:18Z</time>
      </trkpt>
      <trkpt lat="47.65569" lon="5.99183">
        <ele>206.67</ele>
        <time>2018-04-11T08:42:20Z</time>
      </trkpt>
      <trkpt lat="47.65572" lon="5.99173">
        <ele>206.69</ele>
        <time>2018-04-11T08:42:22Z</time>
      </trkpt>
      <trkpt lat="47.65575" lon="5.99163">
        <ele>206.71</ele>
        <time>2018-04-11T08:42:24Z</time>
      </trkpt>
      <trkpt lat="47.65578" lon="5.99153">
        <ele>206.74</ele>
        <time>2018-04-11T08:42:26Z</time>
      </trkpt>
      <trkpt lat="47.65581" lon="5.99144">
        <ele>206.76</ele>
        <time>2018-04-11T08:42:28Z</time>
      </trkpt>
      <trkpt lat="47.65583" lon="5.99133">
        <ele>206.79</ele>
        <time>2018-04-11T08:42:30Z</time>
      </trkpt>
      <trkpt lat="47.65586" lon="5.9912">
        <ele>207.02</ele>
        <time>2018-04-11T08:42:32Z</time>
      </trkpt>
      <trkpt lat="47.65587" lon="5.99114">
        <ele>207.12</ele>
        <time>2018-04-11T08:42:33Z</time>
      </trkpt>
      <trkpt lat="47.6559" lon="5.99101">
        <ele>207.3</ele>
        <time>2018-04-11T08:42:35Z</time>
      </trkpt>
      <trkpt lat="47.65591" lon="5.99095">
        <ele>207.37</ele>
        <time>2018-04-11T08:42:36Z</time>
      </trkpt>
      <trkpt lat="47.65594" lon="5.99083">
        <ele>207.49</ele>
        <time>2018-04-11T08:42:38Z</time>
      </trkpt>
      <trkpt lat="47.65595" lon="5.99076">
        <ele>207.54</ele>
        <time>2018-04-11T08:42:39Z</time>
      </trkpt>
      <trkpt lat="47.65598" lon="5.99063">
        <ele>207.63</ele>
        <time>2018-04-11T08:42:41Z</time>
      </trkpt>
      <trkpt lat="47.65599" lon="5.99055">
        <ele>207.68</ele>
        <time>2018-04-11T08:42:42Z</time>
      </trkpt>
      <trkpt lat="47.65599" lon="5.99047">
        <ele>207.73</ele>
        <time>2018-04-11T08:42:43Z</time>
      </trkpt>
      <trkpt lat="47.656" lon="5.9904">
        <ele>207.78</ele>
        <time>2018-04-11T08:42:44Z</time>
      </trkpt>
      <trkpt lat="47.65601" lon="5.99031">
        <ele>207.83</ele>
        <time>2018-04-11T08:42:45Z</time>
      </trkpt>
      <trkpt lat="47.65601" lon="5.99023">
        <ele>207.89</ele>
        <time>2018-04-11T08:42:46Z</time>
      </trkpt>
      <trkpt lat="47.65602" lon="5.99015">
        <ele>207.96</ele>
        <time>2018-04-11T08:42:47Z</time>
      </trkpt>
      <trkpt lat="47.65603" lon="5.99009">
        <ele>208.03</ele>
        <time>2018-04-11T08:42:48Z</time>
      </trkpt>
      <trkpt lat="47.65605" lon="5.99001">
        <ele>208.11</ele>
        <time>2018-04-11T08:42:49Z</time>
      </trkpt>
      <trkpt lat="47.65606" lon="5.98994">
        <ele>208.18</ele>
        <time>2018-04-11T08:42:50Z</time>
      </trkpt>
      <trkpt lat="47.65607" lon="5.98987">
        <ele>208.21</ele>
        <time>2018-04-11T08:42:51Z</time>
      </trkpt>
      <trkpt lat="47.6561" lon="5.98978">
        <ele>208.24</ele>
        <time>2018-04-11T08:42:53Z</time>
      </trkpt>
      <trkpt lat="47.65613" lon="5.98966">
        <ele>208.27</ele>
        <time>2018-04-11T08:42:55Z</time>
      </trkpt>
      <trkpt lat="47.65615" lon="5.98956">
        <ele>208.3</ele>
        <time>2018-04-11T08:42:57Z</time>
      </trkpt>
      <trkpt lat="47.65615" lon="5.98945">
        <ele>208.33</ele>
        <time>2018-04-11T08:42:59Z</time>
      </trkpt>
      <trkpt lat="47.65618" lon="5.98935">
        <ele>208.5</ele>
        <time>2018-04-11T08:43:01Z</time>
      </trkpt>
      <trkpt lat="47.65619" lon="5.98928">
        <ele>208.66</ele>
        <time>2018-04-11T08:43:02Z</time>
      </trkpt>
      <trkpt lat="47.65619" lon="5.98921">
        <ele>208.82</ele>
        <time>2018-04-11T08:43:03Z</time>
      </trkpt>
      <trkpt lat="47.65621" lon="5.98911">
        <ele>208.9</ele>
        <time>2018-04-11T08:43:05Z</time>
      </trkpt>
      <trkpt lat="47.65624" lon="5.98898">
        <ele>209.03</ele>
        <time>2018-04-11T08:43:07Z</time>
      </trkpt>
      <trkpt lat="47.65626" lon="5.98889">
        <ele>209.07</ele>
        <time>2018-04-11T08:43:08Z</time>
      </trkpt>
      <trkpt lat="47.6563" lon="5.98876">
        <ele>209.11</ele>
        <time>2018-04-11T08:43:10Z</time>
      </trkpt>
      <trkpt lat="47.65632" lon="5.98869">
        <ele>209.13</ele>
        <time>2018-04-11T08:43:11Z</time>
      </trkpt>
      <trkpt lat="47.65634" lon="5.98855">
        <ele>209.15</ele>
        <time>2018-04-11T08:43:13Z</time>
      </trkpt>
      <trkpt lat="47.65635" lon="5.98848">
        <ele>209.16</ele>
        <time>2018-04-11T08:43:14Z</time>
      </trkpt>
      <trkpt lat="47.65635" lon="5.98841">
        <ele>209.24</ele>
        <time>2018-04-11T08:43:15Z</time>
      </trkpt>
      <trkpt lat="47.65635" lon="5.98832">
        <ele>209.33</ele>
        <time>2018-04-11T08:43:16Z</time>
      </trkpt>
      <trkpt lat="47.65636" lon="5.98822">
        <ele>209.38</ele>
        <time>2018-04-11T08:43:18Z</time>
      </trkpt>
      <trkpt lat="47.65639" lon="5.98813">
        <ele>209.4</ele>
        <time>2018-04-11T08:43:20Z</time>
      </trkpt>
      <trkpt lat="47.65642" lon="5.98806">
        <ele>209.42</ele>
        <time>2018-04-11T08:43:22Z</time>
      </trkpt>
      <trkpt lat="47.65647" lon="5.98799">
        <ele>209.44</ele>
        <time>2018-04-11T08:43:24Z</time>
      </trkpt>
      <trkpt lat="47.65651" lon="5.98792">
        <ele>209.46</ele>
        <time>2018-04-11T08:43:26Z</time>
      </trkpt>
      <trkpt lat="47.65654" lon="5.98786">
        <ele>209.48</ele>
        <time>2018-04-11T08:43:28Z</time>
      </trkpt>
      <trkpt lat="47.65658" lon="5.98781">
        <ele>209.48</ele>
        <time>2018-04-11T08:43:29Z</time>
      </trkpt>
      <trkpt lat="47.65662" lon="5.98772">
        <ele>209.5</ele>
        <time>2018-04-11T08:43:31Z</time>
      </trkpt>
      <trkpt lat="47.65664" lon="5.98765">
        <ele>209.51</ele>
        <time>2018-04-11T08:43:32Z</time>
      </trkpt>
      <trkpt lat="47.65665" lon="5.98758">
        <ele>209.59</ele>
        <time>2018-04-11T08:43:33Z</time>
      </trkpt>
      <trkpt lat="47.65664" lon="5.98751">
        <ele>209.62</ele>
        <time>2018-04-11T08:43:34Z</time>
      </trkpt>
      <trkpt lat="47.65665" lon="5.98743">
        <ele>209.63</ele>
        <time>2018-04-11T08:43:35Z</time>
      </trkpt>
      <trkpt lat="47.65667" lon="5.98737">
        <ele>209.65</ele>
        <time>2018-04-11T08:43:36Z</time>
      </trkpt>
      <trkpt lat="47.65666" lon="5.98726">
        <ele>209.66</ele>
        <time>2018-04-11T08:43:37Z</time>
      </trkpt>
      <trkpt lat="47.65666" lon="5.98719">
        <ele>209.67</ele>
        <time>2018-04-11T08:43:38Z</time>
      </trkpt>
      <trkpt lat="47.65672" lon="5.9871">
        <ele>209.7</ele>
        <time>2018-04-11T08:43:40Z</time>
      </trkpt>
      <trkpt lat="47.65674" lon="5.98703">
        <ele>209.72</ele>
        <time>2018-04-11T08:43:41Z</time>
      </trkpt>
      <trkpt lat="47.65677" lon="5.98692">
        <ele>209.75</ele>
        <time>2018-04-11T08:43:43Z</time>
      </trkpt>
      <trkpt lat="47.65681" lon="5.98682">
        <ele>209.78</ele>
        <time>2018-04-11T08:43:45Z</time>
      </trkpt>
      <trkpt lat="47.65685" lon="5.98673">
        <ele>209.82</ele>
        <time>2018-04-11T08:43:47Z</time>
      </trkpt>
      <trkpt lat="47.65688" lon="5.98664">
        <ele>209.85</ele>
        <time>2018-04-11T08:43:49Z</time>
      </trkpt>
      <trkpt lat="47.6569" lon="5.98657">
        <ele>209.87</ele>
        <time>2018-04-11T08:43:50Z</time>
      </trkpt>
      <trkpt lat="47.65694" lon="5.98651">
        <ele>209.88</ele>
        <time>2018-04-11T08:43:51Z</time>
      </trkpt>
      <trkpt lat="47.65697" lon="5.98645">
        <ele>210</ele>
        <time>2018-04-11T08:43:52Z</time>
      </trkpt>
      <trkpt lat="47.65699" lon="5.98639">
        <ele>210.05</ele>
        <time>2018-04-11T08:43:53Z</time>
      </trkpt>
      <trkpt lat="47.65703" lon="5.98633">
        <ele>210.15</ele>
        <time>2018-04-11T08:43:54Z</time>
      </trkpt>
      <trkpt lat="47.65707" lon="5.98629">
        <ele>210.26</ele>
        <time>2018-04-11T08:43:55Z</time>
      </trkpt>
      <trkpt lat="47.6571" lon="5.98623">
        <ele>210.36</ele>
        <time>2018-04-11T08:43:56Z</time>
      </trkpt>
      <trkpt lat="47.65714" lon="5.98617">
        <ele>210.44</ele>
        <time>2018-04-11T08:43:57Z</time>
      </trkpt>
      <trkpt lat="47.65717" lon="5.98611">
        <ele>210.47</ele>
        <time>2018-04-11T08:43:58Z</time>
      </trkpt>
      <trkpt lat="47.65718" lon="5.98604">
        <ele>210.53</ele>
        <time>2018-04-11T08:43:59Z</time>
      </trkpt>
      <trkpt lat="47.65719" lon="5.98596">
        <ele>210.6</ele>
        <time>2018-04-11T08:44:00Z</time>
      </trkpt>
      <trkpt lat="47.65724" lon="5.98587">
        <ele>210.71</ele>
        <time>2018-04-11T08:44:02Z</time>
      </trkpt>
      <trkpt lat="47.65727" lon="5.98581">
        <ele>210.72</ele>
        <time>2018-04-11T08:44:03Z</time>
      </trkpt>
      <trkpt lat="47.6573" lon="5.9857">
        <ele>210.8</ele>
        <time>2018-04-11T08:44:05Z</time>
      </trkpt>
      <trkpt lat="47.65731" lon="5.98558">
        <ele>210.85</ele>
        <time>2018-04-11T08:44:07Z</time>
      </trkpt>
      <trkpt lat="47.65734" lon="5.98548">
        <ele>210.88</ele>
        <time>2018-04-11T08:44:09Z</time>
      </trkpt>
      <trkpt lat="47.65736" lon="5.98539">
        <ele>210.89</ele>
        <time>2018-04-11T08:44:11Z</time>
      </trkpt>
      <trkpt lat="47.6574" lon="5.98529">
        <ele>210.91</ele>
        <time>2018-04-11T08:44:13Z</time>
      </trkpt>
      <trkpt lat="47.65743" lon="5.98519">
        <ele>210.93</ele>
        <time>2018-04-11T08:44:15Z</time>
      </trkpt>
      <trkpt lat="47.65747" lon="5.98508">
        <ele>211.16</ele>
        <time>2018-04-11T08:44:17Z</time>
      </trkpt>
      <trkpt lat="47.65749" lon="5.98501">
        <ele>211.27</ele>
        <time>2018-04-11T08:44:18Z</time>
      </trkpt>
      <trkpt lat="47.6575" lon="5.98493">
        <ele>211.37</ele>
        <time>2018-04-11T08:44:19Z</time>
      </trkpt>
      <trkpt lat="47.65752" lon="5.9848">
        <ele>211.56</ele>
        <time>2018-04-11T08:44:21Z</time>
      </trkpt>
      <trkpt lat="47.65755" lon="5.98469">
        <ele>211.71</ele>
        <time>2018-04-11T08:44:23Z</time>
      </trkpt>
      <trkpt lat="47.65758" lon="5.98462">
        <ele>211.76</ele>
        <time>2018-04-11T08:44:24Z</time>
      </trkpt>
      <trkpt lat="47.6576" lon="5.98454">
        <ele>211.81</ele>
        <time>2018-04-11T08:44:25Z</time>
      </trkpt>
      <trkpt lat="47.65763" lon="5.98446">
        <ele>211.86</ele>
        <time>2018-04-11T08:44:26Z</time>
      </trkpt>
      <trkpt lat="47.65764" lon="5.98438">
        <ele>211.9</ele>
        <time>2018-04-11T08:44:27Z</time>
      </trkpt>
      <trkpt lat="47.65768" lon="5.98431">
        <ele>211.94</ele>
        <time>2018-04-11T08:44:28Z</time>
      </trkpt>
      <trkpt lat="47.65772" lon="5.98425">
        <ele>211.98</ele>
        <time>2018-04-11T08:44:29Z</time>
      </trkpt>
      <trkpt lat="47.65775" lon="5.98419">
        <ele>212</ele>
        <time>2018-04-11T08:44:30Z</time>
      </trkpt>
      <trkpt lat="47.65781" lon="5.98408">
        <ele>212.02</ele>
        <time>2018-04-11T08:44:32Z</time>
      </trkpt>
      <trkpt lat="47.65784" lon="5.98395">
        <ele>212.15</ele>
        <time>2018-04-11T08:44:34Z</time>
      </trkpt>
      <trkpt lat="47.65786" lon="5.98388">
        <ele>212.23</ele>
        <time>2018-04-11T08:44:35Z</time>
      </trkpt>
      <trkpt lat="47.6579" lon="5.98379">
        <ele>212.28</ele>
        <time>2018-04-11T08:44:37Z</time>
      </trkpt>
      <trkpt lat="47.65794" lon="5.98371">
        <ele>212.3</ele>
        <time>2018-04-11T08:44:39Z</time>
      </trkpt>
      <trkpt lat="47.65798" lon="5.98365">
        <ele>212.33</ele>
        <time>2018-04-11T08:44:41Z</time>
      </trkpt>
      <trkpt lat="47.65804" lon="5.98357">
        <ele>212.35</ele>
        <time>2018-04-11T08:44:43Z</time>
      </trkpt>
      <trkpt lat="47.65808" lon="5.98349">
        <ele>212.37</ele>
        <time>2018-04-11T08:44:45Z</time>
      </trkpt>
      <trkpt lat="47.65813" lon="5.98342">
        <ele>212.4</ele>
        <time>2018-04-11T08:44:47Z</time>
      </trkpt>
      <trkpt lat="47.65818" lon="5.98337">
        <ele>212.43</ele>
        <time>2018-04-11T08:44:49Z</time>
      </trkpt>
      <trkpt lat="47.65824" lon="5.98331">
        <ele>212.45</ele>
        <time>2018-04-11T08:44:51Z</time>
      </trkpt>
      <trkpt lat="47.65831" lon="5.98326">
        <ele>212.48</ele>
        <time>2018-04-11T08:44:53Z</time>
      </trkpt>
      <trkpt lat="47.65837" lon="5.98321">
        <ele>212.5</ele>
        <time>2018-04-11T08:44:55Z</time>
      </trkpt>
      <trkpt lat="47.65844" lon="5.98316">
        <ele>212.52</ele>
        <time>2018-04-11T08:44:57Z</time>
      </trkpt>
      <trkpt lat="47.6585" lon="5.98309">
        <ele>212.54</ele>
        <time>2018-04-11T08:44:59Z</time>
      </trkpt>
      <trkpt lat="47.65857" lon="5.98303">
        <ele>212.55</ele>
        <time>2018-04-11T08:45:01Z</time>
      </trkpt>
      <trkpt lat="47.65863" lon="5.98298">
        <ele>212.57</ele>
        <time>2018-04-11T08:45:03Z</time>
      </trkpt>
      <trkpt lat="47.65868" lon="5.98292">
        <ele>212.58</ele>
        <time>2018-04-11T08:45:05Z</time>
      </trkpt>
      <trkpt lat="47.65873" lon="5.98286">
        <ele>212.58</ele>
        <time>2018-04-11T08:45:07Z</time>
      </trkpt>
      <trkpt lat="47.65877" lon="5.98277">
        <ele>212.61</ele>
        <time>2018-04-11T08:45:09Z</time>
      </trkpt>
      <trkpt lat="47.65882" lon="5.98269">
        <ele>212.64</ele>
        <time>2018-04-11T08:45:11Z</time>
      </trkpt>
      <trkpt lat="47.65887" lon="5.9826">
        <ele>212.65</ele>
        <time>2018-04-11T08:45:13Z</time>
      </trkpt>
      <trkpt lat="47.6589" lon="5.98254">
        <ele>212.66</ele>
        <time>2018-04-11T08:45:14Z</time>
      </trkpt>
      <trkpt lat="47.65895" lon="5.98244">
        <ele>212.66</ele>
        <time>2018-04-11T08:45:16Z</time>
      </trkpt>
      <trkpt lat="47.65899" lon="5.98234">
        <ele>212.66</ele>
        <time>2018-04-11T08:45:18Z</time>
      </trkpt>
      <trkpt lat="47.65903" lon="5.98227">
        <ele>212.65</ele>
        <time>2018-04-11T08:45:20Z</time>
      </trkpt>
      <trkpt lat="47.65908" lon="5.98218">
        <ele>212.64</ele>
        <time>2018-04-11T08:45:22Z</time>
      </trkpt>
      <trkpt lat="47.65913" lon="5.98209">
        <ele>212.63</ele>
        <time>2018-04-11T08:45:24Z</time>
      </trkpt>
      <trkpt lat="47.65917" lon="5.98201">
        <ele>212.62</ele>
        <time>2018-04-11T08:45:26Z</time>
      </trkpt>
      <trkpt lat="47.6592" lon="5.98196">
        <ele>212.62</ele>
        <time>2018-04-11T08:45:27Z</time>
      </trkpt>
      <trkpt lat="47.65924" lon="5.98188">
        <ele>212.6</ele>
        <time>2018-04-11T08:45:29Z</time>
      </trkpt>
      <trkpt lat="47.65928" lon="5.98181">
        <ele>212.59</ele>
        <time>2018-04-11T08:45:31Z</time>
      </trkpt>
      <trkpt lat="47.65932" lon="5.98175">
        <ele>212.58</ele>
        <time>2018-04-11T08:45:33Z</time>
      </trkpt>
      <trkpt lat="47.65937" lon="5.98167">
        <ele>212.56</ele>
        <time>2018-04-11T08:45:35Z</time>
      </trkpt>
      <trkpt lat="47.65942" lon="5.98159">
        <ele>212.54</ele>
        <time>2018-04-11T08:45:37Z</time>
      </trkpt>
      <trkpt lat="47.65948" lon="5.98153">
        <ele>212.52</ele>
        <time>2018-04-11T08:45:39Z</time>
      </trkpt>
      <trkpt lat="47.65952" lon="5.98146">
        <ele>212.5</ele>
        <time>2018-04-11T08:45:41Z</time>
      </trkpt>
      <trkpt lat="47.65956" lon="5.98139">
        <ele>212.48</ele>
        <time>2018-04-11T08:45:43Z</time>
      </trkpt>
      <trkpt lat="47.6596" lon="5.98132">
        <ele>212.46</ele>
        <time>2018-04-11T08:45:45Z</time>
      </trkpt>
      <trkpt lat="47.65965" lon="5.98124">
        <ele>212.43</ele>
        <time>2018-04-11T08:45:47Z</time>
      </trkpt>
      <trkpt lat="47.6597" lon="5.98115">
        <ele>212.41</ele>
        <time>2018-04-11T08:45:49Z</time>
      </trkpt>
      <trkpt lat="47.65975" lon="5.98106">
        <ele>212.38</ele>
        <time>2018-04-11T08:45:51Z</time>
      </trkpt>
      <trkpt lat="47.6598" lon="5.98099">
        <ele>212.35</ele>
        <time>2018-04-11T08:45:53Z</time>
      </trkpt>
      <trkpt lat="47.65984" lon="5.98092">
        <ele>212.32</ele>
        <time>2018-04-11T08:45:55Z</time>
      </trkpt>
      <trkpt lat="47.65988" lon="5.98082">
        <ele>212.29</ele>
        <time>2018-04-11T08:45:57Z</time>
      </trkpt>
      <trkpt lat="47.65992" lon="5.98075">
        <ele>212.26</ele>
        <time>2018-04-11T08:45:59Z</time>
      </trkpt>
      <trkpt lat="47.65996" lon="5.98068">
        <ele>212.23</ele>
        <time>2018-04-11T08:46:01Z</time>
      </trkpt>
      <trkpt lat="47.66001" lon="5.98061">
        <ele>212.2</ele>
        <time>2018-04-11T08:46:03Z</time>
      </trkpt>
      <trkpt lat="47.66003" lon="5.98055">
        <ele>212.17</ele>
        <time>2018-04-11T08:46:05Z</time>
      </trkpt>
      <trkpt lat="47.66007" lon="5.98048">
        <ele>212.14</ele>
        <time>2018-04-11T08:46:07Z</time>
      </trkpt>
      <trkpt lat="47.6601" lon="5.98044">
        <ele>212.11</ele>
        <time>2018-04-11T08:46:09Z</time>
      </trkpt>
      <trkpt lat="47.66014" lon="5.98037">
        <ele>212.08</ele>
        <time>2018-04-11T08:46:11Z</time>
      </trkpt>
      <trkpt lat="47.66018" lon="5.98029">
        <ele>212.05</ele>
        <time>2018-04-11T08:46:13Z</time>
      </trkpt>
      <trkpt lat="47.66022" lon="5.98022">
        <ele>212.01</ele>
        <time>2018-04-11T08:46:15Z</time>
      </trkpt>
      <trkpt lat="47.66025" lon="5.98014">
        <ele>211.98</ele>
        <time>2018-04-11T08:46:17Z</time>
      </trkpt>
      <trkpt lat="47.66029" lon="5.98006">
        <ele>211.95</ele>
        <time>2018-04-11T08:46:19Z</time>
      </trkpt>
      <trkpt lat="47.66031" lon="5.98">
        <ele>211.92</ele>
        <time>2018-04-11T08:46:21Z</time>
      </trkpt>
      <trkpt lat="47.66034" lon="5.97995">
        <ele>211.89</ele>
        <time>2018-04-11T08:46:23Z</time>
      </trkpt>
      <trkpt lat="47.66038" lon="5.97987">
        <ele>211.87</ele>
        <time>2018-04-11T08:46:25Z</time>
      </trkpt>
      <trkpt lat="47.66042" lon="5.9798">
        <ele>211.84</ele>
        <time>2018-04-11T08:46:27Z</time>
      </trkpt>
      <trkpt lat="47.66046" lon="5.97973">
        <ele>211.82</ele>
        <time>2018-04-11T08:46:29Z</time>
      </trkpt>
      <trkpt lat="47.6605" lon="5.97965">
        <ele>211.81</ele>
        <time>2018-04-11T08:46:31Z</time>
      </trkpt>
      <trkpt lat="47.66054" lon="5.97957">
        <ele>211.79</ele>
        <time>2018-04-11T08:46:33Z</time>
      </trkpt>
      <trkpt lat="47.66058" lon="5.9795">
        <ele>211.77</ele>
        <time>2018-04-11T08:46:35Z</time>
      </trkpt>
      <trkpt lat="47.66062" lon="5.97942">
        <ele>211.76</ele>
        <time>2018-04-11T08:46:37Z</time>
      </trkpt>
      <trkpt lat="47.66066" lon="5.97934">
        <ele>211.74</ele>
        <time>2018-04-11T08:46:39Z</time>
      </trkpt>
      <trkpt lat="47.6607" lon="5.97926">
        <ele>211.73</ele>
        <time>2018-04-11T08:46:41Z</time>
      </trkpt>
      <trkpt lat="47.66075" lon="5.97918">
        <ele>211.72</ele>
        <time>2018-04-11T08:46:43Z</time>
      </trkpt>
      <trkpt lat="47.66078" lon="5.97909">
        <ele>211.7</ele>
        <time>2018-04-11T08:46:45Z</time>
      </trkpt>
      <trkpt lat="47.66081" lon="5.97901">
        <ele>211.69</ele>
        <time>2018-04-11T08:46:47Z</time>
      </trkpt>
      <trkpt lat="47.66086" lon="5.97891">
        <ele>211.68</ele>
        <time>2018-04-11T08:46:49Z</time>
      </trkpt>
      <trkpt lat="47.66091" lon="5.97882">
        <ele>211.6</ele>
        <time>2018-04-11T08:46:51Z</time>
      </trkpt>
      <trkpt lat="47.66096" lon="5.97871">
        <ele>211.56</ele>
        <time>2018-04-11T08:46:53Z</time>
      </trkpt>
      <trkpt lat="47.661" lon="5.97862">
        <ele>211.56</ele>
        <time>2018-04-11T08:46:55Z</time>
      </trkpt>
      <trkpt lat="47.66105" lon="5.97853">
        <ele>211.55</ele>
        <time>2018-04-11T08:46:57Z</time>
      </trkpt>
      <trkpt lat="47.66109" lon="5.97844">
        <ele>211.55</ele>
        <time>2018-04-11T08:46:59Z</time>
      </trkpt>
      <trkpt lat="47.66113" lon="5.97837">
        <ele>211.55</ele>
        <time>2018-04-11T08:47:01Z</time>
      </trkpt>
      <trkpt lat="47.66117" lon="5.97827">
        <ele>211.55</ele>
        <time>2018-04-11T08:47:03Z</time>
      </trkpt>
      <trkpt lat="47.66121" lon="5.97819">
        <ele>211.55</ele>
        <time>2018-04-11T08:47:05Z</time>
      </trkpt>
      <trkpt lat="47.66125" lon="5.9781">
        <ele>211.55</ele>
        <time>2018-04-11T08:47:07Z</time>
      </trkpt>
      <trkpt lat="47.6613" lon="5.978">
        <ele>211.55</ele>
        <time>2018-04-11T08:47:09Z</time>
      </trkpt>
      <trkpt lat="47.66134" lon="5.97792">
        <ele>211.55</ele>
        <time>2018-04-11T08:47:11Z</time>
      </trkpt>
      <trkpt lat="47.66139" lon="5.97783">
        <ele>211.57</ele>
        <time>2018-04-11T08:47:13Z</time>
      </trkpt>
      <trkpt lat="47.66144" lon="5.97774">
        <ele>211.6</ele>
        <time>2018-04-11T08:47:15Z</time>
      </trkpt>
      <trkpt lat="47.66148" lon="5.97764">
        <ele>211.63</ele>
        <time>2018-04-11T08:47:17Z</time>
      </trkpt>
      <trkpt lat="47.66153" lon="5.97754">
        <ele>211.64</ele>
        <time>2018-04-11T08:47:19Z</time>
      </trkpt>
      <trkpt lat="47.66157" lon="5.97745">
        <ele>211.64</ele>
        <time>2018-04-11T08:47:21Z</time>
      </trkpt>
      <trkpt lat="47.66161" lon="5.97738">
        <ele>211.65</ele>
        <time>2018-04-11T08:47:23Z</time>
      </trkpt>
      <trkpt lat="47.66164" lon="5.97732">
        <ele>211.66</ele>
        <time>2018-04-11T08:47:25Z</time>
      </trkpt>
      <trkpt lat="47.66168" lon="5.97725">
        <ele>211.67</ele>
        <time>2018-04-11T08:47:28Z</time>
      </trkpt>
      <trkpt lat="47.66173" lon="5.97717">
        <ele>211.68</ele>
        <time>2018-04-11T08:47:31Z</time>
      </trkpt>
      <trkpt lat="47.66178" lon="5.97709">
        <ele>211.69</ele>
        <time>2018-04-11T08:47:33Z</time>
      </trkpt>
      <trkpt lat="47.66182" lon="5.97702">
        <ele>211.71</ele>
        <time>2018-04-11T08:47:35Z</time>
      </trkpt>
      <trkpt lat="47.66187" lon="5.97696">
        <ele>211.72</ele>
        <time>2018-04-11T08:47:37Z</time>
      </trkpt>
      <trkpt lat="47.66192" lon="5.97689">
        <ele>211.73</ele>
        <time>2018-04-11T08:47:39Z</time>
      </trkpt>
      <trkpt lat="47.66197" lon="5.97682">
        <ele>211.75</ele>
        <time>2018-04-11T08:47:41Z</time>
      </trkpt>
      <trkpt lat="47.66201" lon="5.97676">
        <ele>211.77</ele>
        <time>2018-04-11T08:47:43Z</time>
      </trkpt>
      <trkpt lat="47.66206" lon="5.97671">
        <ele>211.78</ele>
        <time>2018-04-11T08:47:45Z</time>
      </trkpt>
      <trkpt lat="47.6621" lon="5.97663">
        <ele>211.8</ele>
        <time>2018-04-11T08:47:47Z</time>
      </trkpt>
      <trkpt lat="47.66215" lon="5.97656">
        <ele>211.81</ele>
        <time>2018-04-11T08:47:49Z</time>
      </trkpt>
      <trkpt lat="47.66219" lon="5.9765">
        <ele>211.83</ele>
        <time>2018-04-11T08:47:51Z</time>
      </trkpt>
      <trkpt lat="47.66224" lon="5.97644">
        <ele>211.85</ele>
        <time>2018-04-11T08:47:53Z</time>
      </trkpt>
      <trkpt lat="47.66229" lon="5.97637">
        <ele>211.86</ele>
        <time>2018-04-11T08:47:55Z</time>
      </trkpt>
      <trkpt lat="47.66233" lon="5.97632">
        <ele>211.88</ele>
        <time>2018-04-11T08:47:57Z</time>
      </trkpt>
      <trkpt lat="47.66236" lon="5.97626">
        <ele>211.9</ele>
        <time>2018-04-11T08:47:59Z</time>
      </trkpt>
      <trkpt lat="47.66241" lon="5.9762">
        <ele>211.91</ele>
        <time>2018-04-11T08:48:01Z</time>
      </trkpt>
      <trkpt lat="47.66245" lon="5.97613">
        <ele>211.93</ele>
        <time>2018-04-11T08:48:03Z</time>
      </trkpt>
      <trkpt lat="47.66249" lon="5.97605">
        <ele>211.95</ele>
        <time>2018-04-11T08:48:05Z</time>
      </trkpt>
      <trkpt lat="47.66253" lon="5.97598">
        <ele>211.96</ele>
        <time>2018-04-11T08:48:07Z</time>
      </trkpt>
      <trkpt lat="47.66259" lon="5.97591">
        <ele>212.08</ele>
        <time>2018-04-11T08:48:09Z</time>
      </trkpt>
      <trkpt lat="47.66266" lon="5.97585">
        <ele>212.18</ele>
        <time>2018-04-11T08:48:11Z</time>
      </trkpt>
      <trkpt lat="47.66273" lon="5.9758">
        <ele>212.2</ele>
        <time>2018-04-11T08:48:13Z</time>
      </trkpt>
      <trkpt lat="47.6628" lon="5.97577">
        <ele>212.21</ele>
        <time>2018-04-11T08:48:15Z</time>
      </trkpt>
      <trkpt lat="47.66287" lon="5.97576">
        <ele>212.21</ele>
        <time>2018-04-11T08:48:17Z</time>
      </trkpt>
      <trkpt lat="47.66293" lon="5.97573">
        <ele>212.22</ele>
        <time>2018-04-11T08:48:19Z</time>
      </trkpt>
      <trkpt lat="47.66299" lon="5.9757">
        <ele>212.22</ele>
        <time>2018-04-11T08:48:21Z</time>
      </trkpt>
      <trkpt lat="47.66304" lon="5.97568">
        <ele>212.23</ele>
        <time>2018-04-11T08:48:23Z</time>
      </trkpt>
      <trkpt lat="47.66309" lon="5.97566">
        <ele>212.23</ele>
        <time>2018-04-11T08:48:25Z</time>
      </trkpt>
      <trkpt lat="47.66315" lon="5.97563">
        <ele>212.24</ele>
        <time>2018-04-11T08:48:27Z</time>
      </trkpt>
      <trkpt lat="47.6632" lon="5.97561">
        <ele>212.24</ele>
        <time>2018-04-11T08:48:29Z</time>
      </trkpt>
      <trkpt lat="47.66326" lon="5.97558">
        <ele>212.25</ele>
        <time>2018-04-11T08:48:31Z</time>
      </trkpt>
      <trkpt lat="47.66331" lon="5.97556">
        <ele>212.25</ele>
        <time>2018-04-11T08:48:33Z</time>
      </trkpt>
      <trkpt lat="47.66337" lon="5.97554">
        <ele>212.26</ele>
        <time>2018-04-11T08:48:35Z</time>
      </trkpt>
      <trkpt lat="47.66343" lon="5.97552">
        <ele>212.27</ele>
        <time>2018-04-11T08:48:37Z</time>
      </trkpt>
      <trkpt lat="47.66349" lon="5.97549">
        <ele>212.27</ele>
        <time>2018-04-11T08:48:39Z</time>
      </trkpt>
      <trkpt lat="47.66355" lon="5.97545">
        <ele>212.28</ele>
        <time>2018-04-11T08:48:41Z</time>
      </trkpt>
      <trkpt lat="47.66361" lon="5.97542">
        <ele>212.29</ele>
        <time>2018-04-11T08:48:43Z</time>
      </trkpt>
      <trkpt lat="47.66367" lon="5.97539">
        <ele>212.3</ele>
        <time>2018-04-11T08:48:45Z</time>
      </trkpt>
      <trkpt lat="47.66373" lon="5.97535">
        <ele>212.31</ele>
        <time>2018-04-11T08:48:47Z</time>
      </trkpt>
      <trkpt lat="47.66378" lon="5.97531">
        <ele>212.32</ele>
        <time>2018-04-11T08:48:49Z</time>
      </trkpt>
      <trkpt lat="47.66385" lon="5.97527">
        <ele>212.34</ele>
        <time>2018-04-11T08:48:51Z</time>
      </trkpt>
      <trkpt lat="47.66391" lon="5.97522">
        <ele>212.35</ele>
        <time>2018-04-11T08:48:53Z</time>
      </trkpt>
      <trkpt lat="47.66396" lon="5.97519">
        <ele>212.37</ele>
        <time>2018-04-11T08:48:55Z</time>
      </trkpt>
      <trkpt lat="47.664" lon="5.97514">
        <ele>212.39</ele>
        <time>2018-04-11T08:48:57Z</time>
      </trkpt>
      <trkpt lat="47.66405" lon="5.97507">
        <ele>212.4</ele>
        <time>2018-04-11T08:48:59Z</time>
      </trkpt>
      <trkpt lat="47.66411" lon="5.97499">
        <ele>212.42</ele>
        <time>2018-04-11T08:49:01Z</time>
      </trkpt>
      <trkpt lat="47.66416" lon="5.97491">
        <ele>212.44</ele>
        <time>2018-04-11T08:49:03Z</time>
      </trkpt>
      <trkpt lat="47.66421" lon="5.97484">
        <ele>212.46</ele>
        <time>2018-04-11T08:49:05Z</time>
      </trkpt>
      <trkpt lat="47.66426" lon="5.97476">
        <ele>212.49</ele>
        <time>2018-04-11T08:49:07Z</time>
      </trkpt>
      <trkpt lat="47.66431" lon="5.97467">
        <ele>212.51</ele>
        <time>2018-04-11T08:49:09Z</time>
      </trkpt>
      <trkpt lat="47.66435" lon="5.97458">
        <ele>212.61</ele>
        <time>2018-04-11T08:49:11Z</time>
      </trkpt>
      <trkpt lat="47.6644" lon="5.9745">
        <ele>212.78</ele>
        <time>2018-04-11T08:49:13Z</time>
      </trkpt>
      <trkpt lat="47.66444" lon="5.9744">
        <ele>212.91</ele>
        <time>2018-04-11T08:49:15Z</time>
      </trkpt>
      <trkpt lat="47.66449" lon="5.97432">
        <ele>212.97</ele>
        <time>2018-04-11T08:49:17Z</time>
      </trkpt>
      <trkpt lat="47.66453" lon="5.97422">
        <ele>213.03</ele>
        <time>2018-04-11T08:49:19Z</time>
      </trkpt>
      <trkpt lat="47.66457" lon="5.97411">
        <ele>213.07</ele>
        <time>2018-04-11T08:49:21Z</time>
      </trkpt>
      <trkpt lat="47.66459" lon="5.97405">
        <ele>213.09</ele>
        <time>2018-04-11T08:49:22Z</time>
      </trkpt>
      <trkpt lat="47.66464" lon="5.97394">
        <ele>213.12</ele>
        <time>2018-04-11T08:49:24Z</time>
      </trkpt>
      <trkpt lat="47.66468" lon="5.97382">
        <ele>213.14</ele>
        <time>2018-04-11T08:49:26Z</time>
      </trkpt>
      <trkpt lat="47.6647" lon="5.97374">
        <ele>213.15</ele>
        <time>2018-04-11T08:49:27Z</time>
      </trkpt>
      <trkpt lat="47.66472" lon="5.97367">
        <ele>213.15</ele>
        <time>2018-04-11T08:49:28Z</time>
      </trkpt>
      <trkpt lat="47.66474" lon="5.9736">
        <ele>213.15</ele>
        <time>2018-04-11T08:49:29Z</time>
      </trkpt>
      <trkpt lat="47.66476" lon="5.97352">
        <ele>213.16</ele>
        <time>2018-04-11T08:49:30Z</time>
      </trkpt>
      <trkpt lat="47.66477" lon="5.97345">
        <ele>213.16</ele>
        <time>2018-04-11T08:49:31Z</time>
      </trkpt>
      <trkpt lat="47.66479" lon="5.97338">
        <ele>213.16</ele>
        <time>2018-04-11T08:49:32Z</time>
      </trkpt>
      <trkpt lat="47.66481" lon="5.97332">
        <ele>213.16</ele>
        <time>2018-04-11T08:49:33Z</time>
      </trkpt>
      <trkpt lat="47.66482" lon="5.97325">
        <ele>213.17</ele>
        <time>2018-04-11T08:49:34Z</time>
      </trkpt>
      <trkpt lat="47.66484" lon="5.97317">
        <ele>213.17</ele>
        <time>2018-04-11T08:49:35Z</time>
      </trkpt>
      <trkpt lat="47.66486" lon="5.97311">
        <ele>213.17</ele>
        <time>2018-04-11T08:49:36Z</time>
      </trkpt>
      <trkpt lat="47.66489" lon="5.97301">
        <ele>213.18</ele>
        <time>2018-04-11T08:49:38Z</time>
      </trkpt>
      <trkpt lat="47.66493" lon="5.97289">
        <ele>213.19</ele>
        <time>2018-04-11T08:49:40Z</time>
      </trkpt>
      <trkpt lat="47.66494" lon="5.97282">
        <ele>213.19</ele>
        <time>2018-04-11T08:49:41Z</time>
      </trkpt>
      <trkpt lat="47.66496" lon="5.97275">
        <ele>213.2</ele>
        <time>2018-04-11T08:49:42Z</time>
      </trkpt>
      <trkpt lat="47.66498" lon="5.97269">
        <ele>213.21</ele>
        <time>2018-04-11T08:49:43Z</time>
      </trkpt>
      <trkpt lat="47.665" lon="5.97262">
        <ele>213.22</ele>
        <time>2018-04-11T08:49:44Z</time>
      </trkpt>
      <trkpt lat="47.66503" lon="5.97257">
        <ele>213.23</ele>
        <time>2018-04-11T08:49:45Z</time>
      </trkpt>
      <trkpt lat="47.6651" lon="5.97252">
        <ele>213.24</ele>
        <time>2018-04-11T08:49:47Z</time>
      </trkpt>
      <trkpt lat="47.66517" lon="5.97257">
        <ele>213.25</ele>
        <time>2018-04-11T08:49:49Z</time>
      </trkpt>
      <trkpt lat="47.66519" lon="5.97268">
        <ele>213.25</ele>
        <time>2018-04-11T08:49:51Z</time>
      </trkpt>
      <trkpt lat="47.66522" lon="5.97279">
        <ele>213.25</ele>
        <time>2018-04-11T08:49:53Z</time>
      </trkpt>
      <trkpt lat="47.66524" lon="5.97288">
        <ele>213.25</ele>
        <time>2018-04-11T08:49:55Z</time>
      </trkpt>
      <trkpt lat="47.66527" lon="5.97298">
        <ele>213.26</ele>
        <time>2018-04-11T08:49:57Z</time>
      </trkpt>
      <trkpt lat="47.66529" lon="5.97307">
        <ele>213.27</ele>
        <time>2018-04-11T08:49:59Z</time>
      </trkpt>
      <trkpt lat="47.66531" lon="5.97315">
        <ele>213.27</ele>
        <time>2018-04-11T08:50:01Z</time>
      </trkpt>
      <trkpt lat="47.66533" lon="5.97322">
        <ele>213.27</ele>
        <time>2018-04-11T08:50:03Z</time>
      </trkpt>
      <trkpt lat="47.66534" lon="5.9733">
        <ele>213.27</ele>
        <time>2018-04-11T08:50:05Z</time>
      </trkpt>
      <trkpt lat="47.66536" lon="5.97338">
        <ele>213.28</ele>
        <time>2018-04-11T08:50:07Z</time>
      </trkpt>
      <trkpt lat="47.66538" lon="5.97345">
        <ele>213.28</ele>
        <time>2018-04-11T08:50:09Z</time>
      </trkpt>
      <trkpt lat="47.66539" lon="5.97353">
        <ele>213.28</ele>
        <time>2018-04-11T08:50:11Z</time>
      </trkpt>
      <trkpt lat="47.6654" lon="5.97361">
        <ele>213.28</ele>
        <time>2018-04-11T08:50:13Z</time>
      </trkpt>
      <trkpt lat="47.66542" lon="5.97369">
        <ele>213.28</ele>
        <time>2018-04-11T08:50:15Z</time>
      </trkpt>
      <trkpt lat="47.66544" lon="5.97377">
        <ele>213.29</ele>
        <time>2018-04-11T08:50:18Z</time>
      </trkpt>
      <trkpt lat="47.66548" lon="5.97388">
        <ele>213.31</ele>
        <time>2018-04-11T08:50:20Z</time>
      </trkpt>
      <trkpt lat="47.6655" lon="5.97398">
        <ele>213.33</ele>
        <time>2018-04-11T08:50:22Z</time>
      </trkpt>
      <trkpt lat="47.66553" lon="5.9741">
        <ele>213.37</ele>
        <time>2018-04-11T08:50:24Z</time>
      </trkpt>
      <trkpt lat="47.66554" lon="5.97418">
        <ele>213.39</ele>
        <time>2018-04-11T08:50:25Z</time>
      </trkpt>
      <trkpt lat="47.66556" lon="5.97426">
        <ele>213.41</ele>
        <time>2018-04-11T08:50:26Z</time>
      </trkpt>
      <trkpt lat="47.66557" lon="5.97432">
        <ele>213.42</ele>
        <time>2018-04-11T08:50:27Z</time>
      </trkpt>
      <trkpt lat="47.66559" lon="5.97439">
        <ele>213.44</ele>
        <time>2018-04-11T08:50:28Z</time>
      </trkpt>
      <trkpt lat="47.6656" lon="5.97446">
        <ele>213.45</ele>
        <time>2018-04-11T08:50:29Z</time>
      </trkpt>
      <trkpt lat="47.66563" lon="5.97457">
        <ele>213.47</ele>
        <time>2018-04-11T08:50:31Z</time>
      </trkpt>
      <trkpt lat="47.66566" lon="5.97466">
        <ele>213.47</ele>
        <time>2018-04-11T08:50:33Z</time>
      </trkpt>
      <trkpt lat="47.66567" lon="5.97475">
        <ele>213.48</ele>
        <time>2018-04-11T08:50:35Z</time>
      </trkpt>
      <trkpt lat="47.66568" lon="5.97483">
        <ele>213.48</ele>
        <time>2018-04-11T08:50:37Z</time>
      </trkpt>
      <trkpt lat="47.6657" lon="5.97491">
        <ele>213.49</ele>
        <time>2018-04-11T08:50:39Z</time>
      </trkpt>
      <trkpt lat="47.66572" lon="5.975">
        <ele>213.5</ele>
        <time>2018-04-11T08:50:42Z</time>
      </trkpt>
      <trkpt lat="47.66574" lon="5.97507">
        <ele>213.5</ele>
        <time>2018-04-11T08:50:44Z</time>
      </trkpt>
      <trkpt lat="47.66576" lon="5.97514">
        <ele>213.52</ele>
        <time>2018-04-11T08:50:47Z</time>
      </trkpt>
      <trkpt lat="47.66578" lon="5.97522">
        <ele>213.53</ele>
        <time>2018-04-11T08:50:50Z</time>
      </trkpt>
      <trkpt lat="47.6658" lon="5.97529">
        <ele>213.54</ele>
        <time>2018-04-11T08:50:52Z</time>
      </trkpt>
      <trkpt lat="47.66582" lon="5.97536">
        <ele>213.55</ele>
        <time>2018-04-11T08:50:54Z</time>
      </trkpt>
      <trkpt lat="47.66583" lon="5.97544">
        <ele>213.58</ele>
        <time>2018-04-11T08:50:57Z</time>
      </trkpt>
      <trkpt lat="47.66585" lon="5.97552">
        <ele>213.59</ele>
        <time>2018-04-11T08:50:59Z</time>
      </trkpt>
      <trkpt lat="47.66586" lon="5.97559">
        <ele>213.61</ele>
        <time>2018-04-11T08:51:01Z</time>
      </trkpt>
      <trkpt lat="47.66588" lon="5.97567">
        <ele>213.62</ele>
        <time>2018-04-11T08:51:03Z</time>
      </trkpt>
      <trkpt lat="47.66589" lon="5.97574">
        <ele>213.64</ele>
        <time>2018-04-11T08:51:05Z</time>
      </trkpt>
      <trkpt lat="47.66591" lon="5.97582">
        <ele>213.65</ele>
        <time>2018-04-11T08:51:07Z</time>
      </trkpt>
      <trkpt lat="47.66594" lon="5.97589">
        <ele>213.67</ele>
        <time>2018-04-11T08:51:09Z</time>
      </trkpt>
      <trkpt lat="47.66596" lon="5.97596">
        <ele>213.69</ele>
        <time>2018-04-11T08:51:11Z</time>
      </trkpt>
      <trkpt lat="47.66598" lon="5.97604">
        <ele>213.7</ele>
        <time>2018-04-11T08:51:13Z</time>
      </trkpt>
      <trkpt lat="47.66601" lon="5.97612">
        <ele>213.72</ele>
        <time>2018-04-11T08:51:15Z</time>
      </trkpt>
      <trkpt lat="47.66603" lon="5.9762">
        <ele>213.74</ele>
        <time>2018-04-11T08:51:17Z</time>
      </trkpt>
      <trkpt lat="47.66605" lon="5.97629">
        <ele>213.75</ele>
        <time>2018-04-11T08:51:19Z</time>
      </trkpt>
      <trkpt lat="47.66607" lon="5.97638">
        <ele>213.77</ele>
        <time>2018-04-11T08:51:21Z</time>
      </trkpt>
      <trkpt lat="47.6661" lon="5.97646">
        <ele>213.79</ele>
        <time>2018-04-11T08:51:23Z</time>
      </trkpt>
      <trkpt lat="47.66611" lon="5.97655">
        <ele>213.81</ele>
        <time>2018-04-11T08:51:25Z</time>
      </trkpt>
      <trkpt lat="47.66614" lon="5.97663">
        <ele>213.84</ele>
        <time>2018-04-11T08:51:27Z</time>
      </trkpt>
      <trkpt lat="47.66616" lon="5.97671">
        <ele>213.87</ele>
        <time>2018-04-11T08:51:29Z</time>
      </trkpt>
      <trkpt lat="47.66619" lon="5.97678">
        <ele>213.9</ele>
        <time>2018-04-11T08:51:31Z</time>
      </trkpt>
      <trkpt lat="47.66622" lon="5.97686">
        <ele>213.94</ele>
        <time>2018-04-11T08:51:33Z</time>
      </trkpt>
      <trkpt lat="47.66623" lon="5.97693">
        <ele>213.98</ele>
        <time>2018-04-11T08:51:35Z</time>
      </trkpt>
      <trkpt lat="47.66624" lon="5.977">
        <ele>214.02</ele>
        <time>2018-04-11T08:51:37Z</time>
      </trkpt>
      <trkpt lat="47.66626" lon="5.97706">
        <ele>214.06</ele>
        <time>2018-04-11T08:51:39Z</time>
      </trkpt>
      <trkpt lat="47.66628" lon="5.97715">
        <ele>214.13</ele>
        <time>2018-04-11T08:51:42Z</time>
      </trkpt>
      <trkpt lat="47.6663" lon="5.97723">
        <ele>214.21</ele>
        <time>2018-04-11T08:51:45Z</time>
      </trkpt>
      <trkpt lat="47.66635" lon="5.97724">
        <ele>214.27</ele>
        <time>2018-04-11T08:51:47Z</time>
      </trkpt>
      <trkpt lat="47.6664" lon="5.9772">
        <ele>214.33</ele>
        <time>2018-04-11T08:51:49Z</time>
      </trkpt>
      <trkpt lat="47.66645" lon="5.97716">
        <ele>214.39</ele>
        <time>2018-04-11T08:51:51Z</time>
      </trkpt>
      <trkpt lat="47.66649" lon="5.97712">
        <ele>214.45</ele>
        <time>2018-04-11T08:51:53Z</time>
      </trkpt>
      <trkpt lat="47.66655" lon="5.97707">
        <ele>214.55</ele>
        <time>2018-04-11T08:51:56Z</time>
      </trkpt>
      <trkpt lat="47.66661" lon="5.97704">
        <ele>214.64</ele>
        <time>2018-04-11T08:51:59Z</time>
      </trkpt>
      <trkpt lat="47.66666" lon="5.977">
        <ele>214.71</ele>
        <time>2018-04-11T08:52:01Z</time>
      </trkpt>
      <trkpt lat="47.66671" lon="5.97696">
        <ele>214.78</ele>
        <time>2018-04-11T08:52:03Z</time>
      </trkpt>
      <trkpt lat="47.66676" lon="5.97692">
        <ele>214.84</ele>
        <time>2018-04-11T08:52:05Z</time>
      </trkpt>
      <trkpt lat="47.66683" lon="5.97688">
        <ele>214.9</ele>
        <time>2018-04-11T08:52:07Z</time>
      </trkpt>
      <trkpt lat="47.66688" lon="5.97684">
        <ele>214.97</ele>
        <time>2018-04-11T08:52:09Z</time>
      </trkpt>
      <trkpt lat="47.66695" lon="5.97679">
        <ele>215.03</ele>
        <time>2018-04-11T08:52:11Z</time>
      </trkpt>
      <trkpt lat="47.66701" lon="5.97675">
        <ele>215.09</ele>
        <time>2018-04-11T08:52:13Z</time>
      </trkpt>
      <trkpt lat="47.66707" lon="5.97671">
        <ele>215.15</ele>
        <time>2018-04-11T08:52:15Z</time>
      </trkpt>
      <trkpt lat="47.66714" lon="5.97666">
        <ele>215.22</ele>
        <time>2018-04-11T08:52:17Z</time>
      </trkpt>
      <trkpt lat="47.66718" lon="5.97661">
        <ele>215.28</ele>
        <time>2018-04-11T08:52:19Z</time>
      </trkpt>
      <trkpt lat="47.66724" lon="5.97657">
        <ele>215.34</ele>
        <time>2018-04-11T08:52:21Z</time>
      </trkpt>
      <trkpt lat="47.6673" lon="5.97654">
        <ele>215.4</ele>
        <time>2018-04-11T08:52:23Z</time>
      </trkpt>
      <trkpt lat="47.66735" lon="5.97651">
        <ele>215.47</ele>
        <time>2018-04-11T08:52:25Z</time>
      </trkpt>
      <trkpt lat="47.6674" lon="5.97646">
        <ele>215.53</ele>
        <time>2018-04-11T08:52:27Z</time>
      </trkpt>
      <trkpt lat="47.66745" lon="5.97643">
        <ele>215.59</ele>
        <time>2018-04-11T08:52:29Z</time>
      </trkpt>
      <trkpt lat="47.66751" lon="5.97639">
        <ele>215.66</ele>
        <time>2018-04-11T08:52:31Z</time>
      </trkpt>
      <trkpt lat="47.66757" lon="5.97635">
        <ele>215.72</ele>
        <time>2018-04-11T08:52:33Z</time>
      </trkpt>
      <trkpt lat="47.66762" lon="5.9763">
        <ele>215.78</ele>
        <time>2018-04-11T08:52:35Z</time>
      </trkpt>
      <trkpt lat="47.66768" lon="5.97627">
        <ele>215.84</ele>
        <time>2018-04-11T08:52:37Z</time>
      </trkpt>
      <trkpt lat="47.66775" lon="5.97623">
        <ele>215.9</ele>
        <time>2018-04-11T08:52:39Z</time>
      </trkpt>
      <trkpt lat="47.66782" lon="5.97619">
        <ele>215.96</ele>
        <time>2018-04-11T08:52:41Z</time>
      </trkpt>
      <trkpt lat="47.66788" lon="5.97615">
        <ele>216.2</ele>
        <time>2018-04-11T08:52:43Z</time>
      </trkpt>
      <trkpt lat="47.66795" lon="5.97609">
        <ele>216.62</ele>
        <time>2018-04-11T08:52:45Z</time>
      </trkpt>
      <trkpt lat="47.66799" lon="5.97605">
        <ele>216.78</ele>
        <time>2018-04-11T08:52:46Z</time>
      </trkpt>
      <trkpt lat="47.66802" lon="5.97599">
        <ele>216.92</ele>
        <time>2018-04-11T08:52:47Z</time>
      </trkpt>
      <trkpt lat="47.66804" lon="5.97593">
        <ele>217.03</ele>
        <time>2018-04-11T08:52:48Z</time>
      </trkpt>
      <trkpt lat="47.66804" lon="5.97585">
        <ele>217.13</ele>
        <time>2018-04-11T08:52:49Z</time>
      </trkpt>
      <trkpt lat="47.66804" lon="5.97577">
        <ele>217.21</ele>
        <time>2018-04-11T08:52:50Z</time>
      </trkpt>
      <trkpt lat="47.66803" lon="5.9757">
        <ele>217.27</ele>
        <time>2018-04-11T08:52:51Z</time>
      </trkpt>
      <trkpt lat="47.66801" lon="5.97562">
        <ele>217.31</ele>
        <time>2018-04-11T08:52:52Z</time>
      </trkpt>
      <trkpt lat="47.66799" lon="5.97555">
        <ele>217.35</ele>
        <time>2018-04-11T08:52:53Z</time>
      </trkpt>
      <trkpt lat="47.66798" lon="5.97548">
        <ele>217.38</ele>
        <time>2018-04-11T08:52:54Z</time>
      </trkpt>
      <trkpt lat="47.66795" lon="5.97542">
        <ele>217.4</ele>
        <time>2018-04-11T08:52:55Z</time>
      </trkpt>
      <trkpt lat="47.66795" lon="5.97529">
        <ele>217.43</ele>
        <time>2018-04-11T08:52:57Z</time>
      </trkpt>
      <trkpt lat="47.66797" lon="5.97523">
        <ele>217.44</ele>
        <time>2018-04-11T08:52:58Z</time>
      </trkpt>
      <trkpt lat="47.66799" lon="5.97517">
        <ele>217.45</ele>
        <time>2018-04-11T08:52:59Z</time>
      </trkpt>
      <trkpt lat="47.66805" lon="5.97506">
        <ele>217.45</ele>
        <time>2018-04-11T08:53:01Z</time>
      </trkpt>
      <trkpt lat="47.66808" lon="5.975">
        <ele>217.45</ele>
        <time>2018-04-11T08:53:02Z</time>
      </trkpt>
      <trkpt lat="47.6681" lon="5.97494">
        <ele>217.45</ele>
        <time>2018-04-11T08:53:03Z</time>
      </trkpt>
      <trkpt lat="47.66816" lon="5.97485">
        <ele>217.44</ele>
        <time>2018-04-11T08:53:05Z</time>
      </trkpt>
      <trkpt lat="47.66822" lon="5.97481">
        <ele>217.44</ele>
        <time>2018-04-11T08:53:07Z</time>
      </trkpt>
      <trkpt lat="47.66828" lon="5.97479">
        <ele>217.43</ele>
        <time>2018-04-11T08:53:09Z</time>
      </trkpt>
      <trkpt lat="47.66834" lon="5.9748">
        <ele>217.43</ele>
        <time>2018-04-11T08:53:11Z</time>
      </trkpt>
      <trkpt lat="47.66841" lon="5.97484">
        <ele>217.43</ele>
        <time>2018-04-11T08:53:13Z</time>
      </trkpt>
      <trkpt lat="47.66848" lon="5.97489">
        <ele>217.42</ele>
        <time>2018-04-11T08:53:15Z</time>
      </trkpt>
      <trkpt lat="47.66854" lon="5.97496">
        <ele>217.4</ele>
        <time>2018-04-11T08:53:17Z</time>
      </trkpt>
      <trkpt lat="47.6686" lon="5.97501">
        <ele>217.39</ele>
        <time>2018-04-11T08:53:19Z</time>
      </trkpt>
      <trkpt lat="47.66865" lon="5.97507">
        <ele>217.39</ele>
        <time>2018-04-11T08:53:21Z</time>
      </trkpt>
      <trkpt lat="47.6687" lon="5.97511">
        <ele>217.38</ele>
        <time>2018-04-11T08:53:23Z</time>
      </trkpt>
      <trkpt lat="47.66874" lon="5.97516">
        <ele>217.38</ele>
        <time>2018-04-11T08:53:25Z</time>
      </trkpt>
      <trkpt lat="47.66879" lon="5.97521">
        <ele>217.37</ele>
        <time>2018-04-11T08:53:27Z</time>
      </trkpt>
      <trkpt lat="47.66883" lon="5.97525">
        <ele>217.37</ele>
        <time>2018-04-11T08:53:29Z</time>
      </trkpt>
      <trkpt lat="47.66888" lon="5.97532">
        <ele>217.37</ele>
        <time>2018-04-11T08:53:31Z</time>
      </trkpt>
      <trkpt lat="47.66894" lon="5.97538">
        <ele>217.36</ele>
        <time>2018-04-11T08:53:33Z</time>
      </trkpt>
      <trkpt lat="47.669" lon="5.97545">
        <ele>217.34</ele>
        <time>2018-04-11T08:53:35Z</time>
      </trkpt>
      <trkpt lat="47.66907" lon="5.97552">
        <ele>217.32</ele>
        <time>2018-04-11T08:53:37Z</time>
      </trkpt>
      <trkpt lat="47.66914" lon="5.97558">
        <ele>217.3</ele>
        <time>2018-04-11T08:53:39Z</time>
      </trkpt>
      <trkpt lat="47.66921" lon="5.97564">
        <ele>217.3</ele>
        <time>2018-04-11T08:53:41Z</time>
      </trkpt>
      <trkpt lat="47.66929" lon="5.9757">
        <ele>217.29</ele>
        <time>2018-04-11T08:53:43Z</time>
      </trkpt>
      <trkpt lat="47.66937" lon="5.97575">
        <ele>217.29</ele>
        <time>2018-04-11T08:53:45Z</time>
      </trkpt>
      <trkpt lat="47.66944" lon="5.97582">
        <ele>217.29</ele>
        <time>2018-04-11T08:53:47Z</time>
      </trkpt>
      <trkpt lat="47.6695" lon="5.97588">
        <ele>217.28</ele>
        <time>2018-04-11T08:53:49Z</time>
      </trkpt>
      <trkpt lat="47.66956" lon="5.97595">
        <ele>217.28</ele>
        <time>2018-04-11T08:53:51Z</time>
      </trkpt>
      <trkpt lat="47.66962" lon="5.97602">
        <ele>217.27</ele>
        <time>2018-04-11T08:53:53Z</time>
      </trkpt>
      <trkpt lat="47.66969" lon="5.97607">
        <ele>217.27</ele>
        <time>2018-04-11T08:53:55Z</time>
      </trkpt>
      <trkpt lat="47.66974" lon="5.97613">
        <ele>217.26</ele>
        <time>2018-04-11T08:53:57Z</time>
      </trkpt>
      <trkpt lat="47.66981" lon="5.9762">
        <ele>217.25</ele>
        <time>2018-04-11T08:53:59Z</time>
      </trkpt>
      <trkpt lat="47.66987" lon="5.97625">
        <ele>217.25</ele>
        <time>2018-04-11T08:54:01Z</time>
      </trkpt>
      <trkpt lat="47.66993" lon="5.97631">
        <ele>217.25</ele>
        <time>2018-04-11T08:54:03Z</time>
      </trkpt>
      <trkpt lat="47.66999" lon="5.97636">
        <ele>217.25</ele>
        <time>2018-04-11T08:54:05Z</time>
      </trkpt>
      <trkpt lat="47.67004" lon="5.97639">
        <ele>217.25</ele>
        <time>2018-04-11T08:54:07Z</time>
      </trkpt>
      <trkpt lat="47.67009" lon="5.97645">
        <ele>217.25</ele>
        <time>2018-04-11T08:54:09Z</time>
      </trkpt>
      <trkpt lat="47.67014" lon="5.97649">
        <ele>217.24</ele>
        <time>2018-04-11T08:54:11Z</time>
      </trkpt>
      <trkpt lat="47.67019" lon="5.97655">
        <ele>217.24</ele>
        <time>2018-04-11T08:54:13Z</time>
      </trkpt>
      <trkpt lat="47.67023" lon="5.9766">
        <ele>217.24</ele>
        <time>2018-04-11T08:54:15Z</time>
      </trkpt>
      <trkpt lat="47.67028" lon="5.97664">
        <ele>217.24</ele>
        <time>2018-04-11T08:54:17Z</time>
      </trkpt>
      <trkpt lat="47.67032" lon="5.97669">
        <ele>217.24</ele>
        <time>2018-04-11T08:54:19Z</time>
      </trkpt>
      <trkpt lat="47.67036" lon="5.97674">
        <ele>217.24</ele>
        <time>2018-04-11T08:54:21Z</time>
      </trkpt>
      <trkpt lat="47.67041" lon="5.97679">
        <ele>217.25</ele>
        <time>2018-04-11T08:54:23Z</time>
      </trkpt>
      <trkpt lat="47.67046" lon="5.97684">
        <ele>217.25</ele>
        <time>2018-04-11T08:54:25Z</time>
      </trkpt>
      <trkpt lat="47.67051" lon="5.97688">
        <ele>217.26</ele>
        <time>2018-04-11T08:54:27Z</time>
      </trkpt>
      <trkpt lat="47.67055" lon="5.97693">
        <ele>217.26</ele>
        <time>2018-04-11T08:54:29Z</time>
      </trkpt>
      <trkpt lat="47.6706" lon="5.97698">
        <ele>217.27</ele>
        <time>2018-04-11T08:54:31Z</time>
      </trkpt>
      <trkpt lat="47.67065" lon="5.97703">
        <ele>217.28</ele>
        <time>2018-04-11T08:54:33Z</time>
      </trkpt>
      <trkpt lat="47.6707" lon="5.97707">
        <ele>217.28</ele>
        <time>2018-04-11T08:54:35Z</time>
      </trkpt>
      <trkpt lat="47.67075" lon="5.97711">
        <ele>217.29</ele>
        <time>2018-04-11T08:54:37Z</time>
      </trkpt>
      <trkpt lat="47.6708" lon="5.97716">
        <ele>217.3</ele>
        <time>2018-04-11T08:54:39Z</time>
      </trkpt>
      <trkpt lat="47.67085" lon="5.97721">
        <ele>217.31</ele>
        <time>2018-04-11T08:54:41Z</time>
      </trkpt>
      <trkpt lat="47.67089" lon="5.97726">
        <ele>217.31</ele>
        <time>2018-04-11T08:54:43Z</time>
      </trkpt>
      <trkpt lat="47.67095" lon="5.9773">
        <ele>217.32</ele>
        <time>2018-04-11T08:54:45Z</time>
      </trkpt>
      <trkpt lat="47.67099" lon="5.97735">
        <ele>217.33</ele>
        <time>2018-04-11T08:54:47Z</time>
      </trkpt>
      <trkpt lat="47.67104" lon="5.97739">
        <ele>217.34</ele>
        <time>2018-04-11T08:54:49Z</time>
      </trkpt>
      <trkpt lat="47.67109" lon="5.97744">
        <ele>217.35</ele>
        <time>2018-04-11T08:54:51Z</time>
      </trkpt>
      <trkpt lat="47.67113" lon="5.97749">
        <ele>217.36</ele>
        <time>2018-04-11T08:54:53Z</time>
      </trkpt>
      <trkpt lat="47.67118" lon="5.97754">
        <ele>217.37</ele>
        <time>2018-04-11T08:54:55Z</time>
      </trkpt>
      <trkpt lat="47.67123" lon="5.9776">
        <ele>217.38</ele>
        <time>2018-04-11T08:54:57Z</time>
      </trkpt>
      <trkpt lat="47.67128" lon="5.97766">
        <ele>217.39</ele>
        <time>2018-04-11T08:54:59Z</time>
      </trkpt>
      <trkpt lat="47.67133" lon="5.97771">
        <ele>217.4</ele>
        <time>2018-04-11T08:55:01Z</time>
      </trkpt>
      <trkpt lat="47.67138" lon="5.97777">
        <ele>217.41</ele>
        <time>2018-04-11T08:55:03Z</time>
      </trkpt>
      <trkpt lat="47.67143" lon="5.97783">
        <ele>217.42</ele>
        <time>2018-04-11T08:55:05Z</time>
      </trkpt>
      <trkpt lat="47.67148" lon="5.97788">
        <ele>217.44</ele>
        <time>2018-04-11T08:55:07Z</time>
      </trkpt>
      <trkpt lat="47.67153" lon="5.97794">
        <ele>217.45</ele>
        <time>2018-04-11T08:55:09Z</time>
      </trkpt>
      <trkpt lat="47.67158" lon="5.978">
        <ele>217.46</ele>
        <time>2018-04-11T08:55:11Z</time>
      </trkpt>
      <trkpt lat="47.67163" lon="5.97807">
        <ele>217.48</ele>
        <time>2018-04-11T08:55:13Z</time>
      </trkpt>
      <trkpt lat="47.67167" lon="5.97814">
        <ele>217.49</ele>
        <time>2018-04-11T08:55:15Z</time>
      </trkpt>
      <trkpt lat="47.67172" lon="5.9782">
        <ele>217.51</ele>
        <time>2018-04-11T08:55:17Z</time>
      </trkpt>
      <trkpt lat="47.67176" lon="5.97826">
        <ele>217.52</ele>
        <time>2018-04-11T08:55:19Z</time>
      </trkpt>
      <trkpt lat="47.6718" lon="5.97832">
        <ele>217.54</ele>
        <time>2018-04-11T08:55:21Z</time>
      </trkpt>
      <trkpt lat="47.67183" lon="5.9784">
        <ele>217.55</ele>
        <time>2018-04-11T08:55:23Z</time>
      </trkpt>
      <trkpt lat="47.67187" lon="5.97847">
        <ele>217.57</ele>
        <time>2018-04-11T08:55:25Z</time>
      </trkpt>
      <trkpt lat="47.6719" lon="5.97854">
        <ele>217.59</ele>
        <time>2018-04-11T08:55:27Z</time>
      </trkpt>
      <trkpt lat="47.67194" lon="5.97861">
        <ele>217.61</ele>
        <time>2018-04-11T08:55:29Z</time>
      </trkpt>
      <trkpt lat="47.67198" lon="5.97868">
        <ele>217.63</ele>
        <time>2018-04-11T08:55:31Z</time>
      </trkpt>
      <trkpt lat="47.67201" lon="5.97875">
        <ele>217.65</ele>
        <time>2018-04-11T08:55:33Z</time>
      </trkpt>
      <trkpt lat="47.67205" lon="5.97881">
        <ele>217.67</ele>
        <time>2018-04-11T08:55:35Z</time>
      </trkpt>
      <trkpt lat="47.6721" lon="5.97887">
        <ele>217.69</ele>
        <time>2018-04-11T08:55:37Z</time>
      </trkpt>
      <trkpt lat="47.67216" lon="5.97893">
        <ele>217.71</ele>
        <time>2018-04-11T08:55:39Z</time>
      </trkpt>
      <trkpt lat="47.6722" lon="5.979">
        <ele>217.74</ele>
        <time>2018-04-11T08:55:41Z</time>
      </trkpt>
      <trkpt lat="47.67224" lon="5.97907">
        <ele>217.76</ele>
        <time>2018-04-11T08:55:43Z</time>
      </trkpt>
      <trkpt lat="47.67228" lon="5.97914">
        <ele>217.78</ele>
        <time>2018-04-11T08:55:45Z</time>
      </trkpt>
      <trkpt lat="47.67232" lon="5.97921">
        <ele>217.8</ele>
        <time>2018-04-11T08:55:47Z</time>
      </trkpt>
      <trkpt lat="47.67236" lon="5.97929">
        <ele>217.82</ele>
        <time>2018-04-11T08:55:49Z</time>
      </trkpt>
      <trkpt lat="47.67239" lon="5.97937">
        <ele>217.85</ele>
        <time>2018-04-11T08:55:51Z</time>
      </trkpt>
      <trkpt lat="47.67242" lon="5.97944">
        <ele>217.87</ele>
        <time>2018-04-11T08:55:53Z</time>
      </trkpt>
      <trkpt lat="47.67245" lon="5.97951">
        <ele>217.89</ele>
        <time>2018-04-11T08:55:55Z</time>
      </trkpt>
      <trkpt lat="47.6725" lon="5.97959">
        <ele>217.93</ele>
        <time>2018-04-11T08:55:58Z</time>
      </trkpt>
      <trkpt lat="47.67254" lon="5.97965">
        <ele>217.95</ele>
        <time>2018-04-11T08:56:00Z</time>
      </trkpt>
      <trkpt lat="47.67258" lon="5.9797">
        <ele>217.98</ele>
        <time>2018-04-11T08:56:02Z</time>
      </trkpt>
      <trkpt lat="47.67263" lon="5.97976">
        <ele>218</ele>
        <time>2018-04-11T08:56:04Z</time>
      </trkpt>
      <trkpt lat="47.67267" lon="5.97981">
        <ele>218.02</ele>
        <time>2018-04-11T08:56:06Z</time>
      </trkpt>
      <trkpt lat="47.6727" lon="5.97987">
        <ele>218.05</ele>
        <time>2018-04-11T08:56:08Z</time>
      </trkpt>
      <trkpt lat="47.67273" lon="5.97994">
        <ele>218.07</ele>
        <time>2018-04-11T08:56:10Z</time>
      </trkpt>
      <trkpt lat="47.67276" lon="5.98002">
        <ele>218.11</ele>
        <time>2018-04-11T08:56:13Z</time>
      </trkpt>
      <trkpt lat="47.67279" lon="5.98008">
        <ele>218.14</ele>
        <time>2018-04-11T08:56:15Z</time>
      </trkpt>
      <trkpt lat="47.67282" lon="5.98014">
        <ele>218.16</ele>
        <time>2018-04-11T08:56:17Z</time>
      </trkpt>
      <trkpt lat="47.67285" lon="5.9802">
        <ele>218.19</ele>
        <time>2018-04-11T08:56:19Z</time>
      </trkpt>
      <trkpt lat="47.6729" lon="5.98026">
        <ele>218.21</ele>
        <time>2018-04-11T08:56:21Z</time>
      </trkpt>
      <trkpt lat="47.67294" lon="5.98031">
        <ele>218.24</ele>
        <time>2018-04-11T08:56:23Z</time>
      </trkpt>
      <trkpt lat="47.67297" lon="5.98038">
        <ele>218.28</ele>
        <time>2018-04-11T08:56:25Z</time>
      </trkpt>
      <trkpt lat="47.673" lon="5.98044">
        <ele>218.31</ele>
        <time>2018-04-11T08:56:27Z</time>
      </trkpt>
      <trkpt lat="47.67303" lon="5.9805">
        <ele>218.35</ele>
        <time>2018-04-11T08:56:29Z</time>
      </trkpt>
      <trkpt lat="47.67307" lon="5.98055">
        <ele>218.39</ele>
        <time>2018-04-11T08:56:31Z</time>
      </trkpt>
      <trkpt lat="47.67309" lon="5.98061">
        <ele>218.44</ele>
        <time>2018-04-11T08:56:33Z</time>
      </trkpt>
      <trkpt lat="47.67313" lon="5.98067">
        <ele>218.49</ele>
        <time>2018-04-11T08:56:35Z</time>
      </trkpt>
      <trkpt lat="47.67316" lon="5.98076">
        <ele>218.56</ele>
        <time>2018-04-11T08:56:38Z</time>
      </trkpt>
      <trkpt lat="47.67319" lon="5.98082">
        <ele>218.61</ele>
        <time>2018-04-11T08:56:40Z</time>
      </trkpt>
      <trkpt lat="47.67322" lon="5.98089">
        <ele>218.67</ele>
        <time>2018-04-11T08:56:42Z</time>
      </trkpt>
      <trkpt lat="47.67325" lon="5.98095">
        <ele>218.72</ele>
        <time>2018-04-11T08:56:44Z</time>
      </trkpt>
      <trkpt lat="47.67328" lon="5.98101">
        <ele>218.77</ele>
        <time>2018-04-11T08:56:46Z</time>
      </trkpt>
      <trkpt lat="47.67332" lon="5.98106">
        <ele>218.83</ele>
        <time>2018-04-11T08:56:48Z</time>
      </trkpt>
      <trkpt lat="47.67335" lon="5.98112">
        <ele>218.89</ele>
        <time>2018-04-11T08:56:50Z</time>
      </trkpt>
      <trkpt lat="47.67338" lon="5.98118">
        <ele>218.96</ele>
        <time>2018-04-11T08:56:52Z</time>
      </trkpt>
      <trkpt lat="47.6734" lon="5.98125">
        <ele>219.02</ele>
        <time>2018-04-11T08:56:54Z</time>
      </trkpt>
      <trkpt lat="47.67343" lon="5.98132">
        <ele>219.09</ele>
        <time>2018-04-11T08:56:56Z</time>
      </trkpt>
      <trkpt lat="47.67346" lon="5.98139">
        <ele>219.15</ele>
        <time>2018-04-11T08:56:58Z</time>
      </trkpt>
      <trkpt lat="47.67349" lon="5.98147">
        <ele>219.25</ele>
        <time>2018-04-11T08:57:01Z</time>
      </trkpt>
      <trkpt lat="47.67352" lon="5.98153">
        <ele>219.35</ele>
        <time>2018-04-11T08:57:04Z</time>
      </trkpt>
      <trkpt lat="47.67356" lon="5.98159">
        <ele>219.45</ele>
        <time>2018-04-11T08:57:07Z</time>
      </trkpt>
      <trkpt lat="47.67358" lon="5.98165">
        <ele>219.55</ele>
        <time>2018-04-11T08:57:10Z</time>
      </trkpt>
      <trkpt lat="47.67362" lon="5.98171">
        <ele>219.64</ele>
        <time>2018-04-11T08:57:13Z</time>
      </trkpt>
      <trkpt lat="47.67367" lon="5.98178">
        <ele>219.74</ele>
        <time>2018-04-11T08:57:16Z</time>
      </trkpt>
      <trkpt lat="47.67373" lon="5.98181">
        <ele>219.8</ele>
        <time>2018-04-11T08:57:18Z</time>
      </trkpt>
      <trkpt lat="47.67378" lon="5.98184">
        <ele>219.86</ele>
        <time>2018-04-11T08:57:20Z</time>
      </trkpt>
      <trkpt lat="47.67382" lon="5.98187">
        <ele>220.16</ele>
        <time>2018-04-11T08:57:47Z</time>
      </trkpt>
      <trkpt lat="47.67386" lon="5.98183">
        <ele>220.25</ele>
        <time>2018-04-11T08:57:56Z</time>
      </trkpt>
      <trkpt lat="47.67392" lon="5.9819">
        <ele>221.02</ele>
        <time>2018-04-11T08:58:25Z</time>
      </trkpt>
      <trkpt lat="47.67398" lon="5.98197">
        <ele>221.2</ele>
        <time>2018-04-11T08:58:27Z</time>
      </trkpt>
      <trkpt lat="47.67404" lon="5.98203">
        <ele>221.36</ele>
        <time>2018-04-11T08:58:29Z</time>
      </trkpt>
      <trkpt lat="47.67409" lon="5.98208">
        <ele>221.53</ele>
        <time>2018-04-11T08:58:31Z</time>
      </trkpt>
      <trkpt lat="47.67413" lon="5.98214">
        <ele>221.69</ele>
        <time>2018-04-11T08:58:33Z</time>
      </trkpt>
      <trkpt lat="47.67418" lon="5.98219">
        <ele>221.84</ele>
        <time>2018-04-11T08:58:35Z</time>
      </trkpt>
      <trkpt lat="47.67423" lon="5.98224">
        <ele>221.99</ele>
        <time>2018-04-11T08:58:37Z</time>
      </trkpt>
      <trkpt lat="47.67427" lon="5.98229">
        <ele>222.13</ele>
        <time>2018-04-11T08:58:39Z</time>
      </trkpt>
      <trkpt lat="47.67431" lon="5.98234">
        <ele>222.34</ele>
        <time>2018-04-11T08:58:42Z</time>
      </trkpt>
      <trkpt lat="47.67431" lon="5.98244">
        <ele>222.89</ele>
        <time>2018-04-11T08:59:31Z</time>
      </trkpt>
      <trkpt lat="47.67433" lon="5.98253">
        <ele>223.13</ele>
        <time>2018-04-11T08:59:35Z</time>
      </trkpt>
      <trkpt lat="47.67437" lon="5.98258">
        <ele>223.25</ele>
        <time>2018-04-11T08:59:37Z</time>
      </trkpt>
      <trkpt lat="47.67441" lon="5.98262">
        <ele>223.36</ele>
        <time>2018-04-11T08:59:39Z</time>
      </trkpt>
      <trkpt lat="47.67446" lon="5.98266">
        <ele>223.47</ele>
        <time>2018-04-11T08:59:41Z</time>
      </trkpt>
      <trkpt lat="47.67449" lon="5.98271">
        <ele>223.57</ele>
        <time>2018-04-11T08:59:43Z</time>
      </trkpt>
      <trkpt lat="47.67454" lon="5.98278">
        <ele>223.67</ele>
        <time>2018-04-11T08:59:45Z</time>
      </trkpt>
      <trkpt lat="47.6746" lon="5.98284">
        <ele>223.77</ele>
        <time>2018-04-11T08:59:47Z</time>
      </trkpt>
      <trkpt lat="47.67465" lon="5.98291">
        <ele>223.87</ele>
        <time>2018-04-11T08:59:49Z</time>
      </trkpt>
      <trkpt lat="47.67469" lon="5.98296">
        <ele>223.96</ele>
        <time>2018-04-11T08:59:51Z</time>
      </trkpt>
      <trkpt lat="47.67473" lon="5.98302">
        <ele>224.04</ele>
        <time>2018-04-11T08:59:53Z</time>
      </trkpt>
      <trkpt lat="47.67477" lon="5.98309">
        <ele>224.13</ele>
        <time>2018-04-11T08:59:55Z</time>
      </trkpt>
      <trkpt lat="47.67482" lon="5.98316">
        <ele>224.21</ele>
        <time>2018-04-11T08:59:57Z</time>
      </trkpt>
      <trkpt lat="47.67487" lon="5.98322">
        <ele>224.29</ele>
        <time>2018-04-11T08:59:59Z</time>
      </trkpt>
      <trkpt lat="47.67492" lon="5.9833">
        <ele>224.36</ele>
        <time>2018-04-11T09:00:01Z</time>
      </trkpt>
      <trkpt lat="47.67498" lon="5.98338">
        <ele>224.43</ele>
        <time>2018-04-11T09:00:03Z</time>
      </trkpt>
      <trkpt lat="47.67503" lon="5.98344">
        <ele>224.5</ele>
        <time>2018-04-11T09:00:05Z</time>
      </trkpt>
      <trkpt lat="47.67507" lon="5.98351">
        <ele>224.57</ele>
        <time>2018-04-11T09:00:07Z</time>
      </trkpt>
      <trkpt lat="47.67509" lon="5.98357">
        <ele>224.64</ele>
        <time>2018-04-11T09:00:09Z</time>
      </trkpt>
      <trkpt lat="47.67513" lon="5.98361">
        <ele>224.76</ele>
        <time>2018-04-11T09:00:13Z</time>
      </trkpt>
      <trkpt lat="47.67518" lon="5.98357">
        <ele>225.06</ele>
        <time>2018-04-11T09:00:39Z</time>
      </trkpt>
      <trkpt lat="47.67521" lon="5.98354">
        <ele>225.14</ele>
        <time>2018-04-11T09:00:45Z</time>
      </trkpt>
      <trkpt lat="47.67523" lon="5.98347">
        <ele>225.38</ele>
        <time>2018-04-11T09:01:14Z</time>
      </trkpt>
      <trkpt lat="47.67518" lon="5.98349">
        <ele>225.84</ele>
        <time>2018-04-11T09:02:07Z</time>
      </trkpt>
      <trkpt lat="47.67515" lon="5.98355">
        <ele>227.68</ele>
        <time>2018-04-11T09:04:47Z</time>
      </trkpt>
      <trkpt lat="47.67518" lon="5.98359">
        <ele>228.17</ele>
        <time>2018-04-11T09:05:35Z</time>
      </trkpt>
      <trkpt lat="47.67521" lon="5.98365">
        <ele>228.58</ele>
        <time>2018-04-11T09:05:52Z</time>
      </trkpt>
      <trkpt lat="47.67524" lon="5.9837">
        <ele>228.71</ele>
        <time>2018-04-11T09:05:54Z</time>
      </trkpt>
      <trkpt lat="47.67527" lon="5.98376">
        <ele>228.83</ele>
        <time>2018-04-11T09:05:56Z</time>
      </trkpt>
      <trkpt lat="47.6753" lon="5.98381">
        <ele>228.95</ele>
        <time>2018-04-11T09:05:58Z</time>
      </trkpt>
      <trkpt lat="47.67534" lon="5.98385">
        <ele>229.07</ele>
        <time>2018-04-11T09:06:00Z</time>
      </trkpt>
      <trkpt lat="47.67537" lon="5.9839">
        <ele>229.18</ele>
        <time>2018-04-11T09:06:02Z</time>
      </trkpt>
      <trkpt lat="47.67541" lon="5.98394">
        <ele>229.28</ele>
        <time>2018-04-11T09:06:04Z</time>
      </trkpt>
      <trkpt lat="47.67546" lon="5.98398">
        <ele>229.39</ele>
        <time>2018-04-11T09:06:06Z</time>
      </trkpt>
      <trkpt lat="47.6755" lon="5.98403">
        <ele>229.48</ele>
        <time>2018-04-11T09:06:08Z</time>
      </trkpt>
      <trkpt lat="47.67555" lon="5.98407">
        <ele>229.58</ele>
        <time>2018-04-11T09:06:10Z</time>
      </trkpt>
      <trkpt lat="47.67559" lon="5.98411">
        <ele>229.67</ele>
        <time>2018-04-11T09:06:12Z</time>
      </trkpt>
      <trkpt lat="47.67563" lon="5.98415">
        <ele>229.76</ele>
        <time>2018-04-11T09:06:14Z</time>
      </trkpt>
      <trkpt lat="47.67568" lon="5.9842">
        <ele>229.84</ele>
        <time>2018-04-11T09:06:16Z</time>
      </trkpt>
      <trkpt lat="47.67573" lon="5.98425">
        <ele>229.92</ele>
        <time>2018-04-11T09:06:18Z</time>
      </trkpt>
      <trkpt lat="47.67579" lon="5.98428">
        <ele>230</ele>
        <time>2018-04-11T09:06:20Z</time>
      </trkpt>
      <trkpt lat="47.67585" lon="5.98432">
        <ele>230.08</ele>
        <time>2018-04-11T09:06:22Z</time>
      </trkpt>
      <trkpt lat="47.67591" lon="5.98432">
        <ele>230.15</ele>
        <time>2018-04-11T09:06:24Z</time>
      </trkpt>
      <trkpt lat="47.67596" lon="5.98433">
        <ele>230.23</ele>
        <time>2018-04-11T09:06:26Z</time>
      </trkpt>
      <trkpt lat="47.67602" lon="5.98431">
        <ele>230.3</ele>
        <time>2018-04-11T09:06:28Z</time>
      </trkpt>
      <trkpt lat="47.67608" lon="5.98428">
        <ele>230.36</ele>
        <time>2018-04-11T09:06:30Z</time>
      </trkpt>
      <trkpt lat="47.67614" lon="5.98426">
        <ele>230.43</ele>
        <time>2018-04-11T09:06:32Z</time>
      </trkpt>
      <trkpt lat="47.67621" lon="5.98424">
        <ele>230.49</ele>
        <time>2018-04-11T09:06:34Z</time>
      </trkpt>
      <trkpt lat="47.67626" lon="5.98421">
        <ele>230.55</ele>
        <time>2018-04-11T09:06:36Z</time>
      </trkpt>
      <trkpt lat="47.67632" lon="5.98419">
        <ele>230.61</ele>
        <time>2018-04-11T09:06:38Z</time>
      </trkpt>
      <trkpt lat="47.67638" lon="5.98417">
        <ele>230.67</ele>
        <time>2018-04-11T09:06:40Z</time>
      </trkpt>
      <trkpt lat="47.67644" lon="5.98415">
        <ele>230.73</ele>
        <time>2018-04-11T09:06:42Z</time>
      </trkpt>
      <trkpt lat="47.67649" lon="5.98411">
        <ele>230.79</ele>
        <time>2018-04-11T09:06:44Z</time>
      </trkpt>
      <trkpt lat="47.67655" lon="5.98409">
        <ele>230.84</ele>
        <time>2018-04-11T09:06:46Z</time>
      </trkpt>
      <trkpt lat="47.67661" lon="5.98406">
        <ele>230.89</ele>
        <time>2018-04-11T09:06:48Z</time>
      </trkpt>
      <trkpt lat="47.67665" lon="5.98405">
        <ele>230.95</ele>
        <time>2018-04-11T09:06:50Z</time>
      </trkpt>
      <trkpt lat="47.6767" lon="5.98402">
        <ele>231</ele>
        <time>2018-04-11T09:06:52Z</time>
      </trkpt>
      <trkpt lat="47.67676" lon="5.98399">
        <ele>231.07</ele>
        <time>2018-04-11T09:06:55Z</time>
      </trkpt>
      <trkpt lat="47.67682" lon="5.98396">
        <ele>231.14</ele>
        <time>2018-04-11T09:06:58Z</time>
      </trkpt>
      <trkpt lat="47.67687" lon="5.98393">
        <ele>231.22</ele>
        <time>2018-04-11T09:07:01Z</time>
      </trkpt>
      <trkpt lat="47.67694" lon="5.98391">
        <ele>231.28</ele>
        <time>2018-04-11T09:07:04Z</time>
      </trkpt>
      <trkpt lat="47.67699" lon="5.98389">
        <ele>231.35</ele>
        <time>2018-04-11T09:07:07Z</time>
      </trkpt>
      <trkpt lat="47.67705" lon="5.98388">
        <ele>231.42</ele>
        <time>2018-04-11T09:07:10Z</time>
      </trkpt>
      <trkpt lat="47.67711" lon="5.98386">
        <ele>231.49</ele>
        <time>2018-04-11T09:07:13Z</time>
      </trkpt>
      <trkpt lat="47.67718" lon="5.98386">
        <ele>231.7</ele>
        <time>2018-04-11T09:07:15Z</time>
      </trkpt>
      <trkpt lat="47.67725" lon="5.98384">
        <ele>231.98</ele>
        <time>2018-04-11T09:07:17Z</time>
      </trkpt>
      <trkpt lat="47.67731" lon="5.98385">
        <ele>232.06</ele>
        <time>2018-04-11T09:07:19Z</time>
      </trkpt>
      <trkpt lat="47.67736" lon="5.98386">
        <ele>232.09</ele>
        <time>2018-04-11T09:07:21Z</time>
      </trkpt>
      <trkpt lat="47.67741" lon="5.98387">
        <ele>232.11</ele>
        <time>2018-04-11T09:07:23Z</time>
      </trkpt>
      <trkpt lat="47.67746" lon="5.98388">
        <ele>232.14</ele>
        <time>2018-04-11T09:07:25Z</time>
      </trkpt>
      <trkpt lat="47.67751" lon="5.98389">
        <ele>232.16</ele>
        <time>2018-04-11T09:07:27Z</time>
      </trkpt>
      <trkpt lat="47.67756" lon="5.98389">
        <ele>232.19</ele>
        <time>2018-04-11T09:07:29Z</time>
      </trkpt>
      <trkpt lat="47.67762" lon="5.9839">
        <ele>232.22</ele>
        <time>2018-04-11T09:07:31Z</time>
      </trkpt>
      <trkpt lat="47.67767" lon="5.98391">
        <ele>232.24</ele>
        <time>2018-04-11T09:07:33Z</time>
      </trkpt>
      <trkpt lat="47.67771" lon="5.98393">
        <ele>232.27</ele>
        <time>2018-04-11T09:07:35Z</time>
      </trkpt>
      <trkpt lat="47.67776" lon="5.98395">
        <ele>232.3</ele>
        <time>2018-04-11T09:07:37Z</time>
      </trkpt>
      <trkpt lat="47.67782" lon="5.98398">
        <ele>232.34</ele>
        <time>2018-04-11T09:07:40Z</time>
      </trkpt>
      <trkpt lat="47.67788" lon="5.984">
        <ele>232.39</ele>
        <time>2018-04-11T09:07:43Z</time>
      </trkpt>
      <trkpt lat="47.67794" lon="5.98402">
        <ele>232.44</ele>
        <time>2018-04-11T09:07:46Z</time>
      </trkpt>
      <trkpt lat="47.678" lon="5.98403">
        <ele>232.49</ele>
        <time>2018-04-11T09:07:49Z</time>
      </trkpt>
      <trkpt lat="47.67806" lon="5.98404">
        <ele>232.54</ele>
        <time>2018-04-11T09:07:52Z</time>
      </trkpt>
      <trkpt lat="47.67813" lon="5.98405">
        <ele>232.6</ele>
        <time>2018-04-11T09:07:55Z</time>
      </trkpt>
      <trkpt lat="47.67819" lon="5.98405">
        <ele>232.66</ele>
        <time>2018-04-11T09:07:58Z</time>
      </trkpt>
      <trkpt lat="47.67826" lon="5.98405">
        <ele>232.72</ele>
        <time>2018-04-11T09:08:01Z</time>
      </trkpt>
      <trkpt lat="47.6783" lon="5.98404">
        <ele>232.76</ele>
        <time>2018-04-11T09:08:03Z</time>
      </trkpt>
      <trkpt lat="47.67837" lon="5.98404">
        <ele>232.82</ele>
        <time>2018-04-11T09:08:06Z</time>
      </trkpt>
      <trkpt lat="47.67842" lon="5.98404">
        <ele>232.87</ele>
        <time>2018-04-11T09:08:08Z</time>
      </trkpt>
      <trkpt lat="47.67848" lon="5.98404">
        <ele>232.91</ele>
        <time>2018-04-11T09:08:10Z</time>
      </trkpt>
      <trkpt lat="47.67853" lon="5.98404">
        <ele>232.95</ele>
        <time>2018-04-11T09:08:12Z</time>
      </trkpt>
      <trkpt lat="47.67859" lon="5.98404">
        <ele>233</ele>
        <time>2018-04-11T09:08:14Z</time>
      </trkpt>
      <trkpt lat="47.67864" lon="5.98405">
        <ele>233.05</ele>
        <time>2018-04-11T09:08:16Z</time>
      </trkpt>
      <trkpt lat="47.67868" lon="5.98406">
        <ele>233.1</ele>
        <time>2018-04-11T09:08:18Z</time>
      </trkpt>
      <trkpt lat="47.67874" lon="5.98406">
        <ele>233.15</ele>
        <time>2018-04-11T09:08:20Z</time>
      </trkpt>
      <trkpt lat="47.67879" lon="5.98408">
        <ele>233.2</ele>
        <time>2018-04-11T09:08:22Z</time>
      </trkpt>
      <trkpt lat="47.67884" lon="5.98408">
        <ele>233.25</ele>
        <time>2018-04-11T09:08:24Z</time>
      </trkpt>
      <trkpt lat="47.67889" lon="5.98409">
        <ele>233.3</ele>
        <time>2018-04-11T09:08:26Z</time>
      </trkpt>
      <trkpt lat="47.67895" lon="5.9841">
        <ele>233.35</ele>
        <time>2018-04-11T09:08:28Z</time>
      </trkpt>
      <trkpt lat="47.679" lon="5.98411">
        <ele>233.4</ele>
        <time>2018-04-11T09:08:30Z</time>
      </trkpt>
      <trkpt lat="47.67905" lon="5.98412">
        <ele>233.45</ele>
        <time>2018-04-11T09:08:32Z</time>
      </trkpt>
      <trkpt lat="47.67911" lon="5.98415">
        <ele>233.51</ele>
        <time>2018-04-11T09:08:34Z</time>
      </trkpt>
      <trkpt lat="47.67916" lon="5.98417">
        <ele>233.56</ele>
        <time>2018-04-11T09:08:36Z</time>
      </trkpt>
      <trkpt lat="47.67921" lon="5.98421">
        <ele>233.62</ele>
        <time>2018-04-11T09:08:38Z</time>
      </trkpt>
      <trkpt lat="47.67926" lon="5.98424">
        <ele>233.67</ele>
        <time>2018-04-11T09:08:40Z</time>
      </trkpt>
      <trkpt lat="47.67931" lon="5.98428">
        <ele>233.73</ele>
        <time>2018-04-11T09:08:42Z</time>
      </trkpt>
      <trkpt lat="47.67936" lon="5.98431">
        <ele>233.78</ele>
        <time>2018-04-11T09:08:44Z</time>
      </trkpt>
      <trkpt lat="47.67941" lon="5.98435">
        <ele>233.84</ele>
        <time>2018-04-11T09:08:46Z</time>
      </trkpt>
      <trkpt lat="47.67946" lon="5.98438">
        <ele>233.89</ele>
        <time>2018-04-11T09:08:48Z</time>
      </trkpt>
      <trkpt lat="47.67951" lon="5.98442">
        <ele>233.95</ele>
        <time>2018-04-11T09:08:50Z</time>
      </trkpt>
      <trkpt lat="47.67956" lon="5.98446">
        <ele>234.01</ele>
        <time>2018-04-11T09:08:52Z</time>
      </trkpt>
      <trkpt lat="47.67962" lon="5.98449">
        <ele>234.07</ele>
        <time>2018-04-11T09:08:54Z</time>
      </trkpt>
      <trkpt lat="47.67967" lon="5.98453">
        <ele>234.13</ele>
        <time>2018-04-11T09:08:56Z</time>
      </trkpt>
      <trkpt lat="47.67973" lon="5.98457">
        <ele>234.19</ele>
        <time>2018-04-11T09:08:58Z</time>
      </trkpt>
      <trkpt lat="47.67979" lon="5.98461">
        <ele>234.25</ele>
        <time>2018-04-11T09:09:00Z</time>
      </trkpt>
      <trkpt lat="47.67984" lon="5.98464">
        <ele>234.31</ele>
        <time>2018-04-11T09:09:02Z</time>
      </trkpt>
      <trkpt lat="47.6799" lon="5.98468">
        <ele>234.37</ele>
        <time>2018-04-11T09:09:04Z</time>
      </trkpt>
      <trkpt lat="47.67996" lon="5.98471">
        <ele>234.43</ele>
        <time>2018-04-11T09:09:06Z</time>
      </trkpt>
      <trkpt lat="47.68002" lon="5.98476">
        <ele>234.49</ele>
        <time>2018-04-11T09:09:08Z</time>
      </trkpt>
      <trkpt lat="47.68008" lon="5.9848">
        <ele>234.56</ele>
        <time>2018-04-11T09:09:10Z</time>
      </trkpt>
      <trkpt lat="47.68013" lon="5.98484">
        <ele>234.62</ele>
        <time>2018-04-11T09:09:12Z</time>
      </trkpt>
      <trkpt lat="47.68019" lon="5.98488">
        <ele>234.69</ele>
        <time>2018-04-11T09:09:14Z</time>
      </trkpt>
      <trkpt lat="47.68024" lon="5.98492">
        <ele>234.75</ele>
        <time>2018-04-11T09:09:16Z</time>
      </trkpt>
      <trkpt lat="47.6803" lon="5.98495">
        <ele>234.82</ele>
        <time>2018-04-11T09:09:18Z</time>
      </trkpt>
      <trkpt lat="47.68036" lon="5.98499">
        <ele>234.88</ele>
        <time>2018-04-11T09:09:20Z</time>
      </trkpt>
      <trkpt lat="47.68042" lon="5.98503">
        <ele>234.95</ele>
        <time>2018-04-11T09:09:22Z</time>
      </trkpt>
      <trkpt lat="47.68047" lon="5.98507">
        <ele>235.02</ele>
        <time>2018-04-11T09:09:24Z</time>
      </trkpt>
      <trkpt lat="47.68052" lon="5.98511">
        <ele>235.09</ele>
        <time>2018-04-11T09:09:26Z</time>
      </trkpt>
      <trkpt lat="47.68058" lon="5.98514">
        <ele>235.17</ele>
        <time>2018-04-11T09:09:28Z</time>
      </trkpt>
      <trkpt lat="47.68063" lon="5.98517">
        <ele>235.24</ele>
        <time>2018-04-11T09:09:30Z</time>
      </trkpt>
      <trkpt lat="47.68068" lon="5.98521">
        <ele>235.32</ele>
        <time>2018-04-11T09:09:32Z</time>
      </trkpt>
      <trkpt lat="47.68073" lon="5.98524">
        <ele>235.39</ele>
        <time>2018-04-11T09:09:34Z</time>
      </trkpt>
      <trkpt lat="47.68078" lon="5.98528">
        <ele>235.47</ele>
        <time>2018-04-11T09:09:36Z</time>
      </trkpt>
      <trkpt lat="47.68084" lon="5.98531">
        <ele>235.54</ele>
        <time>2018-04-11T09:09:38Z</time>
      </trkpt>
      <trkpt lat="47.68089" lon="5.98535">
        <ele>235.62</ele>
        <time>2018-04-11T09:09:40Z</time>
      </trkpt>
      <trkpt lat="47.68094" lon="5.98538">
        <ele>235.69</ele>
        <time>2018-04-11T09:09:42Z</time>
      </trkpt>
      <trkpt lat="47.68099" lon="5.98541">
        <ele>235.77</ele>
        <time>2018-04-11T09:09:44Z</time>
      </trkpt>
      <trkpt lat="47.68104" lon="5.98545">
        <ele>235.85</ele>
        <time>2018-04-11T09:09:46Z</time>
      </trkpt>
      <trkpt lat="47.68109" lon="5.98549">
        <ele>235.93</ele>
        <time>2018-04-11T09:09:48Z</time>
      </trkpt>
      <trkpt lat="47.68115" lon="5.98551">
        <ele>236.01</ele>
        <time>2018-04-11T09:09:50Z</time>
      </trkpt>
      <trkpt lat="47.6812" lon="5.98554">
        <ele>236.09</ele>
        <time>2018-04-11T09:09:52Z</time>
      </trkpt>
      <trkpt lat="47.68126" lon="5.98557">
        <ele>236.17</ele>
        <time>2018-04-11T09:09:54Z</time>
      </trkpt>
      <trkpt lat="47.68132" lon="5.9856">
        <ele>236.25</ele>
        <time>2018-04-11T09:09:56Z</time>
      </trkpt>
      <trkpt lat="47.68137" lon="5.98563">
        <ele>236.33</ele>
        <time>2018-04-11T09:09:58Z</time>
      </trkpt>
      <trkpt lat="47.68142" lon="5.98566">
        <ele>236.41</ele>
        <time>2018-04-11T09:10:00Z</time>
      </trkpt>
      <trkpt lat="47.68147" lon="5.98569">
        <ele>236.49</ele>
        <time>2018-04-11T09:10:02Z</time>
      </trkpt>
      <trkpt lat="47.68152" lon="5.98572">
        <ele>236.57</ele>
        <time>2018-04-11T09:10:04Z</time>
      </trkpt>
      <trkpt lat="47.68157" lon="5.98575">
        <ele>236.66</ele>
        <time>2018-04-11T09:10:06Z</time>
      </trkpt>
      <trkpt lat="47.68162" lon="5.98578">
        <ele>236.74</ele>
        <time>2018-04-11T09:10:08Z</time>
      </trkpt>
      <trkpt lat="47.68167" lon="5.9858">
        <ele>236.82</ele>
        <time>2018-04-11T09:10:10Z</time>
      </trkpt>
      <trkpt lat="47.68173" lon="5.98583">
        <ele>236.91</ele>
        <time>2018-04-11T09:10:12Z</time>
      </trkpt>
      <trkpt lat="47.68178" lon="5.98586">
        <ele>237</ele>
        <time>2018-04-11T09:10:14Z</time>
      </trkpt>
      <trkpt lat="47.68183" lon="5.98589">
        <ele>237.08</ele>
        <time>2018-04-11T09:10:16Z</time>
      </trkpt>
      <trkpt lat="47.68189" lon="5.98592">
        <ele>237.17</ele>
        <time>2018-04-11T09:10:18Z</time>
      </trkpt>
      <trkpt lat="47.68194" lon="5.98595">
        <ele>237.26</ele>
        <time>2018-04-11T09:10:20Z</time>
      </trkpt>
      <trkpt lat="47.68199" lon="5.98597">
        <ele>237.34</ele>
        <time>2018-04-11T09:10:22Z</time>
      </trkpt>
      <trkpt lat="47.68204" lon="5.986">
        <ele>237.43</ele>
        <time>2018-04-11T09:10:24Z</time>
      </trkpt>
      <trkpt lat="47.68209" lon="5.98603">
        <ele>237.52</ele>
        <time>2018-04-11T09:10:26Z</time>
      </trkpt>
      <trkpt lat="47.68215" lon="5.98606">
        <ele>237.61</ele>
        <time>2018-04-11T09:10:28Z</time>
      </trkpt>
      <trkpt lat="47.6822" lon="5.98609">
        <ele>237.7</ele>
        <time>2018-04-11T09:10:30Z</time>
      </trkpt>
      <trkpt lat="47.68225" lon="5.98612">
        <ele>237.78</ele>
        <time>2018-04-11T09:10:32Z</time>
      </trkpt>
      <trkpt lat="47.6823" lon="5.98616">
        <ele>237.87</ele>
        <time>2018-04-11T09:10:34Z</time>
      </trkpt>
      <trkpt lat="47.68236" lon="5.98618">
        <ele>237.96</ele>
        <time>2018-04-11T09:10:36Z</time>
      </trkpt>
      <trkpt lat="47.68241" lon="5.98621">
        <ele>238.05</ele>
        <time>2018-04-11T09:10:38Z</time>
      </trkpt>
      <trkpt lat="47.68246" lon="5.98624">
        <ele>238.14</ele>
        <time>2018-04-11T09:10:40Z</time>
      </trkpt>
      <trkpt lat="47.68251" lon="5.98627">
        <ele>238.23</ele>
        <time>2018-04-11T09:10:42Z</time>
      </trkpt>
      <trkpt lat="47.68256" lon="5.9863">
        <ele>238.32</ele>
        <time>2018-04-11T09:10:44Z</time>
      </trkpt>
      <trkpt lat="47.68261" lon="5.98633">
        <ele>238.41</ele>
        <time>2018-04-11T09:10:46Z</time>
      </trkpt>
      <trkpt lat="47.68266" lon="5.98635">
        <ele>238.51</ele>
        <time>2018-04-11T09:10:48Z</time>
      </trkpt>
      <trkpt lat="47.68271" lon="5.98638">
        <ele>238.6</ele>
        <time>2018-04-11T09:10:50Z</time>
      </trkpt>
      <trkpt lat="47.68277" lon="5.98641">
        <ele>238.7</ele>
        <time>2018-04-11T09:10:52Z</time>
      </trkpt>
      <trkpt lat="47.68282" lon="5.98643">
        <ele>238.79</ele>
        <time>2018-04-11T09:10:54Z</time>
      </trkpt>
      <trkpt lat="47.68287" lon="5.98646">
        <ele>238.89</ele>
        <time>2018-04-11T09:10:56Z</time>
      </trkpt>
      <trkpt lat="47.68292" lon="5.98648">
        <ele>238.99</ele>
        <time>2018-04-11T09:10:58Z</time>
      </trkpt>
      <trkpt lat="47.68297" lon="5.98651">
        <ele>239.09</ele>
        <time>2018-04-11T09:11:00Z</time>
      </trkpt>
      <trkpt lat="47.68303" lon="5.98653">
        <ele>239.2</ele>
        <time>2018-04-11T09:11:02Z</time>
      </trkpt>
      <trkpt lat="47.68308" lon="5.98655">
        <ele>239.3</ele>
        <time>2018-04-11T09:11:04Z</time>
      </trkpt>
      <trkpt lat="47.68313" lon="5.98658">
        <ele>239.41</ele>
        <time>2018-04-11T09:11:06Z</time>
      </trkpt>
      <trkpt lat="47.68319" lon="5.9866">
        <ele>239.51</ele>
        <time>2018-04-11T09:11:08Z</time>
      </trkpt>
      <trkpt lat="47.68324" lon="5.98662">
        <ele>239.62</ele>
        <time>2018-04-11T09:11:10Z</time>
      </trkpt>
      <trkpt lat="47.68329" lon="5.98664">
        <ele>239.72</ele>
        <time>2018-04-11T09:11:12Z</time>
      </trkpt>
      <trkpt lat="47.68335" lon="5.98667">
        <ele>239.83</ele>
        <time>2018-04-11T09:11:14Z</time>
      </trkpt>
      <trkpt lat="47.6834" lon="5.9867">
        <ele>239.94</ele>
        <time>2018-04-11T09:11:16Z</time>
      </trkpt>
      <trkpt lat="47.68345" lon="5.98672">
        <ele>240.05</ele>
        <time>2018-04-11T09:11:18Z</time>
      </trkpt>
      <trkpt lat="47.68351" lon="5.98675">
        <ele>240.16</ele>
        <time>2018-04-11T09:11:20Z</time>
      </trkpt>
      <trkpt lat="47.68356" lon="5.98677">
        <ele>240.27</ele>
        <time>2018-04-11T09:11:22Z</time>
      </trkpt>
      <trkpt lat="47.68362" lon="5.9868">
        <ele>240.38</ele>
        <time>2018-04-11T09:11:24Z</time>
      </trkpt>
      <trkpt lat="47.68367" lon="5.98682">
        <ele>240.5</ele>
        <time>2018-04-11T09:11:26Z</time>
      </trkpt>
      <trkpt lat="47.68372" lon="5.98685">
        <ele>240.61</ele>
        <time>2018-04-11T09:11:28Z</time>
      </trkpt>
      <trkpt lat="47.68378" lon="5.98686">
        <ele>240.73</ele>
        <time>2018-04-11T09:11:30Z</time>
      </trkpt>
      <trkpt lat="47.68383" lon="5.98687">
        <ele>240.84</ele>
        <time>2018-04-11T09:11:32Z</time>
      </trkpt>
      <trkpt lat="47.68389" lon="5.98689">
        <ele>240.96</ele>
        <time>2018-04-11T09:11:34Z</time>
      </trkpt>
      <trkpt lat="47.68394" lon="5.98691">
        <ele>241.07</ele>
        <time>2018-04-11T09:11:36Z</time>
      </trkpt>
      <trkpt lat="47.68399" lon="5.98693">
        <ele>241.19</ele>
        <time>2018-04-11T09:11:38Z</time>
      </trkpt>
      <trkpt lat="47.68404" lon="5.98693">
        <ele>241.3</ele>
        <time>2018-04-11T09:11:40Z</time>
      </trkpt>
      <trkpt lat="47.6841" lon="5.98697">
        <ele>241.47</ele>
        <time>2018-04-11T09:11:43Z</time>
      </trkpt>
      <trkpt lat="47.68414" lon="5.98699">
        <ele>241.58</ele>
        <time>2018-04-11T09:11:45Z</time>
      </trkpt>
      <trkpt lat="47.68419" lon="5.98701">
        <ele>241.69</ele>
        <time>2018-04-11T09:11:47Z</time>
      </trkpt>
      <trkpt lat="47.68424" lon="5.98706">
        <ele>241.87</ele>
        <time>2018-04-11T09:11:50Z</time>
      </trkpt>
      <trkpt lat="47.68429" lon="5.98711">
        <ele>241.99</ele>
        <time>2018-04-11T09:11:52Z</time>
      </trkpt>
      <trkpt lat="47.68435" lon="5.98714">
        <ele>242.17</ele>
        <time>2018-04-11T09:11:55Z</time>
      </trkpt>
      <trkpt lat="47.68442" lon="5.98718">
        <ele>242.35</ele>
        <time>2018-04-11T09:11:58Z</time>
      </trkpt>
      <trkpt lat="47.68446" lon="5.98723">
        <ele>242.48</ele>
        <time>2018-04-11T09:12:00Z</time>
      </trkpt>
      <trkpt lat="47.68454" lon="5.98729">
        <ele>242.61</ele>
        <time>2018-04-11T09:12:02Z</time>
      </trkpt>
      <trkpt lat="47.68459" lon="5.98733">
        <ele>242.75</ele>
        <time>2018-04-11T09:12:04Z</time>
      </trkpt>
      <trkpt lat="47.68465" lon="5.98737">
        <ele>242.88</ele>
        <time>2018-04-11T09:12:06Z</time>
      </trkpt>
      <trkpt lat="47.6847" lon="5.98739">
        <ele>243.02</ele>
        <time>2018-04-11T09:12:08Z</time>
      </trkpt>
      <trkpt lat="47.68476" lon="5.98742">
        <ele>243.15</ele>
        <time>2018-04-11T09:12:10Z</time>
      </trkpt>
      <trkpt lat="47.6848" lon="5.98745">
        <ele>243.28</ele>
        <time>2018-04-11T09:12:12Z</time>
      </trkpt>
      <trkpt lat="47.68485" lon="5.98753">
        <ele>243.41</ele>
        <time>2018-04-11T09:12:14Z</time>
      </trkpt>
      <trkpt lat="47.68488" lon="5.9876">
        <ele>243.61</ele>
        <time>2018-04-11T09:12:17Z</time>
      </trkpt>
      <trkpt lat="47.68492" lon="5.98767">
        <ele>243.87</ele>
        <time>2018-04-11T09:12:21Z</time>
      </trkpt>
      <trkpt lat="47.68496" lon="5.9877">
        <ele>243.99</ele>
        <time>2018-04-11T09:12:23Z</time>
      </trkpt>
      <trkpt lat="47.68501" lon="5.98774">
        <ele>244.11</ele>
        <time>2018-04-11T09:12:25Z</time>
      </trkpt>
      <trkpt lat="47.68507" lon="5.98781">
        <ele>244.29</ele>
        <time>2018-04-11T09:12:28Z</time>
      </trkpt>
      <trkpt lat="47.68511" lon="5.98785">
        <ele>244.41</ele>
        <time>2018-04-11T09:12:30Z</time>
      </trkpt>
      <trkpt lat="47.68517" lon="5.98791">
        <ele>244.58</ele>
        <time>2018-04-11T09:12:33Z</time>
      </trkpt>
      <trkpt lat="47.68521" lon="5.98796">
        <ele>244.75</ele>
        <time>2018-04-11T09:12:36Z</time>
      </trkpt>
      <trkpt lat="47.68526" lon="5.98804">
        <ele>244.91</ele>
        <time>2018-04-11T09:12:39Z</time>
      </trkpt>
      <trkpt lat="47.68528" lon="5.9881">
        <ele>245.01</ele>
        <time>2018-04-11T09:12:41Z</time>
      </trkpt>
      <trkpt lat="47.68532" lon="5.98816">
        <ele>245.11</ele>
        <time>2018-04-11T09:12:43Z</time>
      </trkpt>
      <trkpt lat="47.68535" lon="5.98821">
        <ele>245.21</ele>
        <time>2018-04-11T09:12:45Z</time>
      </trkpt>
      <trkpt lat="47.68538" lon="5.98826">
        <ele>245.31</ele>
        <time>2018-04-11T09:12:47Z</time>
      </trkpt>
      <trkpt lat="47.68543" lon="5.9883">
        <ele>245.41</ele>
        <time>2018-04-11T09:12:49Z</time>
      </trkpt>
      <trkpt lat="47.68547" lon="5.98836">
        <ele>245.5</ele>
        <time>2018-04-11T09:12:51Z</time>
      </trkpt>
      <trkpt lat="47.68553" lon="5.98841">
        <ele>245.59</ele>
        <time>2018-04-11T09:12:53Z</time>
      </trkpt>
      <trkpt lat="47.68556" lon="5.98846">
        <ele>245.68</ele>
        <time>2018-04-11T09:12:55Z</time>
      </trkpt>
      <trkpt lat="47.68559" lon="5.9885">
        <ele>245.77</ele>
        <time>2018-04-11T09:12:57Z</time>
      </trkpt>
      <trkpt lat="47.68563" lon="5.98855">
        <ele>245.85</ele>
        <time>2018-04-11T09:12:59Z</time>
      </trkpt>
      <trkpt lat="47.68568" lon="5.98859">
        <ele>245.94</ele>
        <time>2018-04-11T09:13:01Z</time>
      </trkpt>
      <trkpt lat="47.68573" lon="5.98862">
        <ele>246.02</ele>
        <time>2018-04-11T09:13:03Z</time>
      </trkpt>
      <trkpt lat="47.68578" lon="5.98865">
        <ele>246.1</ele>
        <time>2018-04-11T09:13:05Z</time>
      </trkpt>
      <trkpt lat="47.68582" lon="5.98869">
        <ele>246.18</ele>
        <time>2018-04-11T09:13:07Z</time>
      </trkpt>
      <trkpt lat="47.68586" lon="5.98873">
        <ele>246.26</ele>
        <time>2018-04-11T09:13:09Z</time>
      </trkpt>
      <trkpt lat="47.68591" lon="5.98877">
        <ele>246.34</ele>
        <time>2018-04-11T09:13:11Z</time>
      </trkpt>
      <trkpt lat="47.68594" lon="5.98885">
        <ele>246.46</ele>
        <time>2018-04-11T09:13:14Z</time>
      </trkpt>
      <trkpt lat="47.68599" lon="5.98892">
        <ele>246.53</ele>
        <time>2018-04-11T09:13:16Z</time>
      </trkpt>
      <trkpt lat="47.68605" lon="5.98898">
        <ele>246.61</ele>
        <time>2018-04-11T09:13:18Z</time>
      </trkpt>
      <trkpt lat="47.68611" lon="5.98903">
        <ele>246.69</ele>
        <time>2018-04-11T09:13:20Z</time>
      </trkpt>
      <trkpt lat="47.68616" lon="5.98907">
        <ele>246.8</ele>
        <time>2018-04-11T09:13:23Z</time>
      </trkpt>
      <trkpt lat="47.68622" lon="5.98912">
        <ele>246.91</ele>
        <time>2018-04-11T09:13:26Z</time>
      </trkpt>
      <trkpt lat="47.68626" lon="5.98916">
        <ele>246.98</ele>
        <time>2018-04-11T09:13:28Z</time>
      </trkpt>
      <trkpt lat="47.6863" lon="5.98921">
        <ele>247.05</ele>
        <time>2018-04-11T09:13:30Z</time>
      </trkpt>
      <trkpt lat="47.68634" lon="5.98927">
        <ele>247.12</ele>
        <time>2018-04-11T09:13:31Z</time>
      </trkpt>
      <trkpt lat="47.68638" lon="5.98933">
        <ele>247.19</ele>
        <time>2018-04-11T09:13:33Z</time>
      </trkpt>
      <trkpt lat="47.68642" lon="5.98939">
        <ele>247.26</ele>
        <time>2018-04-11T09:13:35Z</time>
      </trkpt>
      <trkpt lat="47.68646" lon="5.98945">
        <ele>247.33</ele>
        <time>2018-04-11T09:13:37Z</time>
      </trkpt>
      <trkpt lat="47.6865" lon="5.98951">
        <ele>247.4</ele>
        <time>2018-04-11T09:13:39Z</time>
      </trkpt>
      <trkpt lat="47.68653" lon="5.98955">
        <ele>247.47</ele>
        <time>2018-04-11T09:13:41Z</time>
      </trkpt>
      <trkpt lat="47.68656" lon="5.98963">
        <ele>247.57</ele>
        <time>2018-04-11T09:13:44Z</time>
      </trkpt>
      <trkpt lat="47.6866" lon="5.98969">
        <ele>247.64</ele>
        <time>2018-04-11T09:13:46Z</time>
      </trkpt>
      <trkpt lat="47.68664" lon="5.98974">
        <ele>247.7</ele>
        <time>2018-04-11T09:13:48Z</time>
      </trkpt>
      <trkpt lat="47.68668" lon="5.98979">
        <ele>247.77</ele>
        <time>2018-04-11T09:13:50Z</time>
      </trkpt>
      <trkpt lat="47.68672" lon="5.98984">
        <ele>247.84</ele>
        <time>2018-04-11T09:13:52Z</time>
      </trkpt>
      <trkpt lat="47.68676" lon="5.98989">
        <ele>247.91</ele>
        <time>2018-04-11T09:13:54Z</time>
      </trkpt>
      <trkpt lat="47.6868" lon="5.98994">
        <ele>247.97</ele>
        <time>2018-04-11T09:13:56Z</time>
      </trkpt>
      <trkpt lat="47.68685" lon="5.98998">
        <ele>248.05</ele>
        <time>2018-04-11T09:13:58Z</time>
      </trkpt>
      <trkpt lat="47.6869" lon="5.99">
        <ele>248.13</ele>
        <time>2018-04-11T09:14:00Z</time>
      </trkpt>
      <trkpt lat="47.68695" lon="5.99003">
        <ele>248.21</ele>
        <time>2018-04-11T09:14:02Z</time>
      </trkpt>
      <trkpt lat="47.687" lon="5.99006">
        <ele>248.3</ele>
        <time>2018-04-11T09:14:04Z</time>
      </trkpt>
      <trkpt lat="47.68705" lon="5.99009">
        <ele>248.38</ele>
        <time>2018-04-11T09:14:06Z</time>
      </trkpt>
      <trkpt lat="47.6871" lon="5.99015">
        <ele>248.51</ele>
        <time>2018-04-11T09:14:09Z</time>
      </trkpt>
      <trkpt lat="47.68714" lon="5.99019">
        <ele>248.59</ele>
        <time>2018-04-11T09:14:11Z</time>
      </trkpt>
      <trkpt lat="47.68719" lon="5.99023">
        <ele>248.68</ele>
        <time>2018-04-11T09:14:13Z</time>
      </trkpt>
      <trkpt lat="47.68723" lon="5.99025">
        <ele>248.76</ele>
        <time>2018-04-11T09:14:15Z</time>
      </trkpt>
      <trkpt lat="47.68728" lon="5.99029">
        <ele>248.83</ele>
        <time>2018-04-11T09:14:17Z</time>
      </trkpt>
      <trkpt lat="47.68732" lon="5.99033">
        <ele>248.91</ele>
        <time>2018-04-11T09:14:19Z</time>
      </trkpt>
      <trkpt lat="47.68736" lon="5.99037">
        <ele>248.99</ele>
        <time>2018-04-11T09:14:21Z</time>
      </trkpt>
      <trkpt lat="47.6874" lon="5.99042">
        <ele>249.06</ele>
        <time>2018-04-11T09:14:23Z</time>
      </trkpt>
      <trkpt lat="47.68745" lon="5.99048">
        <ele>249.13</ele>
        <time>2018-04-11T09:14:25Z</time>
      </trkpt>
      <trkpt lat="47.6875" lon="5.99052">
        <ele>249.21</ele>
        <time>2018-04-11T09:14:27Z</time>
      </trkpt>
      <trkpt lat="47.68754" lon="5.99055">
        <ele>249.28</ele>
        <time>2018-04-11T09:14:29Z</time>
      </trkpt>
      <trkpt lat="47.68758" lon="5.99059">
        <ele>249.35</ele>
        <time>2018-04-11T09:14:31Z</time>
      </trkpt>
      <trkpt lat="47.68762" lon="5.99063">
        <ele>249.42</ele>
        <time>2018-04-11T09:14:33Z</time>
      </trkpt>
      <trkpt lat="47.68767" lon="5.99067">
        <ele>249.48</ele>
        <time>2018-04-11T09:14:35Z</time>
      </trkpt>
      <trkpt lat="47.68771" lon="5.99072">
        <ele>249.55</ele>
        <time>2018-04-11T09:14:37Z</time>
      </trkpt>
      <trkpt lat="47.68776" lon="5.99076">
        <ele>249.61</ele>
        <time>2018-04-11T09:14:39Z</time>
      </trkpt>
      <trkpt lat="47.6878" lon="5.99079">
        <ele>249.68</ele>
        <time>2018-04-11T09:14:41Z</time>
      </trkpt>
      <trkpt lat="47.68785" lon="5.99084">
        <ele>249.74</ele>
        <time>2018-04-11T09:14:43Z</time>
      </trkpt>
      <trkpt lat="47.6879" lon="5.99089">
        <ele>249.81</ele>
        <time>2018-04-11T09:14:45Z</time>
      </trkpt>
      <trkpt lat="47.68794" lon="5.99093">
        <ele>249.87</ele>
        <time>2018-04-11T09:14:47Z</time>
      </trkpt>
      <trkpt lat="47.68797" lon="5.99099">
        <ele>249.93</ele>
        <time>2018-04-11T09:14:49Z</time>
      </trkpt>
      <trkpt lat="47.68802" lon="5.99103">
        <ele>249.99</ele>
        <time>2018-04-11T09:14:51Z</time>
      </trkpt>
      <trkpt lat="47.68807" lon="5.99108">
        <ele>250.05</ele>
        <time>2018-04-11T09:14:53Z</time>
      </trkpt>
      <trkpt lat="47.68811" lon="5.99113">
        <ele>250.11</ele>
        <time>2018-04-11T09:14:55Z</time>
      </trkpt>
      <trkpt lat="47.68815" lon="5.99118">
        <ele>250.16</ele>
        <time>2018-04-11T09:14:57Z</time>
      </trkpt>
      <trkpt lat="47.68819" lon="5.99126">
        <ele>250.22</ele>
        <time>2018-04-11T09:15:00Z</time>
      </trkpt>
      <trkpt lat="47.68822" lon="5.99133">
        <ele>250.23</ele>
        <time>2018-04-11T09:15:02Z</time>
      </trkpt>
      <trkpt lat="47.68825" lon="5.99138">
        <ele>250.24</ele>
        <time>2018-04-11T09:15:04Z</time>
      </trkpt>
      <trkpt lat="47.68829" lon="5.99146">
        <ele>250.26</ele>
        <time>2018-04-11T09:15:07Z</time>
      </trkpt>
      <trkpt lat="47.68832" lon="5.99153">
        <ele>250.28</ele>
        <time>2018-04-11T09:15:09Z</time>
      </trkpt>
      <trkpt lat="47.68836" lon="5.99158">
        <ele>250.27</ele>
        <time>2018-04-11T09:15:11Z</time>
      </trkpt>
      <trkpt lat="47.68839" lon="5.99164">
        <ele>250.26</ele>
        <time>2018-04-11T09:15:13Z</time>
      </trkpt>
      <trkpt lat="47.68842" lon="5.9917">
        <ele>250.27</ele>
        <time>2018-04-11T09:15:15Z</time>
      </trkpt>
      <trkpt lat="47.68845" lon="5.99176">
        <ele>250.29</ele>
        <time>2018-04-11T09:15:17Z</time>
      </trkpt>
      <trkpt lat="47.68849" lon="5.99181">
        <ele>250.34</ele>
        <time>2018-04-11T09:15:19Z</time>
      </trkpt>
      <trkpt lat="47.68853" lon="5.99186">
        <ele>250.4</ele>
        <time>2018-04-11T09:15:21Z</time>
      </trkpt>
      <trkpt lat="47.68857" lon="5.99192">
        <ele>250.46</ele>
        <time>2018-04-11T09:15:23Z</time>
      </trkpt>
      <trkpt lat="47.68862" lon="5.99198">
        <ele>250.54</ele>
        <time>2018-04-11T09:15:25Z</time>
      </trkpt>
      <trkpt lat="47.68866" lon="5.99202">
        <ele>250.64</ele>
        <time>2018-04-11T09:15:27Z</time>
      </trkpt>
      <trkpt lat="47.6887" lon="5.99209">
        <ele>250.78</ele>
        <time>2018-04-11T09:15:29Z</time>
      </trkpt>
      <trkpt lat="47.68874" lon="5.99214">
        <ele>250.97</ele>
        <time>2018-04-11T09:15:31Z</time>
      </trkpt>
      <trkpt lat="47.68878" lon="5.99218">
        <ele>251.2</ele>
        <time>2018-04-11T09:15:33Z</time>
      </trkpt>
      <trkpt lat="47.68883" lon="5.99223">
        <ele>251.46</ele>
        <time>2018-04-11T09:15:35Z</time>
      </trkpt>
      <trkpt lat="47.68887" lon="5.9923">
        <ele>251.75</ele>
        <time>2018-04-11T09:15:37Z</time>
      </trkpt>
      <trkpt lat="47.68892" lon="5.99234">
        <ele>252.06</ele>
        <time>2018-04-11T09:15:39Z</time>
      </trkpt>
      <trkpt lat="47.68897" lon="5.99239">
        <ele>252.54</ele>
        <time>2018-04-11T09:15:42Z</time>
      </trkpt>
      <trkpt lat="47.68901" lon="5.99243">
        <ele>252.89</ele>
        <time>2018-04-11T09:15:44Z</time>
      </trkpt>
      <trkpt lat="47.68904" lon="5.9925">
        <ele>253.43</ele>
        <time>2018-04-11T09:15:47Z</time>
      </trkpt>
      <trkpt lat="47.68908" lon="5.99257">
        <ele>253.99</ele>
        <time>2018-04-11T09:15:50Z</time>
      </trkpt>
      <trkpt lat="47.68914" lon="5.99263">
        <ele>254.6</ele>
        <time>2018-04-11T09:15:53Z</time>
      </trkpt>
      <trkpt lat="47.68917" lon="5.99268">
        <ele>255.01</ele>
        <time>2018-04-11T09:15:55Z</time>
      </trkpt>
      <trkpt lat="47.68921" lon="5.99273">
        <ele>255.42</ele>
        <time>2018-04-11T09:15:57Z</time>
      </trkpt>
      <trkpt lat="47.68925" lon="5.99279">
        <ele>255.84</ele>
        <time>2018-04-11T09:15:59Z</time>
      </trkpt>
      <trkpt lat="47.68928" lon="5.99283">
        <ele>256.25</ele>
        <time>2018-04-11T09:16:01Z</time>
      </trkpt>
      <trkpt lat="47.68932" lon="5.99289">
        <ele>256.68</ele>
        <time>2018-04-11T09:16:03Z</time>
      </trkpt>
      <trkpt lat="47.68936" lon="5.99295">
        <ele>257.54</ele>
        <time>2018-04-11T09:16:07Z</time>
      </trkpt>
      <trkpt lat="47.68941" lon="5.99301">
        <ele>258.18</ele>
        <time>2018-04-11T09:16:10Z</time>
      </trkpt>
      <trkpt lat="47.68946" lon="5.99305">
        <ele>258.83</ele>
        <time>2018-04-11T09:16:13Z</time>
      </trkpt>
      <trkpt lat="47.68952" lon="5.99309">
        <ele>259.46</ele>
        <time>2018-04-11T09:16:16Z</time>
      </trkpt>
      <trkpt lat="47.68956" lon="5.99312">
        <ele>259.88</ele>
        <time>2018-04-11T09:16:18Z</time>
      </trkpt>
      <trkpt lat="47.68961" lon="5.99317">
        <ele>260.51</ele>
        <time>2018-04-11T09:16:21Z</time>
      </trkpt>
      <trkpt lat="47.68966" lon="5.99322">
        <ele>261.13</ele>
        <time>2018-04-11T09:16:24Z</time>
      </trkpt>
      <trkpt lat="47.68973" lon="5.99324">
        <ele>261.73</ele>
        <time>2018-04-11T09:16:27Z</time>
      </trkpt>
      <trkpt lat="47.68977" lon="5.99327">
        <ele>262.13</ele>
        <time>2018-04-11T09:16:29Z</time>
      </trkpt>
      <trkpt lat="47.68983" lon="5.99329">
        <ele>262.52</ele>
        <time>2018-04-11T09:16:31Z</time>
      </trkpt>
      <trkpt lat="47.68989" lon="5.99331">
        <ele>262.9</ele>
        <time>2018-04-11T09:16:33Z</time>
      </trkpt>
      <trkpt lat="47.68994" lon="5.99334">
        <ele>263.28</ele>
        <time>2018-04-11T09:16:35Z</time>
      </trkpt>
      <trkpt lat="47.69" lon="5.99337">
        <ele>263.65</ele>
        <time>2018-04-11T09:16:37Z</time>
      </trkpt>
      <trkpt lat="47.69004" lon="5.99342">
        <ele>264.09</ele>
        <time>2018-04-11T09:16:40Z</time>
      </trkpt>
      <trkpt lat="47.69009" lon="5.99343">
        <ele>265.3</ele>
        <time>2018-04-11T09:17:12Z</time>
      </trkpt>
      <trkpt lat="47.69015" lon="5.99344">
        <ele>265.82</ele>
        <time>2018-04-11T09:17:15Z</time>
      </trkpt>
      <trkpt lat="47.69021" lon="5.9934">
        <ele>266.15</ele>
        <time>2018-04-11T09:17:17Z</time>
      </trkpt>
      <trkpt lat="47.69025" lon="5.99335">
        <ele>266.48</ele>
        <time>2018-04-11T09:17:19Z</time>
      </trkpt>
      <trkpt lat="47.69028" lon="5.99329">
        <ele>266.8</ele>
        <time>2018-04-11T09:17:21Z</time>
      </trkpt>
      <trkpt lat="47.69032" lon="5.99322">
        <ele>267.26</ele>
        <time>2018-04-11T09:17:24Z</time>
      </trkpt>
      <trkpt lat="47.69035" lon="5.99315">
        <ele>267.56</ele>
        <time>2018-04-11T09:17:26Z</time>
      </trkpt>
      <trkpt lat="47.69038" lon="5.9931">
        <ele>267.86</ele>
        <time>2018-04-11T09:17:28Z</time>
      </trkpt>
      <trkpt lat="47.69042" lon="5.99302">
        <ele>268.3</ele>
        <time>2018-04-11T09:17:31Z</time>
      </trkpt>
      <trkpt lat="47.69045" lon="5.99296">
        <ele>268.73</ele>
        <time>2018-04-11T09:17:34Z</time>
      </trkpt>
      <trkpt lat="47.69048" lon="5.9929">
        <ele>269.15</ele>
        <time>2018-04-11T09:17:37Z</time>
      </trkpt>
      <trkpt lat="47.69051" lon="5.99282">
        <ele>269.56</ele>
        <time>2018-04-11T09:17:40Z</time>
      </trkpt>
      <trkpt lat="47.69053" lon="5.99276">
        <ele>269.97</ele>
        <time>2018-04-11T09:17:43Z</time>
      </trkpt>
      <trkpt lat="47.69056" lon="5.99269">
        <ele>270.37</ele>
        <time>2018-04-11T09:17:46Z</time>
      </trkpt>
      <trkpt lat="47.69059" lon="5.99262">
        <ele>270.77</ele>
        <time>2018-04-11T09:17:49Z</time>
      </trkpt>
      <trkpt lat="47.69062" lon="5.99256">
        <ele>271.02</ele>
        <time>2018-04-11T09:17:51Z</time>
      </trkpt>
      <trkpt lat="47.69066" lon="5.99249">
        <ele>271.27</ele>
        <time>2018-04-11T09:17:53Z</time>
      </trkpt>
      <trkpt lat="47.69069" lon="5.99242">
        <ele>271.51</ele>
        <time>2018-04-11T09:17:55Z</time>
      </trkpt>
      <trkpt lat="47.69072" lon="5.99236">
        <ele>271.74</ele>
        <time>2018-04-11T09:17:57Z</time>
      </trkpt>
      <trkpt lat="47.69075" lon="5.99229">
        <ele>271.97</ele>
        <time>2018-04-11T09:17:59Z</time>
      </trkpt>
      <trkpt lat="47.69078" lon="5.99221">
        <ele>272.19</ele>
        <time>2018-04-11T09:18:01Z</time>
      </trkpt>
      <trkpt lat="47.69083" lon="5.99214">
        <ele>272.5</ele>
        <time>2018-04-11T09:18:04Z</time>
      </trkpt>
      <trkpt lat="47.69086" lon="5.99206">
        <ele>272.7</ele>
        <time>2018-04-11T09:18:06Z</time>
      </trkpt>
      <trkpt lat="47.69089" lon="5.99199">
        <ele>272.9</ele>
        <time>2018-04-11T09:18:08Z</time>
      </trkpt>
      <trkpt lat="47.69092" lon="5.99193">
        <ele>273.1</ele>
        <time>2018-04-11T09:18:10Z</time>
      </trkpt>
      <trkpt lat="47.69095" lon="5.99187">
        <ele>273.29</ele>
        <time>2018-04-11T09:18:12Z</time>
      </trkpt>
      <trkpt lat="47.69098" lon="5.9918">
        <ele>273.48</ele>
        <time>2018-04-11T09:18:14Z</time>
      </trkpt>
      <trkpt lat="47.69102" lon="5.99173">
        <ele>273.67</ele>
        <time>2018-04-11T09:18:16Z</time>
      </trkpt>
      <trkpt lat="47.69105" lon="5.99164">
        <ele>273.86</ele>
        <time>2018-04-11T09:18:18Z</time>
      </trkpt>
      <trkpt lat="47.69107" lon="5.99156">
        <ele>274.04</ele>
        <time>2018-04-11T09:18:20Z</time>
      </trkpt>
      <trkpt lat="47.69111" lon="5.99149">
        <ele>274.22</ele>
        <time>2018-04-11T09:18:22Z</time>
      </trkpt>
      <trkpt lat="47.69114" lon="5.99142">
        <ele>274.39</ele>
        <time>2018-04-11T09:18:24Z</time>
      </trkpt>
      <trkpt lat="47.69116" lon="5.99136">
        <ele>274.57</ele>
        <time>2018-04-11T09:18:26Z</time>
      </trkpt>
      <trkpt lat="47.69119" lon="5.99128">
        <ele>274.73</ele>
        <time>2018-04-11T09:18:28Z</time>
      </trkpt>
      <trkpt lat="47.69122" lon="5.99121">
        <ele>274.9</ele>
        <time>2018-04-11T09:18:30Z</time>
      </trkpt>
      <trkpt lat="47.69125" lon="5.99114">
        <ele>275.06</ele>
        <time>2018-04-11T09:18:32Z</time>
      </trkpt>
      <trkpt lat="47.69128" lon="5.99106">
        <ele>275.22</ele>
        <time>2018-04-11T09:18:34Z</time>
      </trkpt>
      <trkpt lat="47.69131" lon="5.99098">
        <ele>275.38</ele>
        <time>2018-04-11T09:18:36Z</time>
      </trkpt>
      <trkpt lat="47.69134" lon="5.99091">
        <ele>275.54</ele>
        <time>2018-04-11T09:18:38Z</time>
      </trkpt>
      <trkpt lat="47.69137" lon="5.99082">
        <ele>275.76</ele>
        <time>2018-04-11T09:18:41Z</time>
      </trkpt>
      <trkpt lat="47.6914" lon="5.99076">
        <ele>275.92</ele>
        <time>2018-04-11T09:18:43Z</time>
      </trkpt>
      <trkpt lat="47.69142" lon="5.99068">
        <ele>276.08</ele>
        <time>2018-04-11T09:18:45Z</time>
      </trkpt>
      <trkpt lat="47.69144" lon="5.99061">
        <ele>276.24</ele>
        <time>2018-04-11T09:18:47Z</time>
      </trkpt>
      <trkpt lat="47.69146" lon="5.99055">
        <ele>276.4</ele>
        <time>2018-04-11T09:18:49Z</time>
      </trkpt>
      <trkpt lat="47.69149" lon="5.99048">
        <ele>276.56</ele>
        <time>2018-04-11T09:18:51Z</time>
      </trkpt>
      <trkpt lat="47.69152" lon="5.9904">
        <ele>276.73</ele>
        <time>2018-04-11T09:18:53Z</time>
      </trkpt>
      <trkpt lat="47.69157" lon="5.99032">
        <ele>276.89</ele>
        <time>2018-04-11T09:18:55Z</time>
      </trkpt>
      <trkpt lat="47.69162" lon="5.99023">
        <ele>277.06</ele>
        <time>2018-04-11T09:18:57Z</time>
      </trkpt>
      <trkpt lat="47.69165" lon="5.99017">
        <ele>277.23</ele>
        <time>2018-04-11T09:18:59Z</time>
      </trkpt>
      <trkpt lat="47.6917" lon="5.9901">
        <ele>277.48</ele>
        <time>2018-04-11T09:19:02Z</time>
      </trkpt>
      <trkpt lat="47.69174" lon="5.99005">
        <ele>277.73</ele>
        <time>2018-04-11T09:19:05Z</time>
      </trkpt>
      <trkpt lat="47.69176" lon="5.99012">
        <ele>283.18</ele>
        <time>2018-04-11T09:21:38Z</time>
      </trkpt>
      <trkpt lat="47.69181" lon="5.99017">
        <ele>283.8</ele>
        <time>2018-04-11T09:21:41Z</time>
      </trkpt>
      <trkpt lat="47.69185" lon="5.99021">
        <ele>284.2</ele>
        <time>2018-04-11T09:21:43Z</time>
      </trkpt>
      <trkpt lat="47.6919" lon="5.99027">
        <ele>284.76</ele>
        <time>2018-04-11T09:21:46Z</time>
      </trkpt>
      <trkpt lat="47.69194" lon="5.99032">
        <ele>285.3</ele>
        <time>2018-04-11T09:21:49Z</time>
      </trkpt>
      <trkpt lat="47.69199" lon="5.99036">
        <ele>285.64</ele>
        <time>2018-04-11T09:21:51Z</time>
      </trkpt>
      <trkpt lat="47.69204" lon="5.99041">
        <ele>286.13</ele>
        <time>2018-04-11T09:21:54Z</time>
      </trkpt>
      <trkpt lat="47.69208" lon="5.99046">
        <ele>286.44</ele>
        <time>2018-04-11T09:21:56Z</time>
      </trkpt>
      <trkpt lat="47.69213" lon="5.99051">
        <ele>286.74</ele>
        <time>2018-04-11T09:21:58Z</time>
      </trkpt>
      <trkpt lat="47.69219" lon="5.99056">
        <ele>287.03</ele>
        <time>2018-04-11T09:22:00Z</time>
      </trkpt>
      <trkpt lat="47.69224" lon="5.99059">
        <ele>287.31</ele>
        <time>2018-04-11T09:22:02Z</time>
      </trkpt>
      <trkpt lat="47.6923" lon="5.99063">
        <ele>287.58</ele>
        <time>2018-04-11T09:22:04Z</time>
      </trkpt>
      <trkpt lat="47.69235" lon="5.99066">
        <ele>287.84</ele>
        <time>2018-04-11T09:22:06Z</time>
      </trkpt>
      <trkpt lat="47.6924" lon="5.99071">
        <ele>288.09</ele>
        <time>2018-04-11T09:22:08Z</time>
      </trkpt>
      <trkpt lat="47.69244" lon="5.99075">
        <ele>288.33</ele>
        <time>2018-04-11T09:22:10Z</time>
      </trkpt>
      <trkpt lat="47.69249" lon="5.9908">
        <ele>288.68</ele>
        <time>2018-04-11T09:22:13Z</time>
      </trkpt>
      <trkpt lat="47.69253" lon="5.99084">
        <ele>289.02</ele>
        <time>2018-04-11T09:22:16Z</time>
      </trkpt>
      <trkpt lat="47.69257" lon="5.99088">
        <ele>289.34</ele>
        <time>2018-04-11T09:22:19Z</time>
      </trkpt>
      <trkpt lat="47.69261" lon="5.99095">
        <ele>289.65</ele>
        <time>2018-04-11T09:22:22Z</time>
      </trkpt>
      <trkpt lat="47.69267" lon="5.991">
        <ele>289.95</ele>
        <time>2018-04-11T09:22:25Z</time>
      </trkpt>
      <trkpt lat="47.69272" lon="5.99103">
        <ele>290.15</ele>
        <time>2018-04-11T09:22:27Z</time>
      </trkpt>
      <trkpt lat="47.69277" lon="5.99106">
        <ele>290.33</ele>
        <time>2018-04-11T09:22:29Z</time>
      </trkpt>
      <trkpt lat="47.69281" lon="5.99108">
        <ele>290.52</ele>
        <time>2018-04-11T09:22:31Z</time>
      </trkpt>
      <trkpt lat="47.69287" lon="5.99112">
        <ele>290.79</ele>
        <time>2018-04-11T09:22:34Z</time>
      </trkpt>
      <trkpt lat="47.69291" lon="5.99115">
        <ele>291.05</ele>
        <time>2018-04-11T09:22:37Z</time>
      </trkpt>
      <trkpt lat="47.69295" lon="5.99119">
        <ele>291.31</ele>
        <time>2018-04-11T09:22:40Z</time>
      </trkpt>
      <trkpt lat="47.69299" lon="5.99122">
        <ele>291.55</ele>
        <time>2018-04-11T09:22:43Z</time>
      </trkpt>
      <trkpt lat="47.69303" lon="5.99127">
        <ele>291.79</ele>
        <time>2018-04-11T09:22:46Z</time>
      </trkpt>
      <trkpt lat="47.69308" lon="5.99133">
        <ele>292.03</ele>
        <time>2018-04-11T09:22:49Z</time>
      </trkpt>
      <trkpt lat="47.69312" lon="5.99135">
        <ele>292.26</ele>
        <time>2018-04-11T09:22:52Z</time>
      </trkpt>
      <trkpt lat="47.69317" lon="5.9914">
        <ele>292.56</ele>
        <time>2018-04-11T09:22:56Z</time>
      </trkpt>
      <trkpt lat="47.69322" lon="5.99144">
        <ele>292.79</ele>
        <time>2018-04-11T09:22:59Z</time>
      </trkpt>
      <trkpt lat="47.69327" lon="5.99149">
        <ele>293</ele>
        <time>2018-04-11T09:23:02Z</time>
      </trkpt>
      <trkpt lat="47.69332" lon="5.99154">
        <ele>293.21</ele>
        <time>2018-04-11T09:23:05Z</time>
      </trkpt>
      <trkpt lat="47.69336" lon="5.99155">
        <ele>293.34</ele>
        <time>2018-04-11T09:23:07Z</time>
      </trkpt>
      <trkpt lat="47.69341" lon="5.9916">
        <ele>293.46</ele>
        <time>2018-04-11T09:23:09Z</time>
      </trkpt>
      <trkpt lat="47.69346" lon="5.99165">
        <ele>293.59</ele>
        <time>2018-04-11T09:23:11Z</time>
      </trkpt>
      <trkpt lat="47.69351" lon="5.99167">
        <ele>293.71</ele>
        <time>2018-04-11T09:23:13Z</time>
      </trkpt>
      <trkpt lat="47.69356" lon="5.99171">
        <ele>293.89</ele>
        <time>2018-04-11T09:23:16Z</time>
      </trkpt>
      <trkpt lat="47.69362" lon="5.99176">
        <ele>294.05</ele>
        <time>2018-04-11T09:23:19Z</time>
      </trkpt>
      <trkpt lat="47.69367" lon="5.99181">
        <ele>294.22</ele>
        <time>2018-04-11T09:23:22Z</time>
      </trkpt>
      <trkpt lat="47.69372" lon="5.99184">
        <ele>294.32</ele>
        <time>2018-04-11T09:23:24Z</time>
      </trkpt>
      <trkpt lat="47.69378" lon="5.99187">
        <ele>294.43</ele>
        <time>2018-04-11T09:23:26Z</time>
      </trkpt>
      <trkpt lat="47.69383" lon="5.99189">
        <ele>294.53</ele>
        <time>2018-04-11T09:23:28Z</time>
      </trkpt>
      <trkpt lat="47.69388" lon="5.99192">
        <ele>294.63</ele>
        <time>2018-04-11T09:23:30Z</time>
      </trkpt>
      <trkpt lat="47.69393" lon="5.99194">
        <ele>294.73</ele>
        <time>2018-04-11T09:23:32Z</time>
      </trkpt>
      <trkpt lat="47.69398" lon="5.99198">
        <ele>294.88</ele>
        <time>2018-04-11T09:23:35Z</time>
      </trkpt>
      <trkpt lat="47.69402" lon="5.99203">
        <ele>295.07</ele>
        <time>2018-04-11T09:23:39Z</time>
      </trkpt>
      <trkpt lat="47.69407" lon="5.99208">
        <ele>295.22</ele>
        <time>2018-04-11T09:23:42Z</time>
      </trkpt>
      <trkpt lat="47.69414" lon="5.99212">
        <ele>295.31</ele>
        <time>2018-04-11T09:23:44Z</time>
      </trkpt>
      <trkpt lat="47.69419" lon="5.99218">
        <ele>295.45</ele>
        <time>2018-04-11T09:23:47Z</time>
      </trkpt>
      <trkpt lat="47.69424" lon="5.99222">
        <ele>295.54</ele>
        <time>2018-04-11T09:23:49Z</time>
      </trkpt>
      <trkpt lat="47.69428" lon="5.99224">
        <ele>295.63</ele>
        <time>2018-04-11T09:23:51Z</time>
      </trkpt>
      <trkpt lat="47.69432" lon="5.99229">
        <ele>295.72</ele>
        <time>2018-04-11T09:23:53Z</time>
      </trkpt>
      <trkpt lat="47.69438" lon="5.99235">
        <ele>295.85</ele>
        <time>2018-04-11T09:23:56Z</time>
      </trkpt>
      <trkpt lat="47.69443" lon="5.9924">
        <ele>295.97</ele>
        <time>2018-04-11T09:23:59Z</time>
      </trkpt>
      <trkpt lat="47.69447" lon="5.99244">
        <ele>296.06</ele>
        <time>2018-04-11T09:24:01Z</time>
      </trkpt>
      <trkpt lat="47.69453" lon="5.99248">
        <ele>296.14</ele>
        <time>2018-04-11T09:24:03Z</time>
      </trkpt>
      <trkpt lat="47.69458" lon="5.99251">
        <ele>296.22</ele>
        <time>2018-04-11T09:24:05Z</time>
      </trkpt>
      <trkpt lat="47.69462" lon="5.99253">
        <ele>296.3</ele>
        <time>2018-04-11T09:24:07Z</time>
      </trkpt>
      <trkpt lat="47.69467" lon="5.99251">
        <ele>296.41</ele>
        <time>2018-04-11T09:24:10Z</time>
      </trkpt>
      <trkpt lat="47.6947" lon="5.99255">
        <ele>296.53</ele>
        <time>2018-04-11T09:24:13Z</time>
      </trkpt>
      <trkpt lat="47.69474" lon="5.99258">
        <ele>296.82</ele>
        <time>2018-04-11T09:24:37Z</time>
      </trkpt>
      <trkpt lat="47.69478" lon="5.99263">
        <ele>297.07</ele>
        <time>2018-04-11T09:24:43Z</time>
      </trkpt>
      <trkpt lat="47.69482" lon="5.99266">
        <ele>297.24</ele>
        <time>2018-04-11T09:24:47Z</time>
      </trkpt>
      <trkpt lat="47.69488" lon="5.99266">
        <ele>297.44</ele>
        <time>2018-04-11T09:24:52Z</time>
      </trkpt>
      <trkpt lat="47.69494" lon="5.99266">
        <ele>297.55</ele>
        <time>2018-04-11T09:24:55Z</time>
      </trkpt>
      <trkpt lat="47.69502" lon="5.99268">
        <ele>297.63</ele>
        <time>2018-04-11T09:24:57Z</time>
      </trkpt>
      <trkpt lat="47.69507" lon="5.9927">
        <ele>297.71</ele>
        <time>2018-04-11T09:24:59Z</time>
      </trkpt>
      <trkpt lat="47.69512" lon="5.99276">
        <ele>297.82</ele>
        <time>2018-04-11T09:25:02Z</time>
      </trkpt>
      <trkpt lat="47.69516" lon="5.99282">
        <ele>297.97</ele>
        <time>2018-04-11T09:25:06Z</time>
      </trkpt>
      <trkpt lat="47.69521" lon="5.99289">
        <ele>298.07</ele>
        <time>2018-04-11T09:25:09Z</time>
      </trkpt>
      <trkpt lat="47.69524" lon="5.99294">
        <ele>298.18</ele>
        <time>2018-04-11T09:25:12Z</time>
      </trkpt>
      <trkpt lat="47.69529" lon="5.99299">
        <ele>298.32</ele>
        <time>2018-04-11T09:25:16Z</time>
      </trkpt>
      <trkpt lat="47.69532" lon="5.99305">
        <ele>298.46</ele>
        <time>2018-04-11T09:25:20Z</time>
      </trkpt>
      <trkpt lat="47.69535" lon="5.9931">
        <ele>298.53</ele>
        <time>2018-04-11T09:25:28Z</time>
      </trkpt>
      <trkpt lat="47.69538" lon="5.99316">
        <ele>298.77</ele>
        <time>2018-04-11T09:25:38Z</time>
      </trkpt>
      <trkpt lat="47.69542" lon="5.99321">
        <ele>298.89</ele>
        <time>2018-04-11T09:25:41Z</time>
      </trkpt>
      <trkpt lat="47.69547" lon="5.99326">
        <ele>299.01</ele>
        <time>2018-04-11T09:25:44Z</time>
      </trkpt>
      <trkpt lat="47.6955" lon="5.99332">
        <ele>299.09</ele>
        <time>2018-04-11T09:25:46Z</time>
      </trkpt>
      <trkpt lat="47.69554" lon="5.99337">
        <ele>299.21</ele>
        <time>2018-04-11T09:25:49Z</time>
      </trkpt>
      <trkpt lat="47.69557" lon="5.99343">
        <ele>299.33</ele>
        <time>2018-04-11T09:25:52Z</time>
      </trkpt>
      <trkpt lat="47.69561" lon="5.99347">
        <ele>299.46</ele>
        <time>2018-04-11T09:25:55Z</time>
      </trkpt>
      <trkpt lat="47.69566" lon="5.99352">
        <ele>299.59</ele>
        <time>2018-04-11T09:25:58Z</time>
      </trkpt>
      <trkpt lat="47.69569" lon="5.99358">
        <ele>299.76</ele>
        <time>2018-04-11T09:26:02Z</time>
      </trkpt>
      <trkpt lat="47.69573" lon="5.99363">
        <ele>299.94</ele>
        <time>2018-04-11T09:26:06Z</time>
      </trkpt>
      <trkpt lat="47.69576" lon="5.99369">
        <ele>300.07</ele>
        <time>2018-04-11T09:26:09Z</time>
      </trkpt>
      <trkpt lat="47.69579" lon="5.99376">
        <ele>300.2</ele>
        <time>2018-04-11T09:26:12Z</time>
      </trkpt>
      <trkpt lat="47.69582" lon="5.99383">
        <ele>300.38</ele>
        <time>2018-04-11T09:26:16Z</time>
      </trkpt>
      <trkpt lat="47.69585" lon="5.99388">
        <ele>300.51</ele>
        <time>2018-04-11T09:26:19Z</time>
      </trkpt>
      <trkpt lat="47.69589" lon="5.99394">
        <ele>300.64</ele>
        <time>2018-04-11T09:26:22Z</time>
      </trkpt>
      <trkpt lat="47.69592" lon="5.994">
        <ele>300.77</ele>
        <time>2018-04-11T09:26:25Z</time>
      </trkpt>
      <trkpt lat="47.69595" lon="5.99407">
        <ele>300.85</ele>
        <time>2018-04-11T09:26:27Z</time>
      </trkpt>
      <trkpt lat="47.696" lon="5.99413">
        <ele>301.03</ele>
        <time>2018-04-11T09:26:31Z</time>
      </trkpt>
      <trkpt lat="47.69603" lon="5.99418">
        <ele>301.12</ele>
        <time>2018-04-11T09:26:33Z</time>
      </trkpt>
      <trkpt lat="47.69607" lon="5.99425">
        <ele>301.25</ele>
        <time>2018-04-11T09:26:36Z</time>
      </trkpt>
      <trkpt lat="47.6961" lon="5.9943">
        <ele>301.43</ele>
        <time>2018-04-11T09:26:40Z</time>
      </trkpt>
      <trkpt lat="47.69615" lon="5.99435">
        <ele>301.56</ele>
        <time>2018-04-11T09:26:43Z</time>
      </trkpt>
      <trkpt lat="47.69618" lon="5.99439">
        <ele>301.65</ele>
        <time>2018-04-11T09:26:45Z</time>
      </trkpt>
      <trkpt lat="47.69622" lon="5.99444">
        <ele>301.83</ele>
        <time>2018-04-11T09:26:49Z</time>
      </trkpt>
      <trkpt lat="47.69625" lon="5.99449">
        <ele>301.95</ele>
        <time>2018-04-11T09:26:52Z</time>
      </trkpt>
      <trkpt lat="47.69629" lon="5.99455">
        <ele>302.2</ele>
        <time>2018-04-11T09:26:58Z</time>
      </trkpt>
      <trkpt lat="47.69631" lon="5.99462">
        <ele>302.41</ele>
        <time>2018-04-11T09:27:03Z</time>
      </trkpt>
      <trkpt lat="47.69635" lon="5.99467">
        <ele>302.52</ele>
        <time>2018-04-11T09:27:06Z</time>
      </trkpt>
      <trkpt lat="47.6964" lon="5.99474">
        <ele>302.63</ele>
        <time>2018-04-11T09:27:09Z</time>
      </trkpt>
      <trkpt lat="47.69643" lon="5.9948">
        <ele>302.74</ele>
        <time>2018-04-11T09:27:12Z</time>
      </trkpt>
      <trkpt lat="47.69646" lon="5.99487">
        <ele>302.82</ele>
        <time>2018-04-11T09:27:14Z</time>
      </trkpt>
      <trkpt lat="47.69649" lon="5.99493">
        <ele>302.89</ele>
        <time>2018-04-11T09:27:16Z</time>
      </trkpt>
      <trkpt lat="47.69654" lon="5.99499">
        <ele>303</ele>
        <time>2018-04-11T09:27:19Z</time>
      </trkpt>
      <trkpt lat="47.69658" lon="5.99507">
        <ele>303.09</ele>
        <time>2018-04-11T09:27:22Z</time>
      </trkpt>
      <trkpt lat="47.69661" lon="5.99514">
        <ele>303.18</ele>
        <time>2018-04-11T09:27:25Z</time>
      </trkpt>
      <trkpt lat="47.69664" lon="5.99524">
        <ele>303.29</ele>
        <time>2018-04-11T09:27:29Z</time>
      </trkpt>
      <trkpt lat="47.69664" lon="5.99535">
        <ele>303.34</ele>
        <time>2018-04-11T09:27:31Z</time>
      </trkpt>
      <trkpt lat="47.69666" lon="5.99543">
        <ele>303.37</ele>
        <time>2018-04-11T09:27:32Z</time>
      </trkpt>
      <trkpt lat="47.69668" lon="5.99552">
        <ele>303.42</ele>
        <time>2018-04-11T09:27:34Z</time>
      </trkpt>
      <trkpt lat="47.6967" lon="5.99559">
        <ele>303.48</ele>
        <time>2018-04-11T09:27:36Z</time>
      </trkpt>
      <trkpt lat="47.69674" lon="5.99565">
        <ele>303.54</ele>
        <time>2018-04-11T09:27:38Z</time>
      </trkpt>
      <trkpt lat="47.69679" lon="5.99573">
        <ele>303.61</ele>
        <time>2018-04-11T09:27:40Z</time>
      </trkpt>
      <trkpt lat="47.69683" lon="5.99579">
        <ele>303.67</ele>
        <time>2018-04-11T09:27:42Z</time>
      </trkpt>
      <trkpt lat="47.69688" lon="5.99585">
        <ele>303.73</ele>
        <time>2018-04-11T09:27:44Z</time>
      </trkpt>
      <trkpt lat="47.69693" lon="5.99591">
        <ele>303.8</ele>
        <time>2018-04-11T09:27:46Z</time>
      </trkpt>
      <trkpt lat="47.69696" lon="5.99596">
        <ele>303.86</ele>
        <time>2018-04-11T09:27:48Z</time>
      </trkpt>
      <trkpt lat="47.69701" lon="5.99602">
        <ele>303.95</ele>
        <time>2018-04-11T09:27:51Z</time>
      </trkpt>
      <trkpt lat="47.69707" lon="5.99608">
        <ele>304.07</ele>
        <time>2018-04-11T09:27:55Z</time>
      </trkpt>
      <trkpt lat="47.69711" lon="5.99613">
        <ele>304.15</ele>
        <time>2018-04-11T09:27:58Z</time>
      </trkpt>
      <trkpt lat="47.69716" lon="5.99619">
        <ele>304.22</ele>
        <time>2018-04-11T09:28:01Z</time>
      </trkpt>
      <trkpt lat="47.6972" lon="5.99626">
        <ele>304.27</ele>
        <time>2018-04-11T09:28:03Z</time>
      </trkpt>
      <trkpt lat="47.69725" lon="5.99632">
        <ele>304.34</ele>
        <time>2018-04-11T09:28:06Z</time>
      </trkpt>
      <trkpt lat="47.69729" lon="5.99636">
        <ele>304.41</ele>
        <time>2018-04-11T09:28:09Z</time>
      </trkpt>
      <trkpt lat="47.69731" lon="5.99643">
        <ele>304.47</ele>
        <time>2018-04-11T09:28:12Z</time>
      </trkpt>
      <trkpt lat="47.69735" lon="5.9965">
        <ele>304.52</ele>
        <time>2018-04-11T09:28:14Z</time>
      </trkpt>
      <trkpt lat="47.69739" lon="5.99658">
        <ele>304.56</ele>
        <time>2018-04-11T09:28:16Z</time>
      </trkpt>
      <trkpt lat="47.69743" lon="5.99665">
        <ele>304.6</ele>
        <time>2018-04-11T09:28:18Z</time>
      </trkpt>
      <trkpt lat="47.69744" lon="5.99671">
        <ele>304.64</ele>
        <time>2018-04-11T09:28:20Z</time>
      </trkpt>
      <trkpt lat="47.69747" lon="5.99679">
        <ele>304.7</ele>
        <time>2018-04-11T09:28:23Z</time>
      </trkpt>
      <trkpt lat="47.69753" lon="5.99683">
        <ele>304.76</ele>
        <time>2018-04-11T09:28:27Z</time>
      </trkpt>
      <trkpt lat="47.69758" lon="5.99686">
        <ele>304.88</ele>
        <time>2018-04-11T09:28:48Z</time>
      </trkpt>
      <trkpt lat="47.69761" lon="5.9968">
        <ele>305.14</ele>
        <time>2018-04-11T09:29:10Z</time>
      </trkpt>
      <trkpt lat="47.69766" lon="5.99681">
        <ele>306.26</ele>
        <time>2018-04-11T09:32:09Z</time>
      </trkpt>
      <trkpt lat="47.6977" lon="5.99682">
        <ele>306.49</ele>
        <time>2018-04-11T09:32:38Z</time>
      </trkpt>
      <trkpt lat="47.69774" lon="5.99687">
        <ele>306.79</ele>
        <time>2018-04-11T09:33:01Z</time>
      </trkpt>
      <trkpt lat="47.69776" lon="5.99693">
        <ele>306.97</ele>
        <time>2018-04-11T09:33:10Z</time>
      </trkpt>
      <trkpt lat="47.69778" lon="5.997">
        <ele>307.15</ele>
        <time>2018-04-11T09:33:15Z</time>
      </trkpt>
      <trkpt lat="47.6978" lon="5.99707">
        <ele>307.28</ele>
        <time>2018-04-11T09:33:19Z</time>
      </trkpt>
      <trkpt lat="47.69783" lon="5.99714">
        <ele>307.37</ele>
        <time>2018-04-11T09:33:22Z</time>
      </trkpt>
      <trkpt lat="47.69786" lon="5.9972">
        <ele>307.43</ele>
        <time>2018-04-11T09:33:24Z</time>
      </trkpt>
      <trkpt lat="47.69791" lon="5.99725">
        <ele>307.51</ele>
        <time>2018-04-11T09:33:27Z</time>
      </trkpt>
      <trkpt lat="47.69796" lon="5.99729">
        <ele>307.6</ele>
        <time>2018-04-11T09:33:30Z</time>
      </trkpt>
      <trkpt lat="47.69799" lon="5.99734">
        <ele>307.65</ele>
        <time>2018-04-11T09:33:32Z</time>
      </trkpt>
      <trkpt lat="47.69804" lon="5.99742">
        <ele>307.69</ele>
        <time>2018-04-11T09:33:34Z</time>
      </trkpt>
      <trkpt lat="47.69806" lon="5.99747">
        <ele>307.72</ele>
        <time>2018-04-11T09:33:35Z</time>
      </trkpt>
      <trkpt lat="47.6981" lon="5.99755">
        <ele>307.77</ele>
        <time>2018-04-11T09:33:37Z</time>
      </trkpt>
      <trkpt lat="47.69813" lon="5.99762">
        <ele>307.79</ele>
        <time>2018-04-11T09:33:38Z</time>
      </trkpt>
      <trkpt lat="47.69817" lon="5.99768">
        <ele>307.84</ele>
        <time>2018-04-11T09:33:40Z</time>
      </trkpt>
      <trkpt lat="47.69821" lon="5.99775">
        <ele>307.91</ele>
        <time>2018-04-11T09:33:43Z</time>
      </trkpt>
      <trkpt lat="47.69824" lon="5.99783">
        <ele>308.01</ele>
        <time>2018-04-11T09:33:47Z</time>
      </trkpt>
      <trkpt lat="47.69827" lon="5.99789">
        <ele>308.06</ele>
        <time>2018-04-11T09:33:49Z</time>
      </trkpt>
      <trkpt lat="47.6983" lon="5.99797">
        <ele>308.11</ele>
        <time>2018-04-11T09:33:51Z</time>
      </trkpt>
      <trkpt lat="47.69832" lon="5.99807">
        <ele>308.16</ele>
        <time>2018-04-11T09:33:53Z</time>
      </trkpt>
      <trkpt lat="47.69831" lon="5.99816">
        <ele>308.2</ele>
        <time>2018-04-11T09:33:55Z</time>
      </trkpt>
      <trkpt lat="47.69827" lon="5.99824">
        <ele>308.25</ele>
        <time>2018-04-11T09:33:57Z</time>
      </trkpt>
      <trkpt lat="47.6982" lon="5.99831">
        <ele>308.44</ele>
        <time>2018-04-11T09:33:59Z</time>
      </trkpt>
      <trkpt lat="47.69814" lon="5.99836">
        <ele>308.64</ele>
        <time>2018-04-11T09:34:01Z</time>
      </trkpt>
      <trkpt lat="47.69807" lon="5.9984">
        <ele>308.72</ele>
        <time>2018-04-11T09:34:03Z</time>
      </trkpt>
      <trkpt lat="47.698" lon="5.99845">
        <ele>308.76</ele>
        <time>2018-04-11T09:34:05Z</time>
      </trkpt>
      <trkpt lat="47.69795" lon="5.99848">
        <ele>308.78</ele>
        <time>2018-04-11T09:34:06Z</time>
      </trkpt>
      <trkpt lat="47.69791" lon="5.99852">
        <ele>308.79</ele>
        <time>2018-04-11T09:34:07Z</time>
      </trkpt>
      <trkpt lat="47.69786" lon="5.99854">
        <ele>308.81</ele>
        <time>2018-04-11T09:34:08Z</time>
      </trkpt>
      <trkpt lat="47.69778" lon="5.99858">
        <ele>308.85</ele>
        <time>2018-04-11T09:34:10Z</time>
      </trkpt>
      <trkpt lat="47.69775" lon="5.99864">
        <ele>308.86</ele>
        <time>2018-04-11T09:34:11Z</time>
      </trkpt>
      <trkpt lat="47.69768" lon="5.99872">
        <ele>308.88</ele>
        <time>2018-04-11T09:34:12Z</time>
      </trkpt>
      <trkpt lat="47.6976" lon="5.99881">
        <ele>308.91</ele>
        <time>2018-04-11T09:34:14Z</time>
      </trkpt>
      <trkpt lat="47.69755" lon="5.99885">
        <ele>308.93</ele>
        <time>2018-04-11T09:34:15Z</time>
      </trkpt>
      <trkpt lat="47.69748" lon="5.99887">
        <ele>308.96</ele>
        <time>2018-04-11T09:34:17Z</time>
      </trkpt>
      <trkpt lat="47.69744" lon="5.99891">
        <ele>308.98</ele>
        <time>2018-04-11T09:34:18Z</time>
      </trkpt>
      <trkpt lat="47.69741" lon="5.99896">
        <ele>309</ele>
        <time>2018-04-11T09:34:19Z</time>
      </trkpt>
      <trkpt lat="47.69734" lon="5.99903">
        <ele>309.03</ele>
        <time>2018-04-11T09:34:21Z</time>
      </trkpt>
      <trkpt lat="47.6973" lon="5.99906">
        <ele>309.05</ele>
        <time>2018-04-11T09:34:22Z</time>
      </trkpt>
      <trkpt lat="47.69722" lon="5.99914">
        <ele>309.19</ele>
        <time>2018-04-11T09:34:24Z</time>
      </trkpt>
      <trkpt lat="47.69715" lon="5.99921">
        <ele>309.24</ele>
        <time>2018-04-11T09:34:25Z</time>
      </trkpt>
      <trkpt lat="47.69712" lon="5.99927">
        <ele>309.26</ele>
        <time>2018-04-11T09:34:26Z</time>
      </trkpt>
      <trkpt lat="47.69707" lon="5.99934">
        <ele>309.37</ele>
        <time>2018-04-11T09:34:27Z</time>
      </trkpt>
      <trkpt lat="47.69703" lon="5.9994">
        <ele>309.48</ele>
        <time>2018-04-11T09:34:28Z</time>
      </trkpt>
      <trkpt lat="47.69697" lon="5.99947">
        <ele>309.59</ele>
        <time>2018-04-11T09:34:29Z</time>
      </trkpt>
      <trkpt lat="47.69691" lon="5.99953">
        <ele>309.67</ele>
        <time>2018-04-11T09:34:30Z</time>
      </trkpt>
      <trkpt lat="47.69687" lon="5.99962">
        <ele>309.74</ele>
        <time>2018-04-11T09:34:31Z</time>
      </trkpt>
      <trkpt lat="47.69682" lon="5.99968">
        <ele>309.79</ele>
        <time>2018-04-11T09:34:32Z</time>
      </trkpt>
      <trkpt lat="47.69677" lon="5.99977">
        <ele>309.85</ele>
        <time>2018-04-11T09:34:33Z</time>
      </trkpt>
      <trkpt lat="47.69671" lon="5.9998">
        <ele>309.88</ele>
        <time>2018-04-11T09:34:34Z</time>
      </trkpt>
      <trkpt lat="47.69665" lon="5.9999">
        <ele>309.88</ele>
        <time>2018-04-11T09:34:35Z</time>
      </trkpt>
      <trkpt lat="47.69659" lon="5.99999">
        <ele>309.86</ele>
        <time>2018-04-11T09:34:36Z</time>
      </trkpt>
      <trkpt lat="47.69653" lon="6.00007">
        <ele>309.84</ele>
        <time>2018-04-11T09:34:37Z</time>
      </trkpt>
      <trkpt lat="47.69648" lon="6.00016">
        <ele>309.82</ele>
        <time>2018-04-11T09:34:38Z</time>
      </trkpt>
      <trkpt lat="47.69644" lon="6.00023">
        <ele>309.81</ele>
        <time>2018-04-11T09:34:39Z</time>
      </trkpt>
      <trkpt lat="47.6964" lon="6.00027">
        <ele>309.81</ele>
        <time>2018-04-11T09:34:40Z</time>
      </trkpt>
      <trkpt lat="47.69635" lon="6.00033">
        <ele>309.8</ele>
        <time>2018-04-11T09:34:42Z</time>
      </trkpt>
      <trkpt lat="47.69629" lon="6.00039">
        <ele>309.79</ele>
        <time>2018-04-11T09:34:44Z</time>
      </trkpt>
      <trkpt lat="47.69622" lon="6.00041">
        <ele>309.78</ele>
        <time>2018-04-11T09:34:46Z</time>
      </trkpt>
      <trkpt lat="47.69615" lon="6.00044">
        <ele>309.77</ele>
        <time>2018-04-11T09:34:48Z</time>
      </trkpt>
      <trkpt lat="47.69609" lon="6.00045">
        <ele>309.76</ele>
        <time>2018-04-11T09:34:50Z</time>
      </trkpt>
      <trkpt lat="47.69605" lon="6.00049">
        <ele>309.75</ele>
        <time>2018-04-11T09:34:51Z</time>
      </trkpt>
      <trkpt lat="47.69597" lon="6.00057">
        <ele>309.74</ele>
        <time>2018-04-11T09:34:53Z</time>
      </trkpt>
      <trkpt lat="47.6959" lon="6.00071">
        <ele>309.69</ele>
        <time>2018-04-11T09:34:54Z</time>
      </trkpt>
      <trkpt lat="47.69586" lon="6.0008">
        <ele>309.64</ele>
        <time>2018-04-11T09:34:55Z</time>
      </trkpt>
      <trkpt lat="47.69582" lon="6.00086">
        <ele>309.6</ele>
        <time>2018-04-11T09:34:56Z</time>
      </trkpt>
      <trkpt lat="47.69578" lon="6.0009">
        <ele>309.58</ele>
        <time>2018-04-11T09:34:57Z</time>
      </trkpt>
      <trkpt lat="47.69567" lon="6.00104">
        <ele>309.53</ele>
        <time>2018-04-11T09:34:59Z</time>
      </trkpt>
      <trkpt lat="47.69556" lon="6.0012">
        <ele>309.49</ele>
        <time>2018-04-11T09:35:00Z</time>
      </trkpt>
      <trkpt lat="47.69546" lon="6.00131">
        <ele>309.46</ele>
        <time>2018-04-11T09:35:01Z</time>
      </trkpt>
      <trkpt lat="47.69537" lon="6.00139">
        <ele>309.45</ele>
        <time>2018-04-11T09:35:02Z</time>
      </trkpt>
      <trkpt lat="47.69532" lon="6.00145">
        <ele>309.44</ele>
        <time>2018-04-11T09:35:03Z</time>
      </trkpt>
      <trkpt lat="47.69526" lon="6.00152">
        <ele>309.44</ele>
        <time>2018-04-11T09:35:04Z</time>
      </trkpt>
      <trkpt lat="47.69519" lon="6.00156">
        <ele>309.44</ele>
        <time>2018-04-11T09:35:06Z</time>
      </trkpt>
      <trkpt lat="47.69515" lon="6.00161">
        <ele>309.44</ele>
        <time>2018-04-11T09:35:07Z</time>
      </trkpt>
      <trkpt lat="47.6951" lon="6.0017">
        <ele>309.44</ele>
        <time>2018-04-11T09:35:08Z</time>
      </trkpt>
      <trkpt lat="47.69506" lon="6.00174">
        <ele>309.42</ele>
        <time>2018-04-11T09:35:09Z</time>
      </trkpt>
      <trkpt lat="47.695" lon="6.00184">
        <ele>309.41</ele>
        <time>2018-04-11T09:35:10Z</time>
      </trkpt>
      <trkpt lat="47.69494" lon="6.00196">
        <ele>309.37</ele>
        <time>2018-04-11T09:35:11Z</time>
      </trkpt>
      <trkpt lat="47.69488" lon="6.00207">
        <ele>309.35</ele>
        <time>2018-04-11T09:35:12Z</time>
      </trkpt>
      <trkpt lat="47.69484" lon="6.00215">
        <ele>309.32</ele>
        <time>2018-04-11T09:35:13Z</time>
      </trkpt>
      <trkpt lat="47.69478" lon="6.00226">
        <ele>309.28</ele>
        <time>2018-04-11T09:35:14Z</time>
      </trkpt>
      <trkpt lat="47.69474" lon="6.00236">
        <ele>309.25</ele>
        <time>2018-04-11T09:35:15Z</time>
      </trkpt>
      <trkpt lat="47.69469" lon="6.00244">
        <ele>309.22</ele>
        <time>2018-04-11T09:35:16Z</time>
      </trkpt>
      <trkpt lat="47.69464" lon="6.00251">
        <ele>309.19</ele>
        <time>2018-04-11T09:35:17Z</time>
      </trkpt>
      <trkpt lat="47.69459" lon="6.00259">
        <ele>309.17</ele>
        <time>2018-04-11T09:35:18Z</time>
      </trkpt>
      <trkpt lat="47.69454" lon="6.00264">
        <ele>309.16</ele>
        <time>2018-04-11T09:35:19Z</time>
      </trkpt>
      <trkpt lat="47.6945" lon="6.00269">
        <ele>309.14</ele>
        <time>2018-04-11T09:35:20Z</time>
      </trkpt>
      <trkpt lat="47.69447" lon="6.00278">
        <ele>309.11</ele>
        <time>2018-04-11T09:35:21Z</time>
      </trkpt>
      <trkpt lat="47.69443" lon="6.00285">
        <ele>309.09</ele>
        <time>2018-04-11T09:35:22Z</time>
      </trkpt>
      <trkpt lat="47.69439" lon="6.00294">
        <ele>309.07</ele>
        <time>2018-04-11T09:35:23Z</time>
      </trkpt>
      <trkpt lat="47.69435" lon="6.00298">
        <ele>309.05</ele>
        <time>2018-04-11T09:35:24Z</time>
      </trkpt>
      <trkpt lat="47.6943" lon="6.00304">
        <ele>309.03</ele>
        <time>2018-04-11T09:35:25Z</time>
      </trkpt>
      <trkpt lat="47.69425" lon="6.00312">
        <ele>308.99</ele>
        <time>2018-04-11T09:35:26Z</time>
      </trkpt>
      <trkpt lat="47.69421" lon="6.0032">
        <ele>308.98</ele>
        <time>2018-04-11T09:35:27Z</time>
      </trkpt>
      <trkpt lat="47.69416" lon="6.00327">
        <ele>308.95</ele>
        <time>2018-04-11T09:35:28Z</time>
      </trkpt>
      <trkpt lat="47.69411" lon="6.00334">
        <ele>308.92</ele>
        <time>2018-04-11T09:35:29Z</time>
      </trkpt>
      <trkpt lat="47.69406" lon="6.00342">
        <ele>308.88</ele>
        <time>2018-04-11T09:35:30Z</time>
      </trkpt>
      <trkpt lat="47.69401" lon="6.0035">
        <ele>308.84</ele>
        <time>2018-04-11T09:35:31Z</time>
      </trkpt>
      <trkpt lat="47.69396" lon="6.00358">
        <ele>308.79</ele>
        <time>2018-04-11T09:35:32Z</time>
      </trkpt>
      <trkpt lat="47.69392" lon="6.00365">
        <ele>308.75</ele>
        <time>2018-04-11T09:35:33Z</time>
      </trkpt>
      <trkpt lat="47.69388" lon="6.00373">
        <ele>308.71</ele>
        <time>2018-04-11T09:35:34Z</time>
      </trkpt>
      <trkpt lat="47.69383" lon="6.0038">
        <ele>308.66</ele>
        <time>2018-04-11T09:35:35Z</time>
      </trkpt>
      <trkpt lat="47.69378" lon="6.00391">
        <ele>308.58</ele>
        <time>2018-04-11T09:35:36Z</time>
      </trkpt>
      <trkpt lat="47.69373" lon="6.00399">
        <ele>308.45</ele>
        <time>2018-04-11T09:35:37Z</time>
      </trkpt>
      <trkpt lat="47.69369" lon="6.00406">
        <ele>308.27</ele>
        <time>2018-04-11T09:35:38Z</time>
      </trkpt>
      <trkpt lat="47.69365" lon="6.00413">
        <ele>308.04</ele>
        <time>2018-04-11T09:35:39Z</time>
      </trkpt>
      <trkpt lat="47.69361" lon="6.0042">
        <ele>307.78</ele>
        <time>2018-04-11T09:35:40Z</time>
      </trkpt>
      <trkpt lat="47.69358" lon="6.00426">
        <ele>307.46</ele>
        <time>2018-04-11T09:35:41Z</time>
      </trkpt>
      <trkpt lat="47.69355" lon="6.00432">
        <ele>307.11</ele>
        <time>2018-04-11T09:35:42Z</time>
      </trkpt>
      <trkpt lat="47.69352" lon="6.00438">
        <ele>306.73</ele>
        <time>2018-04-11T09:35:43Z</time>
      </trkpt>
      <trkpt lat="47.69348" lon="6.00443">
        <ele>306.31</ele>
        <time>2018-04-11T09:35:44Z</time>
      </trkpt>
      <trkpt lat="47.69343" lon="6.00448">
        <ele>305.86</ele>
        <time>2018-04-11T09:35:45Z</time>
      </trkpt>
      <trkpt lat="47.69339" lon="6.00453">
        <ele>305.39</ele>
        <time>2018-04-11T09:35:46Z</time>
      </trkpt>
      <trkpt lat="47.69336" lon="6.00458">
        <ele>304.92</ele>
        <time>2018-04-11T09:35:47Z</time>
      </trkpt>
      <trkpt lat="47.69334" lon="6.00464">
        <ele>304.43</ele>
        <time>2018-04-11T09:35:48Z</time>
      </trkpt>
      <trkpt lat="47.69331" lon="6.00469">
        <ele>303.93</ele>
        <time>2018-04-11T09:35:49Z</time>
      </trkpt>
      <trkpt lat="47.69325" lon="6.00479">
        <ele>302.99</ele>
        <time>2018-04-11T09:35:51Z</time>
      </trkpt>
      <trkpt lat="47.69321" lon="6.00485">
        <ele>302.6</ele>
        <time>2018-04-11T09:35:52Z</time>
      </trkpt>
      <trkpt lat="47.69316" lon="6.00493">
        <ele>302.46</ele>
        <time>2018-04-11T09:35:53Z</time>
      </trkpt>
      <trkpt lat="47.69312" lon="6.00498">
        <ele>302.4</ele>
        <time>2018-04-11T09:35:54Z</time>
      </trkpt>
      <trkpt lat="47.69306" lon="6.00505">
        <ele>302.32</ele>
        <time>2018-04-11T09:35:56Z</time>
      </trkpt>
      <trkpt lat="47.693" lon="6.00511">
        <ele>302.26</ele>
        <time>2018-04-11T09:35:58Z</time>
      </trkpt>
      <trkpt lat="47.69293" lon="6.00521">
        <ele>302.21</ele>
        <time>2018-04-11T09:36:00Z</time>
      </trkpt>
      <trkpt lat="47.69289" lon="6.00526">
        <ele>302.17</ele>
        <time>2018-04-11T09:36:01Z</time>
      </trkpt>
      <trkpt lat="47.69285" lon="6.0053">
        <ele>302.14</ele>
        <time>2018-04-11T09:36:02Z</time>
      </trkpt>
      <trkpt lat="47.69279" lon="6.00538">
        <ele>302.07</ele>
        <time>2018-04-11T09:36:04Z</time>
      </trkpt>
      <trkpt lat="47.69273" lon="6.00546">
        <ele>301.99</ele>
        <time>2018-04-11T09:36:06Z</time>
      </trkpt>
      <trkpt lat="47.69267" lon="6.00553">
        <ele>301.89</ele>
        <time>2018-04-11T09:36:08Z</time>
      </trkpt>
      <trkpt lat="47.69264" lon="6.00558">
        <ele>301.83</ele>
        <time>2018-04-11T09:36:09Z</time>
      </trkpt>
      <trkpt lat="47.6926" lon="6.00564">
        <ele>301.76</ele>
        <time>2018-04-11T09:36:10Z</time>
      </trkpt>
      <trkpt lat="47.69257" lon="6.00571">
        <ele>301.69</ele>
        <time>2018-04-11T09:36:11Z</time>
      </trkpt>
      <trkpt lat="47.69255" lon="6.00577">
        <ele>301.61</ele>
        <time>2018-04-11T09:36:12Z</time>
      </trkpt>
      <trkpt lat="47.69252" lon="6.00583">
        <ele>301.52</ele>
        <time>2018-04-11T09:36:13Z</time>
      </trkpt>
      <trkpt lat="47.69246" lon="6.00593">
        <ele>301.35</ele>
        <time>2018-04-11T09:36:15Z</time>
      </trkpt>
      <trkpt lat="47.69243" lon="6.00605">
        <ele>301.17</ele>
        <time>2018-04-11T09:36:17Z</time>
      </trkpt>
      <trkpt lat="47.69241" lon="6.00615">
        <ele>300.99</ele>
        <time>2018-04-11T09:36:19Z</time>
      </trkpt>
      <trkpt lat="47.69239" lon="6.00624">
        <ele>300.81</ele>
        <time>2018-04-11T09:36:21Z</time>
      </trkpt>
      <trkpt lat="47.69236" lon="6.00635">
        <ele>300.64</ele>
        <time>2018-04-11T09:36:23Z</time>
      </trkpt>
      <trkpt lat="47.69234" lon="6.00644">
        <ele>300.49</ele>
        <time>2018-04-11T09:36:25Z</time>
      </trkpt>
      <trkpt lat="47.69232" lon="6.00651">
        <ele>300.34</ele>
        <time>2018-04-11T09:36:27Z</time>
      </trkpt>
      <trkpt lat="47.69229" lon="6.0066">
        <ele>300.12</ele>
        <time>2018-04-11T09:36:30Z</time>
      </trkpt>
      <trkpt lat="47.69226" lon="6.00668">
        <ele>299.97</ele>
        <time>2018-04-11T09:36:32Z</time>
      </trkpt>
      <trkpt lat="47.6922" lon="6.00681">
        <ele>299.71</ele>
        <time>2018-04-11T09:36:35Z</time>
      </trkpt>
      <trkpt lat="47.69217" lon="6.00689">
        <ele>299.64</ele>
        <time>2018-04-11T09:36:36Z</time>
      </trkpt>
      <trkpt lat="47.69215" lon="6.00695">
        <ele>299.56</ele>
        <time>2018-04-11T09:36:37Z</time>
      </trkpt>
      <trkpt lat="47.69213" lon="6.00706">
        <ele>299.43</ele>
        <time>2018-04-11T09:36:39Z</time>
      </trkpt>
      <trkpt lat="47.69209" lon="6.00721">
        <ele>299.15</ele>
        <time>2018-04-11T09:36:44Z</time>
      </trkpt>
      <trkpt lat="47.69209" lon="6.00727">
        <ele>299.02</ele>
        <time>2018-04-11T09:36:46Z</time>
      </trkpt>
      <trkpt lat="47.69207" lon="6.00739">
        <ele>298.89</ele>
        <time>2018-04-11T09:36:48Z</time>
      </trkpt>
      <trkpt lat="47.69206" lon="6.00753">
        <ele>298.76</ele>
        <time>2018-04-11T09:36:50Z</time>
      </trkpt>
      <trkpt lat="47.69206" lon="6.00761">
        <ele>298.7</ele>
        <time>2018-04-11T09:36:51Z</time>
      </trkpt>
      <trkpt lat="47.69205" lon="6.00769">
        <ele>298.63</ele>
        <time>2018-04-11T09:36:52Z</time>
      </trkpt>
      <trkpt lat="47.69203" lon="6.00777">
        <ele>298.56</ele>
        <time>2018-04-11T09:36:53Z</time>
      </trkpt>
      <trkpt lat="47.692" lon="6.00784">
        <ele>298.49</ele>
        <time>2018-04-11T09:36:54Z</time>
      </trkpt>
      <trkpt lat="47.69198" lon="6.00794">
        <ele>298.36</ele>
        <time>2018-04-11T09:36:56Z</time>
      </trkpt>
      <trkpt lat="47.69197" lon="6.00801">
        <ele>298.29</ele>
        <time>2018-04-11T09:36:57Z</time>
      </trkpt>
      <trkpt lat="47.69194" lon="6.00813">
        <ele>298.13</ele>
        <time>2018-04-11T09:36:59Z</time>
      </trkpt>
      <trkpt lat="47.69191" lon="6.00824">
        <ele>297.95</ele>
        <time>2018-04-11T09:37:01Z</time>
      </trkpt>
      <trkpt lat="47.6919" lon="6.00831">
        <ele>297.86</ele>
        <time>2018-04-11T09:37:02Z</time>
      </trkpt>
      <trkpt lat="47.69189" lon="6.00843">
        <ele>297.64</ele>
        <time>2018-04-11T09:37:04Z</time>
      </trkpt>
      <trkpt lat="47.69188" lon="6.00852">
        <ele>297.4</ele>
        <time>2018-04-11T09:37:06Z</time>
      </trkpt>
      <trkpt lat="47.69187" lon="6.0086">
        <ele>297.26</ele>
        <time>2018-04-11T09:37:07Z</time>
      </trkpt>
      <trkpt lat="47.69185" lon="6.00867">
        <ele>297.11</ele>
        <time>2018-04-11T09:37:08Z</time>
      </trkpt>
      <trkpt lat="47.69184" lon="6.00875">
        <ele>296.96</ele>
        <time>2018-04-11T09:37:09Z</time>
      </trkpt>
      <trkpt lat="47.69181" lon="6.00882">
        <ele>296.79</ele>
        <time>2018-04-11T09:37:10Z</time>
      </trkpt>
      <trkpt lat="47.69179" lon="6.0089">
        <ele>296.61</ele>
        <time>2018-04-11T09:37:11Z</time>
      </trkpt>
      <trkpt lat="47.69178" lon="6.00898">
        <ele>295.22</ele>
        <time>2018-04-11T09:37:12Z</time>
      </trkpt>
      <trkpt lat="47.69176" lon="6.00907">
        <ele>293.68</ele>
        <time>2018-04-11T09:37:13Z</time>
      </trkpt>
      <trkpt lat="47.69175" lon="6.00916">
        <ele>292.26</ele>
        <time>2018-04-11T09:37:14Z</time>
      </trkpt>
      <trkpt lat="47.69173" lon="6.00925">
        <ele>291.01</ele>
        <time>2018-04-11T09:37:15Z</time>
      </trkpt>
      <trkpt lat="47.69172" lon="6.00933">
        <ele>289.95</ele>
        <time>2018-04-11T09:37:16Z</time>
      </trkpt>
      <trkpt lat="47.69171" lon="6.00944">
        <ele>289.02</ele>
        <time>2018-04-11T09:37:17Z</time>
      </trkpt>
      <trkpt lat="47.6917" lon="6.00955">
        <ele>288.2</ele>
        <time>2018-04-11T09:37:18Z</time>
      </trkpt>
      <trkpt lat="47.69168" lon="6.00968">
        <ele>287.47</ele>
        <time>2018-04-11T09:37:19Z</time>
      </trkpt>
      <trkpt lat="47.69166" lon="6.00979">
        <ele>286.82</ele>
        <time>2018-04-11T09:37:20Z</time>
      </trkpt>
      <trkpt lat="47.69163" lon="6.00992">
        <ele>286.24</ele>
        <time>2018-04-11T09:37:21Z</time>
      </trkpt>
      <trkpt lat="47.69161" lon="6.01006">
        <ele>285.72</ele>
        <time>2018-04-11T09:37:22Z</time>
      </trkpt>
      <trkpt lat="47.69159" lon="6.01021">
        <ele>285.27</ele>
        <time>2018-04-11T09:37:23Z</time>
      </trkpt>
      <trkpt lat="47.69158" lon="6.01034">
        <ele>284.81</ele>
        <time>2018-04-11T09:37:24Z</time>
      </trkpt>
      <trkpt lat="47.69156" lon="6.01048">
        <ele>284.4</ele>
        <time>2018-04-11T09:37:25Z</time>
      </trkpt>
      <trkpt lat="47.69155" lon="6.01061">
        <ele>284.05</ele>
        <time>2018-04-11T09:37:26Z</time>
      </trkpt>
      <trkpt lat="47.69154" lon="6.01075">
        <ele>283.75</ele>
        <time>2018-04-11T09:37:27Z</time>
      </trkpt>
      <trkpt lat="47.69152" lon="6.01092">
        <ele>283.51</ele>
        <time>2018-04-11T09:37:28Z</time>
      </trkpt>
      <trkpt lat="47.69151" lon="6.01106">
        <ele>283.31</ele>
        <time>2018-04-11T09:37:29Z</time>
      </trkpt>
      <trkpt lat="47.69149" lon="6.0112">
        <ele>283.1</ele>
        <time>2018-04-11T09:37:30Z</time>
      </trkpt>
      <trkpt lat="47.69147" lon="6.01134">
        <ele>282.87</ele>
        <time>2018-04-11T09:37:31Z</time>
      </trkpt>
      <trkpt lat="47.69145" lon="6.01148">
        <ele>282.59</ele>
        <time>2018-04-11T09:37:32Z</time>
      </trkpt>
      <trkpt lat="47.69144" lon="6.01162">
        <ele>282.29</ele>
        <time>2018-04-11T09:37:33Z</time>
      </trkpt>
      <trkpt lat="47.69141" lon="6.01176">
        <ele>281.94</ele>
        <time>2018-04-11T09:37:34Z</time>
      </trkpt>
      <trkpt lat="47.69138" lon="6.01189">
        <ele>281.57</ele>
        <time>2018-04-11T09:37:35Z</time>
      </trkpt>
      <trkpt lat="47.69135" lon="6.01201">
        <ele>281.2</ele>
        <time>2018-04-11T09:37:36Z</time>
      </trkpt>
      <trkpt lat="47.69132" lon="6.01213">
        <ele>280.85</ele>
        <time>2018-04-11T09:37:37Z</time>
      </trkpt>
      <trkpt lat="47.69129" lon="6.01223">
        <ele>280.54</ele>
        <time>2018-04-11T09:37:38Z</time>
      </trkpt>
      <trkpt lat="47.69127" lon="6.01232">
        <ele>280.26</ele>
        <time>2018-04-11T09:37:39Z</time>
      </trkpt>
      <trkpt lat="47.69125" lon="6.01239">
        <ele>280.02</ele>
        <time>2018-04-11T09:37:40Z</time>
      </trkpt>
      <trkpt lat="47.69123" lon="6.01247">
        <ele>279.74</ele>
        <time>2018-04-11T09:37:41Z</time>
      </trkpt>
      <trkpt lat="47.6912" lon="6.01255">
        <ele>279.49</ele>
        <time>2018-04-11T09:37:42Z</time>
      </trkpt>
      <trkpt lat="47.69118" lon="6.01262">
        <ele>279.27</ele>
        <time>2018-04-11T09:37:43Z</time>
      </trkpt>
      <trkpt lat="47.69116" lon="6.01274">
        <ele>278.98</ele>
        <time>2018-04-11T09:37:45Z</time>
      </trkpt>
      <trkpt lat="47.69114" lon="6.01281">
        <ele>278.91</ele>
        <time>2018-04-11T09:37:46Z</time>
      </trkpt>
      <trkpt lat="47.69112" lon="6.01288">
        <ele>278.89</ele>
        <time>2018-04-11T09:37:47Z</time>
      </trkpt>
      <trkpt lat="47.69111" lon="6.01298">
        <ele>278.87</ele>
        <time>2018-04-11T09:37:49Z</time>
      </trkpt>
      <trkpt lat="47.69108" lon="6.01309">
        <ele>278.85</ele>
        <time>2018-04-11T09:37:51Z</time>
      </trkpt>
      <trkpt lat="47.69105" lon="6.01319">
        <ele>278.8</ele>
        <time>2018-04-11T09:37:53Z</time>
      </trkpt>
      <trkpt lat="47.69103" lon="6.01326">
        <ele>278.56</ele>
        <time>2018-04-11T09:37:54Z</time>
      </trkpt>
      <trkpt lat="47.691" lon="6.01332">
        <ele>278.28</ele>
        <time>2018-04-11T09:37:55Z</time>
      </trkpt>
      <trkpt lat="47.69098" lon="6.0134">
        <ele>278.18</ele>
        <time>2018-04-11T09:37:56Z</time>
      </trkpt>
      <trkpt lat="47.69096" lon="6.01346">
        <ele>277.95</ele>
        <time>2018-04-11T09:37:57Z</time>
      </trkpt>
      <trkpt lat="47.69095" lon="6.01353">
        <ele>277.67</ele>
        <time>2018-04-11T09:37:58Z</time>
      </trkpt>
      <trkpt lat="47.69092" lon="6.0136">
        <ele>277.4</ele>
        <time>2018-04-11T09:37:59Z</time>
      </trkpt>
      <trkpt lat="47.69089" lon="6.01366">
        <ele>277.15</ele>
        <time>2018-04-11T09:38:00Z</time>
      </trkpt>
      <trkpt lat="47.69087" lon="6.01372">
        <ele>277.05</ele>
        <time>2018-04-11T09:38:01Z</time>
      </trkpt>
      <trkpt lat="47.69083" lon="6.01384">
        <ele>276.97</ele>
        <time>2018-04-11T09:38:03Z</time>
      </trkpt>
      <trkpt lat="47.6908" lon="6.01392">
        <ele>276.92</ele>
        <time>2018-04-11T09:38:05Z</time>
      </trkpt>
      <trkpt lat="47.69077" lon="6.01398">
        <ele>276.9</ele>
        <time>2018-04-11T09:38:07Z</time>
      </trkpt>
      <trkpt lat="47.69074" lon="6.01404">
        <ele>276.88</ele>
        <time>2018-04-11T09:38:10Z</time>
      </trkpt>
      <trkpt lat="47.69071" lon="6.01412">
        <ele>277.21</ele>
        <time>2018-04-11T09:38:28Z</time>
      </trkpt>
      <trkpt lat="47.69067" lon="6.01419">
        <ele>277.29</ele>
        <time>2018-04-11T09:38:31Z</time>
      </trkpt>
      <trkpt lat="47.69065" lon="6.01428">
        <ele>277.31</ele>
        <time>2018-04-11T09:38:33Z</time>
      </trkpt>
      <trkpt lat="47.69066" lon="6.0144">
        <ele>277.31</ele>
        <time>2018-04-11T09:38:35Z</time>
      </trkpt>
      <trkpt lat="47.69067" lon="6.01451">
        <ele>277.29</ele>
        <time>2018-04-11T09:38:37Z</time>
      </trkpt>
      <trkpt lat="47.69067" lon="6.01462">
        <ele>277.26</ele>
        <time>2018-04-11T09:38:39Z</time>
      </trkpt>
      <trkpt lat="47.69067" lon="6.01476">
        <ele>277.03</ele>
        <time>2018-04-11T09:38:41Z</time>
      </trkpt>
      <trkpt lat="47.69068" lon="6.0149">
        <ele>276.92</ele>
        <time>2018-04-11T09:38:43Z</time>
      </trkpt>
      <trkpt lat="47.69069" lon="6.01497">
        <ele>276.9</ele>
        <time>2018-04-11T09:38:44Z</time>
      </trkpt>
      <trkpt lat="47.69069" lon="6.01504">
        <ele>276.89</ele>
        <time>2018-04-11T09:38:45Z</time>
      </trkpt>
      <trkpt lat="47.6907" lon="6.01517">
        <ele>276.83</ele>
        <time>2018-04-11T09:38:47Z</time>
      </trkpt>
      <trkpt lat="47.69071" lon="6.0153">
        <ele>276.77</ele>
        <time>2018-04-11T09:38:49Z</time>
      </trkpt>
      <trkpt lat="47.69071" lon="6.01537">
        <ele>276.73</ele>
        <time>2018-04-11T09:38:50Z</time>
      </trkpt>
      <trkpt lat="47.69071" lon="6.01544">
        <ele>276.67</ele>
        <time>2018-04-11T09:38:51Z</time>
      </trkpt>
      <trkpt lat="47.69071" lon="6.01552">
        <ele>276.64</ele>
        <time>2018-04-11T09:38:52Z</time>
      </trkpt>
      <trkpt lat="47.69072" lon="6.01559">
        <ele>276.63</ele>
        <time>2018-04-11T09:38:53Z</time>
      </trkpt>
      <trkpt lat="47.69072" lon="6.01566">
        <ele>276.65</ele>
        <time>2018-04-11T09:38:54Z</time>
      </trkpt>
      <trkpt lat="47.69073" lon="6.01574">
        <ele>276.68</ele>
        <time>2018-04-11T09:38:55Z</time>
      </trkpt>
      <trkpt lat="47.69073" lon="6.01581">
        <ele>276.71</ele>
        <time>2018-04-11T09:38:56Z</time>
      </trkpt>
      <trkpt lat="47.69074" lon="6.01588">
        <ele>276.76</ele>
        <time>2018-04-11T09:38:57Z</time>
      </trkpt>
      <trkpt lat="47.69075" lon="6.01602">
        <ele>276.85</ele>
        <time>2018-04-11T09:38:59Z</time>
      </trkpt>
      <trkpt lat="47.69075" lon="6.0161">
        <ele>276.87</ele>
        <time>2018-04-11T09:39:00Z</time>
      </trkpt>
      <trkpt lat="47.69075" lon="6.01617">
        <ele>276.87</ele>
        <time>2018-04-11T09:39:01Z</time>
      </trkpt>
      <trkpt lat="47.69075" lon="6.01624">
        <ele>276.85</ele>
        <time>2018-04-11T09:39:02Z</time>
      </trkpt>
      <trkpt lat="47.69075" lon="6.01631">
        <ele>276.81</ele>
        <time>2018-04-11T09:39:03Z</time>
      </trkpt>
      <trkpt lat="47.69076" lon="6.01638">
        <ele>276.78</ele>
        <time>2018-04-11T09:39:04Z</time>
      </trkpt>
      <trkpt lat="47.69076" lon="6.01646">
        <ele>276.76</ele>
        <time>2018-04-11T09:39:05Z</time>
      </trkpt>
      <trkpt lat="47.69077" lon="6.01653">
        <ele>276.75</ele>
        <time>2018-04-11T09:39:06Z</time>
      </trkpt>
      <trkpt lat="47.69077" lon="6.01665">
        <ele>276.7</ele>
        <time>2018-04-11T09:39:08Z</time>
      </trkpt>
      <trkpt lat="47.69077" lon="6.01672">
        <ele>276.66</ele>
        <time>2018-04-11T09:39:09Z</time>
      </trkpt>
      <trkpt lat="47.69077" lon="6.01685">
        <ele>276.56</ele>
        <time>2018-04-11T09:39:11Z</time>
      </trkpt>
      <trkpt lat="47.69077" lon="6.01698">
        <ele>276.43</ele>
        <time>2018-04-11T09:39:13Z</time>
      </trkpt>
      <trkpt lat="47.69078" lon="6.01705">
        <ele>276.38</ele>
        <time>2018-04-11T09:39:14Z</time>
      </trkpt>
      <trkpt lat="47.69078" lon="6.01712">
        <ele>276.34</ele>
        <time>2018-04-11T09:39:15Z</time>
      </trkpt>
      <trkpt lat="47.69078" lon="6.01719">
        <ele>276.29</ele>
        <time>2018-04-11T09:39:16Z</time>
      </trkpt>
      <trkpt lat="47.69079" lon="6.01732">
        <ele>276.22</ele>
        <time>2018-04-11T09:39:18Z</time>
      </trkpt>
      <trkpt lat="47.6908" lon="6.01739">
        <ele>276.19</ele>
        <time>2018-04-11T09:39:19Z</time>
      </trkpt>
      <trkpt lat="47.6908" lon="6.01753">
        <ele>276.14</ele>
        <time>2018-04-11T09:39:21Z</time>
      </trkpt>
      <trkpt lat="47.69081" lon="6.01759">
        <ele>276.11</ele>
        <time>2018-04-11T09:39:22Z</time>
      </trkpt>
      <trkpt lat="47.69081" lon="6.01773">
        <ele>276.07</ele>
        <time>2018-04-11T09:39:24Z</time>
      </trkpt>
      <trkpt lat="47.69082" lon="6.0178">
        <ele>276.03</ele>
        <time>2018-04-11T09:39:25Z</time>
      </trkpt>
      <trkpt lat="47.69082" lon="6.01788">
        <ele>275.96</ele>
        <time>2018-04-11T09:39:26Z</time>
      </trkpt>
      <trkpt lat="47.69083" lon="6.01795">
        <ele>275.87</ele>
        <time>2018-04-11T09:39:27Z</time>
      </trkpt>
      <trkpt lat="47.69083" lon="6.01802">
        <ele>275.77</ele>
        <time>2018-04-11T09:39:28Z</time>
      </trkpt>
      <trkpt lat="47.69083" lon="6.0181">
        <ele>275.69</ele>
        <time>2018-04-11T09:39:29Z</time>
      </trkpt>
      <trkpt lat="47.69083" lon="6.01817">
        <ele>275.59</ele>
        <time>2018-04-11T09:39:30Z</time>
      </trkpt>
      <trkpt lat="47.69083" lon="6.01825">
        <ele>275.51</ele>
        <time>2018-04-11T09:39:31Z</time>
      </trkpt>
      <trkpt lat="47.69084" lon="6.01832">
        <ele>275.43</ele>
        <time>2018-04-11T09:39:32Z</time>
      </trkpt>
      <trkpt lat="47.69084" lon="6.01839">
        <ele>275.33</ele>
        <time>2018-04-11T09:39:33Z</time>
      </trkpt>
      <trkpt lat="47.69084" lon="6.01847">
        <ele>275.25</ele>
        <time>2018-04-11T09:39:34Z</time>
      </trkpt>
      <trkpt lat="47.69084" lon="6.01854">
        <ele>275.19</ele>
        <time>2018-04-11T09:39:35Z</time>
      </trkpt>
      <trkpt lat="47.69085" lon="6.01863">
        <ele>275.15</ele>
        <time>2018-04-11T09:39:36Z</time>
      </trkpt>
      <trkpt lat="47.69085" lon="6.01871">
        <ele>275.08</ele>
        <time>2018-04-11T09:39:37Z</time>
      </trkpt>
      <trkpt lat="47.69086" lon="6.0188">
        <ele>274.98</ele>
        <time>2018-04-11T09:39:38Z</time>
      </trkpt>
      <trkpt lat="47.69086" lon="6.01888">
        <ele>274.82</ele>
        <time>2018-04-11T09:39:39Z</time>
      </trkpt>
      <trkpt lat="47.69085" lon="6.01898">
        <ele>274.62</ele>
        <time>2018-04-11T09:39:40Z</time>
      </trkpt>
      <trkpt lat="47.69085" lon="6.01905">
        <ele>274.41</ele>
        <time>2018-04-11T09:39:41Z</time>
      </trkpt>
      <trkpt lat="47.69085" lon="6.01914">
        <ele>274.19</ele>
        <time>2018-04-11T09:39:42Z</time>
      </trkpt>
      <trkpt lat="47.69084" lon="6.01922">
        <ele>273.97</ele>
        <time>2018-04-11T09:39:43Z</time>
      </trkpt>
      <trkpt lat="47.69084" lon="6.0193">
        <ele>273.7</ele>
        <time>2018-04-11T09:39:44Z</time>
      </trkpt>
      <trkpt lat="47.69083" lon="6.01937">
        <ele>273.4</ele>
        <time>2018-04-11T09:39:45Z</time>
      </trkpt>
      <trkpt lat="47.69082" lon="6.01944">
        <ele>273.07</ele>
        <time>2018-04-11T09:39:46Z</time>
      </trkpt>
      <trkpt lat="47.69082" lon="6.01952">
        <ele>272.76</ele>
        <time>2018-04-11T09:39:47Z</time>
      </trkpt>
      <trkpt lat="47.69082" lon="6.01963">
        <ele>272.43</ele>
        <time>2018-04-11T09:39:48Z</time>
      </trkpt>
      <trkpt lat="47.69082" lon="6.01972">
        <ele>272.14</ele>
        <time>2018-04-11T09:39:49Z</time>
      </trkpt>
      <trkpt lat="47.69083" lon="6.01982">
        <ele>271.87</ele>
        <time>2018-04-11T09:39:50Z</time>
      </trkpt>
      <trkpt lat="47.69083" lon="6.01991">
        <ele>271.61</ele>
        <time>2018-04-11T09:39:51Z</time>
      </trkpt>
      <trkpt lat="47.69083" lon="6.02">
        <ele>271.35</ele>
        <time>2018-04-11T09:39:52Z</time>
      </trkpt>
      <trkpt lat="47.69084" lon="6.02009">
        <ele>271.12</ele>
        <time>2018-04-11T09:39:53Z</time>
      </trkpt>
      <trkpt lat="47.69084" lon="6.02017">
        <ele>270.91</ele>
        <time>2018-04-11T09:39:54Z</time>
      </trkpt>
      <trkpt lat="47.69084" lon="6.02026">
        <ele>270.7</ele>
        <time>2018-04-11T09:39:55Z</time>
      </trkpt>
      <trkpt lat="47.69085" lon="6.02033">
        <ele>270.49</ele>
        <time>2018-04-11T09:39:56Z</time>
      </trkpt>
      <trkpt lat="47.69085" lon="6.02041">
        <ele>270.3</ele>
        <time>2018-04-11T09:39:57Z</time>
      </trkpt>
      <trkpt lat="47.69085" lon="6.02048">
        <ele>270.12</ele>
        <time>2018-04-11T09:39:58Z</time>
      </trkpt>
      <trkpt lat="47.69085" lon="6.02056">
        <ele>269.92</ele>
        <time>2018-04-11T09:39:59Z</time>
      </trkpt>
      <trkpt lat="47.69086" lon="6.02069">
        <ele>269.57</ele>
        <time>2018-04-11T09:40:01Z</time>
      </trkpt>
      <trkpt lat="47.69085" lon="6.02081">
        <ele>269.2</ele>
        <time>2018-04-11T09:40:03Z</time>
      </trkpt>
      <trkpt lat="47.69085" lon="6.02088">
        <ele>269</ele>
        <time>2018-04-11T09:40:04Z</time>
      </trkpt>
      <trkpt lat="47.69086" lon="6.02102">
        <ele>268.61</ele>
        <time>2018-04-11T09:40:06Z</time>
      </trkpt>
      <trkpt lat="47.69086" lon="6.02108">
        <ele>268.41</ele>
        <time>2018-04-11T09:40:07Z</time>
      </trkpt>
      <trkpt lat="47.69086" lon="6.02115">
        <ele>268.2</ele>
        <time>2018-04-11T09:40:08Z</time>
      </trkpt>
      <trkpt lat="47.69088" lon="6.02128">
        <ele>267.75</ele>
        <time>2018-04-11T09:40:10Z</time>
      </trkpt>
      <trkpt lat="47.69088" lon="6.02135">
        <ele>267.52</ele>
        <time>2018-04-11T09:40:11Z</time>
      </trkpt>
      <trkpt lat="47.69088" lon="6.02142">
        <ele>267.28</ele>
        <time>2018-04-11T09:40:12Z</time>
      </trkpt>
      <trkpt lat="47.69089" lon="6.02156">
        <ele>266.82</ele>
        <time>2018-04-11T09:40:14Z</time>
      </trkpt>
      <trkpt lat="47.69089" lon="6.02164">
        <ele>266.61</ele>
        <time>2018-04-11T09:40:15Z</time>
      </trkpt>
      <trkpt lat="47.69089" lon="6.02172">
        <ele>266.41</ele>
        <time>2018-04-11T09:40:16Z</time>
      </trkpt>
      <trkpt lat="47.69089" lon="6.0218">
        <ele>266.22</ele>
        <time>2018-04-11T09:40:17Z</time>
      </trkpt>
      <trkpt lat="47.69089" lon="6.02189">
        <ele>266.04</ele>
        <time>2018-04-11T09:40:18Z</time>
      </trkpt>
      <trkpt lat="47.69089" lon="6.02197">
        <ele>265.85</ele>
        <time>2018-04-11T09:40:19Z</time>
      </trkpt>
      <trkpt lat="47.69089" lon="6.02205">
        <ele>265.67</ele>
        <time>2018-04-11T09:40:20Z</time>
      </trkpt>
      <trkpt lat="47.69089" lon="6.02212">
        <ele>265.5</ele>
        <time>2018-04-11T09:40:21Z</time>
      </trkpt>
      <trkpt lat="47.69089" lon="6.0222">
        <ele>265.34</ele>
        <time>2018-04-11T09:40:22Z</time>
      </trkpt>
      <trkpt lat="47.69089" lon="6.02228">
        <ele>265.16</ele>
        <time>2018-04-11T09:40:23Z</time>
      </trkpt>
      <trkpt lat="47.6909" lon="6.02236">
        <ele>264.98</ele>
        <time>2018-04-11T09:40:24Z</time>
      </trkpt>
      <trkpt lat="47.6909" lon="6.02243">
        <ele>264.8</ele>
        <time>2018-04-11T09:40:25Z</time>
      </trkpt>
      <trkpt lat="47.6909" lon="6.02256">
        <ele>264.57</ele>
        <time>2018-04-11T09:40:27Z</time>
      </trkpt>
      <trkpt lat="47.69091" lon="6.02267">
        <ele>264.36</ele>
        <time>2018-04-11T09:40:29Z</time>
      </trkpt>
      <trkpt lat="47.69091" lon="6.02279">
        <ele>264.31</ele>
        <time>2018-04-11T09:40:31Z</time>
      </trkpt>
      <trkpt lat="47.69092" lon="6.0229">
        <ele>264.26</ele>
        <time>2018-04-11T09:40:33Z</time>
      </trkpt>
      <trkpt lat="47.69092" lon="6.02302">
        <ele>264.05</ele>
        <time>2018-04-11T09:40:35Z</time>
      </trkpt>
      <trkpt lat="47.69093" lon="6.02314">
        <ele>263.63</ele>
        <time>2018-04-11T09:40:37Z</time>
      </trkpt>
      <trkpt lat="47.69093" lon="6.02327">
        <ele>263.31</ele>
        <time>2018-04-11T09:40:39Z</time>
      </trkpt>
      <trkpt lat="47.69093" lon="6.02338">
        <ele>263.05</ele>
        <time>2018-04-11T09:40:41Z</time>
      </trkpt>
      <trkpt lat="47.69093" lon="6.02349">
        <ele>262.81</ele>
        <time>2018-04-11T09:40:43Z</time>
      </trkpt>
      <trkpt lat="47.69093" lon="6.0236">
        <ele>262.57</ele>
        <time>2018-04-11T09:40:45Z</time>
      </trkpt>
      <trkpt lat="47.69093" lon="6.02371">
        <ele>262.33</ele>
        <time>2018-04-11T09:40:47Z</time>
      </trkpt>
      <trkpt lat="47.69092" lon="6.02382">
        <ele>262.1</ele>
        <time>2018-04-11T09:40:49Z</time>
      </trkpt>
      <trkpt lat="47.69091" lon="6.02394">
        <ele>261.9</ele>
        <time>2018-04-11T09:40:51Z</time>
      </trkpt>
      <trkpt lat="47.69091" lon="6.02407">
        <ele>261.7</ele>
        <time>2018-04-11T09:40:53Z</time>
      </trkpt>
      <trkpt lat="47.69092" lon="6.02414">
        <ele>261.6</ele>
        <time>2018-04-11T09:40:54Z</time>
      </trkpt>
      <trkpt lat="47.69092" lon="6.0242">
        <ele>261.51</ele>
        <time>2018-04-11T09:40:55Z</time>
      </trkpt>
      <trkpt lat="47.69092" lon="6.02428">
        <ele>261.4</ele>
        <time>2018-04-11T09:40:56Z</time>
      </trkpt>
      <trkpt lat="47.69092" lon="6.02435">
        <ele>261.31</ele>
        <time>2018-04-11T09:40:57Z</time>
      </trkpt>
      <trkpt lat="47.69092" lon="6.02442">
        <ele>261.2</ele>
        <time>2018-04-11T09:40:58Z</time>
      </trkpt>
      <trkpt lat="47.69092" lon="6.02449">
        <ele>261.09</ele>
        <time>2018-04-11T09:40:59Z</time>
      </trkpt>
      <trkpt lat="47.69092" lon="6.02456">
        <ele>261</ele>
        <time>2018-04-11T09:41:00Z</time>
      </trkpt>
      <trkpt lat="47.69092" lon="6.02463">
        <ele>260.91</ele>
        <time>2018-04-11T09:41:01Z</time>
      </trkpt>
      <trkpt lat="47.69092" lon="6.0247">
        <ele>260.83</ele>
        <time>2018-04-11T09:41:02Z</time>
      </trkpt>
      <trkpt lat="47.69092" lon="6.02478">
        <ele>260.76</ele>
        <time>2018-04-11T09:41:03Z</time>
      </trkpt>
      <trkpt lat="47.69092" lon="6.02486">
        <ele>260.7</ele>
        <time>2018-04-11T09:41:04Z</time>
      </trkpt>
      <trkpt lat="47.69092" lon="6.02493">
        <ele>260.63</ele>
        <time>2018-04-11T09:41:05Z</time>
      </trkpt>
      <trkpt lat="47.6909" lon="6.02501">
        <ele>260.55</ele>
        <time>2018-04-11T09:41:06Z</time>
      </trkpt>
      <trkpt lat="47.69088" lon="6.02509">
        <ele>260.46</ele>
        <time>2018-04-11T09:41:07Z</time>
      </trkpt>
      <trkpt lat="47.69085" lon="6.02515">
        <ele>260.34</ele>
        <time>2018-04-11T09:41:08Z</time>
      </trkpt>
      <trkpt lat="47.69082" lon="6.02521">
        <ele>260.2</ele>
        <time>2018-04-11T09:41:09Z</time>
      </trkpt>
      <trkpt lat="47.6908" lon="6.02527">
        <ele>260.05</ele>
        <time>2018-04-11T09:41:10Z</time>
      </trkpt>
      <trkpt lat="47.69078" lon="6.02534">
        <ele>259.92</ele>
        <time>2018-04-11T09:41:11Z</time>
      </trkpt>
      <trkpt lat="47.69077" lon="6.02541">
        <ele>259.8</ele>
        <time>2018-04-11T09:41:12Z</time>
      </trkpt>
      <trkpt lat="47.69077" lon="6.02549">
        <ele>259.69</ele>
        <time>2018-04-11T09:41:13Z</time>
      </trkpt>
      <trkpt lat="47.69077" lon="6.02557">
        <ele>259.58</ele>
        <time>2018-04-11T09:41:14Z</time>
      </trkpt>
      <trkpt lat="47.69078" lon="6.02564">
        <ele>259.47</ele>
        <time>2018-04-11T09:41:15Z</time>
      </trkpt>
      <trkpt lat="47.6908" lon="6.02571">
        <ele>259.38</ele>
        <time>2018-04-11T09:41:16Z</time>
      </trkpt>
      <trkpt lat="47.69084" lon="6.02581">
        <ele>259.21</ele>
        <time>2018-04-11T09:41:18Z</time>
      </trkpt>
      <trkpt lat="47.6909" lon="6.02591">
        <ele>259.03</ele>
        <time>2018-04-11T09:41:20Z</time>
      </trkpt>
      <trkpt lat="47.69094" lon="6.02602">
        <ele>258.87</ele>
        <time>2018-04-11T09:41:22Z</time>
      </trkpt>
      <trkpt lat="47.69095" lon="6.02609">
        <ele>258.79</ele>
        <time>2018-04-11T09:41:23Z</time>
      </trkpt>
      <trkpt lat="47.69096" lon="6.02616">
        <ele>258.7</ele>
        <time>2018-04-11T09:41:24Z</time>
      </trkpt>
      <trkpt lat="47.69097" lon="6.02624">
        <ele>258.61</ele>
        <time>2018-04-11T09:41:25Z</time>
      </trkpt>
      <trkpt lat="47.69098" lon="6.02632">
        <ele>258.53</ele>
        <time>2018-04-11T09:41:26Z</time>
      </trkpt>
      <trkpt lat="47.69098" lon="6.0264">
        <ele>258.44</ele>
        <time>2018-04-11T09:41:27Z</time>
      </trkpt>
      <trkpt lat="47.69098" lon="6.02647">
        <ele>258.35</ele>
        <time>2018-04-11T09:41:28Z</time>
      </trkpt>
      <trkpt lat="47.69099" lon="6.02655">
        <ele>258.25</ele>
        <time>2018-04-11T09:41:29Z</time>
      </trkpt>
      <trkpt lat="47.691" lon="6.02663">
        <ele>258.15</ele>
        <time>2018-04-11T09:41:30Z</time>
      </trkpt>
      <trkpt lat="47.691" lon="6.0267">
        <ele>258.05</ele>
        <time>2018-04-11T09:41:31Z</time>
      </trkpt>
      <trkpt lat="47.69101" lon="6.02678">
        <ele>257.96</ele>
        <time>2018-04-11T09:41:32Z</time>
      </trkpt>
      <trkpt lat="47.69101" lon="6.02685">
        <ele>257.86</ele>
        <time>2018-04-11T09:41:33Z</time>
      </trkpt>
      <trkpt lat="47.69101" lon="6.02692">
        <ele>257.78</ele>
        <time>2018-04-11T09:41:34Z</time>
      </trkpt>
      <trkpt lat="47.69101" lon="6.02699">
        <ele>257.7</ele>
        <time>2018-04-11T09:41:35Z</time>
      </trkpt>
      <trkpt lat="47.69102" lon="6.0271">
        <ele>257.57</ele>
        <time>2018-04-11T09:41:37Z</time>
      </trkpt>
      <trkpt lat="47.69102" lon="6.02723">
        <ele>257.46</ele>
        <time>2018-04-11T09:41:39Z</time>
      </trkpt>
      <trkpt lat="47.69103" lon="6.02735">
        <ele>257.38</ele>
        <time>2018-04-11T09:41:41Z</time>
      </trkpt>
      <trkpt lat="47.69104" lon="6.02749">
        <ele>257.29</ele>
        <time>2018-04-11T09:41:43Z</time>
      </trkpt>
      <trkpt lat="47.69105" lon="6.02756">
        <ele>257.25</ele>
        <time>2018-04-11T09:41:44Z</time>
      </trkpt>
      <trkpt lat="47.69105" lon="6.02763">
        <ele>257.2</ele>
        <time>2018-04-11T09:41:45Z</time>
      </trkpt>
      <trkpt lat="47.69105" lon="6.0277">
        <ele>257.16</ele>
        <time>2018-04-11T09:41:46Z</time>
      </trkpt>
      <trkpt lat="47.69106" lon="6.02778">
        <ele>257.11</ele>
        <time>2018-04-11T09:41:47Z</time>
      </trkpt>
      <trkpt lat="47.69106" lon="6.02785">
        <ele>257.07</ele>
        <time>2018-04-11T09:41:48Z</time>
      </trkpt>
      <trkpt lat="47.69106" lon="6.02793">
        <ele>257.02</ele>
        <time>2018-04-11T09:41:49Z</time>
      </trkpt>
      <trkpt lat="47.69106" lon="6.02801">
        <ele>256.98</ele>
        <time>2018-04-11T09:41:50Z</time>
      </trkpt>
      <trkpt lat="47.69106" lon="6.02809">
        <ele>256.94</ele>
        <time>2018-04-11T09:41:51Z</time>
      </trkpt>
      <trkpt lat="47.69107" lon="6.02818">
        <ele>256.89</ele>
        <time>2018-04-11T09:41:52Z</time>
      </trkpt>
      <trkpt lat="47.69107" lon="6.02827">
        <ele>256.86</ele>
        <time>2018-04-11T09:41:53Z</time>
      </trkpt>
      <trkpt lat="47.69107" lon="6.02836">
        <ele>256.82</ele>
        <time>2018-04-11T09:41:54Z</time>
      </trkpt>
      <trkpt lat="47.69107" lon="6.02845">
        <ele>256.79</ele>
        <time>2018-04-11T09:41:55Z</time>
      </trkpt>
      <trkpt lat="47.69107" lon="6.02853">
        <ele>256.76</ele>
        <time>2018-04-11T09:41:56Z</time>
      </trkpt>
      <trkpt lat="47.69107" lon="6.02861">
        <ele>256.73</ele>
        <time>2018-04-11T09:41:57Z</time>
      </trkpt>
      <trkpt lat="47.69107" lon="6.0287">
        <ele>256.7</ele>
        <time>2018-04-11T09:41:58Z</time>
      </trkpt>
      <trkpt lat="47.69108" lon="6.02877">
        <ele>256.67</ele>
        <time>2018-04-11T09:41:59Z</time>
      </trkpt>
      <trkpt lat="47.69108" lon="6.02885">
        <ele>256.65</ele>
        <time>2018-04-11T09:42:00Z</time>
      </trkpt>
      <trkpt lat="47.69108" lon="6.02893">
        <ele>256.62</ele>
        <time>2018-04-11T09:42:01Z</time>
      </trkpt>
      <trkpt lat="47.69108" lon="6.02901">
        <ele>256.58</ele>
        <time>2018-04-11T09:42:02Z</time>
      </trkpt>
      <trkpt lat="47.69109" lon="6.02909">
        <ele>256.54</ele>
        <time>2018-04-11T09:42:03Z</time>
      </trkpt>
      <trkpt lat="47.6911" lon="6.02916">
        <ele>256.46</ele>
        <time>2018-04-11T09:42:04Z</time>
      </trkpt>
      <trkpt lat="47.6911" lon="6.02924">
        <ele>256.37</ele>
        <time>2018-04-11T09:42:05Z</time>
      </trkpt>
      <trkpt lat="47.6911" lon="6.02932">
        <ele>256.29</ele>
        <time>2018-04-11T09:42:06Z</time>
      </trkpt>
      <trkpt lat="47.69111" lon="6.0294">
        <ele>256.22</ele>
        <time>2018-04-11T09:42:07Z</time>
      </trkpt>
      <trkpt lat="47.69111" lon="6.02948">
        <ele>256.15</ele>
        <time>2018-04-11T09:42:08Z</time>
      </trkpt>
      <trkpt lat="47.69112" lon="6.02957">
        <ele>256.07</ele>
        <time>2018-04-11T09:42:09Z</time>
      </trkpt>
      <trkpt lat="47.69112" lon="6.02966">
        <ele>255.97</ele>
        <time>2018-04-11T09:42:10Z</time>
      </trkpt>
      <trkpt lat="47.69113" lon="6.0298">
        <ele>255.78</ele>
        <time>2018-04-11T09:42:12Z</time>
      </trkpt>
      <trkpt lat="47.69115" lon="6.02991">
        <ele>255.63</ele>
        <time>2018-04-11T09:42:14Z</time>
      </trkpt>
      <trkpt lat="47.69117" lon="6.03002">
        <ele>255.56</ele>
        <time>2018-04-11T09:42:16Z</time>
      </trkpt>
      <trkpt lat="47.69117" lon="6.03014">
        <ele>255.51</ele>
        <time>2018-04-11T09:42:18Z</time>
      </trkpt>
      <trkpt lat="47.69117" lon="6.03025">
        <ele>255.47</ele>
        <time>2018-04-11T09:42:20Z</time>
      </trkpt>
      <trkpt lat="47.69118" lon="6.03037">
        <ele>255.41</ele>
        <time>2018-04-11T09:42:22Z</time>
      </trkpt>
      <trkpt lat="47.69118" lon="6.03047">
        <ele>255.36</ele>
        <time>2018-04-11T09:42:24Z</time>
      </trkpt>
      <trkpt lat="47.69119" lon="6.03058">
        <ele>255.3</ele>
        <time>2018-04-11T09:42:26Z</time>
      </trkpt>
      <trkpt lat="47.6912" lon="6.0307">
        <ele>254.81</ele>
        <time>2018-04-11T09:42:28Z</time>
      </trkpt>
      <trkpt lat="47.69122" lon="6.03082">
        <ele>254.48</ele>
        <time>2018-04-11T09:42:30Z</time>
      </trkpt>
      <trkpt lat="47.69126" lon="6.03093">
        <ele>254.25</ele>
        <time>2018-04-11T09:42:32Z</time>
      </trkpt>
      <trkpt lat="47.69129" lon="6.03104">
        <ele>254.2</ele>
        <time>2018-04-11T09:42:34Z</time>
      </trkpt>
      <trkpt lat="47.69131" lon="6.03114">
        <ele>253.9</ele>
        <time>2018-04-11T09:42:36Z</time>
      </trkpt>
      <trkpt lat="47.69133" lon="6.03126">
        <ele>253.63</ele>
        <time>2018-04-11T09:42:38Z</time>
      </trkpt>
      <trkpt lat="47.69134" lon="6.03133">
        <ele>253.5</ele>
        <time>2018-04-11T09:42:39Z</time>
      </trkpt>
      <trkpt lat="47.69135" lon="6.0314">
        <ele>253.38</ele>
        <time>2018-04-11T09:42:40Z</time>
      </trkpt>
      <trkpt lat="47.69137" lon="6.03147">
        <ele>253.26</ele>
        <time>2018-04-11T09:42:41Z</time>
      </trkpt>
      <trkpt lat="47.69138" lon="6.03155">
        <ele>253.15</ele>
        <time>2018-04-11T09:42:42Z</time>
      </trkpt>
      <trkpt lat="47.69139" lon="6.03163">
        <ele>253.05</ele>
        <time>2018-04-11T09:42:43Z</time>
      </trkpt>
      <trkpt lat="47.6914" lon="6.03172">
        <ele>252.95</ele>
        <time>2018-04-11T09:42:44Z</time>
      </trkpt>
      <trkpt lat="47.69141" lon="6.03181">
        <ele>252.85</ele>
        <time>2018-04-11T09:42:45Z</time>
      </trkpt>
      <trkpt lat="47.69142" lon="6.03191">
        <ele>252.75</ele>
        <time>2018-04-11T09:42:46Z</time>
      </trkpt>
      <trkpt lat="47.69143" lon="6.03201">
        <ele>252.65</ele>
        <time>2018-04-11T09:42:47Z</time>
      </trkpt>
      <trkpt lat="47.69145" lon="6.03211">
        <ele>252.54</ele>
        <time>2018-04-11T09:42:48Z</time>
      </trkpt>
      <trkpt lat="47.69147" lon="6.03223">
        <ele>252.44</ele>
        <time>2018-04-11T09:42:49Z</time>
      </trkpt>
      <trkpt lat="47.69148" lon="6.03234">
        <ele>252.34</ele>
        <time>2018-04-11T09:42:50Z</time>
      </trkpt>
      <trkpt lat="47.69149" lon="6.03246">
        <ele>252.23</ele>
        <time>2018-04-11T09:42:51Z</time>
      </trkpt>
      <trkpt lat="47.6915" lon="6.03258">
        <ele>252.12</ele>
        <time>2018-04-11T09:42:52Z</time>
      </trkpt>
      <trkpt lat="47.69151" lon="6.03271">
        <ele>251.97</ele>
        <time>2018-04-11T09:42:53Z</time>
      </trkpt>
      <trkpt lat="47.6915" lon="6.03285">
        <ele>251.67</ele>
        <time>2018-04-11T09:42:54Z</time>
      </trkpt>
      <trkpt lat="47.69151" lon="6.03299">
        <ele>251.34</ele>
        <time>2018-04-11T09:42:55Z</time>
      </trkpt>
      <trkpt lat="47.6915" lon="6.03314">
        <ele>251.04</ele>
        <time>2018-04-11T09:42:56Z</time>
      </trkpt>
      <trkpt lat="47.69152" lon="6.03329">
        <ele>250.71</ele>
        <time>2018-04-11T09:42:57Z</time>
      </trkpt>
      <trkpt lat="47.69152" lon="6.03346">
        <ele>250.39</ele>
        <time>2018-04-11T09:42:58Z</time>
      </trkpt>
      <trkpt lat="47.69152" lon="6.03362">
        <ele>250.09</ele>
        <time>2018-04-11T09:42:59Z</time>
      </trkpt>
      <trkpt lat="47.69153" lon="6.03378">
        <ele>249.84</ele>
        <time>2018-04-11T09:43:00Z</time>
      </trkpt>
      <trkpt lat="47.69154" lon="6.03394">
        <ele>249.61</ele>
        <time>2018-04-11T09:43:01Z</time>
      </trkpt>
      <trkpt lat="47.69156" lon="6.0341">
        <ele>249.3</ele>
        <time>2018-04-11T09:43:02Z</time>
      </trkpt>
      <trkpt lat="47.69158" lon="6.03426">
        <ele>248.89</ele>
        <time>2018-04-11T09:43:03Z</time>
      </trkpt>
      <trkpt lat="47.6916" lon="6.03442">
        <ele>248.45</ele>
        <time>2018-04-11T09:43:04Z</time>
      </trkpt>
      <trkpt lat="47.69159" lon="6.03459">
        <ele>248.03</ele>
        <time>2018-04-11T09:43:05Z</time>
      </trkpt>
      <trkpt lat="47.69158" lon="6.03475">
        <ele>247.56</ele>
        <time>2018-04-11T09:43:06Z</time>
      </trkpt>
      <trkpt lat="47.69159" lon="6.03491">
        <ele>246.99</ele>
        <time>2018-04-11T09:43:07Z</time>
      </trkpt>
      <trkpt lat="47.69159" lon="6.03507">
        <ele>246.37</ele>
        <time>2018-04-11T09:43:08Z</time>
      </trkpt>
      <trkpt lat="47.6916" lon="6.03524">
        <ele>245.75</ele>
        <time>2018-04-11T09:43:09Z</time>
      </trkpt>
      <trkpt lat="47.6916" lon="6.03541">
        <ele>245.25</ele>
        <time>2018-04-11T09:43:10Z</time>
      </trkpt>
      <trkpt lat="47.69158" lon="6.03557">
        <ele>244.73</ele>
        <time>2018-04-11T09:43:11Z</time>
      </trkpt>
      <trkpt lat="47.69154" lon="6.03573">
        <ele>244.16</ele>
        <time>2018-04-11T09:43:12Z</time>
      </trkpt>
      <trkpt lat="47.69151" lon="6.03589">
        <ele>243.52</ele>
        <time>2018-04-11T09:43:13Z</time>
      </trkpt>
      <trkpt lat="47.69147" lon="6.03604">
        <ele>242.82</ele>
        <time>2018-04-11T09:43:14Z</time>
      </trkpt>
      <trkpt lat="47.69143" lon="6.03619">
        <ele>242.12</ele>
        <time>2018-04-11T09:43:15Z</time>
      </trkpt>
      <trkpt lat="47.6914" lon="6.03634">
        <ele>241.41</ele>
        <time>2018-04-11T09:43:16Z</time>
      </trkpt>
      <trkpt lat="47.69136" lon="6.03649">
        <ele>240.64</ele>
        <time>2018-04-11T09:43:17Z</time>
      </trkpt>
      <trkpt lat="47.69133" lon="6.03664">
        <ele>239.86</ele>
        <time>2018-04-11T09:43:18Z</time>
      </trkpt>
      <trkpt lat="47.69128" lon="6.03678">
        <ele>239.2</ele>
        <time>2018-04-11T09:43:19Z</time>
      </trkpt>
      <trkpt lat="47.69124" lon="6.03692">
        <ele>238.61</ele>
        <time>2018-04-11T09:43:20Z</time>
      </trkpt>
      <trkpt lat="47.69121" lon="6.03707">
        <ele>238.13</ele>
        <time>2018-04-11T09:43:21Z</time>
      </trkpt>
      <trkpt lat="47.69117" lon="6.0372">
        <ele>237.7</ele>
        <time>2018-04-11T09:43:22Z</time>
      </trkpt>
      <trkpt lat="47.69114" lon="6.03733">
        <ele>237.24</ele>
        <time>2018-04-11T09:43:23Z</time>
      </trkpt>
      <trkpt lat="47.69111" lon="6.03745">
        <ele>236.83</ele>
        <time>2018-04-11T09:43:24Z</time>
      </trkpt>
      <trkpt lat="47.69108" lon="6.03757">
        <ele>236.41</ele>
        <time>2018-04-11T09:43:25Z</time>
      </trkpt>
      <trkpt lat="47.69106" lon="6.03769">
        <ele>235.95</ele>
        <time>2018-04-11T09:43:26Z</time>
      </trkpt>
      <trkpt lat="47.69103" lon="6.0378">
        <ele>235.51</ele>
        <time>2018-04-11T09:43:27Z</time>
      </trkpt>
      <trkpt lat="47.691" lon="6.03789">
        <ele>235.04</ele>
        <time>2018-04-11T09:43:28Z</time>
      </trkpt>
      <trkpt lat="47.69096" lon="6.03798">
        <ele>234.52</ele>
        <time>2018-04-11T09:43:29Z</time>
      </trkpt>
      <trkpt lat="47.69093" lon="6.03807">
        <ele>233.97</ele>
        <time>2018-04-11T09:43:30Z</time>
      </trkpt>
      <trkpt lat="47.69091" lon="6.03815">
        <ele>233.44</ele>
        <time>2018-04-11T09:43:31Z</time>
      </trkpt>
      <trkpt lat="47.69088" lon="6.03822">
        <ele>233</ele>
        <time>2018-04-11T09:43:32Z</time>
      </trkpt>
      <trkpt lat="47.69085" lon="6.03829">
        <ele>232.6</ele>
        <time>2018-04-11T09:43:33Z</time>
      </trkpt>
      <trkpt lat="47.69082" lon="6.03836">
        <ele>232.26</ele>
        <time>2018-04-11T09:43:34Z</time>
      </trkpt>
      <trkpt lat="47.69079" lon="6.03843">
        <ele>232.01</ele>
        <time>2018-04-11T09:43:35Z</time>
      </trkpt>
      <trkpt lat="47.69076" lon="6.03851">
        <ele>231.81</ele>
        <time>2018-04-11T09:43:36Z</time>
      </trkpt>
      <trkpt lat="47.69072" lon="6.03859">
        <ele>231.65</ele>
        <time>2018-04-11T09:43:37Z</time>
      </trkpt>
      <trkpt lat="47.69069" lon="6.03866">
        <ele>231.51</ele>
        <time>2018-04-11T09:43:38Z</time>
      </trkpt>
      <trkpt lat="47.69066" lon="6.03873">
        <ele>231.36</ele>
        <time>2018-04-11T09:43:39Z</time>
      </trkpt>
      <trkpt lat="47.69063" lon="6.0388">
        <ele>231.22</ele>
        <time>2018-04-11T09:43:40Z</time>
      </trkpt>
      <trkpt lat="47.6906" lon="6.03887">
        <ele>231.07</ele>
        <time>2018-04-11T09:43:41Z</time>
      </trkpt>
      <trkpt lat="47.69057" lon="6.03893">
        <ele>230.95</ele>
        <time>2018-04-11T09:43:42Z</time>
      </trkpt>
      <trkpt lat="47.69054" lon="6.039">
        <ele>230.82</ele>
        <time>2018-04-11T09:43:43Z</time>
      </trkpt>
      <trkpt lat="47.69051" lon="6.03906">
        <ele>230.63</ele>
        <time>2018-04-11T09:43:44Z</time>
      </trkpt>
      <trkpt lat="47.69047" lon="6.03914">
        <ele>230.45</ele>
        <time>2018-04-11T09:43:45Z</time>
      </trkpt>
      <trkpt lat="47.69044" lon="6.03921">
        <ele>230.25</ele>
        <time>2018-04-11T09:43:46Z</time>
      </trkpt>
      <trkpt lat="47.69041" lon="6.03928">
        <ele>230.04</ele>
        <time>2018-04-11T09:43:47Z</time>
      </trkpt>
      <trkpt lat="47.69037" lon="6.03935">
        <ele>229.83</ele>
        <time>2018-04-11T09:43:48Z</time>
      </trkpt>
      <trkpt lat="47.69034" lon="6.03943">
        <ele>229.64</ele>
        <time>2018-04-11T09:43:49Z</time>
      </trkpt>
      <trkpt lat="47.69031" lon="6.0395">
        <ele>229.45</ele>
        <time>2018-04-11T09:43:50Z</time>
      </trkpt>
      <trkpt lat="47.69028" lon="6.03957">
        <ele>229.24</ele>
        <time>2018-04-11T09:43:51Z</time>
      </trkpt>
      <trkpt lat="47.69025" lon="6.03965">
        <ele>229.06</ele>
        <time>2018-04-11T09:43:52Z</time>
      </trkpt>
      <trkpt lat="47.69021" lon="6.03973">
        <ele>228.91</ele>
        <time>2018-04-11T09:43:53Z</time>
      </trkpt>
      <trkpt lat="47.69018" lon="6.03981">
        <ele>228.76</ele>
        <time>2018-04-11T09:43:54Z</time>
      </trkpt>
      <trkpt lat="47.69015" lon="6.03989">
        <ele>228.61</ele>
        <time>2018-04-11T09:43:55Z</time>
      </trkpt>
      <trkpt lat="47.69012" lon="6.03997">
        <ele>228.38</ele>
        <time>2018-04-11T09:43:56Z</time>
      </trkpt>
      <trkpt lat="47.69009" lon="6.04003">
        <ele>228.01</ele>
        <time>2018-04-11T09:43:57Z</time>
      </trkpt>
      <trkpt lat="47.69006" lon="6.04011">
        <ele>227.62</ele>
        <time>2018-04-11T09:43:58Z</time>
      </trkpt>
      <trkpt lat="47.69004" lon="6.04018">
        <ele>227.12</ele>
        <time>2018-04-11T09:43:59Z</time>
      </trkpt>
      <trkpt lat="47.69001" lon="6.04025">
        <ele>226.58</ele>
        <time>2018-04-11T09:44:00Z</time>
      </trkpt>
      <trkpt lat="47.68998" lon="6.04032">
        <ele>225.97</ele>
        <time>2018-04-11T09:44:01Z</time>
      </trkpt>
      <trkpt lat="47.68995" lon="6.0404">
        <ele>225.37</ele>
        <time>2018-04-11T09:44:02Z</time>
      </trkpt>
      <trkpt lat="47.68993" lon="6.04048">
        <ele>224.8</ele>
        <time>2018-04-11T09:44:03Z</time>
      </trkpt>
      <trkpt lat="47.6899" lon="6.04056">
        <ele>224.25</ele>
        <time>2018-04-11T09:44:04Z</time>
      </trkpt>
      <trkpt lat="47.68987" lon="6.04063">
        <ele>223.75</ele>
        <time>2018-04-11T09:44:05Z</time>
      </trkpt>
      <trkpt lat="47.68985" lon="6.04071">
        <ele>223.28</ele>
        <time>2018-04-11T09:44:06Z</time>
      </trkpt>
      <trkpt lat="47.68982" lon="6.04078">
        <ele>222.86</ele>
        <time>2018-04-11T09:44:07Z</time>
      </trkpt>
      <trkpt lat="47.68979" lon="6.04086">
        <ele>222.47</ele>
        <time>2018-04-11T09:44:08Z</time>
      </trkpt>
      <trkpt lat="47.68976" lon="6.04094">
        <ele>222.11</ele>
        <time>2018-04-11T09:44:09Z</time>
      </trkpt>
      <trkpt lat="47.68973" lon="6.04101">
        <ele>221.82</ele>
        <time>2018-04-11T09:44:10Z</time>
      </trkpt>
      <trkpt lat="47.6897" lon="6.04108">
        <ele>221.57</ele>
        <time>2018-04-11T09:44:11Z</time>
      </trkpt>
      <trkpt lat="47.68967" lon="6.04116">
        <ele>221.38</ele>
        <time>2018-04-11T09:44:12Z</time>
      </trkpt>
      <trkpt lat="47.68965" lon="6.04122">
        <ele>221.22</ele>
        <time>2018-04-11T09:44:13Z</time>
      </trkpt>
      <trkpt lat="47.68963" lon="6.04128">
        <ele>221.07</ele>
        <time>2018-04-11T09:44:14Z</time>
      </trkpt>
      <trkpt lat="47.6896" lon="6.04135">
        <ele>220.96</ele>
        <time>2018-04-11T09:44:15Z</time>
      </trkpt>
      <trkpt lat="47.68957" lon="6.04142">
        <ele>220.85</ele>
        <time>2018-04-11T09:44:16Z</time>
      </trkpt>
      <trkpt lat="47.68955" lon="6.0415">
        <ele>220.72</ele>
        <time>2018-04-11T09:44:17Z</time>
      </trkpt>
      <trkpt lat="47.68952" lon="6.04156">
        <ele>220.56</ele>
        <time>2018-04-11T09:44:18Z</time>
      </trkpt>
      <trkpt lat="47.68949" lon="6.04163">
        <ele>220.39</ele>
        <time>2018-04-11T09:44:19Z</time>
      </trkpt>
      <trkpt lat="47.68946" lon="6.0417">
        <ele>220.21</ele>
        <time>2018-04-11T09:44:20Z</time>
      </trkpt>
      <trkpt lat="47.68943" lon="6.04177">
        <ele>220.05</ele>
        <time>2018-04-11T09:44:21Z</time>
      </trkpt>
      <trkpt lat="47.6894" lon="6.04184">
        <ele>219.9</ele>
        <time>2018-04-11T09:44:22Z</time>
      </trkpt>
      <trkpt lat="47.68937" lon="6.04191">
        <ele>219.76</ele>
        <time>2018-04-11T09:44:23Z</time>
      </trkpt>
      <trkpt lat="47.68933" lon="6.04198">
        <ele>219.62</ele>
        <time>2018-04-11T09:44:24Z</time>
      </trkpt>
      <trkpt lat="47.68931" lon="6.04205">
        <ele>219.49</ele>
        <time>2018-04-11T09:44:25Z</time>
      </trkpt>
      <trkpt lat="47.68928" lon="6.04212">
        <ele>219.38</ele>
        <time>2018-04-11T09:44:26Z</time>
      </trkpt>
      <trkpt lat="47.68926" lon="6.04219">
        <ele>219.27</ele>
        <time>2018-04-11T09:44:27Z</time>
      </trkpt>
      <trkpt lat="47.68923" lon="6.04225">
        <ele>219.19</ele>
        <time>2018-04-11T09:44:28Z</time>
      </trkpt>
      <trkpt lat="47.6892" lon="6.04232">
        <ele>219.11</ele>
        <time>2018-04-11T09:44:29Z</time>
      </trkpt>
      <trkpt lat="47.68918" lon="6.04237">
        <ele>219.08</ele>
        <time>2018-04-11T09:44:30Z</time>
      </trkpt>
      <trkpt lat="47.68915" lon="6.04243">
        <ele>219.08</ele>
        <time>2018-04-11T09:44:31Z</time>
      </trkpt>
      <trkpt lat="47.68912" lon="6.04249">
        <ele>219.09</ele>
        <time>2018-04-11T09:44:32Z</time>
      </trkpt>
      <trkpt lat="47.68909" lon="6.04255">
        <ele>219.1</ele>
        <time>2018-04-11T09:44:33Z</time>
      </trkpt>
      <trkpt lat="47.68907" lon="6.04261">
        <ele>219.1</ele>
        <time>2018-04-11T09:44:34Z</time>
      </trkpt>
      <trkpt lat="47.68905" lon="6.04267">
        <ele>219.1</ele>
        <time>2018-04-11T09:44:35Z</time>
      </trkpt>
      <trkpt lat="47.68902" lon="6.04274">
        <ele>219.1</ele>
        <time>2018-04-11T09:44:36Z</time>
      </trkpt>
      <trkpt lat="47.689" lon="6.04281">
        <ele>219.09</ele>
        <time>2018-04-11T09:44:37Z</time>
      </trkpt>
      <trkpt lat="47.68897" lon="6.04287">
        <ele>219.09</ele>
        <time>2018-04-11T09:44:38Z</time>
      </trkpt>
      <trkpt lat="47.68894" lon="6.043">
        <ele>219</ele>
        <time>2018-04-11T09:44:40Z</time>
      </trkpt>
      <trkpt lat="47.68891" lon="6.04308">
        <ele>218.94</ele>
        <time>2018-04-11T09:44:41Z</time>
      </trkpt>
      <trkpt lat="47.68889" lon="6.04314">
        <ele>218.87</ele>
        <time>2018-04-11T09:44:42Z</time>
      </trkpt>
      <trkpt lat="47.68886" lon="6.0432">
        <ele>218.81</ele>
        <time>2018-04-11T09:44:43Z</time>
      </trkpt>
      <trkpt lat="47.68883" lon="6.04325">
        <ele>218.77</ele>
        <time>2018-04-11T09:44:44Z</time>
      </trkpt>
      <trkpt lat="47.68877" lon="6.04337">
        <ele>218.63</ele>
        <time>2018-04-11T09:44:46Z</time>
      </trkpt>
      <trkpt lat="47.68875" lon="6.04343">
        <ele>218.57</ele>
        <time>2018-04-11T09:44:47Z</time>
      </trkpt>
      <trkpt lat="47.68873" lon="6.0435">
        <ele>218.56</ele>
        <time>2018-04-11T09:44:48Z</time>
      </trkpt>
      <trkpt lat="47.6887" lon="6.04355">
        <ele>218.6</ele>
        <time>2018-04-11T09:44:49Z</time>
      </trkpt>
      <trkpt lat="47.68868" lon="6.04361">
        <ele>218.61</ele>
        <time>2018-04-11T09:44:50Z</time>
      </trkpt>
      <trkpt lat="47.68863" lon="6.04371">
        <ele>218.7</ele>
        <time>2018-04-11T09:44:52Z</time>
      </trkpt>
      <trkpt lat="47.68859" lon="6.04381">
        <ele>218.73</ele>
        <time>2018-04-11T09:44:54Z</time>
      </trkpt>
      <trkpt lat="47.68857" lon="6.04387">
        <ele>218.74</ele>
        <time>2018-04-11T09:44:55Z</time>
      </trkpt>
      <trkpt lat="47.68854" lon="6.04393">
        <ele>218.74</ele>
        <time>2018-04-11T09:44:56Z</time>
      </trkpt>
      <trkpt lat="47.68852" lon="6.04399">
        <ele>218.81</ele>
        <time>2018-04-11T09:44:57Z</time>
      </trkpt>
      <trkpt lat="47.68849" lon="6.04405">
        <ele>218.84</ele>
        <time>2018-04-11T09:44:58Z</time>
      </trkpt>
      <trkpt lat="47.68847" lon="6.04415">
        <ele>218.91</ele>
        <time>2018-04-11T09:45:00Z</time>
      </trkpt>
      <trkpt lat="47.68844" lon="6.04428">
        <ele>219.01</ele>
        <time>2018-04-11T09:45:02Z</time>
      </trkpt>
      <trkpt lat="47.68842" lon="6.04439">
        <ele>219.16</ele>
        <time>2018-04-11T09:45:04Z</time>
      </trkpt>
      <trkpt lat="47.68841" lon="6.04445">
        <ele>219.28</ele>
        <time>2018-04-11T09:45:05Z</time>
      </trkpt>
      <trkpt lat="47.6884" lon="6.04453">
        <ele>219.4</ele>
        <time>2018-04-11T09:45:06Z</time>
      </trkpt>
      <trkpt lat="47.68838" lon="6.04461">
        <ele>219.48</ele>
        <time>2018-04-11T09:45:07Z</time>
      </trkpt>
      <trkpt lat="47.68836" lon="6.0447">
        <ele>219.56</ele>
        <time>2018-04-11T09:45:08Z</time>
      </trkpt>
      <trkpt lat="47.68834" lon="6.04478">
        <ele>219.61</ele>
        <time>2018-04-11T09:45:09Z</time>
      </trkpt>
      <trkpt lat="47.68832" lon="6.04485">
        <ele>219.64</ele>
        <time>2018-04-11T09:45:10Z</time>
      </trkpt>
      <trkpt lat="47.6883" lon="6.04493">
        <ele>219.66</ele>
        <time>2018-04-11T09:45:11Z</time>
      </trkpt>
      <trkpt lat="47.68829" lon="6.04501">
        <ele>219.67</ele>
        <time>2018-04-11T09:45:12Z</time>
      </trkpt>
      <trkpt lat="47.68829" lon="6.0451">
        <ele>219.69</ele>
        <time>2018-04-11T09:45:13Z</time>
      </trkpt>
      <trkpt lat="47.68829" lon="6.04518">
        <ele>219.69</ele>
        <time>2018-04-11T09:45:14Z</time>
      </trkpt>
      <trkpt lat="47.68828" lon="6.04525">
        <ele>219.65</ele>
        <time>2018-04-11T09:45:15Z</time>
      </trkpt>
      <trkpt lat="47.68827" lon="6.04533">
        <ele>219.59</ele>
        <time>2018-04-11T09:45:16Z</time>
      </trkpt>
      <trkpt lat="47.68826" lon="6.04539">
        <ele>219.54</ele>
        <time>2018-04-11T09:45:17Z</time>
      </trkpt>
      <trkpt lat="47.68825" lon="6.04546">
        <ele>219.52</ele>
        <time>2018-04-11T09:45:18Z</time>
      </trkpt>
      <trkpt lat="47.68824" lon="6.04554">
        <ele>219.51</ele>
        <time>2018-04-11T09:45:19Z</time>
      </trkpt>
      <trkpt lat="47.68824" lon="6.04561">
        <ele>219.51</ele>
        <time>2018-04-11T09:45:20Z</time>
      </trkpt>
      <trkpt lat="47.68824" lon="6.04569">
        <ele>219.55</ele>
        <time>2018-04-11T09:45:21Z</time>
      </trkpt>
      <trkpt lat="47.68823" lon="6.04577">
        <ele>219.58</ele>
        <time>2018-04-11T09:45:22Z</time>
      </trkpt>
      <trkpt lat="47.68822" lon="6.04584">
        <ele>219.59</ele>
        <time>2018-04-11T09:45:23Z</time>
      </trkpt>
      <trkpt lat="47.68822" lon="6.04592">
        <ele>219.58</ele>
        <time>2018-04-11T09:45:24Z</time>
      </trkpt>
      <trkpt lat="47.68821" lon="6.04598">
        <ele>219.58</ele>
        <time>2018-04-11T09:45:25Z</time>
      </trkpt>
      <trkpt lat="47.68821" lon="6.04605">
        <ele>219.62</ele>
        <time>2018-04-11T09:45:26Z</time>
      </trkpt>
      <trkpt lat="47.68821" lon="6.04613">
        <ele>219.67</ele>
        <time>2018-04-11T09:45:27Z</time>
      </trkpt>
      <trkpt lat="47.6882" lon="6.0462">
        <ele>219.75</ele>
        <time>2018-04-11T09:45:28Z</time>
      </trkpt>
      <trkpt lat="47.6882" lon="6.04627">
        <ele>219.84</ele>
        <time>2018-04-11T09:45:29Z</time>
      </trkpt>
      <trkpt lat="47.68821" lon="6.04635">
        <ele>219.96</ele>
        <time>2018-04-11T09:45:30Z</time>
      </trkpt>
      <trkpt lat="47.68821" lon="6.04643">
        <ele>220.09</ele>
        <time>2018-04-11T09:45:31Z</time>
      </trkpt>
      <trkpt lat="47.68821" lon="6.04651">
        <ele>220.22</ele>
        <time>2018-04-11T09:45:32Z</time>
      </trkpt>
      <trkpt lat="47.6882" lon="6.04659">
        <ele>220.34</ele>
        <time>2018-04-11T09:45:33Z</time>
      </trkpt>
      <trkpt lat="47.6882" lon="6.04667">
        <ele>220.44</ele>
        <time>2018-04-11T09:45:34Z</time>
      </trkpt>
      <trkpt lat="47.6882" lon="6.04675">
        <ele>220.51</ele>
        <time>2018-04-11T09:45:35Z</time>
      </trkpt>
      <trkpt lat="47.6882" lon="6.04683">
        <ele>220.55</ele>
        <time>2018-04-11T09:45:36Z</time>
      </trkpt>
      <trkpt lat="47.68819" lon="6.0469">
        <ele>220.57</ele>
        <time>2018-04-11T09:45:37Z</time>
      </trkpt>
      <trkpt lat="47.68819" lon="6.04698">
        <ele>220.58</ele>
        <time>2018-04-11T09:45:38Z</time>
      </trkpt>
      <trkpt lat="47.68819" lon="6.04705">
        <ele>220.6</ele>
        <time>2018-04-11T09:45:39Z</time>
      </trkpt>
      <trkpt lat="47.68819" lon="6.04712">
        <ele>220.63</ele>
        <time>2018-04-11T09:45:40Z</time>
      </trkpt>
      <trkpt lat="47.68819" lon="6.0472">
        <ele>220.65</ele>
        <time>2018-04-11T09:45:41Z</time>
      </trkpt>
      <trkpt lat="47.68819" lon="6.04733">
        <ele>220.71</ele>
        <time>2018-04-11T09:45:43Z</time>
      </trkpt>
      <trkpt lat="47.68819" lon="6.0474">
        <ele>220.79</ele>
        <time>2018-04-11T09:45:44Z</time>
      </trkpt>
      <trkpt lat="47.68818" lon="6.04748">
        <ele>220.9</ele>
        <time>2018-04-11T09:45:45Z</time>
      </trkpt>
      <trkpt lat="47.68818" lon="6.04757">
        <ele>221.03</ele>
        <time>2018-04-11T09:45:46Z</time>
      </trkpt>
      <trkpt lat="47.68818" lon="6.04765">
        <ele>221.16</ele>
        <time>2018-04-11T09:45:47Z</time>
      </trkpt>
      <trkpt lat="47.68818" lon="6.04772">
        <ele>221.28</ele>
        <time>2018-04-11T09:45:48Z</time>
      </trkpt>
      <trkpt lat="47.68818" lon="6.04779">
        <ele>221.43</ele>
        <time>2018-04-11T09:45:49Z</time>
      </trkpt>
      <trkpt lat="47.68818" lon="6.04786">
        <ele>221.58</ele>
        <time>2018-04-11T09:45:50Z</time>
      </trkpt>
      <trkpt lat="47.68818" lon="6.04794">
        <ele>221.73</ele>
        <time>2018-04-11T09:45:51Z</time>
      </trkpt>
      <trkpt lat="47.68818" lon="6.04801">
        <ele>221.9</ele>
        <time>2018-04-11T09:45:52Z</time>
      </trkpt>
      <trkpt lat="47.68817" lon="6.04808">
        <ele>222.04</ele>
        <time>2018-04-11T09:45:53Z</time>
      </trkpt>
      <trkpt lat="47.68816" lon="6.04815">
        <ele>222.16</ele>
        <time>2018-04-11T09:45:54Z</time>
      </trkpt>
      <trkpt lat="47.68816" lon="6.04822">
        <ele>222.27</ele>
        <time>2018-04-11T09:45:55Z</time>
      </trkpt>
      <trkpt lat="47.68815" lon="6.04829">
        <ele>222.31</ele>
        <time>2018-04-11T09:45:56Z</time>
      </trkpt>
      <trkpt lat="47.68814" lon="6.0484">
        <ele>222.34</ele>
        <time>2018-04-11T09:45:58Z</time>
      </trkpt>
      <trkpt lat="47.68812" lon="6.04851">
        <ele>222.35</ele>
        <time>2018-04-11T09:46:00Z</time>
      </trkpt>
      <trkpt lat="47.68811" lon="6.04861">
        <ele>222.37</ele>
        <time>2018-04-11T09:46:02Z</time>
      </trkpt>
      <trkpt lat="47.68808" lon="6.04869">
        <ele>222.4</ele>
        <time>2018-04-11T09:46:04Z</time>
      </trkpt>
      <trkpt lat="47.68802" lon="6.04873">
        <ele>222.45</ele>
        <time>2018-04-11T09:46:06Z</time>
      </trkpt>
      <trkpt lat="47.68797" lon="6.04875">
        <ele>222.51</ele>
        <time>2018-04-11T09:46:08Z</time>
      </trkpt>
      <trkpt lat="47.68792" lon="6.04876">
        <ele>222.58</ele>
        <time>2018-04-11T09:46:10Z</time>
      </trkpt>
      <trkpt lat="47.68786" lon="6.04877">
        <ele>222.7</ele>
        <time>2018-04-11T09:46:13Z</time>
      </trkpt>
      <trkpt lat="47.68782" lon="6.04871">
        <ele>222.8</ele>
        <time>2018-04-11T09:46:15Z</time>
      </trkpt>
      <trkpt lat="47.68779" lon="6.04862">
        <ele>222.89</ele>
        <time>2018-04-11T09:46:17Z</time>
      </trkpt>
      <trkpt lat="47.68776" lon="6.0485">
        <ele>222.99</ele>
        <time>2018-04-11T09:46:19Z</time>
      </trkpt>
      <trkpt lat="47.68773" lon="6.0484">
        <ele>223.56</ele>
        <time>2018-04-11T09:46:21Z</time>
      </trkpt>
      <trkpt lat="47.6877" lon="6.0483">
        <ele>223.7</ele>
        <time>2018-04-11T09:46:23Z</time>
      </trkpt>
      <trkpt lat="47.68766" lon="6.04821">
        <ele>223.81</ele>
        <time>2018-04-11T09:46:25Z</time>
      </trkpt>
      <trkpt lat="47.68761" lon="6.04818">
        <ele>223.91</ele>
        <time>2018-04-11T09:46:27Z</time>
      </trkpt>
      <trkpt lat="47.68758" lon="6.04811">
        <ele>224.02</ele>
        <time>2018-04-11T09:46:29Z</time>
      </trkpt>
      <trkpt lat="47.68756" lon="6.04802">
        <ele>224.13</ele>
        <time>2018-04-11T09:46:31Z</time>
      </trkpt>
      <trkpt lat="47.68753" lon="6.04792">
        <ele>224.23</ele>
        <time>2018-04-11T09:46:33Z</time>
      </trkpt>
      <trkpt lat="47.68751" lon="6.04782">
        <ele>224.34</ele>
        <time>2018-04-11T09:46:35Z</time>
      </trkpt>
      <trkpt lat="47.68748" lon="6.04773">
        <ele>224.44</ele>
        <time>2018-04-11T09:46:37Z</time>
      </trkpt>
      <trkpt lat="47.68746" lon="6.04764">
        <ele>224.53</ele>
        <time>2018-04-11T09:46:39Z</time>
      </trkpt>
      <trkpt lat="47.68744" lon="6.04754">
        <ele>224.63</ele>
        <time>2018-04-11T09:46:41Z</time>
      </trkpt>
      <trkpt lat="47.68741" lon="6.04744">
        <ele>224.72</ele>
        <time>2018-04-11T09:46:43Z</time>
      </trkpt>
      <trkpt lat="47.68738" lon="6.04733">
        <ele>224.82</ele>
        <time>2018-04-11T09:46:45Z</time>
      </trkpt>
      <trkpt lat="47.68735" lon="6.04722">
        <ele>225.31</ele>
        <time>2018-04-11T09:46:47Z</time>
      </trkpt>
      <trkpt lat="47.68732" lon="6.04712">
        <ele>225.72</ele>
        <time>2018-04-11T09:46:49Z</time>
      </trkpt>
      <trkpt lat="47.68728" lon="6.04702">
        <ele>226.4</ele>
        <time>2018-04-11T09:46:51Z</time>
      </trkpt>
      <trkpt lat="47.68723" lon="6.04693">
        <ele>226.74</ele>
        <time>2018-04-11T09:46:53Z</time>
      </trkpt>
      <trkpt lat="47.68719" lon="6.04684">
        <ele>227.17</ele>
        <time>2018-04-11T09:46:55Z</time>
      </trkpt>
      <trkpt lat="47.68714" lon="6.04674">
        <ele>227.48</ele>
        <time>2018-04-11T09:46:57Z</time>
      </trkpt>
      <trkpt lat="47.68709" lon="6.04663">
        <ele>227.71</ele>
        <time>2018-04-11T09:46:59Z</time>
      </trkpt>
      <trkpt lat="47.68705" lon="6.04653">
        <ele>227.86</ele>
        <time>2018-04-11T09:47:01Z</time>
      </trkpt>
      <trkpt lat="47.687" lon="6.04644">
        <ele>227.9</ele>
        <time>2018-04-11T09:47:03Z</time>
      </trkpt>
      <trkpt lat="47.68696" lon="6.04635">
        <ele>227.96</ele>
        <time>2018-04-11T09:47:05Z</time>
      </trkpt>
      <trkpt lat="47.68692" lon="6.04625">
        <ele>228.05</ele>
        <time>2018-04-11T09:47:07Z</time>
      </trkpt>
      <trkpt lat="47.68688" lon="6.04614">
        <ele>228.11</ele>
        <time>2018-04-11T09:47:09Z</time>
      </trkpt>
      <trkpt lat="47.68685" lon="6.04602">
        <ele>228.14</ele>
        <time>2018-04-11T09:47:11Z</time>
      </trkpt>
      <trkpt lat="47.68681" lon="6.04591">
        <ele>228.15</ele>
        <time>2018-04-11T09:47:13Z</time>
      </trkpt>
      <trkpt lat="47.68679" lon="6.04585">
        <ele>228.15</ele>
        <time>2018-04-11T09:47:14Z</time>
      </trkpt>
      <trkpt lat="47.68675" lon="6.04576">
        <ele>228.15</ele>
        <time>2018-04-11T09:47:16Z</time>
      </trkpt>
      <trkpt lat="47.68672" lon="6.04568">
        <ele>228.15</ele>
        <time>2018-04-11T09:47:18Z</time>
      </trkpt>
      <trkpt lat="47.68666" lon="6.04561">
        <ele>228.15</ele>
        <time>2018-04-11T09:47:20Z</time>
      </trkpt>
      <trkpt lat="47.6866" lon="6.04554">
        <ele>228.11</ele>
        <time>2018-04-11T09:47:22Z</time>
      </trkpt>
      <trkpt lat="47.68654" lon="6.04549">
        <ele>228.1</ele>
        <time>2018-04-11T09:47:24Z</time>
      </trkpt>
      <trkpt lat="47.68647" lon="6.04543">
        <ele>228.06</ele>
        <time>2018-04-11T09:47:26Z</time>
      </trkpt>
      <trkpt lat="47.6864" lon="6.04538">
        <ele>228.04</ele>
        <time>2018-04-11T09:47:28Z</time>
      </trkpt>
      <trkpt lat="47.68633" lon="6.04539">
        <ele>228.04</ele>
        <time>2018-04-11T09:47:30Z</time>
      </trkpt>
      <trkpt lat="47.68629" lon="6.04545">
        <ele>228.04</ele>
        <time>2018-04-11T09:47:32Z</time>
      </trkpt>
      <trkpt lat="47.68629" lon="6.04552">
        <ele>228.05</ele>
        <time>2018-04-11T09:47:34Z</time>
      </trkpt>
      <trkpt lat="47.68626" lon="6.04546">
        <ele>228.13</ele>
        <time>2018-04-11T09:47:53Z</time>
      </trkpt>
      <trkpt lat="47.68621" lon="6.04541">
        <ele>228.14</ele>
        <time>2018-04-11T09:47:55Z</time>
      </trkpt>
      <trkpt lat="47.68616" lon="6.04539">
        <ele>228.15</ele>
        <time>2018-04-11T09:47:57Z</time>
      </trkpt>
    </trkseg>
  </trk>
</gpx>